UA91 / N2639U 7700 Squawk Report (18th of September, 2019)

Aircraft B77W Reg No. N2639U Age 2 years old
Model 777 Jet engines 2 First flight 30-03-17
Registered 30-05-17 Rollout N/A Delivered 30-05-17
Construction No. 62650 Line No. 1486 Series 300(ER)
ADSHEX A28DC8 Airline name United Airlines Owner N/A
Airfield based Chicago O`Hare~IL~N First tracked 2017-07-13 02:40:00

Flight history for N2639U

Time Lat Lon Altitude Heading Speed Vertical Rate
2019-09-19 02:12:48 GMT 50.919205 4.525848 75 246 164 -960
2019-09-19 02:12:45 GMT 50.920349 4.529930 125 246 164 -960
2019-09-19 02:12:42 GMT 50.920979 4.532013 150 246 165 -896
2019-09-19 02:12:32 GMT 50.924332 4.543610 300 246 166 -896
2019-09-19 02:12:22 GMT 50.927544 4.554749 425 246 166 -896
2019-09-19 02:12:13 GMT 50.930603 4.565413 600 246 168 -896
2019-09-19 02:12:05 GMT 50.932896 4.573364 725 246 169 -896
2019-09-19 02:12:02 GMT 50.933922 4.577103 750 246 168 -896
2019-09-19 02:11:55 GMT 50.935959 4.584045 850 246 169 -896
2019-09-19 02:11:52 GMT 50.937012 4.587757 950 246 171 -896
2019-09-19 02:11:45 GMT 50.939274 4.595642 1,000 246 173 -1024
2019-09-19 02:11:42 GMT 50.940628 4.600302 1,075 246 175 -832
2019-09-19 02:11:36 GMT 50.942871 4.608022 1,150 246 178 -768
2019-09-19 02:11:32 GMT 50.943790 4.611359 1,200 246 182 -1024
2019-09-19 02:11:25 GMT 50.946213 4.619899 1,325 246 182 -1024
2019-09-19 02:11:22 GMT 50.947311 4.623611 1,425 246 185 -1024
2019-09-19 02:11:15 GMT 50.949608 4.631805 1,500 247 188 -640
2019-09-19 02:11:12 GMT 50.950817 4.636154 1,525 247 187 -384
2019-09-19 02:11:05 GMT 50.953217 4.644916 1,850 246 191 -128
2019-09-19 02:11:01 GMT 50.954407 4.649147 1,525 246 193 -192
2019-09-19 02:10:54 GMT 50.957794 4.660282 1,575 239 200 -768
2019-09-19 02:10:51 GMT 50.958454 4.662170 1,675 237 202 -832
2019-09-19 02:10:42 GMT 50.963928 4.674534 1,750 232 205 -832
2019-09-19 02:10:33 GMT 50.968788 4.684143 1,850 232 211 -640
2019-09-19 02:10:22 GMT 50.975586 4.697571 1,975 231 213 -448
2019-09-19 02:10:19 GMT 50.977539 4.701385 2,000 231 214 -320
2019-09-19 02:10:12 GMT 50.982742 4.710611 2,025 222 211 -128
2019-09-19 02:10:04 GMT 50.988338 4.717636 2,025 207 208 -192
2019-09-19 02:10:01 GMT 50.990753 4.719667 2,050 202 207 -448
2019-09-19 02:09:51 GMT 51.000164 4.722748 2,175 177 203 -1024
2019-09-19 02:09:47 GMT 51.003937 4.722214 2,250 168 202 -1088
2019-09-19 02:09:41 GMT 51.009335 4.719849 2,375 156 201 -1088
2019-09-19 02:09:38 GMT 51.011803 4.718170 2,425 154 201 -1024
2019-09-19 02:09:34 GMT 51.015759 4.715271 2,500 154 201 -1024
2019-09-19 02:09:31 GMT 51.018555 4.713135 2,575 154 201 -1024
2019-09-19 02:09:27 GMT 51.021996 4.710541 2,625 154 201 -1024
2019-09-19 02:09:22 GMT 51.025627 4.707794 2,700 154 203 -1024
2019-09-19 02:09:15 GMT 51.030945 4.703707 2,825 154 203 -960
2019-09-19 02:09:12 GMT 51.033497 4.701767 2,850 154 204 -896
2019-09-19 02:09:09 GMT 51.037312 4.698792 2,925 153 204 -896
2019-09-19 02:09:05 GMT 51.039368 4.697249 2,950 153 206 -768
2019-09-19 02:09:01 GMT 51.042759 4.694595 3,025 153 207 -704
2019-09-19 02:08:58 GMT 51.045788 4.692230 3,050 153 209 -576
2019-09-19 02:08:55 GMT 51.047974 4.690568 3,075 153 210 -512
2019-09-19 02:08:52 GMT 51.050209 4.688797 3,100 153 212 -384
2019-09-19 02:08:49 GMT 51.053558 4.686189 3,125 153 214 -384
2019-09-19 02:08:46 GMT 51.055618 4.684555 3,125 153 215 -320
2019-09-19 02:08:43 GMT 51.059647 4.681363 3,150 153 219 -192
2019-09-19 02:08:40 GMT 51.061569 4.679879 3,150 153 221 -192
2019-09-19 02:08:37 GMT 51.064034 4.677963 3,175 153 223 -256
2019-09-19 02:08:31 GMT 51.070129 4.673198 3,225 153 229 -640
2019-09-19 02:08:28 GMT 51.073059 4.670897 3,225 153 232 -896
2019-09-19 02:08:25 GMT 51.075485 4.669041 3,300 153 236 -1024
2019-09-19 02:08:21 GMT 51.079025 4.666290 3,375 153 241 -1024
2019-09-19 02:08:18 GMT 51.083405 4.662806 3,475 153 249 -1280
2019-09-19 02:08:13 GMT 51.087387 4.659688 3,625 153 249 -1280
2019-09-19 02:08:10 GMT 51.091129 4.656754 3,600 153 253 -1792
2019-09-19 02:08:07 GMT 51.093967 4.654541 3,800 153 255 -2240
2019-09-19 02:08:03 GMT 51.098904 4.650650 3,950 153 258 -2176
2019-09-19 02:07:59 GMT 51.102539 4.647736 3,975 153 257 -2304
2019-09-19 02:07:56 GMT 51.105511 4.645386 4,075 152 259 -2176
2019-09-19 02:07:53 GMT 51.108627 4.642837 4,225 152 261 -2112
2019-09-19 02:07:49 GMT 51.112793 4.639348 4,350 150 263 -2048
2019-09-19 02:07:43 GMT 51.119385 4.633484 4,525 148 265 -1856
2019-09-19 02:07:40 GMT 51.122505 4.630432 4,625 145 266 -1728
2019-09-19 02:07:37 GMT 51.126228 4.626236 4,750 140 269 -1664
2019-09-19 02:07:32 GMT 51.130184 4.621124 5,475 135 278 -1536
2019-09-19 02:07:29 GMT 51.132889 4.617079 4,950 135 271 -1536
2019-09-19 02:07:26 GMT 51.135864 4.612476 5,000 135 272 -1536
2019-09-19 02:07:23 GMT 51.138702 4.607925 5,100 135 275 -1536
2019-09-19 02:07:20 GMT 51.140659 4.604797 5,150 135 275 -1536
2019-09-19 02:07:17 GMT 51.143917 4.599609 5,200 135 275 -1664
2019-09-19 02:07:14 GMT 51.146805 4.595032 5,350 135 277 -1792
2019-09-19 02:07:11 GMT 51.149643 4.590607 5,475 135 277 -1600
2019-09-19 02:07:08 GMT 51.152893 4.585382 5,525 135 279 -1408
2019-09-19 02:07:05 GMT 51.155365 4.581522 5,550 135 279 -1408
2019-09-19 02:07:02 GMT 51.158020 4.577290 5,625 135 280 -1280
2019-09-19 02:06:59 GMT 51.160309 4.573653 5,725 135 281 -1344
2019-09-19 02:06:56 GMT 51.163006 4.569397 5,850 134 282 -1280
2019-09-19 02:06:52 GMT 51.166489 4.563854 5,850 134 282 -1280
2019-09-19 02:06:48 GMT 51.170334 4.557619 5,925 134 282 -1152
2019-09-19 02:06:45 GMT 51.176102 4.548266 6,025 134 284 -1024
2019-09-19 02:06:42 GMT 51.176102 4.548266 6,075 134 284 -1024
2019-09-19 02:06:39 GMT 51.178413 4.544525 6,100 134 285 -1024
2019-09-19 02:06:36 GMT 51.181732 4.539135 6,600 134 286 -1088
2019-09-19 02:06:30 GMT 51.186977 4.530563 6,275 134 289 -1088
2019-09-19 02:06:27 GMT 51.190006 4.525528 6,300 134 287 -1088
2019-09-19 02:06:24 GMT 51.191868 4.522476 6,350 134 287 -1088
2019-09-19 02:06:19 GMT 51.197033 4.513931 6,450 133 288 -1088
2019-09-19 02:06:16 GMT 51.200180 4.508774 6,525 134 289 -1088
2019-09-19 02:06:12 GMT 51.203979 4.502539 6,600 133 289 -1152
2019-09-19 02:06:09 GMT 51.209835 4.492874 6,650 133 289 -1152
2019-09-19 02:06:06 GMT 51.209835 4.492874 6,700 133 289 -1152
2019-09-19 02:06:02 GMT 51.213093 4.487457 6,800 134 290 -1216
2019-09-19 02:05:58 GMT 51.219681 4.476558 6,875 133 290 -1216
2019-09-19 02:05:51 GMT 51.223148 4.470749 7,125 131 292 -960
2019-09-19 02:05:48 GMT 51.226128 4.465561 7,050 131 292 -960
2019-09-19 02:05:45 GMT 51.228596 4.461288 7,100 130 293 -896
2019-09-19 02:05:42 GMT 51.230576 4.457480 7,125 128 293 -832
2019-09-19 02:05:39 GMT 51.233719 4.451218 7,400 115 292 -1152
2019-09-19 02:05:36 GMT 51.236233 4.445343 7,275 118 291 -1216
2019-09-19 02:05:33 GMT 51.238140 4.440155 7,300 117 291 -1216
2019-09-19 02:05:30 GMT 51.240372 4.433280 7,375 115 291 -1152
2019-09-19 02:05:27 GMT 51.242142 4.427490 7,425 115 291 -1152
2019-09-19 02:05:24 GMT 51.243305 4.423447 7,500 115 291 -1216
2019-09-19 02:05:21 GMT 51.245178 4.417172 7,550 115 293 -1216
2019-09-19 02:05:18 GMT 51.246918 4.411308 7,600 115 296 -1088
2019-09-19 02:05:15 GMT 51.248337 4.406483 7,675 115 293 -1216
2019-09-19 02:05:12 GMT 51.251778 4.394913 8,025 115 296 -1088
2019-09-19 02:05:06 GMT 51.254524 4.385757 7,850 115 294 -1152
2019-09-19 02:05:03 GMT 51.255459 4.382629 8,400 114 298 -1344
2019-09-19 02:05:00 GMT 51.257320 4.376297 7,925 115 295 -1152
2019-09-19 02:04:57 GMT 51.259182 4.370041 8,000 115 296 -1088
2019-09-19 02:04:54 GMT 51.260902 4.364319 8,050 115 296 -1152
2019-09-19 02:04:51 GMT 51.262711 4.358380 8,125 115 297 -1152
2019-09-19 02:04:48 GMT 51.264488 4.352493 8,150 115 298 -1280
2019-09-19 02:04:45 GMT 51.268166 4.340210 8,275 115 298 -1280
2019-09-19 02:04:42 GMT 51.268166 4.340210 8,300 115 298 -1280
2019-09-19 02:04:38 GMT 51.270584 4.332325 8,400 115 298 -1280
2019-09-19 02:04:35 GMT 51.272324 4.326312 8,425 115 298 -1280
2019-09-19 02:04:32 GMT 51.274017 4.320596 8,525 114 298 -1344
2019-09-19 02:04:28 GMT 51.276535 4.311985 8,625 114 298 -1344
2019-09-19 02:04:25 GMT 51.278229 4.306195 8,850 115 298 -1472
2019-09-19 02:04:22 GMT 51.279991 4.300232 8,750 115 298 -1472
2019-09-19 02:04:18 GMT 51.282349 4.292240 8,825 115 298 -1472
2019-09-19 02:04:15 GMT 51.284409 4.285336 8,925 115 298 -1472
2019-09-19 02:04:12 GMT 51.286041 4.279709 9,025 115 298 -1472
2019-09-19 02:04:09 GMT 51.287155 4.275983 9,125 115 297 -1344
2019-09-19 02:04:06 GMT 51.289116 4.269180 9,150 115 297 -1344
2019-09-19 02:04:03 GMT 51.291092 4.262473 9,225 114 297 -1344
2019-09-19 02:04:00 GMT 51.292839 4.256439 9,275 114 297 -1216
2019-09-19 02:03:57 GMT 51.294514 4.250717 9,350 114 298 -1152
2019-09-19 02:03:54 GMT 51.296082 4.245325 10,625 114 310 -1600
2019-09-19 02:03:51 GMT 51.297817 4.239273 9,475 114 299 -1152
2019-09-19 02:03:48 GMT 51.299961 4.231873 9,550 115 300 -1152
2019-09-19 02:03:45 GMT 51.301033 4.228287 9,625 115 300 -1216
2019-09-19 02:03:42 GMT 51.302902 4.221868 9,650 115 300 -1216
2019-09-19 02:03:39 GMT 51.305035 4.214630 9,700 115 300 -1216
2019-09-19 02:03:36 GMT 51.307159 4.207393 9,775 114 302 -1024
2019-09-19 02:03:31 GMT 51.309643 4.198990 9,825 114 302 -1024
2019-09-19 02:03:28 GMT 51.311089 4.193878 9,900 114 302 -960
2019-09-19 02:03:25 GMT 51.312855 4.187851 9,950 114 303 -1024
2019-09-19 02:03:22 GMT 51.314850 4.180966 10,025 114 304 -1152
2019-09-19 02:03:19 GMT 51.316681 4.174582 10,075 114 305 -1216
2019-09-19 02:03:15 GMT 51.319016 4.166639 10,150 114 305 -1344
2019-09-19 02:03:12 GMT 51.320938 4.159884 10,825 114 311 -1472
2019-09-19 02:03:09 GMT 51.324509 4.147636 10,300 114 307 -1792
2019-09-19 02:03:06 GMT 51.324509 4.147636 10,400 114 307 -1792
2019-09-19 02:03:03 GMT 51.326309 4.141464 10,475 114 308 -1856
2019-09-19 02:02:59 GMT 51.330505 4.126999 10,650 114 310 -1600
2019-09-19 02:02:56 GMT 51.330505 4.126999 10,700 114 311 -1472
2019-09-19 02:02:53 GMT 51.332176 4.121170 10,775 114 313 -1344
2019-09-19 02:02:49 GMT 51.334412 4.113388 10,825 114 324 -1344
2019-09-19 02:02:45 GMT 51.337204 4.103928 10,950 114 317 -1408
2019-09-19 02:02:41 GMT 51.339344 4.096451 11,025 114 319 -1536
2019-09-19 02:02:38 GMT 51.341858 4.087953 11,225 114 349 -704
2019-09-19 02:02:35 GMT 51.343781 4.081272 11,200 115 323 -1344
2019-09-19 02:02:31 GMT 51.345749 4.074517 11,250 115 325 -1280
2019-09-19 02:02:28 GMT 51.347584 4.068222 11,350 115 330 -1152
2019-09-19 02:02:25 GMT 51.349865 4.060516 11,375 114 331 -1152
2019-09-19 02:02:22 GMT 51.351585 4.054565 11,750 115 334 -1280
2019-09-19 02:02:19 GMT 51.356003 4.039554 11,550 114 336 -1408
2019-09-19 02:02:16 GMT 51.356003 4.039554 11,600 114 339 -1344
2019-09-19 02:02:13 GMT 51.357685 4.033661 11,625 114 341 -1088
2019-09-19 02:02:10 GMT 51.359592 4.027023 11,675 114 341 -1088
2019-09-19 02:02:06 GMT 51.362549 4.016913 11,775 114 361 -832
2019-09-19 02:02:03 GMT 51.364437 4.010391 11,800 114 349 -704
2019-09-19 02:02:00 GMT 51.366390 4.003677 11,825 114 349 -704
2019-09-19 02:01:57 GMT 51.369045 3.994522 11,850 114 352 -704
2019-09-19 02:01:54 GMT 51.372437 3.982692 11,900 114 353 -768
2019-09-19 02:01:51 GMT 51.372437 3.982692 11,925 114 354 -832
2019-09-19 02:01:48 GMT 51.375229 3.973191 11,975 114 357 -832
2019-09-19 02:01:45 GMT 51.376678 3.968201 12,000 114 358 -832
2019-09-19 02:01:42 GMT 51.378681 3.961258 12,050 114 360 -832
2019-09-19 02:01:38 GMT 51.381428 3.951797 12,075 114 360 -832
2019-09-19 02:01:35 GMT 51.383846 3.943329 12,175 114 364 -768
2019-09-19 02:01:32 GMT 51.385574 3.937485 12,175 114 364 -832
2019-09-19 02:01:29 GMT 51.388321 3.927983 12,250 114 366 -832
2019-09-19 02:01:26 GMT 51.389603 3.923530 12,275 114 368 -896
2019-09-19 02:01:23 GMT 51.391575 3.916702 12,325 114 369 -896
2019-09-19 02:01:20 GMT 51.394367 3.907013 12,400 114 372 -960
2019-09-19 02:01:17 GMT 51.396324 3.900299 12,375 114 373 -960
2019-09-19 02:01:14 GMT 51.398666 3.892278 12,475 114 374 -960
2019-09-19 02:01:11 GMT 51.400543 3.885820 12,500 114 375 -960
2019-09-19 02:01:08 GMT 51.402786 3.877951 12,575 114 377 -960
2019-09-19 02:01:05 GMT 51.405262 3.869400 12,600 114 379 -960
2019-09-19 02:01:02 GMT 51.407181 3.862734 12,700 114 382 -960
2019-09-19 02:00:59 GMT 51.409470 3.854865 12,700 114 383 -960
2019-09-19 02:00:56 GMT 51.411621 3.847368 12,725 114 384 -960
2019-09-19 02:00:53 GMT 51.413773 3.839944 12,800 114 386 -960
2019-09-19 02:00:50 GMT 51.415833 3.832670 12,800 114 386 -960
2019-09-19 02:00:47 GMT 51.418304 3.824059 12,850 114 388 -960
2019-09-19 02:00:44 GMT 51.420959 3.814928 12,925 114 391 -1024
2019-09-19 02:00:41 GMT 51.422485 3.809662 12,975 114 393 -1024
2019-09-19 02:00:38 GMT 51.424759 3.801789 13,050 114 395 -960
2019-09-19 02:00:35 GMT 51.427277 3.793030 13,050 114 395 -960
2019-09-19 02:00:32 GMT 51.429375 3.785858 13,150 114 397 -1152
2019-09-19 02:00:29 GMT 51.432541 3.774948 13,250 114 399 -1472
2019-09-19 02:00:26 GMT 51.434448 3.768234 13,300 114 400 -1536
2019-09-19 02:00:23 GMT 51.436546 3.760986 13,350 114 400 -1600
2019-09-19 02:00:20 GMT 51.438492 3.754281 13,500 114 404 -1600
2019-09-19 02:00:17 GMT 51.441467 3.743962 13,525 114 403 -1536
2019-09-19 02:00:14 GMT 51.444038 3.735046 13,600 114 404 -1600
2019-09-19 02:00:11 GMT 51.446274 3.727188 13,700 114 407 -1600
2019-09-19 02:00:08 GMT 51.448555 3.719254 13,750 114 405 -1600
2019-09-19 02:00:05 GMT 51.450760 3.711672 13,825 114 408 -1600
2019-09-19 02:00:02 GMT 51.455612 3.694672 13,975 114 435 -2560
2019-09-19 01:59:59 GMT 51.455612 3.694672 14,025 114 411 -1600
2019-09-19 01:59:56 GMT 51.458267 3.685245 14,075 114 411 -1600
2019-09-19 01:59:53 GMT 51.460659 3.676987 14,125 114 412 -1600
2019-09-19 01:59:50 GMT 51.462151 3.671722 14,175 114 413 -1600
2019-09-19 01:59:47 GMT 51.465042 3.661713 14,325 114 416 -1600
2019-09-19 01:59:44 GMT 51.467735 3.652191 14,375 114 417 -1600
2019-09-19 01:59:41 GMT 51.469688 3.645477 14,450 114 418 -1536
2019-09-19 01:59:38 GMT 51.472412 3.635955 14,525 114 419 -1536
2019-09-19 01:59:35 GMT 51.474533 3.628616 14,600 114 419 -1536
2019-09-19 01:59:32 GMT 51.477325 3.618774 14,700 114 420 -1472
2019-09-19 01:59:29 GMT 51.479839 3.610001 14,800 114 420 -1472
2019-09-19 01:59:26 GMT 51.481468 3.604355 14,825 114 420 -1472
2019-09-19 01:59:23 GMT 51.484772 3.592758 14,900 114 420 -1472
2019-09-19 01:59:20 GMT 51.486450 3.586807 15,350 114 422 -1472
2019-09-19 01:59:17 GMT 51.489349 3.576644 15,250 114 421 -1472
2019-09-19 01:59:14 GMT 51.491730 3.568478 15,125 114 421 -1472
2019-09-19 01:59:11 GMT 51.493973 3.560535 15,225 114 421 -1472
2019-09-19 01:59:08 GMT 51.497250 3.548889 15,300 114 421 -1472
2019-09-19 01:59:05 GMT 51.498779 3.543462 15,325 114 421 -1472
2019-09-19 01:59:02 GMT 51.501114 3.535222 15,400 114 422 -1408
2019-09-19 01:58:59 GMT 51.503860 3.525543 15,500 114 422 -1408
2019-09-19 01:58:56 GMT 51.505966 3.518149 15,550 114 423 -1408
2019-09-19 01:58:53 GMT 51.510330 3.502731 15,650 114 423 -1408
2019-09-19 01:58:47 GMT 51.513309 3.492126 15,800 114 424 -1408
2019-09-19 01:58:44 GMT 51.515900 3.483037 17,075 114 432 -1920
2019-09-19 01:58:41 GMT 51.520805 3.465881 16,000 114 424 -1344
2019-09-19 01:58:38 GMT 51.520805 3.465881 16,000 114 424 -1344
2019-09-19 01:58:35 GMT 51.523132 3.457565 17,175 114 439 -1984
2019-09-19 01:58:31 GMT 51.526485 3.445816 16,125 114 424 -1344
2019-09-19 01:58:28 GMT 51.528812 3.437576 16,350 114 424 -1408
2019-09-19 01:58:25 GMT 51.531281 3.428996 16,325 114 424 -1408
2019-09-19 01:58:22 GMT 51.533699 3.420410 16,400 114 425 -1472
2019-09-19 01:58:19 GMT 51.536087 3.412146 16,400 114 426 -1472
2019-09-19 01:58:16 GMT 51.538605 3.403238 16,550 114 426 -1536
2019-09-19 01:58:13 GMT 51.541946 3.391435 17,050 114 434 -1920
2019-09-19 01:58:10 GMT 51.543568 3.385696 16,650 114 429 -1600
2019-09-19 01:58:07 GMT 51.546780 3.374405 16,700 114 429 -1600
2019-09-19 01:58:04 GMT 51.548355 3.368868 16,875 114 433 -1984
2019-09-19 01:58:00 GMT 51.552612 3.353725 17,050 114 432 -1984
2019-09-19 01:57:57 GMT 51.554184 3.348160 17,050 114 432 -1984
2019-09-19 01:57:54 GMT 51.556091 3.341446 17,075 114 433 -1984
2019-09-19 01:57:51 GMT 51.559021 3.330936 17,325 114 435 -1984
2019-09-19 01:57:48 GMT 51.561996 3.320395 17,350 114 435 -1920
2019-09-19 01:57:45 GMT 51.564835 3.310077 17,425 114 435 -1984
2019-09-19 01:57:42 GMT 51.568817 3.295898 17,725 114 436 -2496
2019-09-19 01:57:39 GMT 51.571655 3.285580 17,725 114 436 -2496
2019-09-19 01:57:36 GMT 51.571655 3.285580 17,775 114 435 -2624
2019-09-19 01:57:32 GMT 51.575867 3.270511 18,000 114 435 -2752
2019-09-19 01:57:29 GMT 51.576992 3.266373 18,275 114 436 -2688
2019-09-19 01:57:26 GMT 51.579136 3.258667 18,275 114 435 -2624
2019-09-19 01:57:23 GMT 51.581882 3.248978 18,350 114 435 -2560
2019-09-19 01:57:20 GMT 51.587048 3.230743 18,475 114 435 -2432
2019-09-19 01:57:17 GMT 51.587048 3.230743 18,600 114 436 -2368
2019-09-19 01:57:13 GMT 51.590378 3.218920 18,725 114 437 -2240
2019-09-19 01:57:10 GMT 51.592941 3.209789 18,850 114 437 -2112
2019-09-19 01:57:07 GMT 51.595383 3.201218 19,000 114 438 -2048
2019-09-19 01:57:03 GMT 51.598640 3.189697 19,125 114 439 -1984
2019-09-19 01:57:00 GMT 51.601994 3.177795 19,200 114 440 -1920
2019-09-19 01:56:57 GMT 51.603745 3.171560 19,325 114 442 -1856
2019-09-19 01:56:54 GMT 51.605850 3.164137 19,400 114 442 -1792
2019-09-19 01:56:51 GMT 51.609070 3.152771 19,450 114 443 -1728
2019-09-19 01:56:48 GMT 51.611389 3.144391 19,500 114 444 -1664
2019-09-19 01:56:45 GMT 51.613537 3.136826 19,600 114 446 -1536
2019-09-19 01:56:42 GMT 51.619308 3.116302 19,700 114 448 -1344
2019-09-19 01:56:39 GMT 51.619308 3.116302 19,750 114 449 -1280
2019-09-19 01:56:36 GMT 51.621368 3.108982 19,825 114 452 -1152
2019-09-19 01:56:33 GMT 51.625175 3.095551 19,900 114 455 -1024
2019-09-19 01:56:30 GMT 51.627224 3.088150 19,950 114 457 -960
2019-09-19 01:56:27 GMT 51.630249 3.077316 19,975 114 459 -1024
2019-09-19 01:56:24 GMT 51.631645 3.072357 20,025 114 461 -1088
2019-09-19 01:56:21 GMT 51.634720 3.061447 20,075 114 463 -1280
2019-09-19 01:56:18 GMT 51.637344 3.052046 20,100 114 463 -1280
2019-09-19 01:56:15 GMT 51.642471 3.033785 20,250 114 467 -1664
2019-09-19 01:56:12 GMT 51.642471 3.033785 20,300 114 468 -1728
2019-09-19 01:56:09 GMT 51.645100 3.024216 20,500 113 469 -1920
2019-09-19 01:56:06 GMT 51.648079 3.013458 20,500 113 470 -2048
2019-09-19 01:56:02 GMT 51.651150 3.002243 20,650 113 471 -2176
2019-09-19 01:55:58 GMT 51.655197 2.987539 21,600 114 476 -2560
2019-09-19 01:55:55 GMT 51.657341 2.979889 20,950 114 474 -2240
2019-09-19 01:55:52 GMT 51.660187 2.969575 21,025 114 474 -2240
2019-09-19 01:55:49 GMT 51.663803 2.956436 21,100 114 474 -2240
2019-09-19 01:55:46 GMT 51.665680 2.949681 21,225 113 474 -2304
2019-09-19 01:55:42 GMT 51.668701 2.938694 21,400 113 475 -2368
2019-09-19 01:55:39 GMT 51.672565 2.924805 21,475 114 476 -2432
2019-09-19 01:55:36 GMT 51.677032 2.908630 21,825 114 476 -2688
2019-09-19 01:55:30 GMT 51.679779 2.898609 22,525 114 480 -1088
2019-09-19 01:55:27 GMT 51.682114 2.890221 22,200 114 476 -2880
2019-09-19 01:55:24 GMT 51.685692 2.877274 22,200 114 476 -2816
2019-09-19 01:55:21 GMT 51.687416 2.871094 22,350 113 477 -2688
2019-09-19 01:55:18 GMT 51.690994 2.858153 22,450 114 478 -1856
2019-09-19 01:55:14 GMT 51.694073 2.847137 22,550 114 480 -1216
2019-09-19 01:55:11 GMT 51.696491 2.838364 22,575 114 481 -960
2019-09-19 01:55:08 GMT 51.699600 2.827272 22,650 114 483 -1152
2019-09-19 01:55:05 GMT 51.701847 2.819061 22,725 113 484 -1344
2019-09-19 01:55:02 GMT 51.704498 2.809525 22,775 113 486 -1984
2019-09-19 01:54:59 GMT 51.710770 2.786742 22,975 113 491 -1280
2019-09-19 01:54:56 GMT 51.710770 2.786742 22,975 113 488 -1280
2019-09-19 01:54:53 GMT 51.713058 2.778428 23,125 113 489 -896
2019-09-19 01:54:50 GMT 51.715988 2.767812 23,100 113 490 -640
2019-09-19 01:54:47 GMT 51.718513 2.758408 23,125 113 491 -704
2019-09-19 01:54:44 GMT 51.721352 2.748108 23,150 113 491 -832
2019-09-19 01:54:41 GMT 51.724190 2.737732 23,275 113 491 -1536
2019-09-19 01:54:38 GMT 51.727776 2.724686 24,075 113 490 -3328
2019-09-19 01:54:35 GMT 51.729584 2.718003 23,400 113 490 -1984
2019-09-19 01:54:32 GMT 51.732338 2.707977 23,600 113 489 -2240
2019-09-19 01:54:29 GMT 51.738716 2.684631 23,700 113 489 -2624
2019-09-19 01:54:26 GMT 51.738716 2.684631 23,800 113 490 -2880
2019-09-19 01:54:23 GMT 51.741741 2.673645 23,875 113 490 -3072
2019-09-19 01:54:20 GMT 51.743500 2.667377 24,075 113 490 -3200
2019-09-19 01:54:17 GMT 51.746815 2.655334 26,650 113 517 -3904
2019-09-19 01:54:14 GMT 51.751842 2.636948 25,125 113 492 -3008
2019-09-19 01:54:11 GMT 51.751842 2.636948 24,800 113 492 -2752
2019-09-19 01:54:08 GMT 51.754498 2.627182 24,775 113 493 -2560
2019-09-19 01:54:05 GMT 51.759850 2.607651 24,875 113 497 -2176
2019-09-19 01:53:59 GMT 51.762691 2.597198 25,100 113 504 -1088
2019-09-19 01:53:56 GMT 51.765110 2.588272 25,100 113 504 -1088
2019-09-19 01:53:53 GMT 51.767998 2.577667 25,125 113 505 -1088
2019-09-19 01:53:50 GMT 51.771954 2.563248 25,200 113 509 -832
2019-09-19 01:53:47 GMT 51.773758 2.556622 25,250 113 513 -768
2019-09-19 01:53:44 GMT 51.776733 2.545859 25,275 113 514 -896
2019-09-19 01:53:41 GMT 51.779709 2.534947 26,150 113 518 -1856
2019-09-19 01:53:38 GMT 51.782410 2.525148 25,450 113 518 -2816
2019-09-19 01:53:35 GMT 51.788666 2.502136 25,925 113 517 -3968
2019-09-19 01:53:31 GMT 51.788666 2.502136 26,800 113 516 -2560
2019-09-19 01:53:28 GMT 51.796280 2.474373 26,150 113 515 -3904
2019-09-19 01:53:25 GMT 51.796280 2.474373 26,250 113 515 -3776
2019-09-19 01:53:22 GMT 51.797607 2.469400 26,575 113 515 -3520
2019-09-19 01:53:19 GMT 51.800674 2.458191 26,525 113 515 -3584
2019-09-19 01:53:16 GMT 51.803558 2.447650 26,800 113 515 -3200
2019-09-19 01:53:13 GMT 51.809326 2.426568 27,050 113 512 -2048
2019-09-19 01:53:07 GMT 51.812256 2.415656 27,175 113 516 -2432
2019-09-19 01:53:04 GMT 51.816273 2.400894 27,300 113 516 -2304
2019-09-19 01:53:01 GMT 51.818298 2.393461 28,950 113 512 -2048
2019-09-19 01:52:57 GMT 51.822235 2.378985 27,575 113 516 -2048
2019-09-19 01:52:54 GMT 51.825211 2.368073 27,650 113 516 -2112
2019-09-19 01:52:51 GMT 51.827911 2.358170 27,700 113 516 -2112
2019-09-19 01:52:48 GMT 51.833450 2.337787 28,150 113 514 -2176
2019-09-19 01:52:45 GMT 51.833450 2.337787 28,050 113 515 -2176
2019-09-19 01:52:42 GMT 51.836243 2.327543 28,425 113 515 -2176
2019-09-19 01:52:39 GMT 51.839130 2.317047 28,200 113 515 -2176
2019-09-19 01:52:36 GMT 51.842064 2.306137 29,375 113 511 -1920
2019-09-19 01:52:33 GMT 51.847881 2.284698 28,450 113 514 -2176
2019-09-19 01:52:30 GMT 51.847881 2.284698 28,500 113 512 -2048
2019-09-19 01:52:27 GMT 51.850571 2.274912 28,675 113 513 -2176
2019-09-19 01:52:24 GMT 51.853233 2.265091 28,700 113 513 -2176
2019-09-19 01:52:21 GMT 51.856247 2.253830 28,800 113 512 -2112
2019-09-19 01:52:18 GMT 51.859657 2.241211 28,950 113 512 -2048
2019-09-19 01:52:15 GMT 51.862965 2.228928 29,050 113 512 -2048
2019-09-19 01:52:12 GMT 51.864944 2.221614 29,475 113 511 -1984
2019-09-19 01:52:09 GMT 51.868607 2.207955 29,225 113 512 -1984
2019-09-19 01:52:06 GMT 51.870209 2.202016 31,100 113 505 -1920
2019-09-19 01:52:03 GMT 51.872635 2.192886 29,400 113 511 -1920
2019-09-19 01:52:00 GMT 51.876297 2.179227 29,550 113 511 -1856
2019-09-19 01:51:57 GMT 51.878815 2.169726 29,575 113 511 -1856
2019-09-19 01:51:54 GMT 51.884937 2.146988 31,400 113 502 -512
2019-09-19 01:51:51 GMT 51.884937 2.146988 30,000 113 511 -1664
2019-09-19 01:51:48 GMT 51.888107 2.135059 29,925 113 511 -1664
2019-09-19 01:51:45 GMT 51.889801 2.128750 29,950 113 511 -1664
2019-09-19 01:51:42 GMT 51.893097 2.116501 30,025 113 511 -1664
2019-09-19 01:51:39 GMT 51.895615 2.107086 30,125 113 511 -1728
2019-09-19 01:51:36 GMT 51.899277 2.093430 30,225 113 510 -1792
2019-09-19 01:51:33 GMT 51.901184 2.086461 30,425 113 509 -1856
2019-09-19 01:51:30 GMT 51.904068 2.075631 30,400 113 509 -1920
2019-09-19 01:51:27 GMT 51.906876 2.065125 30,475 113 508 -1984
2019-09-19 01:51:24 GMT 51.909748 2.054286 30,600 113 508 -2048
2019-09-19 01:51:21 GMT 51.913284 2.041092 30,675 113 507 -2048
2019-09-19 01:51:17 GMT 51.916218 2.029960 30,875 113 506 -2176
2019-09-19 01:51:14 GMT 51.919060 2.019130 31,975 113 502 -1344
2019-09-19 01:51:11 GMT 51.922577 2.005920 31,050 113 505 -1920
2019-09-19 01:51:08 GMT 51.924500 1.998672 31,125 113 505 -1728
2019-09-19 01:51:05 GMT 51.927155 1.988602 31,225 113 504 -1728
2019-09-19 01:51:02 GMT 51.930233 1.976833 31,325 113 503 -1728
2019-09-19 01:50:59 GMT 51.932968 1.966400 31,450 113 502 -1664
2019-09-19 01:50:56 GMT 51.935349 1.957397 31,525 113 502 -1600
2019-09-19 01:50:53 GMT 51.938004 1.947403 31,575 113 501 -1536
2019-09-19 01:50:50 GMT 51.941498 1.934300 31,650 113 501 -1472
2019-09-19 01:50:47 GMT 51.944153 1.924334 31,950 113 502 -576
2019-09-19 01:50:44 GMT 51.946896 1.913975 31,800 113 501 -896
2019-09-19 01:50:41 GMT 51.948715 1.907120 31,825 113 501 -1216
2019-09-19 01:50:38 GMT 51.952206 1.894043 31,875 113 501 -896
2019-09-19 01:50:35 GMT 51.954987 1.883698 31,950 113 502 -640
2019-09-19 01:50:32 GMT 51.957649 1.873718 31,950 113 502 -512
2019-09-19 01:50:29 GMT 51.960434 1.863403 31,975 113 503 -320
2019-09-19 01:50:26 GMT 51.963192 1.853080 32,000 113 503 0
2019-09-19 01:50:22 GMT 51.966660 1.839981 32,000 119 507 0
2019-09-19 01:50:19 GMT 51.970047 1.827164 32,000 113 503 0
2019-09-19 01:50:16 GMT 51.972317 1.818473 32,000 113 503 0
2019-09-19 01:50:13 GMT 51.975388 1.807094 32,000 114 504 0
2019-09-19 01:50:10 GMT 51.978413 1.796500 32,000 115 505 0
2019-09-19 01:50:06 GMT 51.981445 1.786270 32,000 116 505 0
2019-09-19 01:50:03 GMT 51.985489 1.773507 32,000 118 506 0
2019-09-19 01:50:00 GMT 51.988358 1.764832 32,000 119 507 0
2019-09-19 01:49:57 GMT 51.992157 1.753922 32,000 125 511 0
2019-09-19 01:49:54 GMT 51.995865 1.743698 32,000 121 508 0
2019-09-19 01:49:51 GMT 51.999710 1.733704 32,000 123 510 0
2019-09-19 01:49:48 GMT 52.003143 1.725006 32,000 123 510 0
2019-09-19 01:49:45 GMT 52.006302 1.717377 32,000 138 519 0
2019-09-19 01:49:42 GMT 52.010971 1.706390 32,000 128 513 0
2019-09-19 01:49:39 GMT 52.019890 1.687029 32,000 130 514 0
2019-09-19 01:49:36 GMT 52.019890 1.687029 32,000 128 513 0
2019-09-19 01:49:33 GMT 52.024017 1.678619 32,000 129 513 0
2019-09-19 01:49:30 GMT 52.028687 1.669388 32,000 130 514 0
2019-09-19 01:49:27 GMT 52.033493 1.660309 32,000 132 515 0
2019-09-19 01:49:24 GMT 52.037395 1.653128 32,000 136 517 0
2019-09-19 01:49:21 GMT 52.043884 1.641769 32,000 134 515 0
2019-09-19 01:49:18 GMT 52.049057 1.633224 32,000 134 516 0
2019-09-19 01:49:15 GMT 52.052429 1.627781 32,000 136 517 0
2019-09-19 01:49:12 GMT 52.057644 1.619777 32,000 137 518 0
2019-09-19 01:49:09 GMT 52.063465 1.611145 32,000 138 518 0
2019-09-19 01:49:06 GMT 52.068832 1.603317 32,000 138 518 0
2019-09-19 01:49:03 GMT 52.078629 1.589127 32,000 138 519 0
2019-09-19 01:49:00 GMT 52.085587 1.578979 32,000 138 519 0
2019-09-19 01:48:57 GMT 52.085587 1.578979 32,000 138 519 0
2019-09-19 01:48:54 GMT 52.089340 1.573563 32,000 138 519 0
2019-09-19 01:48:51 GMT 52.099915 1.558304 32,000 138 519 0
2019-09-19 01:48:45 GMT 52.105408 1.550217 32,000 138 519 0
2019-09-19 01:48:42 GMT 52.111832 1.540911 32,000 138 519 0
2019-09-19 01:48:39 GMT 52.117905 1.532059 32,000 138 519 0
2019-09-19 01:48:36 GMT 52.129349 1.515427 32,000 138 519 0
2019-09-19 01:48:33 GMT 52.129349 1.515427 32,000 138 519 0
2019-09-19 01:48:30 GMT 52.133430 1.509443 32,000 138 519 0
2019-09-19 01:48:27 GMT 52.138046 1.502686 32,000 138 519 0
2019-09-19 01:48:24 GMT 52.145004 1.492538 32,000 138 519 0
2019-09-19 01:48:20 GMT 52.150909 1.483917 32,000 138 519 0
2019-09-19 01:48:17 GMT 52.157501 1.474304 32,000 138 519 0
2019-09-19 01:48:14 GMT 52.162674 1.466751 32,000 138 519 0
2019-09-19 01:48:11 GMT 52.166245 1.461487 32,000 138 519 0
2019-09-19 01:48:08 GMT 52.172302 1.452628 32,000 138 519 0
2019-09-19 01:48:04 GMT 52.179565 1.441956 32,000 138 519 0
2019-09-19 01:48:01 GMT 52.184555 1.434631 32,000 138 519 0
2019-09-19 01:47:58 GMT 52.189899 1.426810 32,000 138 519 0
2019-09-19 01:47:55 GMT 52.195438 1.418727 32,000 137 518 0
2019-09-19 01:47:52 GMT 52.200027 1.411972 32,000 137 518 0
2019-09-19 01:47:49 GMT 52.205727 1.403582 32,000 137 518 0
2019-09-19 01:47:46 GMT 52.210896 1.396048 32,000 137 518 0
2019-09-19 01:47:43 GMT 52.215683 1.389008 32,000 137 518 0
2019-09-19 01:47:40 GMT 52.221909 1.379852 32,000 137 518 0
2019-09-19 01:47:37 GMT 52.228500 1.370163 32,000 137 519 0
2019-09-19 01:47:34 GMT 52.232262 1.364737 32,000 138 519 0
2019-09-19 01:47:31 GMT 52.238297 1.355820 32,000 138 519 0
2019-09-19 01:47:28 GMT 52.243622 1.348022 32,000 138 519 0
2019-09-19 01:47:25 GMT 52.249161 1.339940 32,000 138 519 0
2019-09-19 01:47:22 GMT 52.261265 1.322205 32,000 138 519 0
2019-09-19 01:47:19 GMT 52.261265 1.322205 32,000 138 519 0
2019-09-19 01:47:16 GMT 52.263931 1.318283 32,000 138 519 0
2019-09-19 01:47:13 GMT 52.276749 1.299438 32,000 137 518 0
2019-09-19 01:47:10 GMT 52.276749 1.299438 32,000 137 518 0
2019-09-19 01:47:07 GMT 52.280457 1.293945 32,000 137 518 0
2019-09-19 01:47:04 GMT 52.285629 1.286392 32,000 137 518 0
2019-09-19 01:47:01 GMT 52.291122 1.278229 32,000 137 518 0
2019-09-19 01:46:58 GMT 52.296642 1.270098 32,000 137 518 0
2019-09-19 01:46:55 GMT 52.301971 1.262283 32,000 137 518 0
2019-09-19 01:46:52 GMT 52.308048 1.253383 32,000 137 518 0
2019-09-19 01:46:49 GMT 52.312099 1.247341 32,000 137 519 0
2019-09-19 01:46:46 GMT 52.322617 1.231842 32,000 137 519 0
2019-09-19 01:46:43 GMT 52.328671 1.222935 32,000 137 519 0
2019-09-19 01:46:40 GMT 52.328671 1.222935 32,000 137 519 0
2019-09-19 01:46:37 GMT 52.333649 1.215591 32,000 137 519 0
2019-09-19 01:46:34 GMT 52.338821 1.208025 32,000 137 519 0
2019-09-19 01:46:31 GMT 52.350925 1.190212 32,000 137 519 0
2019-09-19 01:46:28 GMT 52.350925 1.190212 32,000 137 519 0
2019-09-19 01:46:25 GMT 52.356308 1.182327 32,000 137 519 0
2019-09-19 01:46:22 GMT 52.361481 1.174698 32,000 137 519 0
2019-09-19 01:46:19 GMT 52.365543 1.168710 32,000 137 519 0
2019-09-19 01:46:16 GMT 52.371407 1.159999 32,000 137 519 0
2019-09-19 01:46:13 GMT 52.376575 1.152387 32,000 137 518 0
2019-09-19 01:46:10 GMT 52.382996 1.142960 32,000 137 519 0
2019-09-19 01:46:07 GMT 52.392960 1.128217 32,000 137 519 0
2019-09-19 01:46:04 GMT 52.392960 1.128217 32,000 137 519 0
2019-09-19 01:46:01 GMT 52.397385 1.121626 32,000 137 519 0
2019-09-19 01:45:58 GMT 52.402878 1.113464 32,000 137 519 0
2019-09-19 01:45:55 GMT 52.408905 1.104507 32,000 137 519 0
2019-09-19 01:45:52 GMT 52.414982 1.095572 32,000 137 519 0
2019-09-19 01:45:49 GMT 52.424561 1.081314 32,000 137 519 0
2019-09-19 01:45:46 GMT 52.424561 1.081314 32,000 137 519 0
2019-09-19 01:45:43 GMT 52.430054 1.073151 32,000 137 519 0
2019-09-19 01:45:40 GMT 52.435226 1.065521 32,000 137 519 0
2019-09-19 01:45:37 GMT 52.442505 1.054764 32,000 137 519 0
2019-09-19 01:45:34 GMT 52.446213 1.049194 32,000 137 519 0
2019-09-19 01:45:31 GMT 52.450825 1.042367 32,000 137 519 0
2019-09-19 01:45:28 GMT 52.457062 1.033107 32,000 137 519 0
2019-09-19 01:45:25 GMT 52.462555 1.024946 32,000 137 519 0
2019-09-19 01:45:22 GMT 52.467911 1.017075 32,000 137 519 0
2019-09-19 01:45:19 GMT 52.472168 1.010742 32,000 137 519 0
2019-09-19 01:45:16 GMT 52.479267 1.000148 32,000 137 519 0
2019-09-19 01:45:13 GMT 52.488113 0.986965 32,000 137 519 0
2019-09-19 01:45:10 GMT 52.488113 0.986965 32,000 137 519 0
2019-09-19 01:45:07 GMT 52.493607 0.978803 32,000 137 519 0
2019-09-19 01:45:04 GMT 52.499660 0.969779 32,000 137 519 0
2019-09-19 01:45:01 GMT 52.509899 0.954398 32,000 137 519 0
2019-09-19 01:44:58 GMT 52.509899 0.954398 32,000 137 519 0
2019-09-19 01:44:55 GMT 52.515392 0.946158 32,000 137 518 0
2019-09-19 01:44:52 GMT 52.521957 0.936349 32,000 137 518 0
2019-09-19 01:44:49 GMT 52.525681 0.930786 32,000 137 518 0
2019-09-19 01:44:46 GMT 52.530617 0.923401 32,000 137 518 0
2019-09-19 01:44:43 GMT 52.536301 0.914917 32,000 137 518 0
2019-09-19 01:44:40 GMT 52.541603 0.906921 32,000 137 518 0
2019-09-19 01:44:37 GMT 52.546875 0.898972 32,000 137 518 0
2019-09-19 01:44:34 GMT 52.551865 0.891571 32,000 137 518 0
2019-09-19 01:44:31 GMT 52.557312 0.883331 32,000 137 518 0
2019-09-19 01:44:28 GMT 52.564411 0.872707 32,000 137 518 0
2019-09-19 01:44:25 GMT 52.568462 0.866664 32,000 137 518 0
2019-09-19 01:44:22 GMT 52.573586 0.858974 32,000 137 518 0
2019-09-19 01:44:19 GMT 52.578552 0.851517 32,000 137 518 0
2019-09-19 01:44:16 GMT 52.588943 0.835876 32,000 137 518 0
2019-09-19 01:44:10 GMT 52.595993 0.825272 32,000 137 517 0
2019-09-19 01:44:07 GMT 52.599838 0.819397 32,000 137 517 0
2019-09-19 01:44:04 GMT 52.605843 0.810399 32,000 137 517 0
2019-09-19 01:44:01 GMT 52.611832 0.801315 32,000 137 517 0
2019-09-19 01:43:58 GMT 52.615711 0.795489 32,000 137 518 0
2019-09-19 01:43:55 GMT 52.621170 0.787277 32,000 137 518 0
2019-09-19 01:43:52 GMT 52.626419 0.779323 32,000 137 518 0
2019-09-19 01:43:49 GMT 52.632610 0.770063 32,000 137 518 0
2019-09-19 01:43:46 GMT 52.642807 0.754682 32,000 137 517 0
2019-09-19 01:43:43 GMT 52.642807 0.754682 32,000 137 517 0
2019-09-19 01:43:40 GMT 52.647583 0.747528 32,000 137 517 0
2019-09-19 01:43:37 GMT 52.654083 0.737686 32,000 137 517 0
2019-09-19 01:43:34 GMT 52.656540 0.733965 32,000 137 518 0
2019-09-19 01:43:31 GMT 52.663971 0.722809 32,000 137 518 0
2019-09-19 01:43:28 GMT 52.668549 0.715916 32,000 137 518 0
2019-09-19 01:43:25 GMT 52.675598 0.705338 32,000 137 518 0
2019-09-19 01:43:22 GMT 52.679443 0.699463 32,000 137 518 0
2019-09-19 01:43:19 GMT 52.684570 0.691757 32,000 137 518 0
2019-09-19 01:43:16 GMT 52.690197 0.683271 32,000 137 518 0
2019-09-19 01:43:13 GMT 52.695511 0.675278 32,000 137 518 0
2019-09-19 01:43:10 GMT 52.701645 0.665970 32,000 137 518 0
2019-09-19 01:43:07 GMT 52.705700 0.659886 32,000 137 518 0
2019-09-19 01:43:04 GMT 52.710983 0.651932 32,000 137 518 0
2019-09-19 01:43:01 GMT 52.715744 0.644684 32,000 137 518 0
2019-09-19 01:42:58 GMT 52.721760 0.635716 32,000 137 518 0
2019-09-19 01:42:55 GMT 52.727207 0.627398 32,000 137 518 0
2019-09-19 01:42:52 GMT 52.731262 0.621338 32,000 137 518 0
2019-09-19 01:42:49 GMT 52.737633 0.611703 32,000 137 518 0
2019-09-19 01:42:46 GMT 52.744663 0.601109 32,025 137 518 -64
2019-09-19 01:42:43 GMT 52.747330 0.597076 32,000 137 518 0
2019-09-19 01:42:40 GMT 52.753464 0.587769 32,000 137 518 0
2019-09-19 01:42:37 GMT 52.759277 0.578918 32,000 137 518 0
2019-09-19 01:42:34 GMT 52.764221 0.571442 32,000 137 518 0
2019-09-19 01:42:31 GMT 52.769524 0.563442 32,000 137 518 0
2019-09-19 01:42:28 GMT 52.773899 0.556771 32,000 137 518 0
2019-09-19 01:42:25 GMT 52.779190 0.548782 32,000 137 518 0
2019-09-19 01:42:22 GMT 52.784840 0.540213 32,000 137 518 0
2019-09-19 01:42:19 GMT 52.796474 0.522557 32,000 137 518 0
2019-09-19 01:42:16 GMT 52.796474 0.522557 32,000 137 518 0
2019-09-19 01:42:13 GMT 52.800705 0.516205 32,000 137 518 0
2019-09-19 01:42:10 GMT 52.805832 0.508432 32,000 137 518 0
2019-09-19 01:42:07 GMT 52.811462 0.499878 32,000 137 519 0
2019-09-19 01:42:04 GMT 52.816399 0.492344 32,000 137 519 0
2019-09-19 01:42:01 GMT 52.822723 0.482712 32,000 137 519 0
2019-09-19 01:41:58 GMT 52.833115 0.466919 32,000 137 518 0
2019-09-19 01:41:55 GMT 52.833115 0.466919 32,000 137 518 0
2019-09-19 01:41:52 GMT 52.837875 0.459671 32,000 137 518 0
2019-09-19 01:41:49 GMT 52.843689 0.450745 32,000 137 518 0
2019-09-19 01:41:46 GMT 52.850010 0.441101 32,000 137 518 0
2019-09-19 01:41:42 GMT 52.859180 0.427133 32,000 137 519 0
2019-09-19 01:41:39 GMT 52.861603 0.423366 32,000 137 519 0
2019-09-19 01:41:36 GMT 52.867630 0.414200 32,000 137 519 0
2019-09-19 01:41:33 GMT 52.872543 0.406730 32,000 137 519 0
2019-09-19 01:41:30 GMT 52.876236 0.401077 32,000 137 520 0
2019-09-19 01:41:27 GMT 52.881851 0.392447 32,000 137 520 0
2019-09-19 01:41:24 GMT 52.887344 0.384129 32,000 137 520 0
2019-09-19 01:41:21 GMT 52.891891 0.377121 32,000 137 520 0
2019-09-19 01:41:18 GMT 52.899124 0.366058 32,000 137 520 0
2019-09-19 01:41:15 GMT 52.903358 0.359645 32,000 137 520 0
2019-09-19 01:41:12 GMT 52.908096 0.352402 32,000 137 520 0
2019-09-19 01:41:09 GMT 52.913414 0.344264 32,000 137 520 0
2019-09-19 01:41:06 GMT 52.918350 0.336761 32,000 137 520 0
2019-09-19 01:41:03 GMT 52.923981 0.328099 32,000 137 520 0
2019-09-19 01:41:00 GMT 52.930500 0.318133 32,000 137 520 0
2019-09-19 01:40:57 GMT 52.935947 0.309814 32,000 137 520 0
2019-09-19 01:40:54 GMT 52.939682 0.304108 32,000 137 520 0
2019-09-19 01:40:51 GMT 52.945675 0.294983 32,000 137 520 0
2019-09-19 01:40:48 GMT 52.951496 0.286037 32,000 137 520 0
2019-09-19 01:40:44 GMT 52.957123 0.277405 32,000 137 520 0
2019-09-19 01:40:41 GMT 52.962570 0.269012 32,000 137 520 0
2019-09-19 01:40:38 GMT 52.970169 0.257416 32,000 137 520 0
2019-09-19 01:40:35 GMT 52.973328 0.252529 32,000 137 520 0
2019-09-19 01:40:32 GMT 52.980377 0.241699 32,000 137 520 0
2019-09-19 01:40:29 GMT 52.985477 0.233852 32,000 137 520 0
2019-09-19 01:40:26 GMT 52.990402 0.226288 32,000 137 520 0
2019-09-19 01:40:23 GMT 52.995483 0.218430 32,000 137 520 0
2019-09-19 01:40:20 GMT 52.999352 0.212507 32,000 137 520 0
2019-09-19 01:40:17 GMT 53.011276 0.194016 32,000 137 519 0
2019-09-19 01:40:14 GMT 53.011276 0.194016 32,000 137 519 0
2019-09-19 01:40:11 GMT 53.016403 0.186157 32,000 137 519 0
2019-09-19 01:40:08 GMT 53.020950 0.179156 32,000 137 519 0
2019-09-19 01:40:05 GMT 53.032356 0.161499 32,000 136 520 0
2019-09-19 01:40:02 GMT 53.036732 0.154750 32,000 136 519 0
2019-09-19 01:39:59 GMT 53.036732 0.154750 32,000 136 518 0
2019-09-19 01:39:56 GMT 53.041805 0.146824 32,000 136 519 0
2019-09-19 01:39:53 GMT 53.046707 0.139236 32,000 136 519 0
2019-09-19 01:39:50 GMT 53.052795 0.129700 32,000 136 519 0
2019-09-19 01:39:47 GMT 53.059616 0.119095 32,000 136 519 0
2019-09-19 01:39:44 GMT 53.062729 0.114136 32,000 136 519 0
2019-09-19 01:39:41 GMT 53.068176 0.105743 32,000 136 519 0
2019-09-19 01:39:38 GMT 53.073368 0.097543 32,000 136 519 0
2019-09-19 01:39:35 GMT 53.079666 0.087738 32,000 136 519 0
2019-09-19 01:39:32 GMT 53.089783 0.071945 32,000 136 518 0
2019-09-19 01:39:29 GMT 53.089783 0.071945 32,000 136 518 0
2019-09-19 01:39:26 GMT 53.094971 0.063721 32,000 136 518 0
2019-09-19 01:39:23 GMT 53.099159 0.057194 32,000 136 518 0
2019-09-19 01:39:20 GMT 53.103859 0.049842 32,000 136 518 0
2019-09-19 01:39:17 GMT 53.115685 0.031263 32,000 136 518 0
2019-09-19 01:39:14 GMT 53.115685 0.031263 32,000 136 518 0
2019-09-19 01:39:11 GMT 53.120060 0.024477 32,000 136 518 0
2019-09-19 01:39:08 GMT 53.131348 0.006749 32,000 136 518 0
2019-09-19 01:39:05 GMT 53.131348 0.006749 32,000 136 518 0
2019-09-19 01:39:02 GMT 53.136398 -0.001212 32,000 136 518 0
2019-09-19 01:38:59 GMT 53.141602 -0.009417 32,000 136 517 0
2019-09-19 01:38:56 GMT 53.146503 -0.017045 32,000 136 518 0
2019-09-19 01:38:53 GMT 53.151855 -0.025527 32,000 136 517 0
2019-09-19 01:38:50 GMT 53.156891 -0.033430 32,000 136 517 0
2019-09-19 01:38:47 GMT 53.161446 -0.040552 32,000 136 517 0
2019-09-19 01:38:44 GMT 53.167496 -0.050085 32,000 136 517 0
2019-09-19 01:38:41 GMT 53.172199 -0.057517 32,000 136 517 0
2019-09-19 01:38:38 GMT 53.178249 -0.067049 32,000 136 517 0
2019-09-19 01:38:34 GMT 53.185371 -0.078278 32,000 136 517 0
2019-09-19 01:38:31 GMT 53.190399 -0.086194 32,000 136 517 0
2019-09-19 01:38:28 GMT 53.197197 -0.096938 32,000 136 517 0
2019-09-19 01:38:25 GMT 53.206238 -0.111119 32,000 136 517 0
2019-09-19 01:38:22 GMT 53.206238 -0.111119 32,000 136 517 0
2019-09-19 01:38:19 GMT 53.215771 -0.126181 32,000 136 518 0
2019-09-19 01:38:16 GMT 53.215771 -0.126181 32,000 136 518 0
2019-09-19 01:38:13 GMT 53.220612 -0.133936 32,000 136 518 0
2019-09-19 01:38:10 GMT 53.227036 -0.144034 32,000 136 518 0
2019-09-19 01:38:07 GMT 53.231232 -0.150670 32,000 136 518 0
2019-09-19 01:38:04 GMT 53.236767 -0.159383 32,000 136 518 0
2019-09-19 01:38:01 GMT 53.241795 -0.167380 32,000 136 518 0
2019-09-19 01:37:58 GMT 53.248543 -0.178043 32,000 136 518 0
2019-09-19 01:37:55 GMT 53.252735 -0.184667 32,000 136 518 0
2019-09-19 01:37:52 GMT 53.257763 -0.192665 32,000 136 518 0
2019-09-19 01:37:49 GMT 53.263489 -0.201712 32,000 136 518 0
2019-09-19 01:37:46 GMT 53.268517 -0.209710 32,000 136 518 0
2019-09-19 01:37:43 GMT 53.274765 -0.219570 32,000 136 518 0
2019-09-19 01:37:40 GMT 53.280121 -0.228123 32,000 136 518 0
2019-09-19 01:37:37 GMT 53.283413 -0.233298 32,000 136 518 0
2019-09-19 01:37:34 GMT 53.289001 -0.242092 32,000 136 518 0
2019-09-19 01:37:31 GMT 53.300125 -0.259748 32,000 136 518 0
2019-09-19 01:37:28 GMT 53.300125 -0.259748 32,000 136 519 0
2019-09-19 01:37:25 GMT 53.304428 -0.266575 32,000 136 519 0
2019-09-19 01:37:22 GMT 53.310883 -0.276777 32,000 136 519 0
2019-09-19 01:37:19 GMT 53.314880 -0.283060 32,000 136 519 0
2019-09-19 01:37:16 GMT 53.319397 -0.290196 32,000 136 519 0
2019-09-19 01:37:13 GMT 53.325310 -0.299539 32,000 136 519 0
2019-09-19 01:37:10 GMT 53.332058 -0.310283 32,000 136 519 0
2019-09-19 01:37:07 GMT 53.335739 -0.316092 32,000 136 519 0
2019-09-19 01:37:04 GMT 53.340088 -0.322920 32,000 136 519 0
2019-09-19 01:37:01 GMT 53.345978 -0.332336 32,000 136 519 0
2019-09-19 01:36:58 GMT 53.352951 -0.343323 32,000 136 519 0
2019-09-19 01:36:55 GMT 53.358173 -0.351562 32,000 136 519 0
2019-09-19 01:36:52 GMT 53.367004 -0.365609 32,000 136 519 0
2019-09-19 01:36:49 GMT 53.367004 -0.365609 32,000 136 518 0
2019-09-19 01:36:46 GMT 53.371902 -0.373300 32,000 136 519 0
2019-09-19 01:36:43 GMT 53.377819 -0.382664 32,000 136 518 0
2019-09-19 01:36:40 GMT 53.387920 -0.398578 32,000 136 519 0
2019-09-19 01:36:37 GMT 53.392624 -0.406009 32,000 136 519 0
2019-09-19 01:36:34 GMT 53.392624 -0.406009 32,000 136 519 0
2019-09-19 01:36:31 GMT 53.398396 -0.415057 32,000 136 519 0
2019-09-19 01:36:28 GMT 53.403809 -0.423601 32,000 136 519 0
2019-09-19 01:36:25 GMT 53.414291 -0.440081 32,000 136 519 0
2019-09-19 01:36:22 GMT 53.414291 -0.440081 32,000 136 519 0
2019-09-19 01:36:19 GMT 53.419693 -0.448556 32,000 136 519 0
2019-09-19 01:36:16 GMT 53.424931 -0.456821 32,000 136 519 0
2019-09-19 01:36:12 GMT 53.432426 -0.468696 32,000 136 519 0
2019-09-19 01:36:09 GMT 53.437500 -0.476694 32,000 136 519 0
2019-09-19 01:36:06 GMT 53.442715 -0.484933 32,000 136 519 0
2019-09-19 01:36:03 GMT 53.446716 -0.491234 32,000 136 519 0
2019-09-19 01:36:00 GMT 53.452118 -0.499797 32,000 136 519 0
2019-09-19 01:35:57 GMT 53.457516 -0.508360 32,000 136 519 0
2019-09-19 01:35:54 GMT 53.463615 -0.518054 32,000 136 519 0
2019-09-19 01:35:51 GMT 53.468132 -0.525243 32,000 136 519 0
2019-09-19 01:35:48 GMT 53.473530 -0.533806 32,000 136 519 0
2019-09-19 01:35:45 GMT 53.479256 -0.542854 32,000 136 519 0
2019-09-19 01:35:42 GMT 53.483261 -0.549236 32,000 136 519 0
2019-09-19 01:35:39 GMT 53.489685 -0.559414 32,000 136 519 0
2019-09-19 01:35:36 GMT 53.494720 -0.567444 32,000 136 518 0
2019-09-19 01:35:33 GMT 53.499069 -0.574350 32,000 136 518 0
2019-09-19 01:35:30 GMT 53.505157 -0.584002 32,000 136 518 0
2019-09-19 01:35:27 GMT 53.510559 -0.592555 32,000 136 518 0
2019-09-19 01:35:24 GMT 53.515057 -0.599724 32,000 136 518 0
2019-09-19 01:35:21 GMT 53.519943 -0.607465 32,000 136 518 0
2019-09-19 01:35:18 GMT 53.526718 -0.618216 32,000 136 518 0
2019-09-19 01:35:15 GMT 53.530838 -0.624887 32,000 136 518 0
2019-09-19 01:35:12 GMT 53.536560 -0.633990 32,000 136 518 0
2019-09-19 01:35:09 GMT 53.541595 -0.641994 32,000 136 518 0
2019-09-19 01:35:06 GMT 53.546631 -0.649998 32,000 136 517 0
2019-09-19 01:35:03 GMT 53.552719 -0.659651 32,000 136 517 0
2019-09-19 01:35:00 GMT 53.556839 -0.666321 32,000 136 517 0
2019-09-19 01:34:57 GMT 53.561508 -0.673776 32,000 136 517 0
2019-09-19 01:34:54 GMT 53.567596 -0.683428 32,000 136 517 0
2019-09-19 01:34:51 GMT 53.573109 -0.692300 32,000 136 517 0
2019-09-19 01:34:48 GMT 53.577942 -0.700065 32,000 136 517 0
2019-09-19 01:34:45 GMT 53.582462 -0.707245 32,000 136 517 0
2019-09-19 01:34:42 GMT 53.587463 -0.715288 32,000 136 516 0
2019-09-19 01:34:39 GMT 53.593357 -0.724694 32,000 136 517 0
2019-09-19 01:34:36 GMT 53.598011 -0.732126 32,000 136 517 0
2019-09-19 01:34:33 GMT 53.603851 -0.741577 32,000 136 516 0
2019-09-19 01:34:30 GMT 53.608154 -0.748483 32,000 136 516 0
2019-09-19 01:34:27 GMT 53.615570 -0.760411 32,000 136 516 0
2019-09-19 01:34:24 GMT 53.619007 -0.765892 32,000 136 516 0
2019-09-19 01:34:21 GMT 53.624725 -0.775085 32,000 136 516 0
2019-09-19 01:34:18 GMT 53.629902 -0.783341 32,000 136 517 0
2019-09-19 01:34:15 GMT 53.634018 -0.789995 32,000 136 517 0
2019-09-19 01:34:12 GMT 53.640747 -0.800825 32,000 136 517 0
2019-09-19 01:34:09 GMT 53.644180 -0.806396 32,000 136 517 0
2019-09-19 01:34:06 GMT 53.649361 -0.814685 32,000 136 517 0
2019-09-19 01:34:03 GMT 53.654526 -0.822954 32,000 136 516 0
2019-09-19 01:34:00 GMT 53.660568 -0.832685 32,000 136 516 0
2019-09-19 01:33:57 GMT 53.665924 -0.841239 32,000 136 515 0
2019-09-19 01:33:54 GMT 53.670044 -0.847909 32,000 136 516 0
2019-09-19 01:33:51 GMT 53.676266 -0.857903 32,000 136 516 0
2019-09-19 01:33:48 GMT 53.680389 -0.864546 32,000 136 516 0
2019-09-19 01:33:45 GMT 53.685196 -0.872314 32,000 136 516 0
2019-09-19 01:33:42 GMT 53.690327 -0.880603 32,000 136 515 0
2019-09-19 01:33:39 GMT 53.697914 -0.892801 32,000 136 515 0
2019-09-19 01:33:36 GMT 53.702179 -0.899780 32,000 136 516 0
2019-09-19 01:33:33 GMT 53.707169 -0.907863 32,000 136 516 0
2019-09-19 01:33:30 GMT 53.713531 -0.918143 32,000 136 516 0
2019-09-19 01:33:27 GMT 53.716068 -0.922286 32,000 136 516 0
2019-09-19 01:33:24 GMT 53.722073 -0.932061 32,000 136 516 0
2019-09-19 01:33:21 GMT 53.728081 -0.941755 32,000 136 515 0
2019-09-19 01:33:18 GMT 53.732574 -0.948983 32,000 136 515 0
2019-09-19 01:33:15 GMT 53.738041 -0.957911 32,000 136 515 0
2019-09-19 01:33:12 GMT 53.748001 -0.974016 32,000 136 515 0
2019-09-19 01:33:09 GMT 53.748001 -0.974016 32,000 136 515 0
2019-09-19 01:33:06 GMT 53.753498 -0.982953 32,000 136 515 0
2019-09-19 01:33:03 GMT 53.758804 -0.991597 32,000 136 515 0
2019-09-19 01:33:00 GMT 53.764618 -1.001011 32,000 136 515 0
2019-09-19 01:32:57 GMT 53.768719 -1.007753 32,000 136 515 0
2019-09-19 01:32:54 GMT 53.777470 -1.021971 32,000 136 515 0
2019-09-19 01:32:51 GMT 53.784302 -1.033107 32,000 136 515 0
2019-09-19 01:32:48 GMT 53.784302 -1.033107 32,000 135 514 0
2019-09-19 01:32:45 GMT 53.789436 -1.041439 32,000 135 514 0
2019-09-19 01:32:42 GMT 53.794373 -1.049587 32,000 135 514 0
2019-09-19 01:32:39 GMT 53.799492 -1.057919 32,000 135 514 0
2019-09-19 01:32:36 GMT 53.804947 -1.066851 32,000 135 515 0
2019-09-19 01:32:33 GMT 53.809937 -1.075012 32,000 135 514 0
2019-09-19 01:32:30 GMT 53.819786 -1.091201 32,000 135 515 0
2019-09-19 01:32:27 GMT 53.819786 -1.091201 32,000 135 515 0
2019-09-19 01:32:24 GMT 53.824070 -1.098148 32,000 135 514 0
2019-09-19 01:32:21 GMT 53.829025 -1.106323 32,000 135 514 0
2019-09-19 01:32:18 GMT 53.836361 -1.118344 32,000 135 514 0
2019-09-19 01:32:15 GMT 53.840286 -1.124765 32,000 135 514 0
2019-09-19 01:32:12 GMT 53.845066 -1.132561 32,000 135 514 0
2019-09-19 01:32:09 GMT 53.850174 -1.140930 32,000 135 514 0
2019-09-19 01:32:06 GMT 53.855438 -1.149641 32,000 135 514 0
2019-09-19 01:32:03 GMT 53.860245 -1.157488 32,000 135 514 0
2019-09-19 01:32:00 GMT 53.866386 -1.167540 32,000 135 515 0
2019-09-19 01:31:57 GMT 53.870995 -1.175133 32,000 135 515 0
2019-09-19 01:31:54 GMT 53.876255 -1.183777 32,000 135 514 0
2019-09-19 01:31:51 GMT 53.887333 -1.202034 32,000 135 514 0
2019-09-19 01:31:48 GMT 53.887333 -1.202034 32,000 135 514 0
2019-09-19 01:31:45 GMT 53.891418 -1.208732 32,000 135 514 0
2019-09-19 01:31:42 GMT 53.896362 -1.216893 32,000 135 515 0
2019-09-19 01:31:39 GMT 53.902138 -1.226430 32,000 135 514 0
2019-09-19 01:31:36 GMT 53.906387 -1.233451 32,000 135 515 0
2019-09-19 01:31:33 GMT 53.912704 -1.243809 32,000 135 514 0
2019-09-19 01:31:27 GMT 53.921356 -1.258170 32,000 135 514 0
2019-09-19 01:31:24 GMT 53.926620 -1.266881 32,000 135 514 0
2019-09-19 01:31:21 GMT 53.932072 -1.275949 32,000 135 514 0
2019-09-19 01:31:18 GMT 53.937843 -1.285481 32,000 135 514 0
2019-09-19 01:31:15 GMT 53.942230 -1.292855 32,000 135 514 0
2019-09-19 01:31:12 GMT 53.948364 -1.302930 32,000 135 514 0
2019-09-19 01:31:09 GMT 53.952759 -1.310277 32,000 135 515 0
2019-09-19 01:31:06 GMT 53.956833 -1.317104 32,000 135 514 0
2019-09-19 01:31:03 GMT 53.962418 -1.326364 32,000 135 514 0
2019-09-19 01:31:00 GMT 53.966675 -1.333426 32,000 135 514 0
2019-09-19 01:30:57 GMT 53.973633 -1.345040 32,000 135 514 0
2019-09-19 01:30:54 GMT 53.984436 -1.363168 32,000 135 514 0
2019-09-19 01:30:51 GMT 53.984436 -1.363168 32,000 135 515 0
2019-09-19 01:30:48 GMT 53.988831 -1.370544 32,000 135 514 0
2019-09-19 01:30:45 GMT 53.992401 -1.376430 32,000 135 514 0
2019-09-19 01:30:42 GMT 53.999477 -1.388316 32,000 135 514 0
2019-09-19 01:30:39 GMT 54.003529 -1.395183 32,000 135 514 0
2019-09-19 01:30:36 GMT 54.008240 -1.403111 32,000 135 515 0
2019-09-19 01:30:33 GMT 54.013504 -1.411900 32,000 135 514 0
2019-09-19 01:30:30 GMT 54.017868 -1.419256 32,000 135 514 0
2019-09-19 01:30:27 GMT 54.023621 -1.428929 32,000 135 515 0
2019-09-19 01:30:24 GMT 54.028481 -1.437189 32,000 135 515 0
2019-09-19 01:30:21 GMT 54.032719 -1.444298 32,000 135 514 0
2019-09-19 01:30:18 GMT 54.038452 -1.453962 32,000 135 514 0
2019-09-19 01:30:15 GMT 54.045193 -1.465382 32,000 135 514 0
2019-09-19 01:30:12 GMT 54.053108 -1.478711 32,000 135 515 0
2019-09-19 01:30:09 GMT 54.053108 -1.478711 32,000 135 515 0
2019-09-19 01:30:06 GMT 54.058323 -1.487597 32,000 135 515 0
2019-09-19 01:30:03 GMT 54.065048 -1.499006 32,000 135 515 0
2019-09-19 01:30:00 GMT 54.068420 -1.504723 32,000 135 515 0
2019-09-19 01:29:57 GMT 54.075638 -1.517002 32,000 135 514 0
2019-09-19 01:29:54 GMT 54.079834 -1.524118 32,000 135 515 0
2019-09-19 01:29:51 GMT 54.083878 -1.530977 32,000 135 514 0
2019-09-19 01:29:48 GMT 54.088764 -1.539217 32,000 135 515 0
2019-09-19 01:29:45 GMT 54.093842 -1.547738 32,000 135 515 0
2019-09-19 01:29:42 GMT 54.099751 -1.557716 32,000 135 515 0
2019-09-19 01:29:39 GMT 54.105339 -1.567167 32,000 135 515 0
2019-09-19 01:29:35 GMT 54.110226 -1.575407 32,000 135 515 0
2019-09-19 01:29:32 GMT 54.117004 -1.586818 32,000 135 516 0
2019-09-19 01:29:29 GMT 54.121216 -1.593959 32,000 135 516 0
2019-09-19 01:29:26 GMT 54.127312 -1.604246 32,000 135 516 0
2019-09-19 01:29:23 GMT 54.131699 -1.611694 32,000 135 516 0
2019-09-19 01:29:20 GMT 54.136391 -1.619756 32,000 134 516 0
2019-09-19 01:29:17 GMT 54.141632 -1.628645 32,000 134 516 0
2019-09-19 01:29:14 GMT 54.147655 -1.638982 32,000 134 516 0
2019-09-19 01:29:11 GMT 54.152710 -1.647635 32,000 134 516 0
2019-09-19 01:29:05 GMT 54.161945 -1.663459 32,000 134 516 0
2019-09-19 01:29:02 GMT 54.165848 -1.670157 32,000 135 517 0
2019-09-19 01:28:59 GMT 54.171570 -1.679888 32,000 135 516 0
2019-09-19 01:28:56 GMT 54.182755 -1.698761 32,000 135 517 0
2019-09-19 01:28:53 GMT 54.182755 -1.698761 32,000 145 519 0
2019-09-19 01:28:50 GMT 54.187038 -1.705870 32,000 136 517 0
2019-09-19 01:28:47 GMT 54.193134 -1.715644 32,000 137 517 0
2019-09-19 01:28:44 GMT 54.197884 -1.723076 32,000 138 517 0
2019-09-19 01:28:41 GMT 54.210480 -1.741255 32,000 140 518 0
2019-09-19 01:28:38 GMT 54.210480 -1.741255 32,000 142 518 0
2019-09-19 01:28:35 GMT 54.214039 -1.746018 32,000 144 518 0
2019-09-19 01:28:32 GMT 54.219624 -1.753127 32,000 145 518 0
2019-09-19 01:28:29 GMT 54.231308 -1.766680 32,000 148 519 0
2019-09-19 01:28:26 GMT 54.238895 -1.774534 32,000 163 517 0
2019-09-19 01:28:23 GMT 54.238895 -1.774534 32,000 151 519 0
2019-09-19 01:28:20 GMT 54.245132 -1.780570 32,000 152 519 0
2019-09-19 01:28:17 GMT 54.250629 -1.785601 32,000 153 518 0
2019-09-19 01:28:14 GMT 54.262939 -1.795794 32,000 156 519 0
2019-09-19 01:28:08 GMT 54.270458 -1.801192 32,000 159 518 0
2019-09-19 01:28:05 GMT 54.278458 -1.806605 32,000 159 518 0
2019-09-19 01:28:02 GMT 54.284565 -1.810247 32,000 162 518 0
2019-09-19 01:27:59 GMT 54.290497 -1.813552 32,000 163 517 0
2019-09-19 01:27:56 GMT 54.299423 -1.817995 32,000 166 518 0
2019-09-19 01:27:53 GMT 54.305695 -1.820822 32,000 168 517 0
2019-09-19 01:27:50 GMT 54.311050 -1.822923 32,000 169 517 0
2019-09-19 01:27:47 GMT 54.318283 -1.825427 32,000 172 516 0
2019-09-19 01:27:44 GMT 54.325111 -1.827393 32,000 172 516 0
2019-09-19 01:27:41 GMT 54.331238 -1.828981 32,000 173 516 0
2019-09-19 01:27:38 GMT 54.339310 -1.830555 32,000 175 516 0
2019-09-19 01:27:35 GMT 54.348312 -1.831809 32,000 177 515 0
2019-09-19 01:27:32 GMT 54.353302 -1.832293 32,000 178 515 0
2019-09-19 01:27:29 GMT 54.361378 -1.832553 32,000 180 515 0
2019-09-19 01:27:26 GMT 54.368271 -1.832536 32,000 183 514 0
2019-09-19 01:27:23 GMT 54.377289 -1.831889 32,000 185 513 0
2019-09-19 01:27:20 GMT 54.382004 -1.831405 32,000 186 513 0
2019-09-19 01:27:17 GMT 54.391663 -1.829708 32,000 188 512 0
2019-09-19 01:27:14 GMT 54.403320 -1.826893 32,000 191 511 0
2019-09-19 01:27:11 GMT 54.403320 -1.826893 32,000 198 509 0
2019-09-19 01:27:08 GMT 54.412125 -1.824054 32,000 196 509 0
2019-09-19 01:27:05 GMT 54.416977 -1.822196 32,000 195 510 0
2019-09-19 01:27:02 GMT 54.423340 -1.819530 32,000 196 510 0
2019-09-19 01:26:59 GMT 54.430389 -1.816218 32,000 198 508 0
2019-09-19 01:26:56 GMT 54.437115 -1.812661 32,000 200 508 0
2019-09-19 01:26:53 GMT 54.444378 -1.808333 32,000 202 506 0
2019-09-19 01:26:50 GMT 54.449871 -1.804921 32,000 205 505 0
2019-09-19 01:26:47 GMT 54.456573 -1.800176 32,000 205 505 0
2019-09-19 01:26:43 GMT 54.472122 -1.787609 32,000 208 504 0
2019-09-19 01:26:40 GMT 54.472122 -1.787609 32,000 209 503 0
2019-09-19 01:26:37 GMT 54.476395 -1.783663 32,000 210 502 0
2019-09-19 01:26:34 GMT 54.484833 -1.775374 32,000 212 501 0
2019-09-19 01:26:31 GMT 54.489578 -1.770414 32,000 215 500 0
2019-09-19 01:26:28 GMT 54.496307 -1.762740 32,000 216 499 0
2019-09-19 01:26:25 GMT 54.508484 -1.747311 32,000 219 498 0
2019-09-19 01:26:22 GMT 54.508484 -1.747311 32,000 219 497 0
2019-09-19 01:26:19 GMT 54.511879 -1.742665 32,000 222 496 0
2019-09-19 01:26:16 GMT 54.516083 -1.736567 32,000 223 495 0
2019-09-19 01:26:13 GMT 54.522213 -1.727184 32,000 224 495 0
2019-09-19 01:26:10 GMT 54.528591 -1.716614 32,000 226 492 0
2019-09-19 01:26:07 GMT 54.531570 -1.711287 32,000 228 492 0
2019-09-19 01:26:04 GMT 54.541214 -1.692702 32,000 230 490 0
2019-09-19 01:26:01 GMT 54.541214 -1.692702 32,000 233 489 0
2019-09-19 01:25:58 GMT 54.545609 -1.683412 32,000 233 488 0
2019-09-19 01:25:55 GMT 54.549679 -1.674167 32,000 235 488 0
2019-09-19 01:25:52 GMT 54.557922 -1.653523 32,000 238 485 0
2019-09-19 01:25:49 GMT 54.557922 -1.653523 32,000 240 485 0
2019-09-19 01:25:46 GMT 54.560257 -1.646980 32,000 241 484 0
2019-09-19 01:25:43 GMT 54.564606 -1.634055 32,000 242 484 0
2019-09-19 01:25:39 GMT 54.568298 -1.621815 32,000 245 481 0
2019-09-19 01:25:36 GMT 54.571609 -1.610143 32,000 248 480 0
2019-09-19 01:25:33 GMT 54.574493 -1.598672 32,000 248 480 0
2019-09-19 01:25:30 GMT 54.576004 -1.592291 32,000 254 476 0
2019-09-19 01:25:27 GMT 54.578449 -1.580949 32,000 253 477 0
2019-09-19 01:25:24 GMT 54.580673 -1.569429 32,000 254 476 0
2019-09-19 01:25:21 GMT 54.582733 -1.557474 32,000 256 475 0
2019-09-19 01:25:18 GMT 54.583851 -1.550570 32,000 258 474 0
2019-09-19 01:25:15 GMT 54.585617 -1.537753 32,000 259 473 0
2019-09-19 01:25:12 GMT 54.586876 -1.527100 32,000 260 473 0
2019-09-19 01:25:09 GMT 54.588821 -1.504885 32,000 264 470 0
2019-09-19 01:25:06 GMT 54.588821 -1.504885 32,000 266 470 0
2019-09-19 01:25:03 GMT 54.589554 -1.491879 32,000 266 470 0
2019-09-19 01:25:00 GMT 54.589874 -1.483397 32,000 269 468 0
2019-09-19 01:24:57 GMT 54.590179 -1.468506 32,000 272 467 0
2019-09-19 01:24:54 GMT 54.590225 -1.459267 32,000 272 467 0
2019-09-19 01:24:51 GMT 54.590038 -1.448864 32,000 276 464 0
2019-09-19 01:24:48 GMT 54.589622 -1.437461 32,000 276 464 0
2019-09-19 01:24:45 GMT 54.588776 -1.422810 32,000 277 464 0
2019-09-19 01:24:42 GMT 54.586899 -1.401726 32,000 281 461 0
2019-09-19 01:24:39 GMT 54.586899 -1.401726 32,000 284 460 0
2019-09-19 01:24:36 GMT 54.585663 -1.391709 32,000 284 460 0
2019-09-19 01:24:33 GMT 54.584641 -1.383861 32,000 285 460 0
2019-09-19 01:24:30 GMT 54.583012 -1.372875 32,000 287 459 0
2019-09-19 01:24:27 GMT 54.580536 -1.358912 32,000 289 458 0
2019-09-19 01:24:24 GMT 54.579193 -1.351984 32,000 291 458 0
2019-09-19 01:24:21 GMT 54.576828 -1.340736 32,000 292 457 0
2019-09-19 01:24:18 GMT 54.574352 -1.329928 32,000 293 457 0
2019-09-19 01:24:15 GMT 54.572350 -1.321522 32,000 293 457 0
2019-09-19 01:24:12 GMT 54.569870 -1.311493 32,000 294 457 0
2019-09-19 01:24:09 GMT 54.567444 -1.301799 32,000 294 457 0
2019-09-19 01:24:06 GMT 54.564808 -1.291143 32,000 294 457 0
2019-09-19 01:24:03 GMT 54.562344 -1.281156 32,000 294 457 0
2019-09-19 01:24:00 GMT 54.559780 -1.270752 32,000 294 457 0
2019-09-19 01:23:57 GMT 54.557785 -1.262701 32,000 294 457 0
2019-09-19 01:23:54 GMT 54.554398 -1.249049 32,000 294 457 0
2019-09-19 01:23:51 GMT 54.552887 -1.242990 32,000 294 457 0
2019-09-19 01:23:48 GMT 54.550377 -1.232966 32,000 294 457 0
2019-09-19 01:23:45 GMT 54.546387 -1.216897 32,000 294 457 0
2019-09-19 01:23:42 GMT 54.544647 -1.209950 32,000 294 457 0
2019-09-19 01:23:39 GMT 54.542404 -1.200903 32,000 294 457 0
2019-09-19 01:23:36 GMT 54.540253 -1.192178 32,000 294 457 0
2019-09-19 01:23:33 GMT 54.534504 -1.169212 32,000 294 457 0
2019-09-19 01:23:30 GMT 54.534504 -1.169212 32,000 294 457 0
2019-09-19 01:23:27 GMT 54.532333 -1.160512 32,000 294 457 0
2019-09-19 01:23:24 GMT 54.530266 -1.152150 32,000 294 457 0
2019-09-19 01:23:21 GMT 54.524403 -1.128845 32,000 294 457 0
2019-09-19 01:23:18 GMT 54.524403 -1.128845 32,000 294 457 0
2019-09-19 01:23:15 GMT 54.522079 -1.119475 32,000 294 457 0
2019-09-19 01:23:12 GMT 54.519653 -1.109861 32,000 294 457 0
2019-09-19 01:23:09 GMT 54.517136 -1.099845 32,000 294 457 0
2019-09-19 01:23:06 GMT 54.512466 -1.081184 32,000 294 457 0
2019-09-19 01:23:03 GMT 54.512466 -1.081184 32,000 294 457 0
2019-09-19 01:23:00 GMT 54.509903 -1.070844 32,000 294 457 0
2019-09-19 01:22:57 GMT 54.506973 -1.059211 32,000 294 457 0
2019-09-19 01:22:54 GMT 54.502396 -1.040874 32,000 294 457 0
2019-09-19 01:22:48 GMT 54.499969 -1.031261 32,000 294 457 0
2019-09-19 01:22:45 GMT 54.494614 -1.009934 32,000 294 457 0
2019-09-19 01:22:42 GMT 54.494614 -1.009934 32,000 294 457 0
2019-09-19 01:22:39 GMT 54.492279 -1.000644 32,000 294 457 0
2019-09-19 01:22:36 GMT 54.489716 -0.990304 32,000 294 457 0
2019-09-19 01:22:33 GMT 54.486366 -0.977034 32,000 294 456 0
2019-09-19 01:22:30 GMT 54.485046 -0.971725 32,000 294 457 0
2019-09-19 01:22:27 GMT 54.482208 -0.960415 32,000 294 456 0
2019-09-19 01:22:24 GMT 54.479897 -0.951150 32,000 294 456 0
2019-09-19 01:22:21 GMT 54.474033 -0.927845 32,000 294 456 0
2019-09-19 01:22:18 GMT 54.474033 -0.927845 32,000 294 456 0
2019-09-19 01:22:14 GMT 54.471424 -0.917525 32,000 294 456 0
2019-09-19 01:22:11 GMT 54.468933 -0.907584 32,000 294 456 0
2019-09-19 01:22:08 GMT 54.466415 -0.897648 32,000 294 456 0
2019-09-19 01:22:05 GMT 54.463093 -0.884399 32,000 294 456 0
2019-09-19 01:22:02 GMT 54.460602 -0.874382 32,000 294 456 0
2019-09-19 01:21:59 GMT 54.454807 -0.851524 32,000 294 456 0
2019-09-19 01:21:56 GMT 54.454807 -0.851524 32,000 294 456 0
2019-09-19 01:21:53 GMT 54.453232 -0.845220 32,000 294 456 0
2019-09-19 01:21:50 GMT 54.450710 -0.835211 32,000 294 456 0
2019-09-19 01:21:47 GMT 54.448940 -0.828303 32,000 294 456 0
2019-09-19 01:21:44 GMT 54.445915 -0.816317 32,000 294 456 0
2019-09-19 01:21:41 GMT 54.443310 -0.806080 32,000 294 456 0
2019-09-19 01:21:38 GMT 54.441330 -0.798124 32,000 294 457 0
2019-09-19 01:21:35 GMT 54.439270 -0.790127 32,000 294 457 0
2019-09-19 01:21:32 GMT 54.436745 -0.780196 32,000 294 457 0
2019-09-19 01:21:29 GMT 54.433811 -0.768627 32,000 294 457 0
2019-09-19 01:21:26 GMT 54.431019 -0.757724 32,000 294 457 0
2019-09-19 01:21:23 GMT 54.428596 -0.748069 32,000 294 456 0
2019-09-19 01:21:19 GMT 54.425537 -0.736165 32,000 294 456 0
2019-09-19 01:21:16 GMT 54.422424 -0.723886 32,000 294 456 0
2019-09-19 01:21:13 GMT 54.419907 -0.713950 32,000 294 456 0
2019-09-19 01:21:10 GMT 54.417618 -0.705064 32,000 294 456 0
2019-09-19 01:21:07 GMT 54.412903 -0.686565 32,000 294 456 0
2019-09-19 01:21:04 GMT 54.412903 -0.686565 32,000 294 456 0
2019-09-19 01:21:01 GMT 54.409973 -0.674932 32,000 294 456 0
2019-09-19 01:20:58 GMT 54.407684 -0.666046 32,000 294 456 0
2019-09-19 01:20:55 GMT 54.404903 -0.655101 32,000 294 456 0
2019-09-19 01:20:52 GMT 54.402294 -0.644864 32,000 294 456 0
2019-09-19 01:20:49 GMT 54.399830 -0.635293 32,000 294 456 0
2019-09-19 01:20:46 GMT 54.397549 -0.626387 32,000 294 456 0
2019-09-19 01:20:43 GMT 54.391823 -0.603915 32,000 294 456 0
2019-09-19 01:20:40 GMT 54.391823 -0.603915 32,000 294 456 0
2019-09-19 01:20:37 GMT 54.390106 -0.597301 32,000 294 456 0
2019-09-19 01:20:34 GMT 54.387589 -0.587365 32,000 294 456 0
2019-09-19 01:20:31 GMT 54.384048 -0.573536 32,000 294 456 0
2019-09-19 01:20:28 GMT 54.379807 -0.556991 32,000 294 456 0
2019-09-19 01:20:22 GMT 54.377197 -0.546812 32,000 294 456 0
2019-09-19 01:20:19 GMT 54.374317 -0.535583 32,000 294 456 0
2019-09-19 01:20:16 GMT 54.372299 -0.527667 32,000 294 456 0
2019-09-19 01:20:13 GMT 54.369690 -0.517408 32,000 294 456 0
2019-09-19 01:20:10 GMT 54.366634 -0.505538 32,000 294 456 0
2019-09-19 01:20:07 GMT 54.364590 -0.497631 32,000 294 456 0
2019-09-19 01:20:04 GMT 54.361980 -0.487393 32,000 294 456 0
2019-09-19 01:20:01 GMT 54.359253 -0.476774 32,000 294 456 0
2019-09-19 01:19:58 GMT 54.357044 -0.468251 32,000 294 456 0
2019-09-19 01:19:55 GMT 54.354218 -0.457306 32,000 294 456 0
2019-09-19 01:19:52 GMT 54.351791 -0.447774 32,000 294 456 0
2019-09-19 01:19:49 GMT 54.348900 -0.436540 32,000 294 457 0
2019-09-19 01:19:46 GMT 54.346619 -0.427551 32,000 294 457 0
2019-09-19 01:19:43 GMT 54.343964 -0.417319 32,000 294 458 0
2019-09-19 01:19:40 GMT 54.341675 -0.408433 32,000 294 458 0
2019-09-19 01:19:37 GMT 54.338333 -0.395508 32,000 294 458 0
2019-09-19 01:19:34 GMT 54.336548 -0.388561 32,000 294 458 0
2019-09-19 01:19:31 GMT 54.334488 -0.380644 32,000 294 458 0
2019-09-19 01:19:28 GMT 54.331467 -0.369092 32,000 294 458 0
2019-09-19 01:19:25 GMT 54.329361 -0.360772 32,000 294 458 0
2019-09-19 01:19:22 GMT 54.326202 -0.348574 32,000 294 458 0
2019-09-19 01:19:19 GMT 54.323685 -0.338961 32,000 294 458 0
2019-09-19 01:19:16 GMT 54.321201 -0.329423 32,000 294 458 0
2019-09-19 01:19:13 GMT 54.318546 -0.319186 32,000 294 458 0
2019-09-19 01:19:10 GMT 54.315754 -0.308283 32,000 294 458 0
2019-09-19 01:19:07 GMT 54.313522 -0.299620 32,000 294 458 0
2019-09-19 01:19:04 GMT 54.311462 -0.291703 32,000 294 458 0
2019-09-19 01:19:01 GMT 54.308308 -0.279486 32,000 294 458 0
2019-09-19 01:18:58 GMT 54.305233 -0.267584 32,000 294 457 0
2019-09-19 01:18:55 GMT 54.300339 -0.248808 32,000 294 458 0
2019-09-19 01:18:52 GMT 54.300339 -0.248808 32,000 294 458 0
2019-09-19 01:18:49 GMT 54.297501 -0.237902 32,000 294 457 0
2019-09-19 01:18:46 GMT 54.294758 -0.227300 32,000 294 457 0
2019-09-19 01:18:43 GMT 54.292294 -0.217729 32,000 294 457 0
2019-09-19 01:18:40 GMT 54.289639 -0.207492 32,000 294 457 0
2019-09-19 01:18:37 GMT 54.287979 -0.201228 32,000 294 457 0
2019-09-19 01:18:34 GMT 54.284637 -0.188383 32,000 294 457 0
2019-09-19 01:18:31 GMT 54.282669 -0.180790 32,000 294 457 0
2019-09-19 01:18:28 GMT 54.280235 -0.171620 32,000 294 457 0
2019-09-19 01:18:25 GMT 54.274044 -0.147912 32,000 294 457 0
2019-09-19 01:18:22 GMT 54.274044 -0.147912 32,000 294 457 0
2019-09-19 01:18:19 GMT 54.271763 -0.138945 32,000 294 457 0
2019-09-19 01:18:16 GMT 54.269577 -0.130737 32,000 294 457 0
2019-09-19 01:18:13 GMT 54.265991 -0.116972 32,000 295 457 0
2019-09-19 01:18:10 GMT 54.264587 -0.111668 32,000 295 457 0
2019-09-19 01:18:07 GMT 54.261848 -0.101139 32,000 295 457 0
2019-09-19 01:18:04 GMT 54.259289 -0.091283 32,000 295 457 0
2019-09-19 01:18:01 GMT 54.256588 -0.081105 32,000 295 457 0
2019-09-19 01:17:58 GMT 54.253326 -0.068586 32,000 295 457 0
2019-09-19 01:17:55 GMT 54.248814 -0.051539 32,000 295 457 0
2019-09-19 01:17:52 GMT 54.248814 -0.051539 32,000 295 457 0
2019-09-19 01:17:49 GMT 54.246231 -0.041670 32,000 295 457 0
2019-09-19 01:17:46 GMT 54.243210 -0.030212 32,000 295 457 0
2019-09-19 01:17:43 GMT 54.241425 -0.023307 32,000 295 457 0
2019-09-19 01:17:40 GMT 54.237854 -0.009809 32,000 295 457 0
2019-09-19 01:17:37 GMT 54.234924 0.001413 32,000 295 456 0
2019-09-19 01:17:34 GMT 54.233139 0.008318 32,000 295 455 0
2019-09-19 01:17:31 GMT 54.231216 0.015538 32,000 295 457 0
2019-09-19 01:17:28 GMT 54.227539 0.029647 32,000 295 457 0
2019-09-19 01:17:25 GMT 54.225723 0.036569 32,000 295 457 0
2019-09-19 01:17:22 GMT 54.223118 0.046369 32,000 295 457 0
2019-09-19 01:17:19 GMT 54.219864 0.058855 32,000 295 457 0
2019-09-19 01:17:16 GMT 54.217251 0.068665 32,000 295 457 0
2019-09-19 01:17:13 GMT 54.212921 0.085063 32,000 295 456 0
2019-09-19 01:17:10 GMT 54.212921 0.085063 32,000 295 456 0
2019-09-19 01:17:07 GMT 54.210266 0.095242 32,000 295 456 0
2019-09-19 01:17:04 GMT 54.207687 0.105076 32,000 295 456 0
2019-09-19 01:17:01 GMT 54.204300 0.117868 32,000 295 456 0
2019-09-19 01:16:58 GMT 54.202240 0.125715 32,000 295 456 0
2019-09-19 01:16:55 GMT 54.199905 0.134583 32,000 295 456 0
2019-09-19 01:16:52 GMT 54.197281 0.144357 32,000 295 456 0
2019-09-19 01:16:49 GMT 54.194763 0.153889 32,000 295 456 0
2019-09-19 01:16:46 GMT 54.191345 0.166992 32,000 295 456 0
2019-09-19 01:16:43 GMT 54.189606 0.173506 32,000 295 456 0
2019-09-19 01:16:40 GMT 54.186993 0.183375 32,000 295 456 0
2019-09-19 01:16:37 GMT 54.184204 0.193830 32,000 295 456 0
2019-09-19 01:16:34 GMT 54.181000 0.205915 32,000 295 456 0
2019-09-19 01:16:31 GMT 54.178936 0.213749 32,000 295 456 0
2019-09-19 01:16:28 GMT 54.175724 0.225866 32,000 295 456 0
2019-09-19 01:16:25 GMT 54.171387 0.242249 32,000 295 456 0
2019-09-19 01:16:19 GMT 54.165390 0.264803 32,000 295 456 0
2019-09-19 01:16:16 GMT 54.165390 0.264803 32,000 295 456 0
2019-09-19 01:16:13 GMT 54.163742 0.270970 32,000 295 456 0
2019-09-19 01:16:10 GMT 54.160969 0.281444 32,000 295 456 0
2019-09-19 01:16:07 GMT 54.157944 0.292915 32,000 295 456 0
2019-09-19 01:16:04 GMT 54.155777 0.301104 32,000 295 456 0
2019-09-19 01:16:01 GMT 54.153194 0.310848 32,000 295 455 0
2019-09-19 01:15:58 GMT 54.150494 0.321027 32,000 295 455 0
2019-09-19 01:15:55 GMT 54.147469 0.332417 32,000 295 455 0
2019-09-19 01:15:51 GMT 54.144333 0.344186 32,000 295 456 0
2019-09-19 01:15:48 GMT 54.140762 0.357527 32,000 295 456 0
2019-09-19 01:15:45 GMT 54.138157 0.367315 32,000 295 456 0
2019-09-19 01:15:42 GMT 54.136826 0.372201 32,000 295 455 0
2019-09-19 01:15:39 GMT 54.133987 0.382952 32,000 295 455 0
2019-09-19 01:15:36 GMT 54.130737 0.394958 32,000 295 455 0
2019-09-19 01:15:33 GMT 54.128662 0.402778 32,000 295 455 0
2019-09-19 01:15:30 GMT 54.123493 0.422004 32,000 295 455 0
2019-09-19 01:15:27 GMT 54.123493 0.422004 32,000 295 455 0
2019-09-19 01:15:24 GMT 54.120281 0.434041 32,000 295 455 0
2019-09-19 01:15:21 GMT 54.117325 0.445103 32,000 295 455 0
2019-09-19 01:15:18 GMT 54.115585 0.451538 32,000 295 455 0
2019-09-19 01:15:15 GMT 54.112839 0.461661 32,000 295 455 0
2019-09-19 01:15:12 GMT 54.110504 0.470450 32,000 295 455 0
2019-09-19 01:15:09 GMT 54.107014 0.483398 32,000 295 454 0
2019-09-19 01:15:06 GMT 54.105476 0.489215 32,000 295 453 0
2019-09-19 01:15:03 GMT 54.102493 0.500270 32,000 295 454 0
2019-09-19 01:15:00 GMT 54.099976 0.509687 32,000 295 454 0
2019-09-19 01:14:57 GMT 54.097378 0.519427 32,000 295 454 0
2019-09-19 01:14:54 GMT 54.094437 0.530483 32,000 295 453 0
2019-09-19 01:14:51 GMT 54.091370 0.541783 32,000 295 454 0
2019-09-19 01:14:48 GMT 54.089310 0.549630 32,000 295 454 0
2019-09-19 01:14:45 GMT 54.087231 0.557395 32,000 295 454 0
2019-09-19 01:14:42 GMT 54.084412 0.567758 32,000 295 454 0
2019-09-19 01:14:39 GMT 54.081985 0.576861 32,000 295 454 0
2019-09-19 01:14:36 GMT 54.079224 0.587203 32,000 295 454 0
2019-09-19 01:14:33 GMT 54.075825 0.599805 32,000 295 453 0
2019-09-19 01:14:30 GMT 54.073013 0.610212 32,000 295 453 0
2019-09-19 01:14:27 GMT 54.071594 0.615391 32,000 295 453 0
2019-09-19 01:14:24 GMT 54.068573 0.626692 32,000 295 453 0
2019-09-19 01:14:21 GMT 54.062256 0.649998 32,000 295 453 0
2019-09-19 01:14:17 GMT 54.062256 0.649998 32,000 295 453 0
2019-09-19 01:14:14 GMT 54.060184 0.657726 32,000 295 453 0
2019-09-19 01:14:11 GMT 54.054932 0.677072 32,000 295 452 0
2019-09-19 01:14:05 GMT 54.051571 0.689311 32,000 295 452 0
2019-09-19 01:14:02 GMT 54.049667 0.696455 32,000 295 452 0
2019-09-19 01:13:59 GMT 54.044128 0.716701 32,000 295 452 0
2019-09-19 01:13:56 GMT 54.044128 0.716701 32,000 295 451 0
2019-09-19 01:13:53 GMT 54.041428 0.726746 32,000 295 451 0
2019-09-19 01:13:50 GMT 54.039326 0.734468 32,000 296 451 0
2019-09-19 01:13:47 GMT 54.036114 0.746343 32,000 295 451 0
2019-09-19 01:13:44 GMT 54.030487 0.766924 32,000 295 451 0
2019-09-19 01:13:41 GMT 54.030487 0.766924 32,000 295 451 0
2019-09-19 01:13:38 GMT 54.025223 0.786229 32,000 295 451 0
2019-09-19 01:13:35 GMT 54.025223 0.786229 32,000 295 451 0
2019-09-19 01:13:32 GMT 54.023117 0.793919 32,000 295 451 0
2019-09-19 01:13:29 GMT 54.018147 0.812180 32,000 295 451 0
2019-09-19 01:13:23 GMT 54.015610 0.821542 32,000 295 451 0
2019-09-19 01:13:20 GMT 54.012978 0.831164 32,000 295 451 0
2019-09-19 01:13:17 GMT 54.009293 0.844613 32,000 295 451 0
2019-09-19 01:13:14 GMT 54.007580 0.851037 32,000 295 451 0
2019-09-19 01:13:11 GMT 54.004879 0.861053 32,000 295 451 0
2019-09-19 01:13:08 GMT 54.001293 0.874221 32,000 295 451 0
2019-09-19 01:13:05 GMT 53.999084 0.882202 32,000 295 451 0
2019-09-19 01:13:02 GMT 53.996887 0.890285 32,000 295 451 0
2019-09-19 01:12:59 GMT 53.994186 0.900251 32,000 295 451 0
2019-09-19 01:12:56 GMT 53.991486 0.910139 32,000 295 451 0
2019-09-19 01:12:53 GMT 53.988419 0.921439 32,000 295 451 0
2019-09-19 01:12:50 GMT 53.985535 0.932033 32,000 295 451 0
2019-09-19 01:12:46 GMT 53.982906 0.941593 32,000 295 451 0
2019-09-19 01:12:43 GMT 53.980270 0.951259 32,000 295 451 0
2019-09-19 01:12:40 GMT 53.976948 0.963485 32,000 295 451 0
2019-09-19 01:12:37 GMT 53.975689 0.967928 32,000 295 451 0
2019-09-19 01:12:34 GMT 53.971733 0.982388 32,000 295 451 0
2019-09-19 01:12:31 GMT 53.969971 0.988770 32,000 295 451 0
2019-09-19 01:12:28 GMT 53.967361 0.998422 32,000 295 452 0
2019-09-19 01:12:25 GMT 53.964294 1.009644 32,000 295 452 0
2019-09-19 01:12:22 GMT 53.961914 1.018276 32,000 295 452 0
2019-09-19 01:12:19 GMT 53.959167 1.028242 32,000 295 452 0
2019-09-19 01:12:16 GMT 53.955673 1.041035 32,000 296 451 0
2019-09-19 01:12:13 GMT 53.953903 1.047468 32,000 296 451 0
2019-09-19 01:12:10 GMT 53.951344 1.056788 32,000 296 451 0
2019-09-19 01:12:07 GMT 53.948597 1.066643 32,000 296 451 0
2019-09-19 01:12:04 GMT 53.945160 1.079171 32,000 296 451 0
2019-09-19 01:12:01 GMT 53.943478 1.085223 32,000 296 451 0
2019-09-19 01:11:58 GMT 53.939941 1.098005 32,000 296 451 0
2019-09-19 01:11:55 GMT 53.938217 1.104126 32,000 296 451 0
2019-09-19 01:11:52 GMT 53.935410 1.114328 32,000 296 451 0
2019-09-19 01:11:49 GMT 53.931427 1.128688 32,000 296 451 0
2019-09-19 01:11:45 GMT 53.928951 1.137650 32,000 296 451 0
2019-09-19 01:11:42 GMT 53.926392 1.146940 32,000 296 451 0
2019-09-19 01:11:39 GMT 53.923645 1.156877 32,000 296 451 0
2019-09-19 01:11:36 GMT 53.920715 1.167376 32,000 296 451 0
2019-09-19 01:11:33 GMT 53.918060 1.176991 32,000 296 451 0
2019-09-19 01:11:30 GMT 53.915451 1.186523 32,000 296 451 0
2019-09-19 01:11:27 GMT 53.913311 1.194198 32,000 296 451 0
2019-09-19 01:11:24 GMT 53.910236 1.205426 32,000 296 451 0
2019-09-19 01:11:21 GMT 53.907677 1.214636 32,000 296 451 0
2019-09-19 01:11:18 GMT 53.905117 1.223925 32,000 296 451 0
2019-09-19 01:11:15 GMT 53.902603 1.232811 32,000 296 450 0
2019-09-19 01:11:12 GMT 53.900043 1.242101 32,000 296 450 0
2019-09-19 01:11:09 GMT 53.897297 1.251957 32,000 296 450 0
2019-09-19 01:11:06 GMT 53.894550 1.261893 32,000 296 451 0
2019-09-19 01:11:03 GMT 53.891991 1.271102 32,000 296 451 0
2019-09-19 01:11:00 GMT 53.889267 1.281006 32,000 296 451 0
2019-09-19 01:10:57 GMT 53.886703 1.290266 32,000 296 451 0
2019-09-19 01:10:54 GMT 53.880478 1.312631 32,000 296 451 0
2019-09-19 01:10:51 GMT 53.880478 1.312631 32,000 296 450 0
2019-09-19 01:10:48 GMT 53.878723 1.319006 32,000 296 450 0
2019-09-19 01:10:45 GMT 53.876129 1.328247 32,000 296 450 0
2019-09-19 01:10:42 GMT 53.872765 1.340332 32,000 296 450 0
2019-09-19 01:10:39 GMT 53.868073 1.357282 32,000 296 450 0
2019-09-19 01:10:36 GMT 53.868073 1.357282 32,000 296 450 0
2019-09-19 01:10:33 GMT 53.865509 1.366464 32,000 296 450 0
2019-09-19 01:10:30 GMT 53.863037 1.375410 32,000 296 450 0
2019-09-19 01:10:27 GMT 53.860474 1.384670 32,000 296 450 0
2019-09-19 01:10:24 GMT 53.857075 1.396718 32,000 296 450 0
2019-09-19 01:10:21 GMT 53.853882 1.408212 32,000 296 450 0
2019-09-19 01:10:18 GMT 53.852047 1.414894 32,000 296 450 0
2019-09-19 01:10:15 GMT 53.844738 1.440986 32,000 296 451 0
2019-09-19 01:10:11 GMT 53.844738 1.440986 32,000 296 451 0
2019-09-19 01:10:08 GMT 53.842804 1.447998 32,000 296 451 0
2019-09-19 01:10:05 GMT 53.839508 1.459769 32,000 296 451 0
2019-09-19 01:10:01 GMT 53.837540 1.466753 32,000 296 451 0
2019-09-19 01:09:58 GMT 53.834427 1.477897 32,000 296 451 0
2019-09-19 01:09:55 GMT 53.831131 1.489589 32,000 296 451 0
2019-09-19 01:09:52 GMT 53.828384 1.499477 32,000 296 450 0
2019-09-19 01:09:49 GMT 53.826397 1.506500 32,000 296 450 0
2019-09-19 01:09:46 GMT 53.823029 1.518546 32,000 296 450 0
2019-09-19 01:09:43 GMT 53.820419 1.527727 32,000 296 450 0
2019-09-19 01:09:40 GMT 53.817833 1.536955 32,000 296 450 0
2019-09-19 01:09:37 GMT 53.815521 1.545227 32,000 296 450 0
2019-09-19 01:09:34 GMT 53.813095 1.553781 32,000 296 450 0
2019-09-19 01:09:31 GMT 53.810059 1.564582 32,000 296 450 0
2019-09-19 01:09:28 GMT 53.807915 1.572176 32,000 296 450 0
2019-09-19 01:09:25 GMT 53.803711 1.587054 32,000 296 450 0
2019-09-19 01:09:22 GMT 53.802292 1.592154 32,000 296 450 0
2019-09-19 01:09:19 GMT 53.799442 1.602307 32,000 296 450 0
2019-09-19 01:09:16 GMT 53.796837 1.611517 32,000 296 450 0
2019-09-19 01:09:13 GMT 53.794144 1.621033 32,000 296 449 0
2019-09-19 01:09:10 GMT 53.791389 1.630823 32,000 296 449 0
2019-09-19 01:09:07 GMT 53.788879 1.639709 32,000 296 449 0
2019-09-19 01:09:04 GMT 53.786087 1.649519 32,000 296 450 0
2019-09-19 01:09:01 GMT 53.784027 1.656817 32,000 296 450 0
2019-09-19 01:08:58 GMT 53.779705 1.672022 32,000 296 450 0
2019-09-19 01:08:55 GMT 53.776886 1.682164 32,000 296 450 0
2019-09-19 01:08:52 GMT 53.775517 1.686886 32,000 296 450 0
2019-09-19 01:08:49 GMT 53.772583 1.697307 32,000 296 450 0
2019-09-19 01:08:46 GMT 53.767136 1.716614 32,000 296 450 0
2019-09-19 01:08:40 GMT 53.762573 1.732770 32,000 296 450 0
2019-09-19 01:08:34 GMT 53.758347 1.747689 32,000 296 450 0
2019-09-19 01:08:31 GMT 53.756660 1.753693 32,000 296 450 0
2019-09-19 01:08:28 GMT 53.753586 1.764483 32,000 296 450 0
2019-09-19 01:08:25 GMT 53.747864 1.784729 32,000 296 449 0
2019-09-19 01:08:22 GMT 53.747864 1.784729 32,000 296 449 0
2019-09-19 01:08:19 GMT 53.745621 1.792655 32,000 296 449 0
2019-09-19 01:08:16 GMT 53.743011 1.801836 32,000 296 449 0
2019-09-19 01:08:13 GMT 53.740231 1.811613 32,000 296 449 0
2019-09-19 01:08:10 GMT 53.734875 1.830597 32,000 296 450 0
2019-09-19 01:08:07 GMT 53.734875 1.830597 32,000 296 450 0
2019-09-19 01:08:04 GMT 53.731430 1.842564 32,000 296 450 0
2019-09-19 01:08:01 GMT 53.729755 1.848611 32,000 296 450 0
2019-09-19 01:07:58 GMT 53.727036 1.858102 32,000 296 450 0
2019-09-19 01:07:55 GMT 53.724243 1.867833 32,000 296 450 0
2019-09-19 01:07:52 GMT 53.721634 1.877014 32,000 296 450 0
2019-09-19 01:07:49 GMT 53.718071 1.889648 32,000 296 450 0
2019-09-19 01:07:46 GMT 53.715279 1.899423 32,000 296 450 0
2019-09-19 01:07:42 GMT 53.712570 1.908875 32,000 296 450 0
2019-09-19 01:07:39 GMT 53.709412 1.919942 32,000 296 450 0
2019-09-19 01:07:36 GMT 53.707260 1.927551 32,000 296 450 0
2019-09-19 01:07:33 GMT 53.703827 1.939491 32,000 296 450 0
2019-09-19 01:07:30 GMT 53.701996 1.945836 32,000 296 450 0
2019-09-19 01:07:27 GMT 53.699123 1.955890 32,000 296 450 0
2019-09-19 01:07:24 GMT 53.693073 1.977054 32,000 296 449 0
2019-09-19 01:07:21 GMT 53.693073 1.977054 32,000 296 449 0
2019-09-19 01:07:18 GMT 53.690838 1.984890 32,000 296 449 0
2019-09-19 01:07:15 GMT 53.687943 1.995039 32,000 296 449 0
2019-09-19 01:07:12 GMT 53.685856 2.002258 32,000 296 449 0
2019-09-19 01:07:09 GMT 53.683064 2.012033 32,000 296 449 0
2019-09-19 01:07:06 GMT 53.679523 2.024312 32,000 296 449 0
2019-09-19 01:07:03 GMT 53.676731 2.034086 32,000 296 449 0
2019-09-19 01:07:00 GMT 53.674393 2.042280 32,000 296 449 0
2019-09-19 01:06:57 GMT 53.671333 2.052989 32,000 296 449 0
2019-09-19 01:06:54 GMT 53.669403 2.059544 32,000 296 449 0
2019-09-19 01:06:51 GMT 53.665791 2.072215 32,000 296 449 0
2019-09-19 01:06:45 GMT 53.660904 2.089180 32,000 296 450 0
2019-09-19 01:06:42 GMT 53.658646 2.097055 32,000 296 450 0
2019-09-19 01:06:39 GMT 53.652466 2.118478 32,000 296 450 0
2019-09-19 01:06:36 GMT 53.652466 2.118478 32,000 296 450 0
2019-09-19 01:06:33 GMT 53.649857 2.127581 32,000 296 450 0
2019-09-19 01:06:30 GMT 53.647659 2.135193 32,000 296 450 0
2019-09-19 01:06:27 GMT 53.644684 2.145551 32,000 296 450 0
2019-09-19 01:06:23 GMT 53.640514 2.160106 32,000 296 451 0
2019-09-19 01:06:20 GMT 53.638138 2.168309 32,000 296 451 0
2019-09-19 01:06:17 GMT 53.635441 2.177716 32,000 296 451 0
2019-09-19 01:06:14 GMT 53.632694 2.187168 32,000 296 451 0
2019-09-19 01:06:11 GMT 53.630173 2.196010 32,000 296 451 0
2019-09-19 01:06:08 GMT 53.627335 2.205741 32,000 296 451 0
2019-09-19 01:06:05 GMT 53.625183 2.213353 32,000 296 451 0
2019-09-19 01:06:02 GMT 53.621979 2.224339 32,000 297 449 0
2019-09-19 01:05:59 GMT 53.616772 2.242261 32,000 297 450 0
2019-09-19 01:05:56 GMT 53.613235 2.254540 32,000 297 450 0
2019-09-19 01:05:53 GMT 53.613235 2.254540 32,000 297 450 0
2019-09-19 01:05:50 GMT 53.610489 2.263968 32,000 297 450 0
2019-09-19 01:05:47 GMT 53.608292 2.271502 32,000 297 450 0
2019-09-19 01:05:44 GMT 53.602615 2.291042 32,000 297 450 0
2019-09-19 01:05:41 GMT 53.600143 2.299517 32,000 297 450 0
2019-09-19 01:05:35 GMT 53.597408 2.308906 32,000 297 450 0
2019-09-19 01:05:32 GMT 53.594521 2.318923 32,000 297 450 0
2019-09-19 01:05:29 GMT 53.592052 2.327405 32,000 297 450 0
2019-09-19 01:05:26 GMT 53.588562 2.339382 32,000 297 449 0
2019-09-19 01:05:23 GMT 53.586746 2.345662 32,000 297 449 0
2019-09-19 01:05:20 GMT 53.584076 2.354762 32,000 297 449 0
2019-09-19 01:05:17 GMT 53.581532 2.363515 32,000 297 449 0
2019-09-19 01:05:13 GMT 53.577347 2.377912 32,000 297 449 0
2019-09-19 01:05:10 GMT 53.575058 2.385760 32,000 297 449 0
2019-09-19 01:05:07 GMT 53.571945 2.396432 32,000 297 449 0
2019-09-19 01:05:03 GMT 53.566818 2.414010 32,000 297 449 0
2019-09-19 01:05:00 GMT 53.564987 2.420210 32,000 297 449 0
2019-09-19 01:04:57 GMT 53.562820 2.427736 32,000 297 449 0
2019-09-19 01:04:54 GMT 53.559906 2.437788 32,000 297 449 0
2019-09-19 01:04:51 GMT 53.556152 2.450657 32,000 297 449 0
2019-09-19 01:04:48 GMT 53.550339 2.470354 32,000 297 449 0
2019-09-19 01:04:44 GMT 53.550339 2.470354 32,000 297 449 0
2019-09-19 01:04:41 GMT 53.548340 2.477175 32,000 297 449 64
2019-09-19 01:04:38 GMT 53.545029 2.488403 32,000 297 449 0
2019-09-19 01:04:35 GMT 53.541729 2.499713 32,000 297 450 64
2019-09-19 01:04:32 GMT 53.538891 2.509407 32,000 297 450 64
2019-09-19 01:04:29 GMT 53.537121 2.515304 32,000 297 450 64
2019-09-19 01:04:26 GMT 53.534748 2.523463 32,000 297 449 -64
2019-09-19 01:04:22 GMT 53.529629 2.540912 32,000 297 450 0
2019-09-19 01:04:19 GMT 53.527950 2.546566 32,000 297 450 0
2019-09-19 01:04:16 GMT 53.525112 2.556260 32,000 297 449 0
2019-09-19 01:04:13 GMT 53.521900 2.567166 32,000 297 449 0
2019-09-19 01:04:10 GMT 53.519669 2.574646 32,000 297 447 0
2019-09-19 01:04:07 GMT 53.516640 2.584938 32,000 297 449 0
2019-09-19 01:04:03 GMT 53.512962 2.597459 32,000 297 449 0
2019-09-19 01:04:00 GMT 53.510651 2.605251 32,000 297 448 0
2019-09-19 01:03:57 GMT 53.507702 2.615150 32,000 297 448 0
2019-09-19 01:03:54 GMT 53.503929 2.627914 32,000 297 448 0
2019-09-19 01:03:51 GMT 53.502136 2.634208 32,000 297 448 0
2019-09-19 01:03:48 GMT 53.497181 2.650936 32,000 297 448 0
2019-09-19 01:03:42 GMT 53.494034 2.661516 32,000 297 447 0
2019-09-19 01:03:39 GMT 53.491314 2.670889 32,000 297 447 0
2019-09-19 01:03:36 GMT 53.485977 2.688904 32,000 297 447 0
2019-09-19 01:03:30 GMT 53.482330 2.701263 32,000 297 447 0
2019-09-19 01:03:26 GMT 53.476093 2.722428 32,000 297 447 0
2019-09-19 01:03:23 GMT 53.476093 2.722428 32,000 297 447 0
2019-09-19 01:03:17 GMT 53.470600 2.741008 32,000 297 447 0
2019-09-19 01:03:14 GMT 53.467854 2.750298 32,000 297 447 0
2019-09-19 01:03:11 GMT 53.465385 2.758699 32,000 297 447 0
2019-09-19 01:03:08 GMT 53.462814 2.767378 32,000 297 447 0
2019-09-19 01:03:05 GMT 53.460251 2.776088 32,000 297 447 0
2019-09-19 01:03:02 GMT 53.457516 2.785357 32,000 303 442 0
2019-09-19 01:02:59 GMT 53.453842 2.797747 32,000 297 447 0
2019-09-19 01:02:56 GMT 53.451920 2.804260 32,000 297 447 0
2019-09-19 01:02:53 GMT 53.448898 2.814462 32,000 297 447 0
2019-09-19 01:02:50 GMT 53.446159 2.823809 32,000 297 447 0
2019-09-19 01:02:47 GMT 53.443787 2.831807 32,000 297 447 0
2019-09-19 01:02:44 GMT 53.441391 2.839887 32,000 297 446 0
2019-09-19 01:02:41 GMT 53.437920 2.851598 32,000 297 446 0
2019-09-19 01:02:38 GMT 53.435165 2.860918 32,000 297 446 0
2019-09-19 01:02:35 GMT 53.432327 2.870492 32,000 297 446 0
2019-09-19 01:02:32 GMT 53.429169 2.881003 32,000 297 446 0
2019-09-19 01:02:29 GMT 53.423859 2.898978 32,000 297 446 0
2019-09-19 01:02:26 GMT 53.423859 2.898978 32,000 297 446 0
2019-09-19 01:02:23 GMT 53.421387 2.907296 32,000 297 446 0
2019-09-19 01:02:20 GMT 53.418915 2.915615 32,000 297 446 0
2019-09-19 01:02:17 GMT 53.416031 2.925188 32,000 297 446 0
2019-09-19 01:02:14 GMT 53.412598 2.936567 32,000 298 445 0
2019-09-19 01:02:10 GMT 53.409164 2.947946 32,000 298 445 0
2019-09-19 01:02:07 GMT 53.406143 2.957755 32,000 298 445 0
2019-09-19 01:02:04 GMT 53.403656 2.965662 32,000 298 445 0
2019-09-19 01:02:01 GMT 53.400307 2.976326 32,000 299 445 0
2019-09-19 01:01:58 GMT 53.397446 2.985456 32,000 299 444 0
2019-09-19 01:01:55 GMT 53.394791 2.993617 32,000 299 445 0
2019-09-19 01:01:52 GMT 53.392273 3.001465 32,000 299 445 0
2019-09-19 01:01:49 GMT 53.386246 3.019786 32,000 300 443 0
2019-09-19 01:01:46 GMT 53.386246 3.019786 32,000 300 444 0
2019-09-19 01:01:43 GMT 53.383125 3.029076 32,000 300 443 0
2019-09-19 01:01:40 GMT 53.379959 3.038269 32,000 301 443 0
2019-09-19 01:01:37 GMT 53.376984 3.046823 32,000 301 442 0
2019-09-19 01:01:34 GMT 53.374283 3.054522 32,000 301 443 0
2019-09-19 01:01:31 GMT 53.370941 3.063851 32,000 302 442 0
2019-09-19 01:01:28 GMT 53.367348 3.073829 32,000 302 442 0
2019-09-19 01:01:25 GMT 53.364853 3.080488 32,000 303 442 0
2019-09-19 01:01:22 GMT 53.361053 3.090611 32,000 303 441 0
2019-09-19 01:01:19 GMT 53.357895 3.098929 32,000 303 441 0
2019-09-19 01:01:16 GMT 53.354637 3.107596 32,000 303 441 0
2019-09-19 01:01:13 GMT 53.352127 3.114232 32,000 303 441 0
2019-09-19 01:01:10 GMT 53.348740 3.123178 32,000 303 441 0
2019-09-19 01:01:07 GMT 53.344254 3.134949 32,000 303 441 0
2019-09-19 01:01:04 GMT 53.339218 3.148211 32,000 303 441 0
2019-09-19 01:01:01 GMT 53.337479 3.152762 32,000 303 441 0
2019-09-19 01:00:58 GMT 53.334869 3.159668 32,000 303 441 0
2019-09-19 01:00:55 GMT 53.329079 3.174968 32,000 303 441 0
2019-09-19 01:00:49 GMT 53.325821 3.183612 32,000 303 442 0
2019-09-19 01:00:46 GMT 53.321678 3.194517 32,000 303 442 0
2019-09-19 01:00:43 GMT 53.318710 3.202279 32,000 303 442 0
2019-09-19 01:00:39 GMT 53.313950 3.214955 32,000 303 441 0
2019-09-19 01:00:36 GMT 53.310551 3.223922 32,000 303 441 0
2019-09-19 01:00:33 GMT 53.307312 3.232570 32,000 303 441 0
2019-09-19 01:00:30 GMT 53.304382 3.240339 32,000 303 441 0
2019-09-19 01:00:27 GMT 53.301010 3.249287 32,000 303 441 0
2019-09-19 01:00:24 GMT 53.297890 3.257608 32,000 303 441 0
2019-09-19 01:00:21 GMT 53.294491 3.266575 32,000 303 442 0
2019-09-19 01:00:18 GMT 53.291382 3.274946 32,000 303 442 0
2019-09-19 01:00:15 GMT 53.286942 3.286795 32,000 303 442 0
2019-09-19 01:00:11 GMT 53.284012 3.294564 32,000 303 442 0
2019-09-19 01:00:08 GMT 53.276413 3.314732 32,000 303 442 0
2019-09-19 01:00:05 GMT 53.276413 3.314732 32,000 303 442 0
2019-09-19 01:00:02 GMT 53.274380 3.320214 32,000 303 442 0
2019-09-19 00:59:59 GMT 53.271103 3.328857 32,000 304 440 0
2019-09-19 00:59:56 GMT 53.267303 3.338981 32,000 303 441 0
2019-09-19 00:59:53 GMT 53.264145 3.347299 32,000 303 442 0
2019-09-19 00:59:50 GMT 53.260803 3.356245 32,000 303 441 0
2019-09-19 00:59:47 GMT 53.258274 3.362867 32,000 303 441 0
2019-09-19 00:59:44 GMT 53.254456 3.372884 32,000 303 441 0
2019-09-19 00:59:41 GMT 53.247940 3.389675 32,000 304 441 0
2019-09-19 00:59:38 GMT 53.247940 3.389675 32,000 304 440 0
2019-09-19 00:59:35 GMT 53.244541 3.398168 32,000 304 440 0
2019-09-19 00:59:32 GMT 53.240353 3.408589 32,000 304 440 0
2019-09-19 00:59:29 GMT 53.234253 3.423811 32,000 304 440 0
2019-09-19 00:59:23 GMT 53.230854 3.432258 32,000 304 441 0
2019-09-19 00:59:20 GMT 53.226665 3.442679 32,000 304 440 0
2019-09-19 00:59:17 GMT 53.224293 3.448657 32,000 304 440 0
2019-09-19 00:59:14 GMT 53.220474 3.458270 32,000 304 441 0
2019-09-19 00:59:11 GMT 53.217545 3.465559 32,000 304 441 0
2019-09-19 00:59:08 GMT 53.213837 3.474897 32,000 304 440 0
2019-09-19 00:59:05 GMT 53.209675 3.485413 32,000 304 441 0
2019-09-19 00:59:02 GMT 53.207428 3.491063 32,000 304 442 0
2019-09-19 00:58:58 GMT 53.199829 3.510367 32,000 304 442 0
2019-09-19 00:58:55 GMT 53.199829 3.510367 32,000 308 456 0
2019-09-19 00:58:52 GMT 53.196350 3.519156 32,000 304 442 0
2019-09-19 00:58:49 GMT 53.193008 3.527661 32,000 304 442 0
2019-09-19 00:58:46 GMT 53.189331 3.537032 32,000 304 442 0
2019-09-19 00:58:43 GMT 53.181610 3.556667 32,000 304 442 0
2019-09-19 00:58:40 GMT 53.181610 3.556667 32,000 304 442 0
2019-09-19 00:58:37 GMT 53.180054 3.560669 32,000 304 442 0
2019-09-19 00:58:34 GMT 53.172180 3.580601 32,000 304 442 0
2019-09-19 00:58:31 GMT 53.172180 3.580601 32,000 304 442 0
2019-09-19 00:58:28 GMT 53.168613 3.589621 32,000 309 440 0
2019-09-19 00:58:25 GMT 53.165913 3.596407 32,000 304 442 0
2019-09-19 00:58:22 GMT 53.162521 3.604928 32,000 304 441 0
2019-09-19 00:58:19 GMT 53.159306 3.612806 32,000 305 442 0
2019-09-19 00:58:16 GMT 53.155300 3.622661 32,000 305 441 0
2019-09-19 00:58:13 GMT 53.151951 3.630739 32,000 306 441 0
2019-09-19 00:58:10 GMT 53.148743 3.638201 32,000 307 440 0
2019-09-19 00:58:07 GMT 53.144875 3.646895 32,000 308 440 0
2019-09-19 00:58:04 GMT 53.141289 3.654731 32,000 308 440 0
2019-09-19 00:58:01 GMT 53.138260 3.661037 32,000 309 439 0
2019-09-19 00:57:58 GMT 53.132721 3.672665 32,000 309 440 0
2019-09-19 00:57:55 GMT 53.129929 3.678458 32,000 309 440 0
2019-09-19 00:57:52 GMT 53.122063 3.694799 32,000 309 440 0
2019-09-19 00:57:49 GMT 53.122063 3.694799 32,000 309 440 0
2019-09-19 00:57:45 GMT 53.117752 3.703805 32,000 309 440 0
2019-09-19 00:57:42 GMT 53.113914 3.711682 32,000 309 439 0
2019-09-19 00:57:39 GMT 53.109604 3.720677 32,000 309 439 0
2019-09-19 00:57:36 GMT 53.105438 3.729309 32,000 309 439 0
2019-09-19 00:57:33 GMT 53.100834 3.738825 32,000 309 440 0
2019-09-19 00:57:29 GMT 53.096649 3.747515 32,000 309 439 0
2019-09-19 00:57:26 GMT 53.092712 3.755646 32,000 309 439 0
2019-09-19 00:57:23 GMT 53.088776 3.763809 32,000 309 440 0
2019-09-19 00:57:20 GMT 53.085342 3.770905 32,000 309 441 0
2019-09-19 00:57:17 GMT 53.081543 3.778839 32,000 309 441 0
2019-09-19 00:57:14 GMT 53.073898 3.794632 32,000 309 441 0
2019-09-19 00:57:11 GMT 53.073898 3.794632 32,000 309 441 0
2019-09-19 00:57:08 GMT 53.068806 3.805193 32,000 309 441 0
2019-09-19 00:57:05 GMT 53.065750 3.811493 32,000 309 441 0
2019-09-19 00:57:02 GMT 53.062958 3.817291 32,000 309 441 0
2019-09-19 00:56:59 GMT 53.058746 3.825989 32,000 309 441 0
2019-09-19 00:56:56 GMT 53.054810 3.834076 32,000 309 441 0
2019-09-19 00:56:53 GMT 53.051861 3.840193 32,000 309 441 0
2019-09-19 00:56:50 GMT 53.048035 3.848038 32,000 309 441 0
2019-09-19 00:56:47 GMT 53.044228 3.855966 32,000 309 441 0
2019-09-19 00:56:44 GMT 53.034668 3.875656 32,000 309 441 0
2019-09-19 00:56:41 GMT 53.034668 3.875656 32,000 310 441 0
2019-09-19 00:56:38 GMT 53.031601 3.881989 32,000 309 441 0
2019-09-19 00:56:34 GMT 53.027161 3.891220 32,000 309 440 0
2019-09-19 00:56:31 GMT 53.023464 3.898812 32,000 309 440 0
2019-09-19 00:56:28 GMT 53.018993 3.907994 32,000 309 440 0
2019-09-19 00:56:25 GMT 53.014805 3.916704 32,000 309 440 0
2019-09-19 00:56:22 GMT 53.010727 3.925095 32,000 309 440 0
2019-09-19 00:56:19 GMT 53.007637 3.931379 32,000 309 440 0
2019-09-19 00:56:16 GMT 53.000141 3.946838 32,000 309 440 0
2019-09-19 00:56:13 GMT 53.000141 3.946838 32,000 310 441 0
2019-09-19 00:56:10 GMT 52.996185 3.955000 32,000 309 440 0
2019-09-19 00:56:07 GMT 52.992229 3.963161 32,000 309 440 0
2019-09-19 00:56:04 GMT 52.988892 3.969955 32,000 309 440 0
2019-09-19 00:56:01 GMT 52.984451 3.979111 32,000 310 441 0
2019-09-19 00:55:58 GMT 52.976898 3.994598 32,000 309 440 0
2019-09-19 00:55:55 GMT 52.976898 3.994598 32,000 309 440 0
2019-09-19 00:55:52 GMT 52.973049 4.002476 32,000 309 440 0
2019-09-19 00:55:49 GMT 52.968346 4.012207 32,000 309 440 0
2019-09-19 00:55:46 GMT 52.961830 4.025548 32,000 309 440 0
2019-09-19 00:55:43 GMT 52.961830 4.025548 32,000 309 440 0
2019-09-19 00:55:40 GMT 52.957825 4.033709 32,000 309 440 0
2019-09-19 00:55:37 GMT 52.953735 4.042053 32,000 309 440 0
2019-09-19 00:55:34 GMT 52.950668 4.048386 32,000 310 441 0
2019-09-19 00:55:31 GMT 52.945953 4.058075 32,000 310 441 0
2019-09-19 00:55:28 GMT 52.942474 4.065170 32,000 310 441 0
2019-09-19 00:55:25 GMT 52.938492 4.073257 32,000 310 441 0
2019-09-19 00:55:22 GMT 52.935287 4.079819 32,000 310 441 0
2019-09-19 00:55:19 GMT 52.931442 4.087677 32,000 310 441 0
2019-09-19 00:55:16 GMT 52.927612 4.095546 32,000 310 441 0
2019-09-19 00:55:13 GMT 52.922470 4.106064 32,000 310 441 0
2019-09-19 00:55:10 GMT 52.919266 4.112549 32,000 310 441 0
2019-09-19 00:55:07 GMT 52.914505 4.122238 32,000 310 441 0
2019-09-19 00:55:04 GMT 52.911438 4.128571 32,000 310 441 0
2019-09-19 00:55:01 GMT 52.907875 4.135882 32,000 310 441 0
2019-09-19 00:54:58 GMT 52.903641 4.144592 32,000 310 441 0
2019-09-19 00:54:55 GMT 52.899914 4.152126 32,000 309 442 0
2019-09-19 00:54:52 GMT 52.895634 4.160836 32,000 309 442 0
2019-09-19 00:54:49 GMT 52.891937 4.168396 32,000 309 442 0
2019-09-19 00:54:46 GMT 52.888962 4.174423 32,000 309 442 0
2019-09-19 00:54:43 GMT 52.881248 4.190186 32,000 310 442 0
2019-09-19 00:54:40 GMT 52.881248 4.190186 32,000 310 442 0
2019-09-19 00:54:37 GMT 52.877804 4.197248 32,000 310 442 0
2019-09-19 00:54:34 GMT 52.873169 4.206696 32,000 310 442 0
2019-09-19 00:54:31 GMT 52.868683 4.215851 32,000 310 442 0
2019-09-19 00:54:28 GMT 52.865978 4.221340 32,000 310 442 0
2019-09-19 00:54:25 GMT 52.861977 4.229422 32,000 310 442 0
2019-09-19 00:54:22 GMT 52.856667 4.240173 32,000 310 442 0
2019-09-19 00:54:19 GMT 52.853970 4.245667 32,000 310 442 0
2019-09-19 00:54:16 GMT 52.850895 4.251944 32,000 310 442 0
2019-09-19 00:54:13 GMT 52.846378 4.261126 32,000 310 442 0
2019-09-19 00:54:10 GMT 52.841217 4.271545 32,000 310 442 0
2019-09-19 00:54:07 GMT 52.838421 4.277291 32,000 310 442 0
2019-09-19 00:54:04 GMT 52.830551 4.293213 32,000 310 442 0
2019-09-19 00:54:01 GMT 52.830551 4.293213 32,000 310 441 0
2019-09-19 00:53:58 GMT 52.826550 4.301304 32,000 310 441 0
2019-09-19 00:53:55 GMT 52.822823 4.308916 32,000 310 441 0
2019-09-19 00:53:52 GMT 52.819611 4.315414 32,000 310 441 0
2019-09-19 00:53:49 GMT 52.811096 4.332581 32,000 310 441 0
2019-09-19 00:53:46 GMT 52.807510 4.339835 32,000 310 440 0
2019-09-19 00:53:43 GMT 52.807510 4.339835 32,000 310 439 0
2019-09-19 00:53:40 GMT 52.803406 4.348221 32,000 310 439 0
2019-09-19 00:53:37 GMT 52.799129 4.356785 32,000 310 439 0
2019-09-19 00:53:34 GMT 52.795807 4.363480 32,000 310 439 0
2019-09-19 00:53:31 GMT 52.792099 4.371033 32,000 310 439 0
2019-09-19 00:53:28 GMT 52.786934 4.381426 32,000 310 439 0
2019-09-19 00:53:25 GMT 52.784233 4.386919 32,000 310 439 0
2019-09-19 00:53:22 GMT 52.780655 4.394150 32,000 310 439 0
2019-09-19 00:53:19 GMT 52.774223 4.407087 32,000 310 439 0
2019-09-19 00:53:16 GMT 52.772552 4.410477 32,000 310 439 0
2019-09-19 00:53:13 GMT 52.768845 4.417953 32,000 310 439 0
2019-09-19 00:53:10 GMT 52.764130 4.427567 32,000 310 439 0
2019-09-19 00:53:07 GMT 52.761421 4.432983 32,000 310 439 0
2019-09-19 00:53:04 GMT 52.757584 4.440765 32,000 310 439 0
2019-09-19 00:53:01 GMT 52.753601 4.448776 32,000 310 439 0
2019-09-19 00:52:58 GMT 52.749367 4.457310 32,000 310 439 0
2019-09-19 00:52:55 GMT 52.742065 4.472046 32,000 310 439 0
2019-09-19 00:52:52 GMT 52.742065 4.472046 32,000 310 439 0
2019-09-19 00:52:49 GMT 52.738472 4.479283 32,000 310 439 0
2019-09-19 00:52:46 GMT 52.733723 4.488857 32,000 310 439 0
2019-09-19 00:52:43 GMT 52.729752 4.496841 32,000 310 439 0
2019-09-19 00:52:40 GMT 52.725159 4.506121 32,000 310 439 0
2019-09-19 00:52:37 GMT 52.722969 4.510515 32,000 310 438 0
2019-09-19 00:52:34 GMT 52.719131 4.518280 32,000 310 438 0
2019-09-19 00:52:31 GMT 52.716064 4.524460 32,000 310 438 0
2019-09-19 00:52:28 GMT 52.711029 4.534531 32,000 310 438 0
2019-09-19 00:52:25 GMT 52.707596 4.541473 32,000 310 438 0
2019-09-19 00:52:22 GMT 52.703110 4.550476 32,000 310 438 0
2019-09-19 00:52:19 GMT 52.699631 4.557495 32,000 310 438 0
2019-09-19 00:52:16 GMT 52.692032 4.572678 32,000 310 438 0
2019-09-19 00:52:13 GMT 52.692032 4.572678 32,000 310 438 0
2019-09-19 00:52:10 GMT 52.687450 4.581927 32,000 310 437 0
2019-09-19 00:52:07 GMT 52.684330 4.588126 32,000 310 438 0
2019-09-19 00:52:04 GMT 52.679352 4.598160 32,000 310 438 0
2019-09-19 00:52:01 GMT 52.677162 4.602487 32,000 310 438 0
2019-09-19 00:51:58 GMT 52.672134 4.612531 32,000 310 438 0
2019-09-19 00:51:55 GMT 52.667896 4.621007 32,000 310 438 0
2019-09-19 00:51:52 GMT 52.665619 4.625637 32,000 310 438 0
2019-09-19 00:51:49 GMT 52.660870 4.635132 32,000 310 437 0
2019-09-19 00:51:46 GMT 52.657379 4.642116 32,000 310 437 0
2019-09-19 00:51:43 GMT 52.653141 4.650591 32,000 310 437 0
2019-09-19 00:51:40 GMT 52.648907 4.659066 32,000 310 437 0
2019-09-19 00:51:37 GMT 52.641876 4.673192 32,000 310 437 0
2019-09-19 00:51:34 GMT 52.641876 4.673192 32,000 310 437 0
2019-09-19 00:51:31 GMT 52.637360 4.682138 32,000 310 437 0
2019-09-19 00:51:28 GMT 52.634262 4.688263 32,000 310 437 0
2019-09-19 00:51:25 GMT 52.630554 4.695740 32,000 310 437 0
2019-09-19 00:51:22 GMT 52.625443 4.705994 32,000 310 437 0
2019-09-19 00:51:19 GMT 52.622742 4.711330 32,000 310 437 0
2019-09-19 00:51:16 GMT 52.618103 4.720535 32,000 310 437 0
2019-09-19 00:51:13 GMT 52.614269 4.728202 32,000 310 436 0
2019-09-19 00:51:10 GMT 52.611832 4.733124 32,000 310 436 0
2019-09-19 00:51:07 GMT 52.606915 4.742798 32,000 310 437 0
2019-09-19 00:51:04 GMT 52.604370 4.747925 32,000 310 437 0
2019-09-19 00:51:01 GMT 52.599609 4.757385 32,000 310 437 0
2019-09-19 00:50:58 GMT 52.594719 4.767125 32,000 310 437 0
2019-09-19 00:50:54 GMT 52.590088 4.776306 32,000 310 437 0
2019-09-19 00:50:51 GMT 52.586338 4.783683 32,000 310 436 0
2019-09-19 00:50:48 GMT 52.583126 4.790118 32,000 310 437 0
2019-09-19 00:50:45 GMT 52.574421 4.807539 32,000 310 437 0
2019-09-19 00:50:42 GMT 52.574421 4.807539 32,000 310 437 0
2019-09-19 00:50:39 GMT 52.571045 4.814148 32,000 310 438 0
2019-09-19 00:50:36 GMT 52.567345 4.821586 32,000 310 438 0
2019-09-19 00:50:33 GMT 52.560013 4.836121 32,000 310 438 0
2019-09-19 00:50:30 GMT 52.560013 4.836121 32,000 310 437 0
2019-09-19 00:50:27 GMT 52.556396 4.843292 32,000 310 437 0
2019-09-19 00:50:24 GMT 52.552544 4.850935 32,000 310 437 0
2019-09-19 00:50:21 GMT 52.548660 4.858627 32,000 310 437 0
2019-09-19 00:50:18 GMT 52.544022 4.867807 32,000 310 437 0
2019-09-19 00:50:15 GMT 52.539509 4.876753 32,000 310 437 0
2019-09-19 00:50:12 GMT 52.536026 4.883652 32,000 310 437 0
2019-09-19 00:50:09 GMT 52.533455 4.888759 32,000 310 437 0
2019-09-19 00:50:06 GMT 52.528061 4.899445 32,000 310 437 0
2019-09-19 00:50:03 GMT 52.525726 4.904061 32,000 310 437 0
2019-09-19 00:50:00 GMT 52.520931 4.913478 32,000 310 437 0
2019-09-19 00:49:57 GMT 52.513344 4.928467 32,000 310 437 0
2019-09-19 00:49:54 GMT 52.513344 4.928467 32,000 310 437 0
2019-09-19 00:49:51 GMT 52.509342 4.936393 32,000 310 437 0
2019-09-19 00:49:48 GMT 52.504082 4.946830 32,000 310 437 0
2019-09-19 00:49:45 GMT 52.500591 4.953657 32,000 310 438 0
2019-09-19 00:49:42 GMT 52.498123 4.958496 32,000 310 438 0
2019-09-19 00:49:39 GMT 52.492859 4.968948 32,000 310 438 0
2019-09-19 00:49:36 GMT 52.490253 4.974060 32,000 310 438 0
2019-09-19 00:49:33 GMT 52.486771 4.980927 32,000 310 438 0
2019-09-19 00:49:30 GMT 52.482788 4.988785 32,000 310 438 0
2019-09-19 00:49:27 GMT 52.477638 4.999015 32,000 310 438 0
2019-09-19 00:49:23 GMT 52.473637 5.006862 32,000 310 438 0
2019-09-19 00:49:20 GMT 52.468609 5.016828 32,000 310 438 0
2019-09-19 00:49:17 GMT 52.464981 5.023956 32,000 310 440 0
2019-09-19 00:49:14 GMT 52.461624 5.030561 32,000 310 438 0
2019-09-19 00:49:11 GMT 52.457886 5.037918 32,000 310 438 0
2019-09-19 00:49:08 GMT 52.452827 5.047904 32,000 310 438 0
2019-09-19 00:49:05 GMT 52.445343 5.062637 32,000 310 438 0
2019-09-19 00:49:02 GMT 52.445343 5.062637 32,000 310 438 0
2019-09-19 00:48:59 GMT 52.443237 5.066757 32,000 310 438 0
2019-09-19 00:48:56 GMT 52.439255 5.074615 32,000 310 438 0
2019-09-19 00:48:53 GMT 52.434723 5.083542 32,000 310 438 0
2019-09-19 00:48:50 GMT 52.430695 5.091400 32,000 310 438 0
2019-09-19 00:48:47 GMT 52.422569 5.107465 32,000 310 438 0
2019-09-19 00:48:44 GMT 52.422569 5.107465 32,000 310 438 0
2019-09-19 00:48:41 GMT 52.419296 5.113831 32,000 310 438 0
2019-09-19 00:48:38 GMT 52.414886 5.122454 32,000 310 438 0
2019-09-19 00:48:35 GMT 52.405701 5.140533 32,000 310 438 0
2019-09-19 00:48:29 GMT 52.403248 5.145368 32,000 310 438 0
2019-09-19 00:48:26 GMT 52.399990 5.151725 32,000 310 438 0
2019-09-19 00:48:23 GMT 52.394806 5.161896 32,000 310 439 0
2019-09-19 00:48:20 GMT 52.391830 5.167770 32,000 310 439 0
2019-09-19 00:48:17 GMT 52.387794 5.175659 32,000 310 440 0
2019-09-19 00:48:14 GMT 52.382858 5.185318 32,000 310 440 0
2019-09-19 00:48:11 GMT 52.380386 5.190201 32,000 310 440 0
2019-09-19 00:48:08 GMT 52.376480 5.197789 32,000 310 440 0
2019-09-19 00:48:05 GMT 52.370728 5.209045 32,000 310 440 0
2019-09-19 00:48:02 GMT 52.368668 5.213089 32,000 310 440 0
2019-09-19 00:47:59 GMT 52.360611 5.228958 32,000 310 440 0
2019-09-19 00:47:56 GMT 52.360611 5.228958 32,000 310 440 0
2019-09-19 00:47:53 GMT 52.355904 5.238124 32,000 310 440 0
2019-09-19 00:47:50 GMT 52.347702 5.254135 32,000 310 440 0
2019-09-19 00:47:47 GMT 52.347702 5.254135 32,000 310 440 0
2019-09-19 00:47:44 GMT 52.344173 5.261039 32,000 310 439 0
2019-09-19 00:47:41 GMT 52.340122 5.268886 32,000 310 439 0
2019-09-19 00:47:38 GMT 52.334930 5.279083 32,000 310 439 0
2019-09-19 00:47:35 GMT 52.332863 5.283168 32,000 310 439 0
2019-09-19 00:47:32 GMT 52.328842 5.290985 32,000 310 439 0
2019-09-19 00:47:29 GMT 52.325691 5.297058 32,000 311 436 0
2019-09-19 00:47:26 GMT 52.320511 5.307236 32,000 310 438 0
2019-09-19 00:47:23 GMT 52.317638 5.312831 32,000 310 438 0
2019-09-19 00:47:20 GMT 52.313736 5.320358 32,000 310 437 0
2019-09-19 00:47:17 GMT 52.310120 5.327454 32,000 310 437 0
2019-09-19 00:47:14 GMT 52.305721 5.336060 32,000 310 437 0
2019-09-19 00:47:11 GMT 52.302063 5.343094 32,000 310 437 0
2019-09-19 00:47:08 GMT 52.297901 5.351205 32,000 310 437 0
2019-09-19 00:47:05 GMT 52.294418 5.357971 32,000 310 437 0
2019-09-19 00:47:02 GMT 52.290268 5.366037 32,000 311 435 0
2019-09-19 00:46:59 GMT 52.285858 5.374603 32,000 311 436 0
2019-09-19 00:46:56 GMT 52.282494 5.381104 32,000 310 435 0
2019-09-19 00:46:53 GMT 52.278488 5.388947 32,000 310 435 0
2019-09-19 00:46:50 GMT 52.274185 5.397263 32,000 310 435 0
2019-09-19 00:46:47 GMT 52.270203 5.405045 32,000 310 435 0
2019-09-19 00:46:41 GMT 52.262192 5.420609 32,000 311 435 0
2019-09-19 00:46:38 GMT 52.259583 5.425644 32,000 311 435 0
2019-09-19 00:46:35 GMT 52.256237 5.432111 32,000 311 435 0
2019-09-19 00:46:32 GMT 52.247299 5.449454 32,000 311 435 0
2019-09-19 00:46:29 GMT 52.247299 5.449454 32,000 311 435 0
2019-09-19 00:46:26 GMT 52.243294 5.457223 32,000 311 435 0
2019-09-19 00:46:23 GMT 52.236080 5.471191 32,000 311 435 0
2019-09-19 00:46:20 GMT 52.232208 5.478745 32,000 311 435 64
2019-09-19 00:46:17 GMT 52.232208 5.478745 32,000 311 435 0
2019-09-19 00:46:14 GMT 52.227768 5.487213 32,000 311 435 0
2019-09-19 00:46:11 GMT 52.224564 5.493469 32,000 311 435 0
2019-09-19 00:46:08 GMT 52.220673 5.501011 32,000 311 435 0
2019-09-19 00:46:05 GMT 52.216507 5.508957 32,000 311 435 0
2019-09-19 00:46:02 GMT 52.212620 5.516471 32,000 311 435 0
2019-09-19 00:45:59 GMT 52.208862 5.523758 32,000 311 435 0
2019-09-19 00:45:56 GMT 52.204983 5.531224 32,000 311 435 0
2019-09-19 00:45:53 GMT 52.200699 5.539464 32,000 311 435 0
2019-09-19 00:45:50 GMT 52.192135 5.555943 32,000 311 435 64
2019-09-19 00:45:47 GMT 52.192135 5.555943 32,000 311 435 0
2019-09-19 00:45:44 GMT 52.189407 5.561218 32,000 311 435 0
2019-09-19 00:45:41 GMT 52.184734 5.570225 32,000 311 435 0
2019-09-19 00:45:38 GMT 52.180984 5.577469 32,000 311 436 0
2019-09-19 00:45:35 GMT 52.178123 5.583017 32,000 311 436 0
2019-09-19 00:45:32 GMT 52.172928 5.593033 32,000 311 436 0
2019-09-19 00:45:29 GMT 52.169174 5.600281 32,000 311 437 0
2019-09-19 00:45:26 GMT 52.165276 5.607814 32,000 311 436 0
2019-09-19 00:45:23 GMT 52.162170 5.613785 32,000 311 437 -64
2019-09-19 00:45:20 GMT 52.157871 5.622096 32,000 311 437 0
2019-09-19 00:45:17 GMT 52.154335 5.628845 32,000 311 437 -64
2019-09-19 00:45:14 GMT 52.150330 5.636614 32,000 311 437 -64
2019-09-19 00:45:11 GMT 52.142120 5.652390 32,000 311 436 -64
2019-09-19 00:45:08 GMT 52.138741 5.658901 32,000 311 437 0
2019-09-19 00:45:05 GMT 52.138741 5.658901 32,000 311 437 0
2019-09-19 00:45:02 GMT 52.134796 5.666351 32,000 311 437 0
2019-09-19 00:44:59 GMT 52.129616 5.676400 32,000 311 437 0
2019-09-19 00:44:56 GMT 52.127014 5.681381 32,000 311 442 0
2019-09-19 00:44:53 GMT 52.123077 5.688858 32,000 311 436 0
2019-09-19 00:44:50 GMT 52.119419 5.695862 32,000 311 437 0
2019-09-19 00:44:47 GMT 52.114105 5.706100 32,000 311 437 -64
2019-09-19 00:44:44 GMT 52.110855 5.712420 32,000 311 437 0
2019-09-19 00:44:41 GMT 52.107548 5.718619 32,000 311 437 0
2019-09-19 00:44:38 GMT 52.103268 5.726859 32,000 311 437 0
2019-09-19 00:44:35 GMT 52.099457 5.734100 32,000 311 437 0
2019-09-19 00:44:32 GMT 52.092407 5.747681 32,000 311 438 0
2019-09-19 00:44:29 GMT 52.092407 5.747681 32,000 311 438 0
2019-09-19 00:44:26 GMT 52.087051 5.757904 32,000 311 438 0
2019-09-19 00:44:23 GMT 52.083755 5.764160 32,000 311 439 0
2019-09-19 00:44:20 GMT 52.079571 5.772217 32,000 311 439 0
2019-09-19 00:44:17 GMT 52.075653 5.779724 32,000 311 439 0
2019-09-19 00:44:14 GMT 52.071331 5.787990 32,000 311 439 0
2019-09-19 00:44:11 GMT 52.068027 5.794268 32,000 311 439 0
2019-09-19 00:44:08 GMT 52.059219 5.811081 32,000 311 439 0
2019-09-19 00:44:05 GMT 52.059219 5.811081 32,000 311 439 0
2019-09-19 00:44:02 GMT 52.055557 5.818100 32,000 311 439 0
2019-09-19 00:43:59 GMT 52.052536 5.823898 32,000 311 439 0
2019-09-19 00:43:56 GMT 52.043839 5.840454 32,000 311 440 0
2019-09-19 00:43:53 GMT 52.040817 5.846252 32,000 311 440 0
2019-09-19 00:43:47 GMT 52.035534 5.856262 32,000 311 441 0
2019-09-19 00:43:44 GMT 52.031857 5.863325 32,000 311 441 0
2019-09-19 00:43:41 GMT 52.027477 5.871643 32,000 311 441 0
2019-09-19 00:43:38 GMT 52.025528 5.875397 32,000 311 441 0
2019-09-19 00:43:35 GMT 52.019985 5.885925 32,000 311 441 0
2019-09-19 00:43:32 GMT 52.015457 5.894470 32,000 311 441 0
2019-09-19 00:43:29 GMT 52.012436 5.900269 32,000 311 441 0
2019-09-19 00:43:26 GMT 52.008720 5.907349 32,000 311 442 0
2019-09-19 00:43:23 GMT 52.004242 5.915909 32,000 311 442 0
2019-09-19 00:43:20 GMT 52.001225 5.921631 32,000 311 442 0
2019-09-19 00:43:17 GMT 51.996964 5.929718 32,000 311 442 0
2019-09-19 00:43:14 GMT 51.993263 5.936776 32,000 311 442 0
2019-09-19 00:43:11 GMT 51.989319 5.944366 32,000 311 442 0
2019-09-19 00:43:08 GMT 51.980324 5.961496 32,000 311 442 0
2019-09-19 00:43:05 GMT 51.980324 5.961496 32,000 311 442 0
2019-09-19 00:43:02 GMT 51.977016 5.967773 32,000 311 442 0
2019-09-19 00:42:59 GMT 51.973709 5.974121 32,000 311 443 0
2019-09-19 00:42:56 GMT 51.965843 5.988961 32,000 311 443 0
2019-09-19 00:42:53 GMT 51.961349 5.997467 32,000 311 443 0
2019-09-19 00:42:50 GMT 51.961349 5.997467 32,000 311 443 0
2019-09-19 00:42:47 GMT 51.957230 6.005325 32,000 311 443 0
2019-09-19 00:42:44 GMT 51.953369 6.012582 32,000 311 443 0
2019-09-19 00:42:41 GMT 51.949226 6.020429 32,000 311 443 0
2019-09-19 00:42:38 GMT 51.941116 6.035767 32,000 311 443 0
2019-09-19 00:42:35 GMT 51.941116 6.035767 32,000 311 443 0
2019-09-19 00:42:32 GMT 51.935944 6.045609 32,000 311 443 0
2019-09-19 00:42:29 GMT 51.928848 6.058960 32,000 311 443 0
2019-09-19 00:42:26 GMT 51.928848 6.058960 32,000 311 443 0
2019-09-19 00:42:23 GMT 51.924877 6.066493 32,000 311 443 0
2019-09-19 00:42:20 GMT 51.921665 6.072536 32,000 311 443 0
2019-09-19 00:42:17 GMT 51.917130 6.081161 32,000 311 443 0
2019-09-19 00:42:14 GMT 51.912586 6.089722 32,000 311 443 0
2019-09-19 00:42:11 GMT 51.908569 6.097260 32,000 311 443 0
2019-09-19 00:42:08 GMT 51.905373 6.103298 32,000 311 443 0
2019-09-19 00:42:05 GMT 51.900970 6.111526 32,000 311 443 0
2019-09-19 00:42:02 GMT 51.895924 6.121111 32,000 311 443 0
2019-09-19 00:41:59 GMT 51.893780 6.125113 32,000 311 443 0
2019-09-19 00:41:56 GMT 51.888474 6.135178 32,000 311 443 0
2019-09-19 00:41:53 GMT 51.885540 6.140671 32,000 311 443 0
2019-09-19 00:41:50 GMT 51.880840 6.149445 32,000 311 443 0
2019-09-19 00:41:47 GMT 51.876183 6.158295 32,000 311 443 0
2019-09-19 00:41:44 GMT 51.873688 6.163033 32,000 311 443 0
2019-09-19 00:41:41 GMT 51.867947 6.173782 32,000 311 443 0
2019-09-19 00:41:38 GMT 51.863941 6.181335 32,000 311 443 0
2019-09-19 00:41:35 GMT 51.861427 6.186142 32,000 311 443 0
2019-09-19 00:41:32 GMT 51.857391 6.193617 32,000 311 443 0
2019-09-19 00:41:29 GMT 51.852489 6.202927 32,000 311 443 0
2019-09-19 00:41:26 GMT 51.848465 6.210467 32,000 311 443 0
2019-09-19 00:41:23 GMT 51.845554 6.215973 32,000 311 442 0
2019-09-19 00:41:20 GMT 51.841412 6.223755 32,000 311 442 0
2019-09-19 00:41:17 GMT 51.837524 6.231030 32,000 311 443 0
2019-09-19 00:41:14 GMT 51.828735 6.247583 32,000 311 443 0
2019-09-19 00:41:11 GMT 51.828735 6.247583 32,000 311 443 0
2019-09-19 00:41:08 GMT 51.824978 6.254578 32,000 311 443 0
2019-09-19 00:41:05 GMT 51.819763 6.264343 32,000 311 443 0
2019-09-19 00:41:02 GMT 51.817108 6.269379 32,000 311 443 0
2019-09-19 00:40:59 GMT 51.812687 6.277618 32,000 311 443 0
2019-09-19 00:40:56 GMT 51.808823 6.284866 32,000 311 443 0
2019-09-19 00:40:52 GMT 51.802677 6.296387 32,000 311 443 0
2019-09-19 00:40:49 GMT 51.799976 6.301346 32,000 311 443 0
2019-09-19 00:40:46 GMT 51.796116 6.308594 32,000 311 443 0
2019-09-19 00:40:43 GMT 51.791016 6.318104 32,000 311 443 0
2019-09-19 00:40:40 GMT 51.787548 6.324615 32,000 311 443 0
2019-09-19 00:40:37 GMT 51.782333 6.334381 32,000 311 443 0
2019-09-19 00:40:34 GMT 51.778610 6.341338 32,000 311 443 0
2019-09-19 00:40:31 GMT 51.776184 6.345866 32,000 311 443 0
2019-09-19 00:40:28 GMT 51.771011 6.355591 32,000 311 443 0
2019-09-19 00:40:25 GMT 51.767254 6.362610 32,000 311 443 0
2019-09-19 00:40:22 GMT 51.763248 6.370087 32,000 311 443 0
2019-09-19 00:40:19 GMT 51.755520 6.384583 32,000 311 443 0
2019-09-19 00:40:16 GMT 51.755520 6.384583 32,000 311 442 0
2019-09-19 00:40:13 GMT 51.751377 6.392288 32,000 311 442 0
2019-09-19 00:40:10 GMT 51.748032 6.398497 32,000 311 442 0
2019-09-19 00:40:07 GMT 51.744186 6.405772 32,000 311 442 0
2019-09-19 00:40:04 GMT 51.735737 6.421432 32,000 311 443 0
2019-09-19 00:40:01 GMT 51.731873 6.428680 32,000 311 443 0
2019-09-19 00:39:58 GMT 51.727867 6.436157 32,000 311 443 0
2019-09-19 00:39:55 GMT 51.727867 6.436157 32,000 311 443 0
2019-09-19 00:39:52 GMT 51.723724 6.443863 32,000 311 443 0
2019-09-19 00:39:49 GMT 51.719193 6.452315 32,000 311 443 0
2019-09-19 00:39:46 GMT 51.714649 6.460800 32,000 311 443 0
2019-09-19 00:39:43 GMT 51.711296 6.467056 32,000 311 443 0
2019-09-19 00:39:40 GMT 51.707794 6.473471 32,000 311 443 0
2019-09-19 00:39:37 GMT 51.703537 6.481488 32,000 311 443 0
2019-09-19 00:39:34 GMT 51.699142 6.489654 32,000 311 443 0
2019-09-19 00:39:31 GMT 51.694977 6.497374 32,000 311 443 0
2019-09-19 00:39:28 GMT 51.691086 6.504649 32,000 311 443 0
2019-09-19 00:39:25 GMT 51.687378 6.511552 32,000 311 443 0
2019-09-19 00:39:22 GMT 51.683212 6.519272 32,000 311 442 0
2019-09-19 00:39:19 GMT 51.679455 6.526184 32,000 311 442 0
2019-09-19 00:39:16 GMT 51.670486 6.542804 32,000 311 442 0
2019-09-19 00:39:13 GMT 51.670486 6.542804 32,000 311 442 0
2019-09-19 00:39:10 GMT 51.667957 6.547546 32,000 311 442 0
2019-09-19 00:39:07 GMT 51.663021 6.556702 32,000 311 442 0
2019-09-19 00:39:03 GMT 51.657108 6.567612 32,000 311 442 0
2019-09-19 00:39:00 GMT 51.654457 6.572571 32,000 311 442 0
2019-09-19 00:38:57 GMT 51.646591 6.587194 32,000 311 442 0
2019-09-19 00:38:54 GMT 51.646591 6.587194 32,000 311 442 0
2019-09-19 00:38:51 GMT 51.642151 6.595360 32,000 312 441 0
2019-09-19 00:38:48 GMT 51.637882 6.603317 32,000 311 442 0
2019-09-19 00:38:45 GMT 51.633179 6.611988 32,000 311 442 0
2019-09-19 00:38:42 GMT 51.625828 6.625595 32,000 312 441 0
2019-09-19 00:38:39 GMT 51.625828 6.625595 32,000 312 441 0
2019-09-19 00:38:36 GMT 51.622242 6.632233 32,000 312 441 0
2019-09-19 00:38:33 GMT 51.618073 6.639899 32,000 312 441 0
2019-09-19 00:38:30 GMT 51.612579 6.650069 32,000 312 441 0
2019-09-19 00:38:27 GMT 51.605206 6.663666 32,000 312 441 0
2019-09-19 00:38:24 GMT 51.605206 6.663666 32,000 312 441 0
2019-09-19 00:38:21 GMT 51.601898 6.669769 32,000 312 441 0
2019-09-19 00:38:18 GMT 51.597851 6.677246 32,000 312 441 0
2019-09-19 00:38:15 GMT 51.593845 6.684647 32,000 312 441 0
2019-09-19 00:38:12 GMT 51.585697 6.699677 32,000 312 441 0
2019-09-19 00:38:06 GMT 51.582859 6.704865 32,000 312 441 0
2019-09-19 00:38:03 GMT 51.577366 6.715012 32,000 312 441 0
2019-09-19 00:38:00 GMT 51.574059 6.721191 32,000 312 441 0
2019-09-19 00:37:57 GMT 51.568848 6.730804 32,000 312 441 0
2019-09-19 00:37:54 GMT 51.566425 6.735229 32,000 312 441 0
2019-09-19 00:37:51 GMT 51.560932 6.745377 32,000 312 442 0
2019-09-19 00:37:48 GMT 51.557583 6.751480 32,000 312 442 0
2019-09-19 00:37:45 GMT 51.553528 6.758893 32,000 312 442 0
2019-09-19 00:37:42 GMT 51.549637 6.766019 32,000 312 442 0
2019-09-19 00:37:39 GMT 51.546036 6.772690 32,000 312 442 0
2019-09-19 00:37:36 GMT 51.540401 6.783066 32,000 312 442 0
2019-09-19 00:37:33 GMT 51.533794 6.795120 32,000 312 442 0
2019-09-19 00:37:27 GMT 51.529129 6.803729 32,000 312 441 0
2019-09-19 00:37:24 GMT 51.525787 6.809890 32,000 312 441 0
2019-09-19 00:37:21 GMT 51.520294 6.819986 32,000 312 441 0
2019-09-19 00:37:18 GMT 51.513729 6.832047 32,000 312 441 0
2019-09-19 00:37:12 GMT 51.508621 6.841365 32,000 312 441 0
2019-09-19 00:37:09 GMT 51.506195 6.845819 32,000 312 441 0
2019-09-19 00:37:06 GMT 51.501251 6.854949 32,000 312 441 0
2019-09-19 00:37:03 GMT 51.497360 6.862075 32,000 312 441 0
2019-09-19 00:37:00 GMT 51.492920 6.870167 32,000 312 441 0
2019-09-19 00:36:57 GMT 51.489578 6.876328 32,000 312 441 0
2019-09-19 00:36:54 GMT 51.485550 6.883677 32,000 312 441 0
2019-09-19 00:36:51 GMT 51.480957 6.892014 32,000 312 441 0
2019-09-19 00:36:48 GMT 51.476395 6.900379 32,000 312 441 0
2019-09-19 00:36:45 GMT 51.473557 6.905501 32,000 312 441 0
2019-09-19 00:36:42 GMT 51.468990 6.913910 32,000 312 441 0
2019-09-19 00:36:39 GMT 51.465778 6.919785 32,000 312 441 0
2019-09-19 00:36:36 GMT 51.461452 6.927643 32,000 312 441 0
2019-09-19 00:36:33 GMT 51.456116 6.937421 32,000 312 441 0
2019-09-19 00:36:30 GMT 51.452866 6.943285 32,000 312 441 0
2019-09-19 00:36:27 GMT 51.448151 6.951822 32,000 312 441 0
2019-09-19 00:36:24 GMT 51.440094 6.966594 32,000 312 441 0
2019-09-19 00:36:21 GMT 51.440094 6.966594 32,000 312 441 0
2019-09-19 00:36:18 GMT 51.436081 6.973877 32,000 312 440 0
2019-09-19 00:36:15 GMT 51.432869 6.979828 32,000 312 440 0
2019-09-19 00:36:12 GMT 51.429516 6.985931 32,000 312 440 0
2019-09-19 00:36:09 GMT 51.424713 6.994728 32,000 312 440 0
2019-09-19 00:36:06 GMT 51.420254 7.002869 32,000 312 440 0
2019-09-19 00:36:03 GMT 51.415833 7.010985 32,000 312 441 0
2019-09-19 00:36:00 GMT 51.412628 7.016849 32,000 312 441 0
2019-09-19 00:35:57 GMT 51.407913 7.025386 32,000 312 441 0
2019-09-19 00:35:54 GMT 51.401367 7.037411 32,000 312 440 0
2019-09-19 00:35:48 GMT 51.396927 7.045428 32,000 312 440 0
2019-09-19 00:35:45 GMT 51.392368 7.053757 32,000 312 440 0
2019-09-19 00:35:42 GMT 51.388737 7.060394 32,000 312 440 0
2019-09-19 00:35:39 GMT 51.384827 7.067490 32,000 312 440 0
2019-09-19 00:35:36 GMT 51.380493 7.075270 32,000 312 440 0
2019-09-19 00:35:33 GMT 51.376877 7.081876 32,000 312 441 0
2019-09-19 00:35:30 GMT 51.371231 7.092133 32,000 312 441 0
2019-09-19 00:35:27 GMT 51.366898 7.099915 32,000 312 441 0
2019-09-19 00:35:24 GMT 51.363968 7.105333 32,000 312 441 0
2019-09-19 00:35:21 GMT 51.359802 7.112905 32,000 312 441 0
2019-09-19 00:35:18 GMT 51.356289 7.119217 32,000 312 440 64
2019-09-19 00:35:15 GMT 51.351562 7.127752 32,000 312 440 0
2019-09-19 00:35:12 GMT 51.346699 7.136536 32,000 312 440 0
2019-09-19 00:35:09 GMT 51.343067 7.143097 32,000 312 440 0
2019-09-19 00:35:06 GMT 51.339020 7.150392 32,000 312 441 0
2019-09-19 00:35:03 GMT 51.335495 7.156776 32,000 312 441 0
2019-09-19 00:35:00 GMT 51.332108 7.162863 32,000 312 441 0
2019-09-19 00:34:57 GMT 51.328358 7.169647 32,000 312 441 0
2019-09-19 00:34:54 GMT 51.324051 7.177487 32,000 312 441 0
2019-09-19 00:34:51 GMT 51.317963 7.188399 32,000 312 442 0
2019-09-19 00:34:48 GMT 51.314999 7.193756 32,000 312 441 0
2019-09-19 00:34:45 GMT 51.310669 7.201538 32,000 312 442 0
2019-09-19 00:34:42 GMT 51.306759 7.208633 32,000 312 441 0
2019-09-19 00:34:39 GMT 51.302719 7.215939 32,000 312 441 0
2019-09-19 00:34:36 GMT 51.299217 7.222290 32,000 312 442 0
2019-09-19 00:34:33 GMT 51.294746 7.230301 32,000 312 440 0
2019-09-19 00:34:30 GMT 51.287205 7.243958 32,000 312 442 0
2019-09-19 00:34:27 GMT 51.287205 7.243958 32,000 312 441 0
2019-09-19 00:34:24 GMT 51.283539 7.250531 32,000 312 441 0
2019-09-19 00:34:21 GMT 51.279373 7.258103 32,000 312 441 0
2019-09-19 00:34:18 GMT 51.275848 7.264404 32,000 312 441 0
2019-09-19 00:34:15 GMT 51.269794 7.275391 32,000 312 441 0
2019-09-19 00:34:12 GMT 51.266815 7.280807 32,000 312 441 0
2019-09-19 00:34:09 GMT 51.261974 7.289581 32,000 312 441 0
2019-09-19 00:34:06 GMT 51.258041 7.296629 32,000 312 441 0
2019-09-19 00:34:03 GMT 51.255642 7.301025 32,000 312 441 0
2019-09-19 00:34:00 GMT 51.250214 7.310733 32,000 312 440 0
2019-09-19 00:33:57 GMT 51.247787 7.315113 32,000 312 440 0
2019-09-19 00:33:54 GMT 51.242386 7.324837 32,000 312 440 0
2019-09-19 00:33:51 GMT 51.238220 7.332335 32,000 312 441 0
2019-09-19 00:33:48 GMT 51.234192 7.339684 32,000 312 441 0
2019-09-19 00:33:45 GMT 51.230804 7.345697 32,000 312 441 0
2019-09-19 00:33:42 GMT 51.226868 7.352749 32,000 312 441 0
2019-09-19 00:33:39 GMT 51.221878 7.361731 32,000 312 441 0
2019-09-19 00:33:36 GMT 51.214165 7.375565 32,000 312 440 0
2019-09-19 00:33:33 GMT 51.214165 7.375565 32,000 312 440 0
2019-09-19 00:33:30 GMT 51.210396 7.382355 32,000 312 440 0
2019-09-19 00:33:27 GMT 51.205692 7.390823 32,000 312 440 0
2019-09-19 00:33:24 GMT 51.202698 7.396174 32,000 312 440 0
2019-09-19 00:33:21 GMT 51.197159 7.406121 32,000 312 440 0
2019-09-19 00:33:18 GMT 51.193268 7.413173 32,000 312 440 0
2019-09-19 00:33:15 GMT 51.190704 7.417755 32,000 312 440 0
2019-09-19 00:33:12 GMT 51.186630 7.424976 32,000 312 440 0
2019-09-19 00:33:09 GMT 51.181091 7.434923 32,000 312 440 0
2019-09-19 00:33:06 GMT 51.176785 7.442627 32,000 312 440 0
2019-09-19 00:33:03 GMT 51.174084 7.447433 32,000 312 440 0
2019-09-19 00:33:00 GMT 51.170288 7.454224 32,000 312 440 0
2019-09-19 00:32:57 GMT 51.165657 7.462463 32,000 312 440 0
2019-09-19 00:32:54 GMT 51.161224 7.470406 32,000 312 440 0
2019-09-19 00:32:51 GMT 51.158386 7.475454 32,000 312 440 0
2019-09-19 00:32:48 GMT 51.154175 7.482951 32,000 312 439 0
2019-09-19 00:32:45 GMT 51.150375 7.489707 32,000 312 440 0
2019-09-19 00:32:42 GMT 51.145660 7.498095 32,000 312 439 0
2019-09-19 00:32:39 GMT 51.142151 7.504425 32,000 312 439 0
2019-09-19 00:32:36 GMT 51.136780 7.514055 32,000 312 439 0
2019-09-19 00:32:33 GMT 51.132977 7.520828 32,000 312 439 0
2019-09-19 00:32:30 GMT 51.129349 7.527313 32,000 312 439 0
2019-09-19 00:32:27 GMT 51.124737 7.535477 32,000 312 439 0
2019-09-19 00:32:24 GMT 51.121490 7.541298 32,000 312 439 0
2019-09-19 00:32:21 GMT 51.117477 7.548523 32,000 312 439 0
2019-09-19 00:32:18 GMT 51.108398 7.564607 32,000 312 439 0
2019-09-19 00:32:15 GMT 51.108398 7.564607 32,000 312 439 0
2019-09-19 00:32:11 GMT 51.102997 7.574234 32,000 312 439 0
2019-09-19 00:32:08 GMT 51.100159 7.579304 32,000 312 439 0
2019-09-19 00:32:05 GMT 51.095718 7.587247 32,000 312 439 0
2019-09-19 00:32:02 GMT 51.091686 7.594452 32,000 312 439 0
2019-09-19 00:31:59 GMT 51.086937 7.602844 32,000 312 439 0
2019-09-19 00:31:56 GMT 51.082890 7.610092 32,000 312 439 0
2019-09-19 00:31:53 GMT 51.078827 7.617311 32,000 312 439 0
2019-09-19 00:31:50 GMT 51.074509 7.624969 32,000 312 439 0
2019-09-19 00:31:47 GMT 51.071671 7.630005 32,000 312 439 0
2019-09-19 00:31:44 GMT 51.067478 7.637482 32,000 312 439 0
2019-09-19 00:31:41 GMT 51.062637 7.646103 32,000 312 439 0
2019-09-19 00:31:38 GMT 51.059647 7.651384 32,000 312 439 0
2019-09-19 00:31:35 GMT 51.054108 7.661182 32,000 312 439 0
2019-09-19 00:31:32 GMT 51.045971 7.675629 32,000 312 439 0
2019-09-19 00:31:28 GMT 51.045971 7.675629 32,000 312 439 0
2019-09-19 00:31:25 GMT 51.041550 7.683563 32,000 312 439 0
2019-09-19 00:31:22 GMT 51.037079 7.691498 32,000 312 439 0
2019-09-19 00:31:19 GMT 51.032730 7.699115 32,000 312 439 0
2019-09-19 00:31:16 GMT 51.029354 7.705154 32,000 312 439 0
2019-09-19 00:31:13 GMT 51.024929 7.713089 32,000 312 439 0
2019-09-19 00:31:10 GMT 51.017342 7.726517 32,000 312 439 0
2019-09-19 00:31:07 GMT 51.012875 7.734375 32,000 312 439 0
2019-09-19 00:31:04 GMT 51.012875 7.734375 32,000 312 439 0
2019-09-19 00:31:01 GMT 51.006542 7.745667 32,000 312 439 0
2019-09-19 00:30:58 GMT 51.001793 7.754059 32,000 312 439 0
2019-09-19 00:30:55 GMT 51.001793 7.754059 32,000 312 439 0
2019-09-19 00:30:52 GMT 50.997044 7.762375 32,000 312 439 0
2019-09-19 00:30:49 GMT 50.992035 7.771268 32,000 312 439 0
2019-09-19 00:30:46 GMT 50.988007 7.778395 32,000 312 439 0
2019-09-19 00:30:43 GMT 50.984070 7.785372 32,000 312 439 0
2019-09-19 00:30:40 GMT 50.980408 7.791831 32,000 312 439 0
2019-09-19 00:30:37 GMT 50.976330 7.798996 32,000 313 438 0
2019-09-19 00:30:34 GMT 50.969284 7.811428 32,000 312 439 0
2019-09-19 00:30:31 GMT 50.964523 7.819742 32,000 312 439 0
2019-09-19 00:30:28 GMT 50.964523 7.819742 32,000 312 439 0
2019-09-19 00:30:25 GMT 50.960861 7.826200 32,000 312 439 0
2019-09-19 00:30:22 GMT 50.956146 7.834588 32,000 312 439 0
2019-09-19 00:30:19 GMT 50.952587 7.840805 32,000 312 439 0
2019-09-19 00:30:16 GMT 50.947998 7.848915 32,000 312 439 0
2019-09-19 00:30:13 GMT 50.943787 7.856264 32,000 312 439 0
2019-09-19 00:30:09 GMT 50.938751 7.865097 32,000 312 439 0
2019-09-19 00:30:06 GMT 50.934311 7.872966 32,000 313 438 0
2019-09-19 00:30:03 GMT 50.930897 7.878952 32,000 313 438 0
2019-09-19 00:30:00 GMT 50.925201 7.889000 32,000 313 438 0
2019-09-19 00:29:57 GMT 50.917488 7.902527 32,000 313 438 0
2019-09-19 00:29:54 GMT 50.917488 7.902527 32,000 313 438 0
2019-09-19 00:29:51 GMT 50.915066 7.906799 32,000 313 438 0
2019-09-19 00:29:48 GMT 50.910320 7.915192 32,000 313 438 0
2019-09-19 00:29:45 GMT 50.905571 7.923508 32,000 313 438 0
2019-09-19 00:29:42 GMT 50.902172 7.929382 32,000 313 437 0
2019-09-19 00:29:39 GMT 50.897144 7.938232 32,000 313 438 0
2019-09-19 00:29:36 GMT 50.894577 7.942744 32,000 313 438 0
2019-09-19 00:29:33 GMT 50.890366 7.950093 32,000 313 438 0
2019-09-19 00:29:30 GMT 50.885506 7.958603 32,000 312 438 0
2019-09-19 00:29:27 GMT 50.882668 7.963638 32,000 312 438 0
2019-09-19 00:29:24 GMT 50.874527 7.977856 32,000 312 438 0
2019-09-19 00:29:21 GMT 50.869400 7.986908 32,000 312 438 0
2019-09-19 00:29:18 GMT 50.869400 7.986908 32,000 313 437 0
2019-09-19 00:29:15 GMT 50.865440 7.993774 32,000 312 438 0
2019-09-19 00:29:12 GMT 50.862625 7.998789 32,000 312 438 0
2019-09-19 00:29:09 GMT 50.857040 8.008514 32,000 312 438 0
2019-09-19 00:29:06 GMT 50.848663 8.023212 32,000 313 437 0
2019-09-19 00:29:03 GMT 50.848663 8.023212 32,000 313 437 0
2019-09-19 00:29:00 GMT 50.844585 8.030319 32,000 313 437 0
2019-09-19 00:28:57 GMT 50.841614 8.035534 32,000 313 437 0
2019-09-19 00:28:54 GMT 50.835800 8.045778 32,000 313 437 0
2019-09-19 00:28:50 GMT 50.831833 8.052673 32,000 313 436 0
2019-09-19 00:28:47 GMT 50.826965 8.061144 32,000 313 438 0
2019-09-19 00:28:44 GMT 50.823730 8.066864 32,000 313 438 0
2019-09-19 00:28:41 GMT 50.818844 8.075409 32,000 313 436 0
2019-09-19 00:28:38 GMT 50.815723 8.080826 32,000 313 436 0
2019-09-19 00:28:35 GMT 50.810852 8.089352 32,000 313 436 0
2019-09-19 00:28:32 GMT 50.807346 8.095474 32,000 313 436 0
2019-09-19 00:28:29 GMT 50.803665 8.101823 32,000 313 436 0
2019-09-19 00:28:26 GMT 50.799339 8.109360 32,000 313 436 0
2019-09-19 00:28:23 GMT 50.795708 8.115768 32,000 313 436 0
2019-09-19 00:28:20 GMT 50.791515 8.123016 32,000 313 436 0
2019-09-19 00:28:17 GMT 50.786911 8.131071 32,000 313 436 0
2019-09-19 00:28:14 GMT 50.783112 8.137677 32,000 313 436 0
2019-09-19 00:28:11 GMT 50.778397 8.145917 32,000 313 435 0
2019-09-19 00:28:08 GMT 50.774059 8.153458 32,000 313 435 0
2019-09-19 00:28:05 GMT 50.770844 8.159056 32,000 313 435 0
2019-09-19 00:28:02 GMT 50.767593 8.164698 32,000 313 435 0
2019-09-19 00:27:59 GMT 50.757999 8.181381 32,000 313 435 0
2019-09-19 00:27:56 GMT 50.757999 8.181381 32,000 313 435 0
2019-09-19 00:27:53 GMT 50.754776 8.187041 32,000 313 435 0
2019-09-19 00:27:50 GMT 50.750336 8.194836 32,000 313 435 0
2019-09-19 00:27:47 GMT 50.745621 8.203001 32,000 313 434 0
2019-09-19 00:27:43 GMT 50.740906 8.211241 32,000 313 434 0
2019-09-19 00:27:40 GMT 50.737106 8.217773 32,000 313 434 0
2019-09-19 00:27:37 GMT 50.733093 8.224792 32,000 313 433 0
2019-09-19 00:27:31 GMT 50.724995 8.238831 32,000 313 433 0
2019-09-19 00:27:28 GMT 50.720806 8.246078 32,000 313 433 0
2019-09-19 00:27:25 GMT 50.716892 8.252869 32,000 313 433 0
2019-09-19 00:27:22 GMT 50.712845 8.259811 32,000 313 433 0
2019-09-19 00:27:19 GMT 50.709869 8.264985 32,000 313 433 0
2019-09-19 00:27:16 GMT 50.705025 8.273392 32,000 313 433 0
2019-09-19 00:27:13 GMT 50.700165 8.281761 32,000 313 433 0
2019-09-19 00:27:10 GMT 50.697342 8.286667 32,000 313 433 0
2019-09-19 00:27:07 GMT 50.692360 8.295288 32,000 313 433 0
2019-09-19 00:27:04 GMT 50.688728 8.301544 32,000 313 433 0
2019-09-19 00:27:01 GMT 50.683319 8.310860 32,000 313 432 0
2019-09-19 00:26:58 GMT 50.680618 8.315537 32,000 313 433 0
2019-09-19 00:26:55 GMT 50.675262 8.324816 32,000 313 433 0
2019-09-19 00:26:52 GMT 50.672562 8.329493 32,000 313 430 0
2019-09-19 00:26:49 GMT 50.668247 8.336916 32,000 313 432 0
2019-09-19 00:26:46 GMT 50.664734 8.342960 32,000 313 431 0
2019-09-19 00:26:43 GMT 50.660019 8.351055 32,000 313 432 0
2019-09-19 00:26:40 GMT 50.657364 8.355753 32,000 313 432 0
2019-09-19 00:26:37 GMT 50.652512 8.364085 32,000 313 432 0
2019-09-19 00:26:34 GMT 50.647114 8.373364 32,000 313 432 0
2019-09-19 00:26:31 GMT 50.644413 8.378040 32,000 313 432 0
2019-09-19 00:26:28 GMT 50.640152 8.385459 32,000 313 432 0
2019-09-19 00:26:25 GMT 50.632050 8.399409 32,000 313 432 0
2019-09-19 00:26:19 GMT 50.627060 8.408010 32,000 313 432 0
2019-09-19 00:26:16 GMT 50.623463 8.414265 32,000 313 432 0
2019-09-19 00:26:13 GMT 50.620113 8.420055 32,000 313 432 0
2019-09-19 00:26:10 GMT 50.615250 8.428393 32,000 313 432 0
2019-09-19 00:26:07 GMT 50.611496 8.434898 32,000 313 432 0
2019-09-19 00:26:03 GMT 50.606644 8.443282 32,000 313 431 0
2019-09-19 00:26:00 GMT 50.602375 8.450713 32,000 313 431 0
2019-09-19 00:25:57 GMT 50.598450 8.457377 32,000 313 431 0
2019-09-19 00:25:54 GMT 50.595207 8.462962 32,000 313 431 0
2019-09-19 00:25:51 GMT 50.589844 8.472194 32,000 313 431 0
2019-09-19 00:25:48 GMT 50.586594 8.477687 32,000 313 431 0
2019-09-19 00:25:45 GMT 50.582199 8.485348 32,000 313 431 0
2019-09-19 00:25:42 GMT 50.579472 8.489908 32,000 313 431 0
2019-09-19 00:25:39 GMT 50.570068 8.506090 32,000 313 431 0
2019-09-19 00:25:33 GMT 50.564854 8.515072 32,000 313 430 0
2019-09-19 00:25:30 GMT 50.562286 8.519464 32,000 313 431 0
2019-09-19 00:25:27 GMT 50.557732 8.527321 32,000 313 430 0
2019-09-19 00:25:24 GMT 50.554100 8.533556 32,000 313 431 0
2019-09-19 00:25:21 GMT 50.549679 8.541128 32,000 313 431 0
2019-09-19 00:25:18 GMT 50.544697 8.549664 32,000 313 431 0
2019-09-19 00:25:15 GMT 50.542419 8.553579 32,000 313 431 0
2019-09-19 00:25:12 GMT 50.536785 8.563249 32,000 313 430 0
2019-09-19 00:25:09 GMT 50.533813 8.568252 32,000 313 430 0
2019-09-19 00:25:06 GMT 50.529613 8.575423 32,000 313 430 0
2019-09-19 00:25:03 GMT 50.521282 8.589675 32,000 313 430 0
2019-09-19 00:25:00 GMT 50.521282 8.589675 32,000 313 430 0
2019-09-19 00:24:56 GMT 50.516579 8.597693 32,000 313 430 0
2019-09-19 00:24:53 GMT 50.513088 8.603631 32,000 313 430 0
2019-09-19 00:24:50 GMT 50.507721 8.612848 32,000 313 430 0
2019-09-19 00:24:47 GMT 50.503963 8.619294 32,000 313 430 0
2019-09-19 00:24:44 GMT 50.500443 8.625207 32,000 313 430 0
2019-09-19 00:24:41 GMT 50.497215 8.630726 32,000 313 430 0
2019-09-19 00:24:38 GMT 50.493301 8.637350 32,000 313 430 0
2019-09-19 00:24:35 GMT 50.484039 8.653218 32,000 313 430 64
2019-09-19 00:24:32 GMT 50.480530 8.659178 32,000 313 430 0
2019-09-19 00:24:29 GMT 50.480530 8.659178 32,000 313 430 0
2019-09-19 00:24:26 GMT 50.475708 8.667396 32,000 313 429 -64
2019-09-19 00:24:23 GMT 50.471970 8.673778 32,000 313 429 0
2019-09-19 00:24:20 GMT 50.467934 8.680684 32,000 313 430 0
2019-09-19 00:24:17 GMT 50.464828 8.685921 32,000 313 430 0
2019-09-19 00:24:14 GMT 50.459610 8.694884 32,000 313 430 0
2019-09-19 00:24:11 GMT 50.455551 8.701766 32,000 313 430 0
2019-09-19 00:24:08 GMT 50.451279 8.709050 32,000 313 430 0
2019-09-19 00:24:05 GMT 50.448425 8.713866 32,000 313 431 0
2019-09-19 00:24:02 GMT 50.443314 8.722566 32,000 313 430 0
2019-09-19 00:23:59 GMT 50.440655 8.727153 32,000 313 430 0
2019-09-19 00:23:56 GMT 50.435532 8.735866 32,000 313 431 0
2019-09-19 00:23:53 GMT 50.431763 8.742296 32,000 313 431 0
2019-09-19 00:23:50 GMT 50.422592 8.757959 32,000 313 431 0
2019-09-19 00:23:47 GMT 50.422592 8.757959 32,000 313 431 0
2019-09-19 00:23:44 GMT 50.419785 8.762753 32,000 313 431 0
2019-09-19 00:23:41 GMT 50.415344 8.770342 32,000 313 430 0
2019-09-19 00:23:38 GMT 50.412117 8.775849 32,000 313 431 0
2019-09-19 00:23:35 GMT 50.406693 8.785015 32,000 313 430 0
2019-09-19 00:23:32 GMT 50.402939 8.791448 32,000 313 430 0
2019-09-19 00:23:29 GMT 50.399967 8.796486 32,000 313 430 0
2019-09-19 00:23:26 GMT 50.394146 8.806359 32,000 313 430 0
2019-09-19 00:23:23 GMT 50.391865 8.810219 32,000 313 430 0
2019-09-19 00:23:20 GMT 50.386326 8.819646 32,000 313 430 0
2019-09-19 00:23:17 GMT 50.383484 8.824407 32,000 313 430 0
2019-09-19 00:23:14 GMT 50.378769 8.832430 32,000 313 431 0
2019-09-19 00:23:11 GMT 50.374969 8.838798 32,000 313 430 0
2019-09-19 00:23:08 GMT 50.370667 8.846162 32,000 313 430 0
2019-09-19 00:23:05 GMT 50.367428 8.851640 32,000 313 430 0
2019-09-19 00:23:02 GMT 50.358627 8.866473 32,000 313 431 0
2019-09-19 00:22:59 GMT 50.358627 8.866473 32,000 313 431 0
2019-09-19 00:22:56 GMT 50.354874 8.872906 32,000 313 431 0
2019-09-19 00:22:53 GMT 50.350937 8.879483 32,000 313 431 0
2019-09-19 00:22:50 GMT 50.346725 8.886566 32,000 313 431 0
2019-09-19 00:22:47 GMT 50.342560 8.893649 32,000 313 430 0
2019-09-19 00:22:44 GMT 50.339031 8.899594 32,000 313 431 0
2019-09-19 00:22:41 GMT 50.333633 8.908756 32,000 313 431 0
2019-09-19 00:22:38 GMT 50.331207 8.912876 32,000 313 431 0
2019-09-19 00:22:35 GMT 50.326996 8.919959 32,000 313 431 0
2019-09-19 00:22:32 GMT 50.321854 8.928619 32,000 313 431 0
2019-09-19 00:22:29 GMT 50.317795 8.935426 32,000 313 430 0
2019-09-19 00:22:26 GMT 50.309517 8.949404 32,000 313 430 0
2019-09-19 00:22:23 GMT 50.309517 8.949404 32,000 313 430 0
2019-09-19 00:22:20 GMT 50.306122 8.955086 32,000 313 430 0
2019-09-19 00:22:17 GMT 50.303009 8.960290 32,000 313 430 0
2019-09-19 00:22:14 GMT 50.298294 8.968313 32,000 313 430 0
2019-09-19 00:22:11 GMT 50.293270 8.976721 32,000 313 430 0
2019-09-19 00:22:08 GMT 50.290558 8.981251 32,000 313 430 0
2019-09-19 00:22:05 GMT 50.286751 8.987633 32,000 313 430 0
2019-09-19 00:22:02 GMT 50.282051 8.995650 32,000 313 430 0
2019-09-19 00:21:59 GMT 50.277008 9.004019 32,000 313 430 0
2019-09-19 00:21:56 GMT 50.269455 9.016812 32,000 313 430 0
2019-09-19 00:21:53 GMT 50.269455 9.016812 32,000 313 430 0
2019-09-19 00:21:50 GMT 50.263916 9.026136 32,000 313 431 0
2019-09-19 00:21:47 GMT 50.261475 9.030242 32,000 313 430 0
2019-09-19 00:21:44 GMT 50.256088 9.039363 32,000 313 430 0
2019-09-19 00:21:41 GMT 50.249451 9.050494 32,000 313 430 0
2019-09-19 00:21:38 GMT 50.249451 9.050494 32,000 313 430 0
2019-09-19 00:21:35 GMT 50.245365 9.057337 32,000 313 430 0
2019-09-19 00:21:31 GMT 50.235764 9.073478 32,000 313 430 0
2019-09-19 00:21:28 GMT 50.235764 9.073478 32,000 313 430 0
2019-09-19 00:21:25 GMT 50.231873 9.080128 32,000 313 430 0
2019-09-19 00:21:22 GMT 50.228470 9.085768 32,000 313 430 0
2019-09-19 00:21:19 GMT 50.219250 9.101282 32,000 313 431 0
2019-09-19 00:21:16 GMT 50.219250 9.101282 32,000 313 431 0
2019-09-19 00:21:13 GMT 50.215572 9.107369 32,000 313 430 0
2019-09-19 00:21:10 GMT 50.211105 9.114941 32,000 313 431 0
2019-09-19 00:21:07 GMT 50.203934 9.126966 32,000 313 431 0
2019-09-19 00:21:01 GMT 50.198502 9.136071 32,000 314 432 0
2019-09-19 00:20:58 GMT 50.194950 9.141961 32,000 313 431 0
2019-09-19 00:20:55 GMT 50.191406 9.147853 32,000 314 432 0
2019-09-19 00:20:52 GMT 50.180939 9.165418 32,000 314 432 0
2019-09-19 00:20:48 GMT 50.180939 9.165418 32,000 314 432 0
2019-09-19 00:20:45 GMT 50.177681 9.170837 32,000 314 432 0
2019-09-19 00:20:42 GMT 50.174282 9.176553 32,000 314 432 0
2019-09-19 00:20:39 GMT 50.168137 9.186797 32,000 314 432 0
2019-09-19 00:20:36 GMT 50.165157 9.191771 32,000 314 432 0
2019-09-19 00:20:33 GMT 50.161758 9.197487 32,000 314 432 0
2019-09-19 00:20:30 GMT 50.157394 9.204736 32,000 314 432 0
2019-09-19 00:20:27 GMT 50.153412 9.211313 32,000 313 433 0
2019-09-19 00:20:24 GMT 50.148651 9.219264 32,000 313 433 0
2019-09-19 00:20:21 GMT 50.140064 9.233638 32,000 314 433 0
2019-09-19 00:20:18 GMT 50.140064 9.233638 32,000 314 433 0
2019-09-19 00:20:15 GMT 50.136520 9.239502 32,000 314 433 0
2019-09-19 00:20:12 GMT 50.131035 9.248632 32,000 314 433 0
2019-09-19 00:20:09 GMT 50.128845 9.252270 32,000 314 433 0
2019-09-19 00:20:06 GMT 50.120499 9.266173 32,000 314 435 0
2019-09-19 00:20:03 GMT 50.114788 9.275727 32,000 314 433 0
2019-09-19 00:20:00 GMT 50.114788 9.275727 32,000 313 434 0
2019-09-19 00:19:57 GMT 50.112041 9.280255 32,000 313 434 0
2019-09-19 00:19:54 GMT 50.107910 9.287133 32,000 314 435 0
2019-09-19 00:19:49 GMT 50.101364 9.298048 32,000 314 435 0
2019-09-19 00:19:46 GMT 50.095886 9.307201 32,000 314 435 0
2019-09-19 00:19:43 GMT 50.088345 9.319747 32,000 314 435 0
2019-09-19 00:19:40 GMT 50.088345 9.319747 32,000 314 435 0
2019-09-19 00:19:37 GMT 50.084244 9.326525 32,000 314 435 0
2019-09-19 00:19:34 GMT 50.078896 9.335410 32,000 314 435 0
2019-09-19 00:19:30 GMT 50.074905 9.342065 32,000 314 435 0
2019-09-19 00:19:27 GMT 50.070374 9.349582 32,000 314 435 0
2019-09-19 00:19:24 GMT 50.065567 9.357533 32,000 314 435 0
2019-09-19 00:19:20 GMT 50.056824 9.372133 32,000 314 435 0
2019-09-19 00:19:17 GMT 50.056824 9.372133 32,000 314 435 0
2019-09-19 00:19:14 GMT 50.052826 9.378687 32,000 314 435 0
2019-09-19 00:19:11 GMT 50.049938 9.383512 32,000 314 435 0
2019-09-19 00:19:08 GMT 50.044449 9.392568 32,000 314 435 0
2019-09-19 00:19:05 GMT 50.041420 9.397616 32,000 314 435 0
2019-09-19 00:19:02 GMT 50.036907 9.405113 32,000 314 434 0
2019-09-19 00:18:58 GMT 50.030712 9.415357 32,000 314 434 0
2019-09-19 00:18:55 GMT 50.027161 9.421282 32,000 314 434 0
2019-09-19 00:18:49 GMT 50.019379 9.434220 32,000 314 434 0
2019-09-19 00:18:46 GMT 50.013584 9.443714 32,000 314 433 0
2019-09-19 00:18:43 GMT 50.003860 9.459807 32,000 314 433 0
2019-09-19 00:18:39 GMT 50.003860 9.459807 32,000 314 433 0
2019-09-19 00:18:36 GMT 50.000687 9.465019 32,000 314 433 0
2019-09-19 00:18:33 GMT 49.995892 9.472961 32,000 314 433 0
2019-09-19 00:18:27 GMT 49.989166 9.484020 32,000 314 433 0
2019-09-19 00:18:24 GMT 49.982986 9.494211 32,000 314 433 0
2019-09-19 00:18:21 GMT 49.980251 9.498794 32,000 314 433 0
2019-09-19 00:18:18 GMT 49.976807 9.504403 32,000 314 433 0
2019-09-19 00:18:15 GMT 49.972431 9.511636 32,000 314 433 0
2019-09-19 00:18:12 GMT 49.967239 9.520232 32,000 314 433 0
2019-09-19 00:18:09 GMT 49.963531 9.526375 32,000 314 433 0
2019-09-19 00:18:06 GMT 49.960098 9.532013 32,000 314 433 0
2019-09-19 00:18:03 GMT 49.955704 9.539241 32,000 314 433 0
2019-09-19 00:18:00 GMT 49.952545 9.544445 32,000 314 433 0
2019-09-19 00:17:57 GMT 49.942932 9.560274 32,000 314 433 0
2019-09-19 00:17:54 GMT 49.942932 9.560274 32,000 314 433 0
2019-09-19 00:17:51 GMT 49.938820 9.567013 32,000 314 433 0
2019-09-19 00:17:48 GMT 49.935001 9.573397 32,000 314 433 0
2019-09-19 00:17:45 GMT 49.930069 9.581524 32,000 314 433 0
2019-09-19 00:17:42 GMT 49.926086 9.588029 32,000 314 433 0
2019-09-19 00:17:39 GMT 49.923458 9.592326 32,000 314 433 0
2019-09-19 00:17:36 GMT 49.917984 9.601400 32,000 314 433 0
2019-09-19 00:17:33 GMT 49.914429 9.607247 32,000 314 434 0
2019-09-19 00:17:30 GMT 49.910431 9.613832 32,000 314 434 0
2019-09-19 00:17:27 GMT 49.905491 9.621945 32,000 314 434 0
2019-09-19 00:17:24 GMT 49.902603 9.626696 32,000 314 434 0
2019-09-19 00:17:21 GMT 49.897934 9.634432 32,000 314 432 0
2019-09-19 00:17:18 GMT 49.894081 9.640726 32,000 314 434 0
2019-09-19 00:17:15 GMT 49.885983 9.654013 32,000 314 434 0
2019-09-19 00:17:12 GMT 49.885983 9.654013 32,000 314 434 0
2019-09-19 00:17:09 GMT 49.880863 9.662401 32,000 314 433 0
2019-09-19 00:17:06 GMT 49.877186 9.668488 32,000 314 432 0
2019-09-19 00:17:03 GMT 49.872208 9.676570 32,000 314 433 0
2019-09-19 00:17:00 GMT 49.869324 9.681340 32,000 314 432 0
2019-09-19 00:16:56 GMT 49.863968 9.690086 32,000 314 433 0
2019-09-19 00:16:53 GMT 49.859169 9.697958 32,000 314 432 0
2019-09-19 00:16:50 GMT 49.855042 9.704758 32,000 314 433 0
2019-09-19 00:16:47 GMT 49.851486 9.710578 32,000 314 433 0
2019-09-19 00:16:44 GMT 49.846413 9.718892 32,000 314 432 0
2019-09-19 00:16:41 GMT 49.842270 9.725647 32,000 314 432 0
2019-09-19 00:16:38 GMT 49.838173 9.732328 32,000 314 432 0
2019-09-19 00:16:35 GMT 49.834869 9.737747 32,000 314 432 0
2019-09-19 00:16:32 GMT 49.831558 9.743138 32,000 314 432 0
2019-09-19 00:16:29 GMT 49.827026 9.750511 32,000 314 432 0
2019-09-19 00:16:26 GMT 49.822346 9.758161 32,000 314 432 0
2019-09-19 00:16:23 GMT 49.818111 9.765138 32,000 314 432 0
2019-09-19 00:16:20 GMT 49.813828 9.772042 32,000 314 432 0
2019-09-19 00:16:17 GMT 49.809860 9.778555 32,000 314 432 0
2019-09-19 00:16:14 GMT 49.805557 9.785494 32,000 314 432 0
2019-09-19 00:16:11 GMT 49.801575 9.791999 32,000 314 432 0
2019-09-19 00:16:08 GMT 49.798279 9.797429 32,000 314 432 0
2019-09-19 00:16:04 GMT 49.792088 9.807525 32,000 314 432 0
2019-09-19 00:16:01 GMT 49.787014 9.815765 32,000 314 432 0
2019-09-19 00:15:57 GMT 49.778728 9.829201 32,000 314 432 0
2019-09-19 00:15:54 GMT 49.778728 9.829201 32,000 314 432 0
2019-09-19 00:15:51 GMT 49.773094 9.838405 32,000 314 432 0
2019-09-19 00:15:48 GMT 49.768982 9.845123 32,000 314 432 0
2019-09-19 00:15:45 GMT 49.766624 9.848946 32,000 314 432 0
2019-09-19 00:15:42 GMT 49.762108 9.856295 32,000 314 432 0
2019-09-19 00:15:39 GMT 49.757267 9.864164 32,000 314 432 0
2019-09-19 00:15:36 GMT 49.753822 9.869731 32,000 314 432 0
2019-09-19 00:15:33 GMT 49.748188 9.878936 32,000 314 432 0
2019-09-19 00:15:30 GMT 49.745544 9.883142 32,000 314 432 0
2019-09-19 00:15:27 GMT 49.735657 9.899260 32,000 314 432 0
2019-09-19 00:15:24 GMT 49.735657 9.899260 32,000 314 432 0
2019-09-19 00:15:21 GMT 49.732780 9.903952 32,000 314 432 0
2019-09-19 00:15:18 GMT 49.728916 9.910188 32,000 314 432 0
2019-09-19 00:15:15 GMT 49.724911 9.916720 32,000 314 432 0
2019-09-19 00:15:12 GMT 49.721607 9.922065 32,000 314 432 0
2019-09-19 00:15:09 GMT 49.711693 9.938173 32,000 314 432 0
2019-09-19 00:15:06 GMT 49.711693 9.938173 32,000 314 432 0
2019-09-19 00:15:03 GMT 49.707409 9.945151 32,000 314 432 0
2019-09-19 00:15:00 GMT 49.703964 9.950718 32,000 314 432 0
2019-09-19 00:14:57 GMT 49.700661 9.956063 32,000 314 432 0
2019-09-19 00:14:54 GMT 49.695465 9.964600 32,000 314 432 0
2019-09-19 00:14:50 GMT 49.691162 9.971538 32,000 314 432 0
2019-09-19 00:14:46 GMT 49.684845 9.981802 32,000 314 433 0
2019-09-19 00:14:43 GMT 49.680679 9.988524 32,000 314 433 0
2019-09-19 00:14:40 GMT 49.671703 10.003052 32,000 314 433 0
2019-09-19 00:14:37 GMT 49.671703 10.003052 32,000 314 433 0
2019-09-19 00:14:33 GMT 49.663418 10.016488 32,000 314 434 0
2019-09-19 00:14:27 GMT 49.658752 10.024013 32,000 314 434 0
2019-09-19 00:14:24 GMT 49.655411 10.029404 32,000 314 434 0
2019-09-19 00:14:21 GMT 49.650288 10.037644 32,000 314 434 0
2019-09-19 00:14:18 GMT 49.641037 10.052563 32,000 314 432 0
2019-09-19 00:14:15 GMT 49.641037 10.052563 32,000 314 432 0
2019-09-19 00:14:12 GMT 49.637440 10.058355 32,000 314 432 0
2019-09-19 00:14:09 GMT 49.633995 10.063922 32,000 314 432 0
2019-09-19 00:14:06 GMT 49.629410 10.071283 32,000 314 432 0
2019-09-19 00:14:02 GMT 49.619751 10.086895 32,000 314 432 0
2019-09-19 00:13:56 GMT 49.615887 10.093095 32,000 314 432 0
2019-09-19 00:13:53 GMT 49.610489 10.101780 32,000 314 432 0
2019-09-19 00:13:50 GMT 49.608021 10.105789 32,000 314 432 0
2019-09-19 00:13:46 GMT 49.601688 10.116033 32,000 314 432 0
2019-09-19 00:13:43 GMT 49.596569 10.124273 32,000 314 432 0
2019-09-19 00:13:40 GMT 49.593822 10.128726 32,000 314 432 0
2019-09-19 00:13:37 GMT 49.590378 10.134220 32,000 314 432 0
2019-09-19 00:13:34 GMT 49.584976 10.142905 32,000 314 432 0
2019-09-19 00:13:31 GMT 49.580975 10.149363 32,000 314 432 0
2019-09-19 00:13:28 GMT 49.576878 10.155970 32,000 314 432 0
2019-09-19 00:13:25 GMT 49.573246 10.161760 32,000 314 432 0
2019-09-19 00:13:22 GMT 49.567844 10.170445 32,000 314 432 0
2019-09-19 00:13:19 GMT 49.564133 10.176448 32,000 314 432 0
2019-09-19 00:13:13 GMT 49.556812 10.188186 32,000 314 432 0
2019-09-19 00:13:10 GMT 49.552139 10.195746 32,000 314 432 0
2019-09-19 00:13:07 GMT 49.546738 10.204347 32,000 314 432 0
2019-09-19 00:13:04 GMT 49.544941 10.207264 32,000 314 432 0
2019-09-19 00:13:01 GMT 49.538452 10.217647 32,000 314 432 0
2019-09-19 00:12:58 GMT 49.536144 10.221442 32,000 314 432 0
2019-09-19 00:12:55 GMT 49.530743 10.230053 32,000 314 432 0
2019-09-19 00:12:52 GMT 49.526741 10.236511 32,000 314 432 0
2019-09-19 00:12:49 GMT 49.522568 10.243161 32,000 314 432 0
2019-09-19 00:12:45 GMT 49.516777 10.252471 32,000 314 432 0
2019-09-19 00:12:42 GMT 49.514557 10.255954 32,000 314 432 0
2019-09-19 00:12:39 GMT 49.504074 10.272795 32,000 314 432 0
2019-09-19 00:12:36 GMT 49.504074 10.272795 32,000 314 432 0
2019-09-19 00:12:33 GMT 49.500904 10.277933 32,000 314 432 0
2019-09-19 00:12:30 GMT 49.496899 10.284317 32,000 314 432 0
2019-09-19 00:12:27 GMT 49.493317 10.290070 32,000 314 432 0
2019-09-19 00:12:24 GMT 49.489014 10.296936 32,000 314 432 0
2019-09-19 00:12:21 GMT 49.484470 10.304211 32,000 314 432 0
2019-09-19 00:12:18 GMT 49.480591 10.310452 32,000 314 432 0
2019-09-19 00:12:15 GMT 49.476463 10.317053 32,000 314 432 0
2019-09-19 00:12:12 GMT 49.471340 10.325218 32,000 314 432 0
2019-09-19 00:12:09 GMT 49.467480 10.331380 32,000 314 432 0
2019-09-19 00:12:06 GMT 49.459984 10.343331 32,000 314 432 0
2019-09-19 00:12:03 GMT 49.459984 10.343331 32,000 314 432 0
2019-09-19 00:12:00 GMT 49.455551 10.350350 32,000 314 432 0
2019-09-19 00:11:57 GMT 49.446167 10.365384 32,000 314 432 0
2019-09-19 00:11:54 GMT 49.442276 10.371600 32,000 314 432 0
2019-09-19 00:11:51 GMT 49.442276 10.371600 32,000 314 432 0
2019-09-19 00:11:48 GMT 49.438103 10.378220 32,000 314 432 0
2019-09-19 00:11:45 GMT 49.434380 10.384159 32,000 314 432 0
2019-09-19 00:11:42 GMT 49.427170 10.395672 32,000 314 432 0
2019-09-19 00:11:39 GMT 49.423141 10.402010 32,000 314 432 0
2019-09-19 00:11:36 GMT 49.423141 10.402010 32,000 314 432 0
2019-09-19 00:11:32 GMT 49.416504 10.412645 32,000 314 432 0
2019-09-19 00:11:29 GMT 49.408218 10.425885 32,000 314 432 0
2019-09-19 00:11:26 GMT 49.408218 10.425885 32,000 314 432 0
2019-09-19 00:11:22 GMT 49.402359 10.435181 32,000 314 432 0
2019-09-19 00:11:19 GMT 49.398926 10.440674 32,000 314 432 0
2019-09-19 00:11:16 GMT 49.394623 10.447505 32,000 314 432 0
2019-09-19 00:11:12 GMT 49.388947 10.456519 32,000 314 432 0
2019-09-19 00:11:09 GMT 49.384754 10.463177 32,000 314 432 0
2019-09-19 00:11:06 GMT 49.379074 10.472211 32,000 314 432 0
2019-09-19 00:11:02 GMT 49.375351 10.478138 32,000 315 432 0
2019-09-19 00:10:59 GMT 49.370911 10.485183 32,000 315 432 0
2019-09-19 00:10:56 GMT 49.367020 10.491293 32,000 315 432 0
2019-09-19 00:10:53 GMT 49.362305 10.498775 32,000 315 432 0
2019-09-19 00:10:50 GMT 49.359665 10.503002 32,000 315 432 0
2019-09-19 00:10:47 GMT 49.355335 10.509796 32,000 315 432 0
2019-09-19 00:10:44 GMT 49.349258 10.519480 32,000 315 432 0
2019-09-19 00:10:41 GMT 49.346489 10.523890 32,000 315 432 0
2019-09-19 00:10:38 GMT 49.342712 10.529832 32,000 315 432 0
2019-09-19 00:10:35 GMT 49.337860 10.537508 32,000 315 432 0
2019-09-19 00:10:32 GMT 49.333008 10.545185 32,000 315 432 0
2019-09-19 00:10:29 GMT 49.329124 10.551356 32,000 315 432 0
2019-09-19 00:10:26 GMT 49.324677 10.558354 32,000 315 432 0
2019-09-19 00:10:23 GMT 49.321884 10.562791 32,000 315 432 0
2019-09-19 00:10:20 GMT 49.313156 10.576581 32,000 315 432 0
2019-09-19 00:10:14 GMT 49.308151 10.584482 32,000 315 432 0
2019-09-19 00:10:10 GMT 49.303024 10.592651 32,000 315 432 0
2019-09-19 00:10:07 GMT 49.298996 10.598990 32,000 315 432 0
2019-09-19 00:10:04 GMT 49.295380 10.604694 32,000 315 432 0
2019-09-19 00:10:01 GMT 49.291183 10.611275 32,000 315 432 0
2019-09-19 00:09:58 GMT 49.285355 10.620469 32,000 315 432 0
2019-09-19 00:09:55 GMT 49.282295 10.625297 32,000 315 432 0
2019-09-19 00:09:52 GMT 49.276474 10.634554 32,000 315 432 0
2019-09-19 00:09:49 GMT 49.273869 10.638741 32,000 315 432 0
2019-09-19 00:09:46 GMT 49.269699 10.645329 32,000 315 432 0
2019-09-19 00:09:43 GMT 49.263702 10.654766 32,000 315 432 0
2019-09-19 00:09:40 GMT 49.261642 10.658076 32,000 315 432 0
2019-09-19 00:09:37 GMT 49.256924 10.665484 32,000 315 432 0
2019-09-19 00:09:34 GMT 49.251755 10.673651 32,000 315 432 0
2019-09-19 00:09:30 GMT 49.246765 10.681528 32,000 315 433 0
2019-09-19 00:09:24 GMT 49.238953 10.693817 32,000 315 433 0
2019-09-19 00:09:20 GMT 49.232529 10.703923 32,000 315 433 0
2019-09-19 00:09:17 GMT 49.224754 10.716223 32,000 315 433 0
2019-09-19 00:09:14 GMT 49.224754 10.716223 32,000 315 433 0
2019-09-19 00:09:11 GMT 49.221130 10.721882 32,000 315 433 0
2019-09-19 00:09:08 GMT 49.216507 10.729135 32,000 315 433 0
2019-09-19 00:09:05 GMT 49.212753 10.735051 32,000 315 433 0
2019-09-19 00:09:02 GMT 49.208740 10.741376 32,000 315 433 0
2019-09-19 00:08:59 GMT 49.204693 10.747737 32,000 315 432 0
2019-09-19 00:08:56 GMT 49.200642 10.754097 32,000 315 432 0
2019-09-19 00:08:53 GMT 49.196182 10.761108 32,000 315 432 0
2019-09-19 00:08:50 GMT 49.190910 10.769420 32,000 315 432 0
2019-09-19 00:08:47 GMT 49.187988 10.773996 32,000 315 432 0
2019-09-19 00:08:42 GMT 49.174896 10.794573 32,000 315 432 0
2019-09-19 00:08:38 GMT 49.174896 10.794573 32,000 315 432 0
2019-09-19 00:08:35 GMT 49.170456 10.801603 32,000 315 432 0
2019-09-19 00:08:32 GMT 49.161713 10.815336 32,000 315 432 0
2019-09-19 00:08:29 GMT 49.161713 10.815336 32,000 315 432 0
2019-09-19 00:08:26 GMT 49.157536 10.821895 32,000 315 432 0
2019-09-19 00:08:22 GMT 49.153206 10.828689 32,000 315 432 0
2019-09-19 00:08:19 GMT 49.147339 10.837872 32,000 315 432 0
2019-09-19 00:08:13 GMT 49.140404 10.848782 32,000 315 432 0
2019-09-19 00:08:10 GMT 49.136215 10.855337 32,000 315 432 0
2019-09-19 00:08:07 GMT 49.127838 10.868436 32,000 315 432 0
2019-09-19 00:08:01 GMT 49.122940 10.876042 32,000 315 432 0
2019-09-19 00:07:58 GMT 49.118637 10.882803 32,000 315 432 0
2019-09-19 00:07:55 GMT 49.115295 10.888085 32,000 315 432 0
2019-09-19 00:07:52 GMT 49.111076 10.894607 32,000 315 432 0
2019-09-19 00:07:49 GMT 49.107468 10.900269 32,000 315 432 0
2019-09-19 00:07:46 GMT 49.102695 10.907689 32,000 315 432 0
2019-09-19 00:07:43 GMT 49.097672 10.915551 32,000 315 433 0
2019-09-19 00:07:40 GMT 49.092640 10.923374 32,000 315 433 0
2019-09-19 00:07:37 GMT 49.089848 10.927783 32,000 315 432 0
2019-09-19 00:07:34 GMT 49.085518 10.934504 32,000 315 433 0
2019-09-19 00:07:31 GMT 49.082584 10.939130 32,000 315 433 0
2019-09-19 00:07:28 GMT 49.078255 10.945852 32,000 315 432 0
2019-09-19 00:07:25 GMT 49.072529 10.954815 32,000 315 433 0
2019-09-19 00:07:22 GMT 49.069061 10.960271 32,000 315 433 0
2019-09-19 00:07:19 GMT 49.064011 10.968114 32,000 315 432 0
2019-09-19 00:07:16 GMT 49.059265 10.975553 32,000 315 432 0
2019-09-19 00:07:12 GMT 49.050743 10.988858 32,000 315 433 0
2019-09-19 00:07:06 GMT 49.046413 10.995580 32,000 315 433 0
2019-09-19 00:06:59 GMT 49.031193 11.019359 32,000 315 432 0
2019-09-19 00:06:56 GMT 49.031193 11.019359 32,000 315 433 0
2019-09-19 00:06:53 GMT 49.028118 11.024130 32,000 315 433 0
2019-09-19 00:06:48 GMT 49.021507 11.034393 32,000 315 432 0
2019-09-19 00:06:45 GMT 49.017334 11.040908 32,000 315 434 0
2019-09-19 00:06:42 GMT 49.013409 11.046970 32,000 315 434 0
2019-09-19 00:06:38 GMT 49.007637 11.055932 32,000 315 434 0
2019-09-19 00:06:35 GMT 49.002319 11.064218 32,000 315 434 0
2019-09-19 00:06:29 GMT 48.995453 11.074853 32,000 315 434 0
2019-09-19 00:06:26 GMT 48.987152 11.087735 32,000 315 434 0
2019-09-19 00:06:23 GMT 48.987152 11.087735 32,000 315 434 0
2019-09-19 00:06:20 GMT 48.981537 11.096403 32,000 315 434 0
2019-09-19 00:06:16 GMT 48.976772 11.103781 32,000 315 434 0
2019-09-19 00:06:13 GMT 48.973419 11.109057 32,000 315 434 0
2019-09-19 00:06:10 GMT 48.968903 11.115981 32,000 315 434 0
2019-09-19 00:06:07 GMT 48.963829 11.123874 32,000 315 434 0
2019-09-19 00:06:04 GMT 48.960339 11.129295 32,000 315 434 0
2019-09-19 00:06:01 GMT 48.956680 11.134996 32,000 315 434 0
2019-09-19 00:05:58 GMT 48.949768 11.145630 32,000 315 434 0
2019-09-19 00:05:55 GMT 48.945694 11.151968 32,000 315 434 0
2019-09-19 00:05:52 GMT 48.942741 11.156544 32,000 315 435 0
2019-09-19 00:05:48 GMT 48.937016 11.165506 32,000 315 435 0
2019-09-19 00:05:45 GMT 48.933746 11.170490 32,000 315 435 0
2019-09-19 00:05:42 GMT 48.928963 11.177938 32,000 315 435 0
2019-09-19 00:05:38 GMT 48.922073 11.188589 32,000 315 434 0
2019-09-19 00:05:35 GMT 48.919277 11.192900 32,000 315 435 0
2019-09-19 00:05:32 GMT 48.906738 11.212252 32,000 315 434 0
2019-09-19 00:05:27 GMT 48.904102 11.216391 32,000 314 433 0
2019-09-19 00:05:21 GMT 48.899590 11.223329 32,000 315 434 0
2019-09-19 00:05:17 GMT 48.893692 11.232464 32,000 315 434 0
2019-09-19 00:05:14 GMT 48.889481 11.239014 32,000 315 434 0
2019-09-19 00:05:11 GMT 48.885529 11.245085 32,000 315 434 0
2019-09-19 00:05:07 GMT 48.878963 11.255276 32,000 315 433 0
2019-09-19 00:05:04 GMT 48.875984 11.259830 32,000 315 433 0
2019-09-19 00:05:01 GMT 48.871098 11.267347 32,000 315 432 0
2019-09-19 00:04:57 GMT 48.864487 11.277538 32,000 315 433 0
2019-09-19 00:04:54 GMT 48.860550 11.283593 32,000 315 433 0
2019-09-19 00:04:51 GMT 48.856621 11.289681 32,000 315 433 0
2019-09-19 00:04:48 GMT 48.851852 11.296974 32,000 315 433 0
2019-09-19 00:04:45 GMT 48.847637 11.303486 32,000 315 433 0
2019-09-19 00:04:42 GMT 48.844006 11.309124 32,000 315 433 0
2019-09-19 00:04:39 GMT 48.841351 11.313171 32,000 315 433 0
2019-09-19 00:04:36 GMT 48.836014 11.321411 32,000 315 432 0
2019-09-19 00:04:33 GMT 48.832367 11.326977 32,000 315 432 0
2019-09-19 00:04:29 GMT 48.826172 11.336482 32,000 315 433 0
2019-09-19 00:04:26 GMT 48.821426 11.343817 32,000 315 433 0
2019-09-19 00:04:21 GMT 48.814259 11.354876 32,000 315 433 0
2019-09-19 00:04:18 GMT 48.809647 11.361976 32,000 315 433 0
2019-09-19 00:04:14 GMT 48.806389 11.366947 32,000 315 433 0
2019-09-19 00:04:11 GMT 48.800804 11.375548 32,000 315 432 0
2019-09-19 00:04:08 GMT 48.797127 11.381185 32,000 315 433 0
2019-09-19 00:04:05 GMT 48.792751 11.387835 32,000 315 434 0
2019-09-19 00:04:02 GMT 48.788422 11.394557 32,000 315 433 0
2019-09-19 00:03:59 GMT 48.783325 11.402259 32,000 315 434 0
2019-09-19 00:03:56 GMT 48.779846 11.407682 32,000 315 434 0
2019-09-19 00:03:53 GMT 48.775761 11.413928 32,000 315 434 0
2019-09-19 00:03:50 GMT 48.771790 11.419936 32,000 315 434 0
2019-09-19 00:03:47 GMT 48.767567 11.426432 32,000 315 434 0
2019-09-19 00:03:44 GMT 48.763515 11.432720 32,000 315 434 0
2019-09-19 00:03:41 GMT 48.757698 11.441538 32,000 315 434 0
2019-09-19 00:03:38 GMT 48.753784 11.447537 32,000 315 434 0
2019-09-19 00:03:34 GMT 48.749542 11.454022 32,000 315 434 0
2019-09-19 00:03:31 GMT 48.745743 11.459867 32,000 315 434 0
2019-09-19 00:03:28 GMT 48.739353 11.469582 32,000 315 434 0
2019-09-19 00:03:25 GMT 48.736237 11.474352 32,000 315 436 0
2019-09-19 00:03:22 GMT 48.731861 11.481002 32,000 315 436 0
2019-09-19 00:03:18 GMT 48.726517 11.489234 32,000 315 436 0
2019-09-19 00:03:15 GMT 48.720825 11.497843 32,000 315 435 0
2019-09-19 00:03:12 GMT 48.717896 11.502396 32,000 315 435 0
2019-09-19 00:03:08 GMT 48.711517 11.512082 32,000 315 436 0
2019-09-19 00:03:05 GMT 48.708675 11.516418 32,000 315 436 0
2019-09-19 00:03:02 GMT 48.702026 11.526560 32,000 315 437 0
2019-09-19 00:02:59 GMT 48.699879 11.529790 32,000 315 436 0
2019-09-19 00:02:56 GMT 48.695343 11.536771 32,000 315 436 0
2019-09-19 00:02:53 GMT 48.690399 11.544307 32,000 315 437 0
2019-09-19 00:02:50 GMT 48.687424 11.548884 32,000 315 437 0
2019-09-19 00:02:47 GMT 48.683445 11.554943 32,000 315 437 0
2019-09-19 00:02:44 GMT 48.679001 11.561702 32,000 315 437 0
2019-09-19 00:02:41 GMT 48.673462 11.570153 32,000 315 437 0
2019-09-19 00:02:37 GMT 48.669067 11.576843 32,000 315 437 0
2019-09-19 00:02:34 GMT 48.663940 11.584649 32,000 315 437 0
2019-09-19 00:02:31 GMT 48.660355 11.590070 32,000 315 436 0
2019-09-19 00:02:28 GMT 48.656540 11.595925 32,000 315 437 0
2019-09-19 00:02:25 GMT 48.651279 11.603948 32,000 315 437 0
2019-09-19 00:02:22 GMT 48.647415 11.609802 32,000 315 436 0
2019-09-19 00:02:19 GMT 48.640991 11.619488 32,000 315 436 0
2019-09-19 00:02:16 GMT 48.638031 11.624028 32,000 315 436 0
2019-09-19 00:02:13 GMT 48.634335 11.629679 32,000 315 436 0
2019-09-19 00:02:10 GMT 48.630329 11.635678 32,000 315 436 0
2019-09-19 00:02:07 GMT 48.625488 11.643050 32,000 315 436 0
2019-09-19 00:02:04 GMT 48.621204 11.649555 32,000 315 436 0
2019-09-19 00:02:01 GMT 48.616642 11.656422 32,000 315 436 0
2019-09-19 00:01:56 GMT 48.610153 11.666354 32,000 315 436 0
2019-09-19 00:01:53 GMT 48.605850 11.672833 32,000 315 436 0
2019-09-19 00:01:49 GMT 48.600586 11.680861 32,000 315 436 0
2019-09-19 00:01:46 GMT 48.594772 11.689735 32,000 315 436 0
2019-09-19 00:01:43 GMT 48.591366 11.694874 32,000 315 436 0
2019-09-19 00:01:40 GMT 48.585114 11.704383 32,000 320 443 0
2019-09-19 00:01:36 GMT 48.579803 11.712412 32,000 315 436 0
2019-09-19 00:01:33 GMT 48.577259 11.716268 32,000 315 436 0
2019-09-19 00:01:30 GMT 48.572140 11.724002 32,000 315 437 0
2019-09-19 00:01:27 GMT 48.567856 11.730511 32,000 315 437 0
2019-09-19 00:01:24 GMT 48.563141 11.737624 32,000 315 437 0
2019-09-19 00:01:21 GMT 48.560440 11.741709 32,000 315 437 0
2019-09-19 00:01:18 GMT 48.554451 11.750745 32,000 315 437 0
2019-09-19 00:01:15 GMT 48.546303 11.763033 32,000 315 437 0
2019-09-19 00:01:12 GMT 48.546303 11.763033 32,000 315 437 0
2019-09-19 00:01:09 GMT 48.543602 11.767152 32,000 315 437 0
2019-09-19 00:01:06 GMT 48.538902 11.774236 32,000 315 437 0
2019-09-19 00:01:03 GMT 48.534348 11.781147 32,000 315 437 0
2019-09-19 00:01:00 GMT 48.530056 11.787607 32,000 315 437 0
2019-09-19 00:00:57 GMT 48.526199 11.793401 32,000 315 437 0
2019-09-19 00:00:54 GMT 48.521351 11.800762 32,000 315 437 0
2019-09-19 00:00:51 GMT 48.516930 11.807412 32,000 315 436 0
2019-09-19 00:00:48 GMT 48.513390 11.812760 32,000 315 437 0
2019-09-19 00:00:44 GMT 48.503220 11.828050 32,000 315 437 0
2019-09-19 00:00:41 GMT 48.503220 11.828050 32,000 315 436 0
2019-09-19 00:00:38 GMT 48.498402 11.835383 32,000 315 436 0
2019-09-19 00:00:35 GMT 48.494957 11.840515 32,000 315 436 0
2019-09-19 00:00:32 GMT 48.491272 11.846149 32,000 315 436 0
2019-09-19 00:00:29 GMT 48.486111 11.853887 32,000 315 436 0
2019-09-19 00:00:26 GMT 48.481689 11.860536 32,000 315 437 0
2019-09-19 00:00:23 GMT 48.477547 11.866752 32,000 315 436 0
2019-09-19 00:00:20 GMT 48.473122 11.873402 32,000 315 436 0
2019-09-19 00:00:17 GMT 48.467396 11.882003 32,000 315 437 0
2019-09-19 00:00:14 GMT 48.464539 11.886292 32,000 315 437 0
2019-09-19 00:00:11 GMT 48.460419 11.892559 32,000 315 437 0
2019-09-19 00:00:08 GMT 48.453571 11.902819 32,000 315 437 0
2019-09-19 00:00:04 GMT 48.450439 11.907560 32,000 315 437 0
2019-09-19 00:00:01 GMT 48.444725 11.916191 32,000 315 437 0
2019-09-18 23:59:57 GMT 48.437576 11.926927 32,000 315 437 0
2019-09-18 23:59:52 GMT 48.432861 11.934040 32,000 315 438 0
2019-09-18 23:59:49 GMT 48.428246 11.940910 32,000 315 438 0
2019-09-18 23:59:46 GMT 48.418842 11.955077 32,000 315 438 0
2019-09-18 23:59:42 GMT 48.418842 11.955077 32,000 315 437 0
2019-09-18 23:59:39 GMT 48.413258 11.963461 32,000 315 438 0
2019-09-18 23:59:36 GMT 48.403526 11.978061 32,000 315 437 0
2019-09-18 23:59:31 GMT 48.403526 11.978061 32,000 315 437 0
2019-09-18 23:59:28 GMT 48.397987 11.986445 32,000 315 437 0
2019-09-18 23:59:25 GMT 48.393951 11.992422 32,000 315 437 0
2019-09-18 23:59:21 GMT 48.385094 12.005744 32,000 315 437 0
2019-09-18 23:59:18 GMT 48.385094 12.005744 32,000 315 437 0
2019-09-18 23:59:15 GMT 48.380669 12.012466 32,000 315 437 0
2019-09-18 23:59:11 GMT 48.374851 12.021211 32,000 315 437 0
2019-09-18 23:59:08 GMT 48.368984 12.030029 32,000 315 437 0
2019-09-18 23:59:05 GMT 48.365959 12.034583 32,000 315 437 0
2019-09-18 23:59:01 GMT 48.358696 12.045497 32,000 315 437 0
2019-09-18 23:58:58 GMT 48.354694 12.051496 32,000 315 437 0
2019-09-18 23:58:55 GMT 48.350967 12.057143 32,000 315 437 0
2019-09-18 23:58:51 GMT 48.345848 12.064868 32,000 315 437 0
2019-09-18 23:58:48 GMT 48.341537 12.071298 32,000 315 437 0
2019-09-18 23:58:45 GMT 48.335999 12.079679 32,000 315 437 0
2019-09-18 23:58:42 GMT 48.331696 12.086117 32,000 315 437 0
2019-09-18 23:58:39 GMT 48.327694 12.092117 32,000 315 437 0
2019-09-18 23:58:36 GMT 48.324619 12.096887 32,000 315 437 0
2019-09-18 23:58:33 GMT 48.320293 12.103247 32,000 315 437 0
2019-09-18 23:58:30 GMT 48.311737 12.116159 32,000 315 437 0
2019-09-18 23:58:27 GMT 48.311737 12.116159 32,000 315 438 0
2019-09-18 23:58:24 GMT 48.306046 12.124786 32,000 315 437 0
2019-09-18 23:58:21 GMT 48.299011 12.135315 32,000 315 437 0
2019-09-18 23:58:18 GMT 48.299011 12.135315 32,000 315 439 0
2019-09-18 23:58:15 GMT 48.292877 12.144541 32,000 315 439 0
2019-09-18 23:58:12 GMT 48.288437 12.151231 32,000 315 439 0
2019-09-18 23:58:09 GMT 48.285599 12.155527 32,000 315 439 0
2019-09-18 23:58:06 GMT 48.281708 12.161302 32,000 315 439 0
2019-09-18 23:58:03 GMT 48.277313 12.167992 32,000 315 439 0
2019-09-18 23:58:00 GMT 48.272575 12.175092 32,000 315 439 0
2019-09-18 23:57:57 GMT 48.269272 12.180007 32,000 315 439 0
2019-09-18 23:57:54 GMT 48.263966 12.187958 32,000 315 439 0
2019-09-18 23:57:51 GMT 48.260971 12.192500 32,000 315 439 0
2019-09-18 23:57:48 GMT 48.255630 12.200462 32,000 315 439 0
2019-09-18 23:57:45 GMT 48.250233 12.208629 32,000 315 439 0
2019-09-18 23:57:41 GMT 48.245773 12.215248 32,000 316 440 0
2019-09-18 23:57:38 GMT 48.241295 12.221929 32,000 315 439 0
2019-09-18 23:57:35 GMT 48.232681 12.234794 32,000 316 440 0
2019-09-18 23:57:32 GMT 48.232681 12.234794 32,000 316 440 0
2019-09-18 23:57:29 GMT 48.228333 12.241305 32,000 316 440 0
2019-09-18 23:57:26 GMT 48.219971 12.253731 32,000 316 441 0
2019-09-18 23:57:19 GMT 48.213593 12.263207 32,000 316 441 0
2019-09-18 23:57:15 GMT 48.204071 12.277363 32,000 316 441 0
2019-09-18 23:57:12 GMT 48.202606 12.279475 32,000 316 441 0
2019-09-18 23:57:09 GMT 48.199677 12.283799 32,000 316 441 0
2019-09-18 23:57:06 GMT 48.195206 12.290376 32,000 316 441 0
2019-09-18 23:57:03 GMT 48.184982 12.305392 32,000 316 441 0
2019-09-18 23:56:59 GMT 48.184982 12.305392 32,000 316 441 0
2019-09-18 23:56:56 GMT 48.176353 12.317914 32,000 316 441 0
2019-09-18 23:56:53 GMT 48.176353 12.317914 32,000 316 442 0
2019-09-18 23:56:50 GMT 48.171837 12.324564 32,000 317 442 0
2019-09-18 23:56:47 GMT 48.166389 12.332370 32,000 317 442 0
2019-09-18 23:56:44 GMT 48.163738 12.336201 32,000 317 442 0
2019-09-18 23:56:41 GMT 48.159454 12.342365 32,000 317 442 0
2019-09-18 23:56:38 GMT 48.154449 12.349525 32,000 317 442 0
2019-09-18 23:56:35 GMT 48.150467 12.355225 32,000 317 442 0
2019-09-18 23:56:32 GMT 48.146164 12.361267 32,000 317 442 0
2019-09-18 23:56:28 GMT 48.139160 12.371155 32,000 317 442 0
2019-09-18 23:56:25 GMT 48.135132 12.376785 32,000 318 442 0
2019-09-18 23:56:22 GMT 48.130188 12.383652 32,000 318 442 0
2019-09-18 23:56:19 GMT 48.121792 12.395184 32,000 318 442 0
2019-09-18 23:56:16 GMT 48.121792 12.395184 32,000 318 442 0
2019-09-18 23:56:13 GMT 48.117138 12.401593 32,000 318 443 0
2019-09-18 23:56:10 GMT 48.111374 12.409401 32,000 318 442 0
2019-09-18 23:56:07 GMT 48.108337 12.413494 32,000 319 442 0
2019-09-18 23:56:04 GMT 48.103916 12.419410 32,000 319 442 0
2019-09-18 23:56:01 GMT 48.092651 12.434481 32,000 319 443 0
2019-09-18 23:55:57 GMT 48.092651 12.434481 32,000 319 443 0
2019-09-18 23:55:54 GMT 48.087902 12.440749 32,000 319 443 0
2019-09-18 23:55:51 GMT 48.082947 12.447166 32,000 319 442 0
2019-09-18 23:55:47 GMT 48.076630 12.455406 32,000 320 443 0
2019-09-18 23:55:44 GMT 48.065781 12.469414 32,000 320 443 0
2019-09-18 23:55:41 GMT 48.065781 12.469414 32,000 320 443 0
2019-09-18 23:55:37 GMT 48.062714 12.473396 32,000 320 443 0
2019-09-18 23:55:34 GMT 48.057907 12.479645 32,000 320 443 0
2019-09-18 23:55:31 GMT 48.052197 12.487089 32,000 319 443 0
2019-09-18 23:55:28 GMT 48.046967 12.493858 32,000 319 443 0
2019-09-18 23:55:24 GMT 48.042191 12.500117 32,000 319 443 0
2019-09-18 23:55:21 GMT 48.036602 12.507301 32,000 319 443 0
2019-09-18 23:55:18 GMT 48.031387 12.514202 32,000 319 443 0
2019-09-18 23:55:15 GMT 48.026733 12.520226 32,000 319 443 0
2019-09-18 23:55:11 GMT 48.021008 12.527654 32,000 319 444 0
2019-09-18 23:55:08 GMT 48.013744 12.537091 32,000 319 444 0
2019-09-18 23:55:05 GMT 48.010803 12.540894 32,000 319 444 0
2019-09-18 23:55:02 GMT 48.006042 12.547211 32,000 318 444 0
2019-09-18 23:54:59 GMT 48.002975 12.551262 32,000 318 444 0
2019-09-18 23:54:56 GMT 47.997826 12.558289 32,000 318 444 0
2019-09-18 23:54:53 GMT 47.993168 12.564768 32,000 317 444 0
2019-09-18 23:54:49 GMT 47.988419 12.571449 32,000 316 444 0
2019-09-18 23:54:46 GMT 47.982697 12.579826 32,000 316 444 0
2019-09-18 23:54:43 GMT 47.979630 12.584290 32,000 315 444 0
2019-09-18 23:54:40 GMT 47.974873 12.591529 32,000 314 444 0
2019-09-18 23:54:37 GMT 47.969879 12.599190 32,000 314 444 0
2019-09-18 23:54:33 GMT 47.965942 12.605370 32,000 313 443 0
2019-09-18 23:54:30 GMT 47.960491 12.614065 32,000 312 443 0
2019-09-18 23:54:27 GMT 47.951225 12.629559 32,000 311 443 0
2019-09-18 23:54:23 GMT 47.951225 12.629559 32,000 311 444 0
2019-09-18 23:54:20 GMT 47.946987 12.637024 32,000 310 443 0
2019-09-18 23:54:17 GMT 47.943684 12.642869 32,000 310 443 0
2019-09-18 23:54:14 GMT 47.939758 12.649864 32,000 310 444 0
2019-09-18 23:54:11 GMT 47.934631 12.658997 32,000 310 444 0
2019-09-18 23:54:08 GMT 47.932526 12.662773 32,000 310 444 0
2019-09-18 23:54:05 GMT 47.928600 12.669772 32,000 310 444 0
2019-09-18 23:54:02 GMT 47.923599 12.678703 32,000 310 444 0
2019-09-18 23:53:58 GMT 47.918079 12.688505 32,000 310 444 0
2019-09-18 23:53:55 GMT 47.914352 12.695114 32,000 310 444 0
2019-09-18 23:53:52 GMT 47.910553 12.701843 32,000 310 444 0
2019-09-18 23:53:49 GMT 47.905560 12.710759 32,000 310 444 0
2019-09-18 23:53:45 GMT 47.897133 12.725760 32,000 310 444 0
2019-09-18 23:53:42 GMT 47.897133 12.725760 32,000 310 444 0
2019-09-18 23:53:39 GMT 47.893173 12.732732 32,000 310 444 0
2019-09-18 23:53:36 GMT 47.889999 12.738373 32,000 310 444 0
2019-09-18 23:53:33 GMT 47.886200 12.745171 32,000 310 444 0
2019-09-18 23:53:30 GMT 47.881721 12.753085 32,000 310 445 0
2019-09-18 23:53:27 GMT 47.876175 12.762955 32,000 310 444 0
2019-09-18 23:53:24 GMT 47.873520 12.767624 32,000 310 445 0
2019-09-18 23:53:19 GMT 47.866825 12.779564 32,000 310 445 0
2019-09-18 23:53:16 GMT 47.862869 12.786607 32,000 310 445 0
2019-09-18 23:53:13 GMT 47.852161 12.805551 32,000 311 445 0
2019-09-18 23:53:08 GMT 47.852161 12.805551 32,000 310 445 0
2019-09-18 23:53:05 GMT 47.848618 12.811913 32,000 311 444 0
2019-09-18 23:53:02 GMT 47.844387 12.819425 32,000 310 445 0
2019-09-18 23:52:58 GMT 47.839325 12.828323 32,000 310 445 0
2019-09-18 23:52:55 GMT 47.834332 12.837172 32,000 310 445 0
2019-09-18 23:52:52 GMT 47.826508 12.850983 32,000 311 445 0
2019-09-18 23:52:49 GMT 47.826508 12.850983 32,000 310 445 0
2019-09-18 23:52:45 GMT 47.822708 12.857780 32,000 310 445 0
2019-09-18 23:52:42 GMT 47.818600 12.865061 32,000 310 445 0
2019-09-18 23:52:39 GMT 47.813805 12.873441 32,000 311 444 0
2019-09-18 23:52:36 GMT 47.809566 12.880906 32,000 311 444 0
2019-09-18 23:52:32 GMT 47.804680 12.889569 32,000 311 444 0
2019-09-18 23:52:29 GMT 47.800186 12.897469 32,000 311 444 0
2019-09-18 23:52:25 GMT 47.794533 12.907527 32,000 311 444 0
2019-09-18 23:52:22 GMT 47.788013 12.918936 32,000 311 444 0
2019-09-18 23:52:19 GMT 47.788013 12.918936 32,000 311 444 0
2019-09-18 23:52:15 GMT 47.776520 12.939217 32,000 310 445 0
2019-09-18 23:52:11 GMT 47.776520 12.939217 32,000 311 445 0
2019-09-18 23:52:07 GMT 47.772556 12.946261 32,000 310 445 0
2019-09-18 23:52:04 GMT 47.768051 12.954185 32,000 310 445 0
2019-09-18 23:52:01 GMT 47.763153 12.962837 32,000 311 445 0
2019-09-18 23:51:58 GMT 47.753632 12.979591 32,000 311 446 0
2019-09-18 23:51:53 GMT 47.753632 12.979591 32,000 311 445 0
2019-09-18 23:51:50 GMT 47.749237 12.987282 32,000 311 445 0
2019-09-18 23:51:47 GMT 47.745941 12.993118 32,000 311 445 0
2019-09-18 23:51:43 GMT 47.740494 13.002731 32,000 311 444 0
2019-09-18 23:51:40 GMT 47.735870 13.010834 32,000 311 444 0
2019-09-18 23:51:37 GMT 47.732300 13.017151 32,000 311 444 0
2019-09-18 23:51:33 GMT 47.726471 13.027391 32,000 311 444 0
2019-09-18 23:51:30 GMT 47.721680 13.035759 32,000 311 444 0
2019-09-18 23:51:26 GMT 47.716927 13.044152 32,000 310 445 0
2019-09-18 23:51:23 GMT 47.714264 13.048805 32,000 311 444 0
2019-09-18 23:51:20 GMT 47.709248 13.057674 32,000 311 444 0
2019-09-18 23:51:17 GMT 47.705524 13.064153 32,000 311 444 0
2019-09-18 23:51:14 GMT 47.697563 13.078097 32,000 311 444 0
2019-09-18 23:51:08 GMT 47.692677 13.086689 32,000 311 444 0
2019-09-18 23:51:02 GMT 47.684738 13.100647 32,000 310 445 0
2019-09-18 23:50:59 GMT 47.680618 13.107857 32,000 311 444 0
2019-09-18 23:50:56 GMT 47.677452 13.113450 32,000 311 444 0
2019-09-18 23:50:53 GMT 47.673588 13.120211 32,000 310 445 0
2019-09-18 23:50:50 GMT 47.669632 13.127151 32,000 311 444 0
2019-09-18 23:50:46 GMT 47.663132 13.138550 32,000 311 444 0
2019-09-18 23:50:43 GMT 47.660339 13.143425 32,000 310 445 0
2019-09-18 23:50:37 GMT 47.652126 13.157818 32,000 311 444 0
2019-09-18 23:50:34 GMT 47.648666 13.163887 32,000 311 444 0
2019-09-18 23:50:31 GMT 47.638721 13.181270 32,000 311 444 0
2019-09-18 23:50:27 GMT 47.638721 13.181270 32,000 311 444 0
2019-09-18 23:50:23 GMT 47.634579 13.188524 32,000 311 445 0
2019-09-18 23:50:20 GMT 47.630585 13.195473 32,000 311 445 0
2019-09-18 23:50:16 GMT 47.624084 13.206871 32,000 311 445 0
2019-09-18 23:50:13 GMT 47.620659 13.212891 32,000 311 445 0
2019-09-18 23:50:10 GMT 47.617035 13.219162 32,000 311 444 0
2019-09-18 23:50:05 GMT 47.609718 13.231905 32,000 311 444 0
2019-09-18 23:50:02 GMT 47.605621 13.239089 32,000 310 445 0
2019-09-18 23:49:59 GMT 47.595196 13.257188 32,000 311 444 0
2019-09-18 23:49:55 GMT 47.595196 13.257188 32,000 311 444 0
2019-09-18 23:49:51 GMT 47.591888 13.262963 32,000 311 444 0
2019-09-18 23:49:44 GMT 47.582161 13.279865 32,000 311 444 0
2019-09-18 23:49:40 GMT 47.575363 13.291626 32,000 311 444 0
2019-09-18 23:49:34 GMT 47.569016 13.302727 32,000 311 444 0
2019-09-18 23:49:31 GMT 47.565029 13.309655 32,000 311 444 0
2019-09-18 23:49:28 GMT 47.560886 13.316838 32,000 311 444 0
2019-09-18 23:49:24 GMT 47.555717 13.325853 32,000 311 444 0
2019-09-18 23:49:21 GMT 47.551342 13.333459 32,000 311 444 0
2019-09-18 23:49:18 GMT 47.547478 13.340149 32,000 311 444 0
2019-09-18 23:49:14 GMT 47.541241 13.350994 32,000 311 444 0
2019-09-18 23:49:11 GMT 47.538029 13.356488 32,000 311 444 0
2019-09-18 23:49:08 GMT 47.533653 13.364164 32,000 311 444 0
2019-09-18 23:49:03 GMT 47.527786 13.374305 32,000 311 444 0
2019-09-18 23:49:00 GMT 47.523643 13.381418 32,000 311 444 0
2019-09-18 23:48:57 GMT 47.519394 13.388832 32,000 311 444 0
2019-09-18 23:48:53 GMT 47.514175 13.397827 32,000 311 444 0
2019-09-18 23:48:49 GMT 47.509232 13.406410 32,000 311 445 0
2019-09-18 23:48:46 GMT 47.505768 13.412405 32,000 311 446 0
2019-09-18 23:48:43 GMT 47.500443 13.421654 32,000 311 445 0
2019-09-18 23:48:37 GMT 47.493759 13.433258 32,000 311 445 0
2019-09-18 23:48:34 GMT 47.489754 13.440153 32,000 311 445 0
2019-09-18 23:48:31 GMT 47.485748 13.447125 32,000 311 446 0
2019-09-18 23:48:28 GMT 47.480438 13.456398 32,000 311 446 0
2019-09-18 23:48:25 GMT 47.477741 13.460999 32,000 311 446 0
2019-09-18 23:48:22 GMT 47.472931 13.469307 32,000 311 446 0
2019-09-18 23:48:17 GMT 47.465469 13.482285 32,000 311 446 0
2019-09-18 23:48:14 GMT 47.455994 13.498695 32,000 311 446 0
2019-09-18 23:48:10 GMT 47.455994 13.498695 32,000 311 446 0
2019-09-18 23:48:07 GMT 47.453156 13.503571 32,000 311 446 0
2019-09-18 23:48:04 GMT 47.448090 13.512338 32,000 311 446 0
2019-09-18 23:48:00 GMT 47.444046 13.519295 32,000 311 446 0
2019-09-18 23:47:57 GMT 47.440018 13.526230 32,000 311 446 0
2019-09-18 23:47:54 GMT 47.436031 13.533114 32,000 311 446 0
2019-09-18 23:47:51 GMT 47.431732 13.540512 32,000 311 446 0
2019-09-18 23:47:47 GMT 47.420998 13.559030 32,000 311 446 0
2019-09-18 23:47:44 GMT 47.420998 13.559030 32,000 311 446 64
2019-09-18 23:47:41 GMT 47.412140 13.574226 32,000 311 446 0
2019-09-18 23:47:36 GMT 47.412140 13.574226 32,000 311 446 0
2019-09-18 23:47:32 GMT 47.405586 13.585581 32,000 311 446 0
2019-09-18 23:47:29 GMT 47.402748 13.590370 32,000 311 446 0
2019-09-18 23:47:26 GMT 47.398590 13.597572 32,000 311 446 0
2019-09-18 23:47:23 GMT 47.392040 13.608891 32,000 311 448 0
2019-09-18 23:47:20 GMT 47.389339 13.613469 32,000 311 446 0
2019-09-18 23:47:16 GMT 47.384266 13.622272 32,000 311 446 0
2019-09-18 23:47:12 GMT 47.378082 13.632866 32,000 311 446 64
2019-09-18 23:47:09 GMT 47.374863 13.638400 32,000 311 446 0
2019-09-18 23:47:03 GMT 47.366112 13.653400 32,000 311 447 0
2019-09-18 23:46:59 GMT 47.360733 13.662666 32,000 311 448 0
2019-09-18 23:46:55 GMT 47.356293 13.670288 32,000 311 447 0
2019-09-18 23:46:51 GMT 47.351028 13.679283 32,000 311 448 0
2019-09-18 23:46:48 GMT 47.347137 13.685944 32,000 311 448 0
2019-09-18 23:46:45 GMT 47.342834 13.693331 32,000 311 448 0
2019-09-18 23:46:39 GMT 47.334736 13.707205 32,000 311 448 0
2019-09-18 23:46:35 GMT 47.328781 13.717392 32,000 311 448 0
2019-09-18 23:46:30 GMT 47.322304 13.728473 32,000 311 448 0
2019-09-18 23:46:27 GMT 47.318394 13.735164 32,000 311 448 0
2019-09-18 23:46:24 GMT 47.315277 13.740463 32,000 311 448 0
2019-09-18 23:46:21 GMT 47.310432 13.748756 32,000 311 448 0
2019-09-18 23:46:17 GMT 47.305161 13.757835 32,000 311 448 0
2019-09-18 23:46:14 GMT 47.301132 13.764771 32,000 311 448 0
2019-09-18 23:46:11 GMT 47.295868 13.773766 32,000 311 448 0
2019-09-18 23:46:06 GMT 47.290192 13.783447 32,000 311 448 0
2019-09-18 23:46:03 GMT 47.286118 13.790382 32,000 311 448 0
2019-09-18 23:45:58 GMT 47.279205 13.802193 32,000 311 448 0
2019-09-18 23:45:55 GMT 47.275314 13.808922 32,000 311 448 0
2019-09-18 23:45:52 GMT 47.266937 13.823204 32,000 311 448 0
2019-09-18 23:45:49 GMT 47.262726 13.830345 32,000 311 448 0
2019-09-18 23:45:46 GMT 47.262726 13.830345 32,000 311 448 0
2019-09-18 23:45:43 GMT 47.259087 13.836576 32,000 311 448 0
2019-09-18 23:45:40 GMT 47.255814 13.842155 32,000 311 448 0
2019-09-18 23:45:37 GMT 47.250824 13.850670 32,000 311 448 0
2019-09-18 23:45:32 GMT 47.244747 13.861014 32,000 311 448 0
2019-09-18 23:45:29 GMT 47.240002 13.869042 32,000 311 448 0
2019-09-18 23:45:26 GMT 47.235947 13.876007 32,000 311 448 0
2019-09-18 23:45:22 GMT 47.230782 13.884747 32,000 311 448 0
2019-09-18 23:45:19 GMT 47.225243 13.894113 32,000 311 447 0
2019-09-18 23:45:16 GMT 47.223103 13.897846 32,000 311 447 0
2019-09-18 23:45:12 GMT 47.216904 13.908417 32,000 311 447 0
2019-09-18 23:45:09 GMT 47.211639 13.917343 32,000 311 447 0
2019-09-18 23:45:06 GMT 47.209602 13.920805 32,000 311 447 0
2019-09-18 23:45:01 GMT 47.202202 13.933481 32,000 311 447 0
2019-09-18 23:44:58 GMT 47.197731 13.941017 32,000 311 446 0
2019-09-18 23:44:55 GMT 47.194752 13.946087 32,000 311 448 0
2019-09-18 23:44:51 GMT 47.187443 13.958482 32,000 311 448 0
2019-09-18 23:44:46 GMT 47.181110 13.969327 32,000 311 448 0
2019-09-18 23:44:39 GMT 47.173103 13.982849 32,000 311 448 0
2019-09-18 23:44:35 GMT 47.166866 13.993413 32,000 311 448 0
2019-09-18 23:44:30 GMT 47.160488 14.004188 32,000 311 448 0
2019-09-18 23:44:26 GMT 47.155323 14.012921 32,000 311 448 0
2019-09-18 23:44:22 GMT 47.149750 14.022331 32,000 311 448 0
2019-09-18 23:44:17 GMT 47.142700 14.034279 32,000 311 448 0
2019-09-18 23:44:14 GMT 47.138611 14.041161 32,000 311 448 0
2019-09-18 23:44:11 GMT 47.134689 14.047806 32,000 311 448 0
2019-09-18 23:44:08 GMT 47.130478 14.054947 32,000 311 448 0
2019-09-18 23:44:05 GMT 47.126411 14.061796 32,000 311 448 0
2019-09-18 23:44:02 GMT 47.116917 14.077853 32,000 311 448 0
2019-09-18 23:43:58 GMT 47.116917 14.077853 32,000 311 448 0
2019-09-18 23:43:55 GMT 47.107315 14.094154 32,000 311 448 0
2019-09-18 23:43:51 GMT 47.107315 14.094154 32,000 311 448 0
2019-09-18 23:43:48 GMT 47.103928 14.099896 32,000 311 448 0
2019-09-18 23:43:45 GMT 47.099041 14.108136 32,000 311 448 0
2019-09-18 23:43:42 GMT 47.096191 14.112968 32,000 311 448 0
2019-09-18 23:43:39 GMT 47.090057 14.123268 32,000 311 448 0
2019-09-18 23:43:35 GMT 47.084518 14.132675 32,000 311 448 0
2019-09-18 23:43:32 GMT 47.081257 14.138137 32,000 312 447 0
2019-09-18 23:43:28 GMT 47.074997 14.148674 32,000 312 447 0
2019-09-18 23:43:25 GMT 47.072021 14.153755 32,000 312 447 0
2019-09-18 23:43:22 GMT 47.066826 14.162433 32,000 312 447 0
2019-09-18 23:43:17 GMT 47.061424 14.171589 32,000 312 447 0
2019-09-18 23:43:14 GMT 47.055981 14.180673 32,000 312 447 0
2019-09-18 23:43:11 GMT 47.053253 14.185272 32,000 312 447 0
2019-09-18 23:43:06 GMT 47.047165 14.195572 32,000 312 447 0
2019-09-18 23:43:03 GMT 47.041306 14.205391 32,000 311 448 0
2019-09-18 23:42:57 GMT 47.033867 14.217928 32,000 311 448 0
2019-09-18 23:42:54 GMT 47.029770 14.224830 32,000 311 448 0
2019-09-18 23:42:51 GMT 47.024605 14.233492 32,000 311 448 0
2019-09-18 23:42:46 GMT 47.019344 14.242436 32,000 312 448 0
2019-09-18 23:42:43 GMT 47.013885 14.251602 32,000 312 447 0
2019-09-18 23:42:39 GMT 47.009800 14.258423 32,000 312 449 0
2019-09-18 23:42:35 GMT 47.003265 14.269386 32,000 312 448 0
2019-09-18 23:42:32 GMT 46.999187 14.276240 32,000 312 448 0
2019-09-18 23:42:29 GMT 46.989944 14.291771 32,000 312 449 0
2019-09-18 23:42:24 GMT 46.989944 14.291771 32,000 312 449 -64
2019-09-18 23:42:21 GMT 46.986008 14.298431 32,000 312 449 -64
2019-09-18 23:42:18 GMT 46.981201 14.306396 32,000 312 449 0
2019-09-18 23:42:12 GMT 46.971954 14.321983 32,000 312 449 0
2019-09-18 23:42:09 GMT 46.967297 14.329693 32,000 312 449 0
2019-09-18 23:42:03 GMT 46.961609 14.339355 32,000 312 449 0
2019-09-18 23:42:00 GMT 46.955334 14.349835 32,000 312 448 0
2019-09-18 23:41:57 GMT 46.953426 14.353074 32,000 312 449 0
2019-09-18 23:41:52 GMT 46.944534 14.367920 32,000 312 449 0
2019-09-18 23:41:48 GMT 46.940716 14.374343 32,000 312 449 0
2019-09-18 23:41:45 GMT 46.935242 14.383438 32,000 312 448 0
2019-09-18 23:41:40 GMT 46.930058 14.392090 32,000 312 448 0
2019-09-18 23:41:37 GMT 46.924469 14.401456 32,000 312 448 0
2019-09-18 23:41:32 GMT 46.918442 14.411453 32,000 312 449 0
2019-09-18 23:41:29 GMT 46.914646 14.417865 32,000 312 449 0
2019-09-18 23:41:26 GMT 46.910110 14.425392 32,000 312 449 0
2019-09-18 23:41:22 GMT 46.904686 14.434486 32,000 312 449 0
2019-09-18 23:41:19 GMT 46.900726 14.441106 32,000 312 449 0
2019-09-18 23:41:15 GMT 46.895931 14.449064 32,000 312 449 0
2019-09-18 23:41:11 GMT 46.889790 14.459275 32,000 312 449 0
2019-09-18 23:41:08 GMT 46.886391 14.464980 32,000 312 449 0
2019-09-18 23:41:05 GMT 46.881317 14.473431 32,000 312 449 0
2019-09-18 23:41:00 GMT 46.875595 14.482933 32,000 312 449 0
2019-09-18 23:40:56 GMT 46.864651 14.501129 32,000 312 449 0
2019-09-18 23:40:53 GMT 46.864651 14.501129 32,000 312 449 0
2019-09-18 23:40:48 GMT 46.857788 14.512538 32,000 312 449 0
2019-09-18 23:40:45 GMT 46.853851 14.519103 32,000 312 449 0
2019-09-18 23:40:42 GMT 46.848495 14.527945 32,000 312 449 0
2019-09-18 23:40:38 GMT 46.844681 14.534363 32,000 312 449 0
2019-09-18 23:40:35 GMT 46.840164 14.541847 32,000 312 449 0
2019-09-18 23:40:32 GMT 46.836594 14.547774 32,000 312 449 0
2019-09-18 23:40:28 GMT 46.830296 14.558189 32,000 312 449 0
2019-09-18 23:40:24 GMT 46.824554 14.567737 32,000 312 449 0
2019-09-18 23:40:21 GMT 46.821121 14.573431 32,000 312 449 0
2019-09-18 23:40:17 GMT 46.815491 14.582743 32,000 312 449 0
2019-09-18 23:40:13 GMT 46.810276 14.591354 32,000 312 449 0
2019-09-18 23:40:10 GMT 46.806042 14.598358 32,000 312 449 0
2019-09-18 23:40:06 GMT 46.801666 14.605653 32,000 312 449 0
2019-09-18 23:40:03 GMT 46.796585 14.614027 32,000 312 448 0
2019-09-18 23:39:56 GMT 46.786861 14.630150 32,000 312 448 0
2019-09-18 23:39:51 GMT 46.780151 14.641292 32,000 312 448 0
2019-09-18 23:39:46 GMT 46.773033 14.653084 32,000 312 448 0
2019-09-18 23:39:40 GMT 46.765778 14.665073 32,000 312 448 0
2019-09-18 23:39:34 GMT 46.757580 14.678696 32,000 312 448 0
2019-09-18 23:39:30 GMT 46.751678 14.688386 32,000 312 448 0
2019-09-18 23:39:24 GMT 46.743073 14.702722 32,000 312 448 0
2019-09-18 23:39:19 GMT 46.736801 14.713105 32,000 312 448 0
2019-09-18 23:39:13 GMT 46.728973 14.726034 32,000 312 447 0
2019-09-18 23:39:08 GMT 46.722153 14.737288 32,000 312 447 0
2019-09-18 23:39:03 GMT 46.714325 14.750150 32,000 312 448 0
2019-09-18 23:38:59 GMT 46.708145 14.760333 32,000 312 448 0
2019-09-18 23:38:54 GMT 46.701157 14.771805 32,000 312 447 0
2019-09-18 23:38:51 GMT 46.698578 14.776142 32,000 312 447 0
2019-09-18 23:38:48 GMT 46.694046 14.783511 32,000 312 449 0
2019-09-18 23:38:41 GMT 46.685028 14.798383 32,000 312 448 0
2019-09-18 23:38:38 GMT 46.679123 14.808097 32,000 312 448 0
2019-09-18 23:38:32 GMT 46.672810 14.818497 32,000 312 448 0
2019-09-18 23:38:29 GMT 46.667313 14.827524 32,000 312 448 0
2019-09-18 23:38:26 GMT 46.664200 14.832682 32,000 312 448 0
2019-09-18 23:38:23 GMT 46.658981 14.841293 32,000 312 449 0
2019-09-18 23:38:20 GMT 46.653763 14.849898 32,000 312 449 0
2019-09-18 23:38:17 GMT 46.651291 14.853985 32,000 312 448 64
2019-09-18 23:38:12 GMT 46.644150 14.865708 32,000 312 449 0
2019-09-18 23:38:09 GMT 46.639755 14.872948 32,000 312 449 0
2019-09-18 23:38:06 GMT 46.634537 14.881517 32,000 312 449 0
2019-09-18 23:38:00 GMT 46.628906 14.890762 32,000 312 449 0
2019-09-18 23:37:57 GMT 46.624207 14.898422 32,000 312 449 0
2019-09-18 23:37:54 GMT 46.620762 14.904053 32,000 312 449 0
2019-09-18 23:37:50 GMT 46.614292 14.914696 32,000 312 449 0
2019-09-18 23:37:47 GMT 46.609909 14.921845 32,000 312 448 0
2019-09-18 23:37:44 GMT 46.605881 14.928410 32,000 312 448 64
2019-09-18 23:37:40 GMT 46.601349 14.935779 32,000 312 448 64
2019-09-18 23:37:36 GMT 46.594742 14.946556 32,000 312 449 0
2019-09-18 23:37:30 GMT 46.587433 14.958504 32,000 312 449 0
2019-09-18 23:37:26 GMT 46.576904 14.975571 32,000 312 449 0
2019-09-18 23:37:23 GMT 46.576904 14.975571 32,000 312 449 0
2019-09-18 23:37:20 GMT 46.573185 14.981644 32,000 312 449 0
2019-09-18 23:37:16 GMT 46.563503 14.997368 32,000 312 450 0
2019-09-18 23:37:13 GMT 46.563503 14.997368 32,000 312 450 0
2019-09-18 23:37:09 GMT 46.557816 15.006587 32,000 312 450 0
2019-09-18 23:37:05 GMT 46.551727 15.016525 32,000 312 451 0
2019-09-18 23:37:02 GMT 46.548294 15.022129 32,000 312 451 0
2019-09-18 23:36:59 GMT 46.543579 15.029846 32,000 312 451 0
2019-09-18 23:36:54 GMT 46.533337 15.046532 32,000 312 451 0
2019-09-18 23:36:51 GMT 46.529568 15.052643 32,000 312 451 0
2019-09-18 23:36:45 GMT 46.524582 15.060782 32,000 312 453 -64
2019-09-18 23:36:41 GMT 46.518906 15.070027 32,000 312 452 0
2019-09-18 23:36:38 GMT 46.515415 15.075714 32,000 312 452 0
2019-09-18 23:36:35 GMT 46.509979 15.084496 32,000 312 453 -64
2019-09-18 23:36:31 GMT 46.503590 15.094940 32,000 312 453 0
2019-09-18 23:36:28 GMT 46.501328 15.098497 32,000 312 453 0
2019-09-18 23:36:23 GMT 46.493675 15.110939 32,000 312 453 -64
2019-09-18 23:36:20 GMT 46.489609 15.117522 32,000 312 453 0
2019-09-18 23:36:17 GMT 46.485306 15.124489 32,000 312 453 0
2019-09-18 23:36:12 GMT 46.478222 15.136002 32,000 312 452 0
2019-09-18 23:36:08 GMT 46.472355 15.145546 32,000 312 452 0
2019-09-18 23:36:03 GMT 46.466080 15.155640 32,000 312 452 0
2019-09-18 23:35:59 GMT 46.458855 15.167450 32,000 312 451 0
2019-09-18 23:35:52 GMT 46.451778 15.178986 32,000 312 451 0
2019-09-18 23:35:49 GMT 46.445663 15.188934 32,000 312 451 0
2019-09-18 23:35:46 GMT 46.442375 15.194366 32,000 312 451 0
2019-09-18 23:35:40 GMT 46.432480 15.210370 32,000 312 451 0
2019-09-18 23:35:36 GMT 46.428596 15.216614 32,000 312 451 0
2019-09-18 23:35:32 GMT 46.422775 15.226046 32,000 312 451 0
2019-09-18 23:35:28 GMT 46.413025 15.241789 32,000 312 450 0
2019-09-18 23:35:21 GMT 46.408020 15.249847 32,000 312 450 0
2019-09-18 23:35:18 GMT 46.402618 15.258568 32,000 312 450 0
2019-09-18 23:35:11 GMT 46.393616 15.273140 32,000 312 450 0
2019-09-18 23:35:05 GMT 46.385254 15.286514 32,000 312 450 0
2019-09-18 23:35:01 GMT 46.379700 15.295514 32,000 312 450 0
2019-09-18 23:34:55 GMT 46.370403 15.310478 32,000 312 450 0
2019-09-18 23:34:50 GMT 46.364677 15.319611 32,000 312 450 0
2019-09-18 23:34:46 GMT 46.359970 15.327268 32,000 312 450 0
2019-09-18 23:34:43 GMT 46.355228 15.334854 32,000 312 450 0
2019-09-18 23:34:39 GMT 46.350060 15.343094 32,000 313 451 0
2019-09-18 23:34:35 GMT 46.343357 15.353874 32,000 312 451 0
2019-09-18 23:34:32 GMT 46.339771 15.359642 32,000 312 451 0
2019-09-18 23:34:28 GMT 46.334045 15.368843 32,000 312 451 0
2019-09-18 23:34:25 GMT 46.327789 15.378917 32,000 312 451 0
2019-09-18 23:34:22 GMT 46.326370 15.381194 32,000 312 451 0
2019-09-18 23:34:18 GMT 46.319550 15.392181 32,000 312 451 0
2019-09-18 23:34:12 GMT 46.310074 15.407387 32,000 312 451 0
2019-09-18 23:34:06 GMT 46.302292 15.419981 32,000 312 451 0
2019-09-18 23:34:03 GMT 46.295197 15.431370 32,000 312 451 0
2019-09-18 23:33:53 GMT 46.284470 15.448631 32,000 312 451 0
2019-09-18 23:33:50 GMT 46.280823 15.454414 32,000 312 451 0
2019-09-18 23:33:42 GMT 46.269699 15.472367 32,000 312 451 0
2019-09-18 23:33:39 GMT 46.264637 15.480354 32,000 313 451 0
2019-09-18 23:33:34 GMT 46.254456 15.496685 32,000 313 451 0
2019-09-18 23:33:28 GMT 46.250427 15.503183 32,000 313 451 0
2019-09-18 23:33:21 GMT 46.240677 15.518791 32,000 313 451 0
2019-09-18 23:33:17 GMT 46.234520 15.528557 32,000 313 451 -64
2019-09-18 23:33:12 GMT 46.227264 15.540161 32,000 313 450 0
2019-09-18 23:33:09 GMT 46.223068 15.546822 32,000 313 450 0
2019-09-18 23:33:06 GMT 46.219986 15.551750 32,000 313 450 0
2019-09-18 23:32:59 GMT 46.208961 15.569344 32,000 313 450 0
2019-09-18 23:32:55 GMT 46.204632 15.576210 32,000 313 451 0
2019-09-18 23:32:49 GMT 46.195972 15.590012 32,000 312 451 0
2019-09-18 23:32:45 GMT 46.190247 15.599213 32,000 312 451 0
2019-09-18 23:32:42 GMT 46.187027 15.604337 32,000 312 451 0
2019-09-18 23:32:39 GMT 46.182678 15.611237 32,000 313 451 64
2019-09-18 23:32:36 GMT 46.177551 15.619477 32,000 313 451 0
2019-09-18 23:32:32 GMT 46.172058 15.628186 32,000 313 450 0
2019-09-18 23:32:29 GMT 46.167755 15.635086 32,000 313 451 0
2019-09-18 23:32:23 GMT 46.159897 15.647552 32,000 313 450 0
2019-09-18 23:32:19 GMT 46.153061 15.658465 32,000 313 449 0
2019-09-18 23:32:16 GMT 46.149563 15.663963 32,000 313 448 0
2019-09-18 23:32:12 GMT 46.144394 15.672203 32,000 313 449 0
2019-09-18 23:32:08 GMT 46.139507 15.679962 32,000 313 443 0
2019-09-18 23:32:05 GMT 46.134750 15.687472 32,000 313 449 0
2019-09-18 23:32:02 GMT 46.130287 15.694588 32,000 313 449 0
2019-09-18 23:31:59 GMT 46.125275 15.702544 32,000 313 448 0
2019-09-18 23:31:56 GMT 46.115952 15.717316 32,000 313 448 0
2019-09-18 23:31:52 GMT 46.115952 15.717316 32,000 313 448 0
2019-09-18 23:31:49 GMT 46.111622 15.724113 32,000 313 447 0
2019-09-18 23:31:46 GMT 46.107197 15.731186 32,000 313 447 0
2019-09-18 23:31:43 GMT 46.103985 15.736198 32,000 313 446 0
2019-09-18 23:31:40 GMT 46.099564 15.743271 32,000 313 445 0
2019-09-18 23:31:35 GMT 46.091904 15.755332 32,000 313 443 0
2019-09-18 23:31:32 GMT 46.088345 15.761055 32,000 313 446 0
2019-09-18 23:31:27 GMT 46.081547 15.771835 32,000 313 446 0
2019-09-18 23:31:23 GMT 46.076843 15.779315 32,000 313 445 0
2019-09-18 23:31:20 GMT 46.072540 15.786148 32,000 313 445 0
2019-09-18 23:31:16 GMT 46.067139 15.794655 32,000 313 445 0
2019-09-18 23:31:11 GMT 46.059677 15.806513 32,000 313 445 0
2019-09-18 23:31:07 GMT 46.053616 15.816124 32,000 313 445 0
2019-09-18 23:31:03 GMT 46.048218 15.824638 32,000 313 445 64
2019-09-18 23:30:59 GMT 46.043518 15.832103 32,000 313 445 0
2019-09-18 23:30:54 GMT 46.035370 15.845032 32,000 313 445 0
2019-09-18 23:30:50 GMT 46.029694 15.853941 32,000 313 445 0
2019-09-18 23:30:46 GMT 46.023869 15.863091 32,000 313 444 0
2019-09-18 23:30:43 GMT 46.020985 15.867691 32,000 313 443 0
2019-09-18 23:30:38 GMT 46.013763 15.878996 32,000 313 443 0
2019-09-18 23:30:35 GMT 46.009781 15.885293 32,000 313 443 0
2019-09-18 23:30:28 GMT 45.995544 15.907734 32,000 313 443 0
2019-09-18 23:30:25 GMT 45.995544 15.907734 32,000 313 443 0
2019-09-18 23:30:22 GMT 45.991425 15.914299 32,000 313 443 0
2019-09-18 23:30:17 GMT 45.985233 15.924065 32,000 313 443 0
2019-09-18 23:30:14 GMT 45.979134 15.933678 32,000 313 443 0
2019-09-18 23:30:11 GMT 45.976273 15.938215 32,000 313 443 0
2019-09-18 23:30:06 GMT 45.969402 15.949059 32,000 313 442 64
2019-09-18 23:30:01 GMT 45.962933 15.959221 32,000 313 441 0
2019-09-18 23:29:55 GMT 45.955215 15.971375 32,000 313 441 0
2019-09-18 23:29:52 GMT 45.943542 15.989730 32,000 313 441 0
2019-09-18 23:29:47 GMT 45.943542 15.989730 32,000 313 441 0
2019-09-18 23:29:44 GMT 45.934490 16.003990 32,000 313 441 0
2019-09-18 23:29:41 GMT 45.934490 16.003990 32,000 313 441 0
2019-09-18 23:29:37 GMT 45.929787 16.011337 32,000 313 441 0
2019-09-18 23:29:33 GMT 45.924156 16.020195 32,000 313 441 0
2019-09-18 23:29:29 GMT 45.918800 16.028572 32,000 313 440 64
2019-09-18 23:29:26 GMT 45.909439 16.043255 32,000 313 440 0
2019-09-18 23:29:23 GMT 45.909439 16.043255 32,000 313 440 0
2019-09-18 23:29:17 GMT 45.901066 16.056381 32,000 313 439 0
2019-09-18 23:29:13 GMT 45.896942 16.062817 32,000 313 440 -64
2019-09-18 23:29:10 GMT 45.887192 16.078079 32,000 313 440 0
2019-09-18 23:29:06 GMT 45.887192 16.078079 32,000 313 440 0
2019-09-18 23:29:02 GMT 45.882111 16.086061 32,000 313 440 0
2019-09-18 23:28:59 GMT 45.876904 16.094215 32,000 313 440 0
2019-09-18 23:28:54 GMT 45.870163 16.104752 32,000 313 440 0
2019-09-18 23:28:50 GMT 45.865082 16.112656 32,000 313 440 0
2019-09-18 23:28:45 GMT 45.858353 16.123240 32,000 313 440 0
2019-09-18 23:28:41 GMT 45.853546 16.130743 32,000 313 440 0
2019-09-18 23:28:38 GMT 45.848320 16.138916 32,000 313 440 0
2019-09-18 23:28:34 GMT 45.844040 16.145508 32,000 313 440 0
2019-09-18 23:28:30 GMT 45.838127 16.154778 32,000 313 440 -64
2019-09-18 23:28:27 GMT 45.834030 16.161232 32,000 313 440 64
2019-09-18 23:28:23 GMT 45.827271 16.171741 32,000 313 440 0
2019-09-18 23:28:19 GMT 45.823700 16.177301 32,000 313 440 0
2019-09-18 23:28:16 GMT 45.818619 16.185205 32,000 313 440 0
2019-09-18 23:28:12 GMT 45.813686 16.192955 32,000 313 440 0
2019-09-18 23:28:09 GMT 45.808777 16.200682 32,000 313 439 0
2019-09-18 23:28:05 GMT 45.801910 16.211357 32,000 313 439 0
2019-09-18 23:28:02 GMT 45.799580 16.214996 32,000 313 439 0
2019-09-18 23:27:59 GMT 45.795578 16.221245 32,000 313 439 0
2019-09-18 23:27:56 GMT 45.790649 16.228951 32,000 313 439 0
2019-09-18 23:27:52 GMT 45.785294 16.237257 32,000 313 438 0
2019-09-18 23:27:49 GMT 45.781425 16.243286 32,000 313 438 0
2019-09-18 23:27:45 GMT 45.775791 16.252007 32,000 313 438 0
2019-09-18 23:27:42 GMT 45.771698 16.258427 32,000 313 437 0
2019-09-18 23:27:39 GMT 45.767971 16.264160 32,000 313 438 0
2019-09-18 23:27:36 GMT 45.760014 16.276520 32,000 313 438 0
2019-09-18 23:27:30 GMT 45.755219 16.284004 32,000 313 438 0
2019-09-18 23:27:27 GMT 45.750980 16.290596 32,000 313 438 0
2019-09-18 23:27:24 GMT 45.746883 16.297050 32,000 313 438 0
2019-09-18 23:27:20 GMT 45.741394 16.305588 32,000 313 438 0
2019-09-18 23:27:15 GMT 45.734921 16.315590 32,000 313 438 0
2019-09-18 23:27:12 GMT 45.730965 16.321770 32,000 313 438 0
2019-09-18 23:27:09 GMT 45.726681 16.328362 32,000 313 438 0
2019-09-18 23:27:05 GMT 45.719833 16.339014 32,000 313 438 0
2019-09-18 23:27:00 GMT 45.713104 16.349464 32,000 313 438 0
2019-09-18 23:26:57 GMT 45.710247 16.353973 32,000 313 438 0
2019-09-18 23:26:54 GMT 45.705685 16.360977 32,000 313 439 0
2019-09-18 23:26:49 GMT 45.698421 16.372307 32,000 313 439 0
2019-09-18 23:26:46 GMT 45.695663 16.376530 32,000 313 439 0
2019-09-18 23:26:43 GMT 45.690582 16.384434 32,000 313 439 0
2019-09-18 23:26:40 GMT 45.680779 16.399498 32,000 313 439 0
2019-09-18 23:26:36 GMT 45.680779 16.399498 32,000 313 439 0
2019-09-18 23:26:32 GMT 45.676666 16.405937 32,000 313 439 0
2019-09-18 23:26:29 GMT 45.671951 16.413172 32,000 313 439 0
2019-09-18 23:26:26 GMT 45.661785 16.428955 32,000 313 439 0
2019-09-18 23:26:22 GMT 45.661785 16.428955 32,000 313 440 0
2019-09-18 23:26:18 GMT 45.654877 16.439632 32,000 313 440 0
2019-09-18 23:26:14 GMT 45.651730 16.444542 32,000 313 440 0
2019-09-18 23:26:11 GMT 45.647049 16.451757 32,000 313 440 0
2019-09-18 23:26:05 GMT 45.638763 16.464554 32,000 313 440 0
2019-09-18 23:26:02 GMT 45.634460 16.471119 32,000 313 440 0
2019-09-18 23:25:54 GMT 45.623566 16.487938 32,000 313 440 0
2019-09-18 23:25:50 GMT 45.617889 16.496710 32,000 313 439 0
2019-09-18 23:25:45 GMT 45.610161 16.508606 32,000 313 441 0
2019-09-18 23:25:40 GMT 45.604065 16.518011 32,000 313 443 0
2019-09-18 23:25:37 GMT 45.599918 16.524399 32,000 313 442 0
2019-09-18 23:25:34 GMT 45.595734 16.530872 32,000 313 442 0
2019-09-18 23:25:29 GMT 45.587677 16.543266 32,000 313 443 0
2019-09-18 23:25:24 GMT 45.582695 16.550972 32,000 313 443 0
2019-09-18 23:25:19 GMT 45.574905 16.562962 32,000 313 443 -64
2019-09-18 23:25:16 GMT 45.571564 16.568119 32,000 313 443 -64
2019-09-18 23:25:12 GMT 45.565979 16.576694 32,000 313 442 0
2019-09-18 23:25:09 GMT 45.560715 16.584801 32,000 313 443 0
2019-09-18 23:25:06 GMT 45.556904 16.590660 32,000 313 443 0
2019-09-18 23:25:03 GMT 45.553040 16.596565 32,000 313 443 0
2019-09-18 23:25:00 GMT 45.548431 16.603638 32,000 313 443 0
2019-09-18 23:24:55 GMT 45.541489 16.614271 32,000 313 442 0
2019-09-18 23:24:51 GMT 45.535767 16.623034 32,000 313 442 0
2019-09-18 23:24:47 GMT 45.530182 16.631626 32,000 313 442 0
2019-09-18 23:24:44 GMT 45.525620 16.638660 32,000 313 442 0
2019-09-18 23:24:41 GMT 45.522812 16.642914 32,000 313 442 0
2019-09-18 23:24:33 GMT 45.511005 16.661036 32,000 313 442 0
2019-09-18 23:24:26 GMT 45.500996 16.676441 32,000 313 443 0
2019-09-18 23:24:20 GMT 45.492802 16.688969 32,000 313 442 0
2019-09-18 23:24:13 GMT 45.482071 16.705431 32,000 313 443 0
2019-09-18 23:24:09 GMT 45.477722 16.712036 32,000 313 443 0
2019-09-18 23:24:06 GMT 45.473251 16.718847 32,000 313 443 0
2019-09-18 23:24:02 GMT 45.467422 16.727797 32,000 313 443 0
2019-09-18 23:23:58 GMT 45.462685 16.735058 32,000 313 443 0
2019-09-18 23:23:53 GMT 45.454723 16.747250 32,000 313 443 0
2019-09-18 23:23:50 GMT 45.451080 16.752777 32,000 313 443 0
2019-09-18 23:23:47 GMT 45.447460 16.758305 32,000 313 443 0
2019-09-18 23:23:44 GMT 45.443130 16.764936 32,000 313 443 0
2019-09-18 23:23:41 GMT 45.432678 16.780962 32,000 313 444 0
2019-09-18 23:23:37 GMT 45.432678 16.780962 32,000 313 444 0
2019-09-18 23:23:34 GMT 45.429165 16.786304 32,000 313 444 0
2019-09-18 23:23:30 GMT 45.423439 16.795013 32,000 313 444 0
2019-09-18 23:23:27 GMT 45.418411 16.802717 32,000 314 445 0
2019-09-18 23:23:24 GMT 45.414871 16.808037 32,000 314 445 0
2019-09-18 23:23:19 GMT 45.407288 16.819599 32,000 314 445 0
2019-09-18 23:23:13 GMT 45.400162 16.830519 32,000 313 446 0
2019-09-18 23:23:10 GMT 45.395229 16.838022 32,000 313 446 0
2019-09-18 23:23:07 GMT 45.390198 16.845770 32,000 313 446 0
2019-09-18 23:23:04 GMT 45.386124 16.851980 32,000 313 446 0
2019-09-18 23:23:00 GMT 45.380470 16.860531 32,000 314 447 0
2019-09-18 23:22:57 GMT 45.377518 16.865061 32,000 314 447 0
2019-09-18 23:22:54 GMT 45.370880 16.875134 32,000 314 447 0
2019-09-18 23:22:47 GMT 45.361572 16.889269 32,000 314 447 0
2019-09-18 23:22:44 GMT 45.358871 16.893354 32,000 314 446 0
2019-09-18 23:22:41 GMT 45.354492 16.899981 32,000 314 448 0
2019-09-18 23:22:37 GMT 45.348129 16.909658 32,000 314 448 0
2019-09-18 23:22:34 GMT 45.344021 16.915865 32,000 314 448 0
2019-09-18 23:22:31 GMT 45.339661 16.922543 32,000 313 449 0
2019-09-18 23:22:28 GMT 45.334293 16.930737 32,000 314 448 0
2019-09-18 23:22:25 GMT 45.331032 16.935694 32,000 313 449 0
2019-09-18 23:22:21 GMT 45.325378 16.944319 32,000 314 448 0
2019-09-18 23:22:18 GMT 45.321442 16.950296 32,000 314 448 0
2019-09-18 23:22:14 GMT 45.316040 16.958445 32,000 314 448 0
2019-09-18 23:22:11 GMT 45.311386 16.965570 32,000 314 448 0
2019-09-18 23:22:08 GMT 45.306564 16.972832 32,000 314 448 0
2019-09-18 23:22:05 GMT 45.303589 16.977343 32,000 314 448 0
2019-09-18 23:22:02 GMT 45.299469 16.983555 32,000 314 447 0
2019-09-18 23:21:59 GMT 45.295532 16.989573 32,000 314 447 0
2019-09-18 23:21:55 GMT 45.288162 17.000689 32,000 314 448 0
2019-09-18 23:21:52 GMT 45.284061 17.006903 32,000 314 448 0
2019-09-18 23:21:47 GMT 45.276661 17.018023 32,000 314 447 -64
2019-09-18 23:21:42 GMT 45.270702 17.027067 32,000 314 446 0
2019-09-18 23:21:38 GMT 45.265907 17.034302 32,000 314 447 0
2019-09-18 23:21:35 GMT 45.261383 17.041103 32,000 314 448 0
2019-09-18 23:21:31 GMT 45.255013 17.050714 32,000 314 447 0
2019-09-18 23:21:26 GMT 45.247051 17.062704 32,000 314 445 0
2019-09-18 23:21:22 GMT 45.243237 17.068466 32,000 314 447 0
2019-09-18 23:21:15 GMT 45.232063 17.085348 32,000 314 447 0
2019-09-18 23:21:11 GMT 45.227097 17.092831 32,000 314 446 0
2019-09-18 23:21:07 GMT 45.220779 17.102444 32,000 314 447 0
2019-09-18 23:21:03 GMT 45.214417 17.112057 32,000 314 446 0
2019-09-18 23:20:57 GMT 45.207390 17.122728 32,000 314 446 0
2019-09-18 23:20:53 GMT 45.200874 17.132509 32,000 314 446 0
2019-09-18 23:20:50 GMT 45.197479 17.137627 32,000 314 446 0
2019-09-18 23:20:47 GMT 45.192448 17.145304 32,000 314 444 0
2019-09-18 23:20:44 GMT 45.187775 17.152340 32,000 314 445 0
2019-09-18 23:20:41 GMT 45.184673 17.157026 32,000 314 445 0
2019-09-18 23:20:36 GMT 45.177734 17.167412 32,000 314 446 0
2019-09-18 23:20:33 GMT 45.173363 17.173977 32,000 314 446 0
2019-09-18 23:20:25 GMT 45.162094 17.190990 32,000 314 446 0
2019-09-18 23:20:22 GMT 45.148819 17.210934 32,000 314 445 0
2019-09-18 23:20:16 GMT 45.148819 17.210934 32,000 314 445 0
2019-09-18 23:20:12 GMT 45.143326 17.219238 32,000 314 446 0
2019-09-18 23:20:06 GMT 45.134678 17.232189 32,000 314 446 0
2019-09-18 23:20:02 GMT 45.128902 17.240898 32,000 314 446 0
2019-09-18 23:19:55 GMT 45.118988 17.255770 32,000 314 447 0
2019-09-18 23:19:52 GMT 45.114052 17.263206 32,000 314 447 0
2019-09-18 23:19:40 GMT 45.098419 17.286530 32,000 314 447 0
2019-09-18 23:19:29 GMT 45.082352 17.310595 32,000 314 448 0
2019-09-18 23:19:18 GMT 45.067291 17.333092 32,000 314 449 0
2019-09-18 23:19:08 GMT 45.051498 17.356764 32,000 314 449 0
2019-09-18 23:18:56 GMT 45.036404 17.379366 32,000 314 450 0
2019-09-18 23:18:53 GMT 45.029980 17.389013 32,000 314 451 0
2019-09-18 23:18:45 GMT 45.020691 17.402866 32,000 314 451 0
2019-09-18 23:18:34 GMT 45.004211 17.427389 32,000 314 451 0
2019-09-18 23:18:24 GMT 44.989712 17.448969 32,000 314 452 0
2019-09-18 23:18:12 GMT 44.973465 17.473085 32,000 314 452 0
2019-09-18 23:18:02 GMT 44.957932 17.496185 32,000 314 453 0
2019-09-18 23:17:53 GMT 44.945709 17.514429 32,000 314 453 -64
2019-09-18 23:17:50 GMT 44.940353 17.522343 32,000 314 454 -64
2019-09-18 23:17:43 GMT 44.930405 17.537127 32,000 314 454 0
2019-09-18 23:17:40 GMT 44.926529 17.542942 32,000 314 454 0
2019-09-18 23:17:31 GMT 44.913071 17.562887 32,000 314 454 0
2019-09-18 23:17:28 GMT 44.909454 17.568211 32,000 314 454 0
2019-09-18 23:17:18 GMT 44.894714 17.590158 32,000 314 455 0
2019-09-18 23:17:07 GMT 44.878601 17.613960 32,000 314 456 0
2019-09-18 23:17:02 GMT 44.871780 17.624098 32,000 314 456 0
2019-09-18 23:16:57 GMT 44.862808 17.637438 32,000 314 456 0
2019-09-18 23:16:46 GMT 44.847729 17.659719 32,000 314 456 0
2019-09-18 23:16:41 GMT 44.840885 17.669834 32,000 314 456 0
2019-09-18 23:16:37 GMT 44.836121 17.676937 32,000 314 455 0
2019-09-18 23:16:34 GMT 44.831760 17.683367 32,000 314 456 0
2019-09-18 23:16:27 GMT 44.821285 17.698774 32,000 314 456 0
2019-09-18 23:16:24 GMT 44.816166 17.706276 32,000 314 456 0
2019-09-18 23:16:15 GMT 44.803410 17.725101 32,000 314 455 0
2019-09-18 23:16:12 GMT 44.799042 17.731541 32,000 314 456 0
2019-09-18 23:16:05 GMT 44.788879 17.746517 32,000 314 455 0
2019-09-18 23:16:02 GMT 44.783066 17.755112 32,000 314 455 0
2019-09-18 23:15:54 GMT 44.772312 17.770922 32,000 314 455 0
2019-09-18 23:15:50 GMT 44.767090 17.778625 32,000 314 455 0
2019-09-18 23:15:46 GMT 44.761887 17.786329 32,000 314 456 0
2019-09-18 23:15:42 GMT 44.755928 17.795105 32,000 314 456 0
2019-09-18 23:15:39 GMT 44.750381 17.803213 32,000 314 456 0
2019-09-18 23:15:35 GMT 44.745300 17.810734 32,000 314 456 0
2019-09-18 23:15:32 GMT 44.740494 17.817797 32,000 314 456 0
2019-09-18 23:15:29 GMT 44.736237 17.824009 32,000 314 456 0
2019-09-18 23:15:24 GMT 44.729858 17.833424 32,000 314 456 0
2019-09-18 23:15:18 GMT 44.720921 17.846485 32,000 314 457 0
2019-09-18 23:15:14 GMT 44.714676 17.855661 32,000 314 457 0
2019-09-18 23:15:09 GMT 44.705750 17.868740 32,000 314 457 0
2019-09-18 23:15:03 GMT 44.698608 17.879269 32,000 314 457 0
2019-09-18 23:14:58 GMT 44.691128 17.890230 32,000 314 458 0
2019-09-18 23:14:53 GMT 44.684418 17.900064 32,000 314 458 0
2019-09-18 23:14:50 GMT 44.678837 17.908251 32,000 314 458 0
2019-09-18 23:14:46 GMT 44.668873 17.922789 32,000 314 459 0
2019-09-18 23:14:43 GMT 44.668873 17.922789 32,000 314 459 0
2019-09-18 23:14:37 GMT 44.659332 17.936750 32,000 314 459 0
2019-09-18 23:14:32 GMT 44.653465 17.945295 32,000 314 459 0
2019-09-18 23:14:26 GMT 44.643311 17.960096 32,000 314 459 0
2019-09-18 23:14:22 GMT 44.638779 17.966766 32,000 314 459 0
2019-09-18 23:14:17 GMT 44.631271 17.977753 32,000 314 459 0
2019-09-18 23:14:14 GMT 44.626740 17.984358 32,000 314 459 0
2019-09-18 23:14:11 GMT 44.622929 17.989979 32,000 314 459 0
2019-09-18 23:14:08 GMT 44.616920 17.998755 32,000 314 459 0
2019-09-18 23:14:02 GMT 44.608521 18.011040 32,000 314 459 0
2019-09-18 23:13:57 GMT 44.601791 18.020912 32,000 314 459 0
2019-09-18 23:13:51 GMT 44.593414 18.033188 32,000 314 459 0
2019-09-18 23:13:46 GMT 44.585907 18.044128 32,000 314 459 0
2019-09-18 23:13:41 GMT 44.577679 18.056097 32,000 314 459 0
2019-09-18 23:13:34 GMT 44.567947 18.070232 32,000 314 459 0
2019-09-18 23:13:30 GMT 44.562653 18.077938 32,000 314 459 0
2019-09-18 23:13:26 GMT 44.555008 18.089056 32,000 314 459 0
2019-09-18 23:13:22 GMT 44.550293 18.095921 32,000 314 459 0
2019-09-18 23:13:19 GMT 44.546494 18.101480 32,000 314 459 0
2019-09-18 23:13:15 GMT 44.540016 18.110895 32,000 314 459 0
2019-09-18 23:13:10 GMT 44.532242 18.122215 32,000 314 459 0
2019-09-18 23:13:07 GMT 44.528412 18.127768 32,000 314 459 0
2019-09-18 23:13:04 GMT 44.523560 18.134830 32,000 314 459 0
2019-09-18 23:13:01 GMT 44.518837 18.141710 32,000 314 459 0
2019-09-18 23:12:58 GMT 44.514877 18.147470 32,000 314 459 0
2019-09-18 23:12:55 GMT 44.509003 18.156019 32,000 314 459 0
2019-09-18 23:12:48 GMT 44.499748 18.169512 32,000 314 459 0
2019-09-18 23:12:43 GMT 44.492935 18.179365 32,000 314 459 0
2019-09-18 23:12:40 GMT 44.484715 18.191351 32,000 314 459 0
2019-09-18 23:12:37 GMT 44.484715 18.191351 32,000 315 457 0
2019-09-18 23:12:33 GMT 44.477917 18.201130 32,000 314 459 0
2019-09-18 23:12:28 GMT 44.470982 18.211180 32,000 314 459 0
2019-09-18 23:12:25 GMT 44.462723 18.223179 32,000 314 459 0
2019-09-18 23:12:17 GMT 44.453888 18.235931 32,000 315 458 0
2019-09-18 23:12:13 GMT 44.448311 18.244070 32,000 315 458 0
2019-09-18 23:12:06 GMT 44.438393 18.258339 32,000 315 459 0
2019-09-18 23:12:02 GMT 44.431778 18.267908 32,000 315 458 0
2019-09-18 23:11:55 GMT 44.421589 18.282591 32,000 315 458 0
2019-09-18 23:11:52 GMT 44.417725 18.288151 32,000 315 458 0
2019-09-18 23:11:44 GMT 44.405529 18.305767 32,000 315 458 0
2019-09-18 23:11:41 GMT 44.401989 18.310926 32,000 314 458 0
2019-09-18 23:11:35 GMT 44.391979 18.325329 32,000 315 457 0
2019-09-18 23:11:32 GMT 44.386963 18.332584 32,000 315 457 0
2019-09-18 23:11:23 GMT 44.375519 18.349131 32,000 315 457 0
2019-09-18 23:11:20 GMT 44.370941 18.355669 32,000 315 457 0
2019-09-18 23:11:13 GMT 44.360367 18.370907 32,000 315 457 0
2019-09-18 23:11:10 GMT 44.355240 18.378361 32,000 315 456 0
2019-09-18 23:11:04 GMT 44.347290 18.389772 32,000 315 456 0
2019-09-18 23:11:00 GMT 44.340820 18.399027 32,000 315 456 -64
2019-09-18 23:10:54 GMT 44.330673 18.413622 32,000 315 456 0
2019-09-18 23:10:50 GMT 44.324799 18.422045 32,000 315 456 0
2019-09-18 23:10:42 GMT 44.310841 18.442093 32,000 315 455 0
2019-09-18 23:10:39 GMT 44.310841 18.442093 32,000 315 455 0
2019-09-18 23:10:32 GMT 44.299713 18.458103 32,000 315 455 0
2019-09-18 23:10:28 GMT 44.294315 18.465874 32,000 315 455 0
2019-09-18 23:10:21 GMT 44.283188 18.481884 32,000 315 455 0
2019-09-18 23:10:17 GMT 44.278198 18.489010 32,000 315 455 0
2019-09-18 23:10:12 GMT 44.271149 18.499081 32,000 315 455 0
2019-09-18 23:10:09 GMT 44.266895 18.505198 32,000 315 454 0
2019-09-18 23:10:06 GMT 44.261810 18.512550 32,000 315 454 0
2019-09-18 23:10:02 GMT 44.255493 18.521576 32,000 315 454 0
2019-09-18 23:09:59 GMT 44.250973 18.528040 32,000 315 454 0
2019-09-18 23:09:55 GMT 44.246460 18.534538 32,000 315 454 0
2019-09-18 23:09:50 GMT 44.239426 18.544596 32,000 315 454 0
2019-09-18 23:09:44 GMT 44.230492 18.557383 32,000 315 454 0
2019-09-18 23:09:37 GMT 44.218964 18.573957 32,000 315 453 0
2019-09-18 23:09:33 GMT 44.214432 18.580431 32,000 315 453 0
2019-09-18 23:09:26 GMT 44.202839 18.596907 32,000 315 453 0
2019-09-18 23:09:22 GMT 44.198181 18.603580 32,000 315 453 0
2019-09-18 23:09:18 GMT 44.191315 18.613396 32,000 315 453 0
2019-09-18 23:09:14 GMT 44.185867 18.621124 32,000 315 453 0
2019-09-18 23:09:11 GMT 44.181061 18.628021 32,000 315 453 0
2019-09-18 23:09:06 GMT 44.174908 18.636736 32,000 315 452 0
2019-09-18 23:09:03 GMT 44.169788 18.643995 32,000 315 452 0
2019-09-18 23:08:59 GMT 44.164387 18.651712 32,000 315 452 0
2019-09-18 23:08:56 GMT 44.160152 18.657728 32,000 315 451 0
2019-09-18 23:08:52 GMT 44.154053 18.666473 32,000 315 451 0
2019-09-18 23:08:49 GMT 44.148792 18.673946 32,000 315 451 0
2019-09-18 23:08:46 GMT 44.144554 18.680029 32,000 315 451 0
2019-09-18 23:08:42 GMT 44.139156 18.687679 32,000 315 451 0
2019-09-18 23:08:35 GMT 44.129288 18.701803 32,000 315 451 0
2019-09-18 23:08:31 GMT 44.122879 18.710930 32,000 315 451 0
2019-09-18 23:08:25 GMT 44.114574 18.722731 32,000 315 451 0
2019-09-18 23:08:21 GMT 44.106995 18.733479 32,000 315 451 0
2019-09-18 23:08:15 GMT 44.099262 18.744507 32,000 315 451 0
2019-09-18 23:08:08 GMT 44.088043 18.760433 32,000 315 451 0
2019-09-18 23:08:05 GMT 44.084839 18.764969 32,000 315 451 64
2019-09-18 23:07:58 GMT 44.075272 18.778637 32,000 315 450 0
2019-09-18 23:07:53 GMT 44.067535 18.789558 32,000 315 450 0
2019-09-18 23:07:47 GMT 44.058994 18.801727 32,000 315 448 0
2019-09-18 23:07:43 GMT 44.053162 18.809999 32,000 315 450 0
2019-09-18 23:07:34 GMT 44.038742 18.830370 32,000 315 449 0
2019-09-18 23:07:31 GMT 44.035671 18.834686 32,000 315 449 64
2019-09-18 23:07:25 GMT 44.025833 18.848707 32,000 315 449 0
2019-09-18 23:07:21 GMT 44.021622 18.854647 32,000 315 449 0
2019-09-18 23:07:14 GMT 44.011459 18.869019 32,000 315 448 0
2019-09-18 23:07:08 GMT 44.003036 18.880920 32,000 315 448 0
2019-09-18 23:07:04 GMT 43.995495 18.891581 32,000 315 449 0
2019-09-18 23:06:58 GMT 43.988094 18.902042 32,000 315 448 0
2019-09-18 23:06:52 GMT 43.978683 18.915392 32,000 315 448 0
2019-09-18 23:06:46 GMT 43.971268 18.925802 32,000 315 448 0
2019-09-18 23:06:41 GMT 43.963886 18.936243 32,000 315 448 0
2019-09-18 23:06:36 GMT 43.956020 18.947296 32,000 315 448 0
2019-09-18 23:06:31 GMT 43.949341 18.956718 32,000 315 448 0
2019-09-18 23:06:26 GMT 43.941925 18.967129 32,000 315 448 0
2019-09-18 23:06:22 GMT 43.936142 18.975351 32,000 315 448 0
2019-09-18 23:06:15 GMT 43.925667 18.990065 32,000 315 448 0
2019-09-18 23:06:12 GMT 43.921326 18.996256 32,000 315 448 0
2019-09-18 23:06:04 GMT 43.909885 19.012428 32,000 315 448 0
2019-09-18 23:06:00 GMT 43.901871 19.023659 32,000 315 448 0
2019-09-18 23:05:50 GMT 43.888657 19.042250 32,000 315 448 0
2019-09-18 23:05:42 GMT 43.877209 19.058336 32,000 315 448 0
2019-09-18 23:05:39 GMT 43.872971 19.064287 32,000 315 448 0
2019-09-18 23:05:30 GMT 43.860447 19.081814 32,000 315 448 0
2019-09-18 23:05:19 GMT 43.844898 19.103590 32,000 315 447 0
2019-09-18 23:05:14 GMT 43.836639 19.115189 32,000 315 446 0
2019-09-18 23:05:10 GMT 43.830841 19.123339 32,000 315 446 0
2019-09-18 23:05:05 GMT 43.823456 19.133650 32,000 315 446 0
2019-09-18 23:04:56 GMT 43.809425 19.153355 32,000 315 446 0
2019-09-18 23:04:48 GMT 43.794807 19.173824 32,000 315 446 0
2019-09-18 23:04:45 GMT 43.794807 19.173824 32,000 315 446 0
2019-09-18 23:04:38 GMT 43.785545 19.186836 32,000 315 446 64
2019-09-18 23:04:34 GMT 43.778561 19.196516 32,000 315 446 0
2019-09-18 23:04:27 GMT 43.769577 19.209084 32,000 315 446 0
2019-09-18 23:04:24 GMT 43.765247 19.215153 32,000 315 446 0
2019-09-18 23:04:17 GMT 43.754654 19.229971 32,000 315 445 0
2019-09-18 23:04:13 GMT 43.749023 19.237827 32,000 315 445 0
2019-09-18 23:04:07 GMT 43.740341 19.249943 32,000 315 445 -64
2019-09-18 23:04:03 GMT 43.734100 19.258650 32,000 315 445 0
2019-09-18 23:03:57 GMT 43.725266 19.270979 32,000 315 444 0
2019-09-18 23:03:53 GMT 43.718651 19.280287 32,000 315 445 0
2019-09-18 23:03:46 GMT 43.709106 19.293562 32,000 315 444 0
2019-09-18 23:03:42 GMT 43.703194 19.301802 32,000 315 444 0
2019-09-18 23:03:36 GMT 43.694630 19.313704 32,000 315 444 0
2019-09-18 23:03:30 GMT 43.685532 19.326420 32,000 315 444 0
2019-09-18 23:03:25 GMT 43.679581 19.334660 32,000 315 444 0
2019-09-18 23:03:21 GMT 43.671890 19.345327 32,000 315 445 0
2019-09-18 23:03:18 GMT 43.666977 19.352156 32,000 315 445 0
2019-09-18 23:03:15 GMT 43.664383 19.355803 32,000 315 445 0
2019-09-18 23:03:08 GMT 43.654640 19.369289 32,000 315 445 0
2019-09-18 23:03:05 GMT 43.649734 19.376114 32,000 315 445 0
2019-09-18 23:02:58 GMT 43.639572 19.390230 32,000 315 445 0
2019-09-18 23:02:54 GMT 43.634354 19.397448 32,000 315 445 0
2019-09-18 23:02:48 GMT 43.625500 19.409702 32,000 315 445 0
2019-09-18 23:02:44 GMT 43.619659 19.417761 32,000 315 445 0
2019-09-18 23:02:38 GMT 43.604595 19.438673 32,000 315 445 0
2019-09-18 23:02:33 GMT 43.604595 19.438673 32,000 315 445 0
2019-09-18 23:02:23 GMT 43.589493 19.459661 32,000 315 445 0
2019-09-18 23:02:16 GMT 43.578735 19.474545 32,000 315 445 0
2019-09-18 23:02:12 GMT 43.573547 19.481768 32,000 315 445 0
2019-09-18 23:02:02 GMT 43.558556 19.502434 32,000 315 445 0
2019-09-18 23:01:54 GMT 43.542023 19.525324 32,000 315 446 0
2019-09-18 23:01:40 GMT 43.526138 19.547169 32,000 315 445 0
2019-09-18 23:01:32 GMT 43.514660 19.562988 32,000 315 445 0
2019-09-18 23:01:29 GMT 43.510620 19.568630 32,000 315 445 0
2019-09-18 23:01:22 GMT 43.499249 19.584242 32,000 315 446 0
2019-09-18 23:01:18 GMT 43.494453 19.590912 32,000 315 446 0
2019-09-18 23:01:11 GMT 43.482395 19.607521 32,000 315 445 0
2019-09-18 23:01:06 GMT 43.478207 19.613342 32,000 315 445 0
2019-09-18 23:00:59 GMT 43.466568 19.629429 32,000 315 446 0
2019-09-18 23:00:56 GMT 43.462509 19.634996 32,000 315 446 0
2019-09-18 23:00:48 GMT 43.449966 19.652306 32,000 315 446 0
2019-09-18 23:00:44 GMT 43.445293 19.658726 32,000 315 446 0
2019-09-18 23:00:37 GMT 43.434822 19.673180 32,000 315 446 0
2019-09-18 23:00:34 GMT 43.430584 19.678932 32,000 315 446 0
2019-09-18 23:00:27 GMT 43.420528 19.692797 32,000 315 446 0
2019-09-18 23:00:23 GMT 43.414215 19.701361 32,000 315 446 0
2019-09-18 23:00:19 GMT 43.408379 19.709408 32,000 315 446 0
2019-09-18 23:00:12 GMT 43.398605 19.722757 32,000 315 446 0
2019-09-18 23:00:08 GMT 43.393478 19.729786 32,000 315 446 0
2019-09-18 23:00:01 GMT 43.382675 19.744602 32,000 315 446 0
2019-09-18 22:59:57 GMT 43.376953 19.752396 32,000 315 446 0
2019-09-18 22:59:48 GMT 43.363224 19.771206 32,000 315 446 0
2019-09-18 22:59:44 GMT 43.357086 19.779606 32,000 315 446 0
2019-09-18 22:59:37 GMT 43.347610 19.792574 32,000 316 444 64
2019-09-18 22:59:27 GMT 43.332870 19.812757 32,000 316 446 0
2019-09-18 22:59:16 GMT 43.317696 19.833462 32,000 316 445 -64
2019-09-18 22:59:13 GMT 43.311859 19.841372 32,000 316 444 64
2019-09-18 22:59:06 GMT 43.302704 19.853930 32,000 316 444 64
2019-09-18 22:59:02 GMT 43.295975 19.863026 32,000 316 444 0
2019-09-18 22:58:55 GMT 43.286819 19.875546 32,000 316 444 0
2019-09-18 22:58:52 GMT 43.282288 19.881741 32,000 316 444 0
2019-09-18 22:58:43 GMT 43.268909 19.900034 32,000 315 445 0
2019-09-18 22:58:40 GMT 43.264069 19.906637 32,000 315 445 0
2019-09-18 22:58:35 GMT 43.257504 19.915598 32,000 316 446 0
2019-09-18 22:58:31 GMT 43.250938 19.924557 32,000 316 446 0
2019-09-18 22:58:25 GMT 43.242050 19.936672 32,000 316 446 0
2019-09-18 22:58:20 GMT 43.233261 19.948618 32,000 316 446 0
2019-09-18 22:58:14 GMT 43.226807 19.957369 32,000 316 446 0
2019-09-18 22:58:11 GMT 43.221542 19.964584 32,000 316 446 0
2019-09-18 22:58:04 GMT 43.211414 19.978312 32,000 316 447 0
2019-09-18 22:58:00 GMT 43.206161 19.985537 32,000 316 448 0
2019-09-18 22:57:54 GMT 43.196613 19.998518 32,000 316 448 0
2019-09-18 22:57:49 GMT 43.190559 20.006693 32,000 316 448 0
2019-09-18 22:57:43 GMT 43.181305 20.019262 32,000 316 448 0
2019-09-18 22:57:38 GMT 43.174072 20.029034 32,000 316 448 0
2019-09-18 22:57:33 GMT 43.166290 20.039574 32,000 316 448 0
2019-09-18 22:57:27 GMT 43.157883 20.050964 32,000 316 448 0
2019-09-18 22:57:23 GMT 43.150993 20.060316 32,000 316 448 0
2019-09-18 22:57:16 GMT 43.141708 20.072851 32,000 316 448 0
2019-09-18 22:57:12 GMT 43.134930 20.082027 32,000 316 448 0
2019-09-18 22:57:05 GMT 43.125526 20.094778 32,000 316 448 0
2019-09-18 22:57:01 GMT 43.119476 20.102953 32,000 316 448 0
2019-09-18 22:56:54 GMT 43.109188 20.116947 32,000 316 448 0
2019-09-18 22:56:51 GMT 43.104767 20.122929 32,000 316 448 0
2019-09-18 22:56:41 GMT 43.089157 20.144007 32,000 316 449 0
2019-09-18 22:56:33 GMT 43.077393 20.159979 32,000 316 449 0
2019-09-18 22:56:30 GMT 43.073685 20.164957 32,000 316 449 0
2019-09-18 22:56:21 GMT 43.059677 20.183802 32,000 316 449 0
2019-09-18 22:56:18 GMT 43.040909 20.209095 32,000 316 449 0
2019-09-18 22:56:08 GMT 43.040909 20.209095 32,000 316 449 0
2019-09-18 22:55:58 GMT 43.026417 20.228642 32,000 316 449 0
2019-09-18 22:55:52 GMT 43.017387 20.240805 32,000 316 449 0
2019-09-18 22:55:48 GMT 43.009552 20.251316 32,000 316 449 0
2019-09-18 22:55:39 GMT 42.997883 20.267094 32,000 316 449 0
2019-09-18 22:55:36 GMT 42.994156 20.272064 32,000 316 449 0
2019-09-18 22:55:29 GMT 42.983215 20.286777 32,000 316 449 0
2019-09-18 22:55:26 GMT 42.978928 20.292515 32,000 316 449 0
2019-09-18 22:55:18 GMT 42.967670 20.307638 32,000 316 449 0
2019-09-18 22:55:15 GMT 42.963058 20.313786 32,000 316 449 0
2019-09-18 22:55:08 GMT 42.952240 20.328348 32,000 316 450 0
2019-09-18 22:55:04 GMT 42.946907 20.335497 32,000 316 450 0
2019-09-18 22:54:58 GMT 42.937271 20.348379 32,000 316 450 0
2019-09-18 22:54:54 GMT 42.931080 20.356750 32,000 316 450 0
2019-09-18 22:54:50 GMT 42.926006 20.363552 32,000 316 450 0
2019-09-18 22:54:47 GMT 42.921116 20.370090 32,000 316 450 0
2019-09-18 22:54:43 GMT 42.914612 20.378872 32,000 316 450 0
2019-09-18 22:54:37 GMT 42.906315 20.389971 32,000 316 450 0
2019-09-18 22:54:32 GMT 42.899048 20.399694 32,000 316 450 0
2019-09-18 22:54:28 GMT 42.893093 20.407694 32,000 316 450 0
2019-09-18 22:54:24 GMT 42.886993 20.415802 32,000 316 450 0
2019-09-18 22:54:19 GMT 42.879593 20.425756 32,000 316 450 0
2019-09-18 22:54:16 GMT 42.875122 20.431692 32,000 316 450 0
2019-09-18 22:54:13 GMT 42.870838 20.437449 32,000 316 451 0
2019-09-18 22:54:09 GMT 42.864742 20.445621 32,000 316 451 0
2019-09-18 22:54:04 GMT 42.855804 20.457523 32,000 316 451 0
2019-09-18 22:53:57 GMT 42.846725 20.469702 32,000 316 451 0
2019-09-18 22:53:53 GMT 42.840767 20.477665 32,000 316 451 0
2019-09-18 22:53:48 GMT 42.833458 20.487410 32,000 316 452 0
2019-09-18 22:53:42 GMT 42.824387 20.499531 32,000 316 452 0
2019-09-18 22:53:38 GMT 42.819027 20.506701 32,000 316 452 0
2019-09-18 22:53:32 GMT 42.809158 20.519844 32,000 316 452 0
2019-09-18 22:53:28 GMT 42.803013 20.527954 32,000 316 452 0
2019-09-18 22:53:22 GMT 42.794075 20.539900 32,000 316 452 0
2019-09-18 22:53:17 GMT 42.786896 20.549427 32,000 316 452 0
2019-09-18 22:53:13 GMT 42.781506 20.556635 32,000 316 452 0
2019-09-18 22:53:07 GMT 42.772709 20.568386 32,000 316 452 0
2019-09-18 22:53:03 GMT 42.765976 20.577330 32,000 316 453 0
2019-09-18 22:52:57 GMT 42.757904 20.588060 32,000 316 453 0
2019-09-18 22:52:52 GMT 42.750275 20.598179 32,000 316 452 0
2019-09-18 22:52:46 GMT 42.740681 20.610863 32,000 316 452 0
2019-09-18 22:52:42 GMT 42.734528 20.619028 32,000 316 452 0
2019-09-18 22:52:35 GMT 42.724091 20.632887 32,000 316 452 0
2019-09-18 22:52:32 GMT 42.719879 20.638441 32,000 316 453 0
2019-09-18 22:52:24 GMT 42.708389 20.653734 32,000 316 452 0
2019-09-18 22:52:20 GMT 42.699715 20.665218 32,000 316 452 0
2019-09-18 22:52:15 GMT 42.694153 20.672586 32,000 316 452 0
2019-09-18 22:52:11 GMT 42.688797 20.679703 32,000 316 452 0
2019-09-18 22:52:07 GMT 42.682846 20.687630 32,000 316 451 0
2019-09-18 22:52:04 GMT 42.678360 20.693623 32,000 316 451 0
2019-09-18 22:51:59 GMT 42.669548 20.705269 32,000 316 451 0
2019-09-18 22:51:55 GMT 42.665039 20.711226 32,000 316 452 0
2019-09-18 22:51:52 GMT 42.659634 20.718363 32,000 316 452 0
2019-09-18 22:51:48 GMT 42.653534 20.726475 32,000 316 452 0
2019-09-18 22:51:43 GMT 42.645905 20.736568 32,000 316 452 0
2019-09-18 22:51:39 GMT 42.641373 20.742561 32,000 316 452 0
2019-09-18 22:51:35 GMT 42.634354 20.751831 32,000 316 452 0
2019-09-18 22:51:32 GMT 42.630890 20.756420 32,000 316 452 0
2019-09-18 22:51:29 GMT 42.625946 20.762913 32,000 316 453 0
2019-09-18 22:51:25 GMT 42.619038 20.772017 32,000 316 453 0
2019-09-18 22:51:21 GMT 42.614384 20.778149 32,000 316 453 0
2019-09-18 22:51:17 GMT 42.606888 20.788050 32,000 316 453 0
2019-09-18 22:51:10 GMT 42.596512 20.801676 32,000 316 452 0
2019-09-18 22:51:07 GMT 42.592941 20.806419 32,000 316 452 0
2019-09-18 22:51:04 GMT 42.588734 20.811937 32,000 316 452 0
2019-09-18 22:51:00 GMT 42.582458 20.820278 32,000 316 452 0
2019-09-18 22:50:57 GMT 42.577049 20.827394 32,000 316 452 0
2019-09-18 22:50:54 GMT 42.573326 20.832314 32,000 316 452 0
2019-09-18 22:50:48 GMT 42.564201 20.844385 32,000 316 451 0
2019-09-18 22:50:44 GMT 42.557785 20.852861 32,000 316 451 0
2019-09-18 22:50:38 GMT 42.548512 20.865082 32,000 316 451 0
2019-09-18 22:50:34 GMT 42.542648 20.872746 32,000 316 451 0
2019-09-18 22:50:27 GMT 42.533249 20.885197 32,000 316 451 0
2019-09-18 22:50:23 GMT 42.527390 20.892876 32,000 316 451 0
2019-09-18 22:50:17 GMT 42.511963 20.913162 32,000 316 451 0
2019-09-18 22:50:13 GMT 42.511963 20.913162 32,000 316 451 0
2019-09-18 22:50:04 GMT 42.497910 20.931639 32,000 316 451 0
2019-09-18 22:49:56 GMT 42.485733 20.947557 32,000 316 451 0
2019-09-18 22:49:53 GMT 42.482594 20.951694 32,000 316 451 -64
2019-09-18 22:49:50 GMT 42.477055 20.958977 32,000 316 451 -64
2019-09-18 22:49:46 GMT 42.470772 20.967216 32,000 316 451 -64
2019-09-18 22:49:43 GMT 42.466415 20.972963 32,000 316 451 -64
2019-09-18 22:49:40 GMT 42.462067 20.978643 32,025 316 451 -64
2019-09-18 22:49:35 GMT 42.455456 20.987272 32,025 316 451 -64
2019-09-18 22:49:31 GMT 42.449448 20.995129 32,025 316 451 -64
2019-09-18 22:49:28 GMT 42.444237 21.002028 32,025 316 451 -64
2019-09-18 22:49:25 GMT 42.439728 21.007919 32,025 316 452 0
2019-09-18 22:49:21 GMT 42.434040 21.015377 32,000 316 453 64
2019-09-18 22:49:14 GMT 42.423065 21.029766 31,975 316 454 256
2019-09-18 22:49:11 GMT 42.418808 21.035322 31,975 316 455 448
2019-09-18 22:49:04 GMT 42.408691 21.048555 31,900 316 455 896
2019-09-18 22:49:01 GMT 42.404160 21.054485 31,850 316 455 1152
2019-09-18 22:48:53 GMT 42.391891 21.070530 31,650 316 456 1600
2019-09-18 22:48:50 GMT 42.387489 21.076248 31,575 316 456 1664
2019-09-18 22:48:43 GMT 42.376549 21.090492 31,375 316 457 1664
2019-09-18 22:48:40 GMT 42.371243 21.097454 31,275 316 457 1664
2019-09-18 22:48:33 GMT 42.360863 21.110931 31,075 316 458 1664
2019-09-18 22:48:29 GMT 42.355682 21.117720 30,975 317 459 1728
2019-09-18 22:48:22 GMT 42.345154 21.131453 30,775 316 460 1792
2019-09-18 22:48:19 GMT 42.339912 21.138269 30,725 317 461 1792
2019-09-18 22:48:10 GMT 42.325974 21.156422 30,325 316 463 1792
2019-09-18 22:47:59 GMT 42.308716 21.178894 30,125 316 463 1216
2019-09-18 22:47:52 GMT 42.298096 21.192753 30,025 317 462 448
2019-09-18 22:47:49 GMT 42.292847 21.199526 30,025 316 461 128
2019-09-18 22:47:41 GMT 42.281342 21.214537 30,000 316 461 0
2019-09-18 22:47:38 GMT 42.277176 21.219906 30,000 316 461 0
2019-09-18 22:47:28 GMT 42.261517 21.240276 30,000 317 461 -64
2019-09-18 22:47:20 GMT 42.249508 21.255861 30,000 317 461 0
2019-09-18 22:47:17 GMT 42.245041 21.261604 30,000 316 461 0
2019-09-18 22:47:08 GMT 42.230282 21.280773 30,000 316 461 0
2019-09-18 22:47:00 GMT 42.217712 21.297190 30,000 316 461 0
2019-09-18 22:46:57 GMT 42.213135 21.303177 30,000 316 461 0
2019-09-18 22:46:48 GMT 42.198853 21.321716 30,000 317 461 0
2019-09-18 22:46:36 GMT 42.182144 21.343376 30,000 316 460 0
2019-09-18 22:46:26 GMT 42.167110 21.363619 30,000 315 459 0
2019-09-18 22:46:17 GMT 42.152298 21.384514 30,000 313 459 0
2019-09-18 22:46:05 GMT 42.136665 21.407755 30,000 312 457 0
2019-09-18 22:45:56 GMT 42.122772 21.429209 30,000 311 457 0
2019-09-18 22:45:47 GMT 42.110409 21.448315 30,000 311 457 0
2019-09-18 22:45:44 GMT 42.107483 21.452866 30,000 311 457 0
2019-09-18 22:45:37 GMT 42.097229 21.468721 30,000 311 457 0
2019-09-18 22:45:24 GMT 42.078194 21.498137 30,000 311 457 0
2019-09-18 22:45:16 GMT 42.068069 21.513790 30,000 312 457 0
2019-09-18 22:45:13 GMT 42.064316 21.519533 30,000 312 457 0
2019-09-18 22:45:03 GMT 42.050262 21.541187 30,000 312 457 0
2019-09-18 22:44:53 GMT 42.035416 21.564117 30,000 312 457 0
2019-09-18 22:44:45 GMT 42.025078 21.579960 30,000 312 457 0
2019-09-18 22:44:32 GMT 42.007530 21.606977 30,000 312 458 0
2019-09-18 22:44:23 GMT 41.992493 21.630083 30,000 312 459 0
2019-09-18 22:44:12 GMT 41.978394 21.651743 30,000 312 459 0
2019-09-18 22:44:01 GMT 41.963425 21.674715 30,000 312 459 0
2019-09-18 22:43:52 GMT 41.949291 21.696402 30,000 312 460 0
2019-09-18 22:43:41 GMT 41.935139 21.718054 30,000 312 460 0
2019-09-18 22:43:30 GMT 41.919983 21.741320 30,000 312 461 0
2019-09-18 22:43:20 GMT 41.906204 21.762356 30,000 312 462 0
2019-09-18 22:43:09 GMT 41.890778 21.786079 30,000 312 462 0
2019-09-18 22:42:59 GMT 41.876808 21.807350 30,000 312 462 0
2019-09-18 22:42:49 GMT 41.862717 21.828897 30,000 312 462 0
2019-09-18 22:42:39 GMT 41.848042 21.851295 30,000 312 463 0
2019-09-18 22:42:28 GMT 41.833469 21.873461 30,000 312 464 0
2019-09-18 22:42:20 GMT 41.821274 21.892048 30,000 312 464 0
2019-09-18 22:42:17 GMT 41.817627 21.897625 30,000 312 464 0
2019-09-18 22:42:10 GMT 41.807541 21.912933 30,000 312 464 0
2019-09-18 22:42:07 GMT 41.803436 21.919224 30,000 312 464 0
2019-09-18 22:41:58 GMT 41.789337 21.940571 30,000 312 464 0
2019-09-18 22:41:45 GMT 41.772171 21.966663 30,000 312 464 0
2019-09-18 22:41:36 GMT 41.758942 21.986700 30,000 312 464 0
2019-09-18 22:41:27 GMT 41.745209 22.007595 30,000 312 464 0
2019-09-18 22:41:16 GMT 41.729984 22.030718 30,000 312 464 0
2019-09-18 22:41:05 GMT 41.715500 22.052683 30,000 312 466 0
2019-09-18 22:40:55 GMT 41.700096 22.076004 30,000 312 466 0
2019-09-18 22:40:43 GMT 41.683849 22.100595 30,000 312 466 0
2019-09-18 22:40:35 GMT 41.670586 22.120651 30,000 312 466 0
2019-09-18 22:40:22 GMT 41.653152 22.147001 30,000 312 467 0
2019-09-18 22:40:13 GMT 41.641388 22.164730 30,000 312 468 0
2019-09-18 22:40:03 GMT 41.624496 22.190323 30,000 312 468 0
2019-09-18 22:39:52 GMT 41.610992 22.210672 30,000 312 469 0
2019-09-18 22:39:41 GMT 41.594559 22.235392 30,000 312 470 0
2019-09-18 22:39:31 GMT 41.580002 22.257301 30,000 312 471 0
2019-09-18 22:39:21 GMT 41.566029 22.278357 30,000 312 471 0
2019-09-18 22:39:10 GMT 41.550156 22.302246 30,000 312 470 0
2019-09-18 22:39:04 GMT 41.540794 22.316362 30,000 312 469 0
2019-09-18 22:39:00 GMT 41.535919 22.323719 30,000 312 469 0
2019-09-18 22:38:53 GMT 41.525665 22.339102 30,000 312 469 0
2019-09-18 22:38:50 GMT 41.521637 22.345131 30,000 312 469 0
2019-09-18 22:38:40 GMT 41.507492 22.366291 30,000 312 469 0
2019-09-18 22:38:30 GMT 41.492802 22.388348 30,000 312 469 0
2019-09-18 22:38:20 GMT 41.476089 22.413387 30,000 312 469 0
2019-09-18 22:38:08 GMT 41.461193 22.435616 30,000 312 469 0
2019-09-18 22:37:58 GMT 41.446621 22.457460 30,000 312 470 0
2019-09-18 22:37:49 GMT 41.431595 22.479900 30,000 312 471 0
2019-09-18 22:37:38 GMT 41.417084 22.501497 30,000 312 471 0
2019-09-18 22:37:26 GMT 41.400696 22.525906 30,000 312 471 0
2019-09-18 22:37:16 GMT 41.384903 22.549500 30,000 312 471 0
2019-09-18 22:37:05 GMT 41.369205 22.572784 30,000 312 472 0
2019-09-18 22:36:54 GMT 41.352859 22.596985 30,000 312 471 0
2019-09-18 22:36:42 GMT 41.335964 22.621973 30,000 312 472 0
2019-09-18 22:36:36 GMT 41.325897 22.636780 30,000 313 471 0
2019-09-18 22:36:31 GMT 41.319721 22.645819 30,000 312 472 0
2019-09-18 22:36:27 GMT 41.313583 22.654846 30,000 313 472 0
2019-09-18 22:36:24 GMT 41.309200 22.661299 30,000 313 472 0
2019-09-18 22:36:20 GMT 41.303940 22.669041 30,000 312 473 0
2019-09-18 22:36:15 GMT 41.296024 22.680714 30,000 312 473 0
2019-09-18 22:36:09 GMT 41.287170 22.693970 30,000 312 474 0
2019-09-18 22:36:05 GMT 41.280197 22.704370 30,000 313 474 0
2019-09-18 22:35:58 GMT 41.263596 22.728027 30,000 315 475 0
2019-09-18 22:35:53 GMT 41.263596 22.728027 30,000 315 475 0
2019-09-18 22:35:46 GMT 41.252380 22.742920 30,000 316 477 0
2019-09-18 22:35:43 GMT 41.247936 22.748629 30,000 317 477 0
2019-09-18 22:35:39 GMT 41.241211 22.757019 30,000 318 477 -64
2019-09-18 22:35:36 GMT 41.236996 22.762175 30,000 318 477 0
2019-09-18 22:35:32 GMT 41.231270 22.769102 30,000 319 478 64
2019-09-18 22:35:29 GMT 41.225124 22.776218 30,000 320 478 0
2019-09-18 22:35:25 GMT 41.219101 22.783081 30,000 321 478 0
2019-09-18 22:35:20 GMT 41.209904 22.793261 30,000 321 479 0
2019-09-18 22:35:15 GMT 41.201065 22.802551 30,000 323 479 0
2019-09-18 22:35:09 GMT 41.191563 22.812174 30,000 324 479 0
2019-09-18 22:35:04 GMT 41.181381 22.822144 30,000 324 479 0
2019-09-18 22:35:01 GMT 41.177643 22.825783 30,000 324 479 0
2019-09-18 22:34:58 GMT 41.171906 22.831299 30,000 324 479 0
2019-09-18 22:34:52 GMT 41.161720 22.841200 30,000 324 480 0
2019-09-18 22:34:48 GMT 41.153996 22.848629 30,000 324 480 0
2019-09-18 22:34:39 GMT 41.136429 22.865601 30,000 324 480 0
2019-09-18 22:34:29 GMT 41.118622 22.882690 30,000 324 481 0
2019-09-18 22:34:23 GMT 41.107815 22.893135 30,000 324 482 -64
2019-09-18 22:34:18 GMT 41.098827 22.901812 30,000 324 482 -64
2019-09-18 22:34:13 GMT 41.087471 22.912737 30,000 324 483 0
2019-09-18 22:34:07 GMT 41.078979 22.920959 30,000 324 483 0
2019-09-18 22:33:58 GMT 41.063095 22.936218 30,000 324 483 0
2019-09-18 22:33:50 GMT 41.048088 22.950689 30,000 324 483 0
2019-09-18 22:33:47 GMT 41.043945 22.954683 30,000 324 483 0
2019-09-18 22:33:42 GMT 41.033981 22.964296 30,000 324 483 64
2019-09-18 22:33:38 GMT 41.017876 22.979778 30,000 324 483 0
2019-09-18 22:33:33 GMT 41.017876 22.979778 30,000 324 483 0
2019-09-18 22:33:28 GMT 41.008072 22.989197 30,000 324 483 0
2019-09-18 22:33:25 GMT 40.995251 23.001562 30,000 324 483 0
2019-09-18 22:33:16 GMT 40.988342 23.008118 30,000 324 483 0
2019-09-18 22:33:12 GMT 40.979324 23.016846 30,000 324 483 0
2019-09-18 22:33:08 GMT 40.973190 23.022705 30,000 325 483 0
2019-09-18 22:33:05 GMT 40.966667 23.028967 30,000 325 483 0
2019-09-18 22:33:02 GMT 40.961407 23.034023 30,000 325 483 0
2019-09-18 22:32:55 GMT 40.948929 23.045959 30,000 325 483 0
2019-09-18 22:32:51 GMT 40.942978 23.051697 30,000 325 483 0
2019-09-18 22:32:45 GMT 40.931194 23.062923 30,000 325 483 -64
2019-09-18 22:32:41 GMT 40.923981 23.069824 30,000 325 483 0
2019-09-18 22:32:34 GMT 40.912201 23.081089 30,000 325 483 0
2019-09-18 22:32:29 GMT 40.901356 23.091515 30,000 325 484 0
2019-09-18 22:32:24 GMT 40.894135 23.098450 30,000 325 484 0
2019-09-18 22:32:20 GMT 40.883804 23.108305 30,000 324 484 0
2019-09-18 22:32:15 GMT 40.874725 23.117004 30,000 324 484 0
2019-09-18 22:32:06 GMT 40.861679 23.129456 30,000 325 484 -64
2019-09-18 22:32:03 GMT 40.856461 23.134521 30,000 325 484 0
2019-09-18 22:31:58 GMT 40.846096 23.144386 30,000 325 483 64
2019-09-18 22:31:54 GMT 40.836136 23.153873 30,000 325 484 0
2019-09-18 22:31:47 GMT 40.825836 23.163696 30,000 325 484 0
2019-09-18 22:31:40 GMT 40.812950 23.175970 30,000 325 484 0
2019-09-18 22:31:36 GMT 40.806992 23.181713 30,000 324 484 0
2019-09-18 22:31:32 GMT 40.799545 23.188768 30,000 324 484 0
2019-09-18 22:31:25 GMT 40.787384 23.200378 30,000 324 484 0
2019-09-18 22:31:17 GMT 40.770721 23.216309 30,000 325 484 0
2019-09-18 22:31:08 GMT 40.754196 23.232056 30,000 325 484 0
2019-09-18 22:31:04 GMT 40.748756 23.237207 30,000 325 484 0
2019-09-18 22:30:53 GMT 40.727901 23.256994 30,000 325 483 0
2019-09-18 22:30:48 GMT 40.716888 23.267517 30,000 325 483 0
2019-09-18 22:30:45 GMT 40.713226 23.270935 30,000 325 483 0
2019-09-18 22:30:41 GMT 40.706543 23.277344 30,000 325 483 0
2019-09-18 22:30:35 GMT 40.694595 23.288696 30,000 325 483 0
2019-09-18 22:30:31 GMT 40.688423 23.294512 30,000 325 483 0
2019-09-18 22:30:24 GMT 40.675343 23.306932 30,000 325 483 0
2019-09-18 22:30:21 GMT 40.669922 23.312073 30,000 325 484 0
2019-09-18 22:30:14 GMT 40.656830 23.324463 30,000 325 484 0
2019-09-18 22:30:10 GMT 40.649780 23.331177 30,000 325 484 0
2019-09-18 22:30:04 GMT 40.637970 23.342346 30,000 325 484 0
2019-09-18 22:29:59 GMT 40.630875 23.349060 30,000 325 484 0
2019-09-18 22:29:53 GMT 40.619934 23.359375 30,000 325 485 0
2019-09-18 22:29:47 GMT 40.608448 23.370230 30,000 325 485 0
2019-09-18 22:29:43 GMT 40.600800 23.377502 30,000 325 485 0
2019-09-18 22:29:37 GMT 40.591141 23.386658 30,000 325 487 -64
2019-09-18 22:29:32 GMT 40.581848 23.395447 30,000 325 487 0
2019-09-18 22:29:28 GMT 40.573254 23.403563 30,000 325 487 0
2019-09-18 22:29:22 GMT 40.562805 23.413452 30,000 325 487 0
2019-09-18 22:29:14 GMT 40.548706 23.426758 30,000 325 487 0
2019-09-18 22:29:11 GMT 40.543228 23.431965 30,000 325 487 0
2019-09-18 22:29:04 GMT 40.530212 23.444214 30,000 325 487 0
2019-09-18 22:29:01 GMT 40.524326 23.449757 30,000 325 488 0
2019-09-18 22:28:55 GMT 40.510941 23.462341 30,000 325 488 0
2019-09-18 22:28:52 GMT 40.506729 23.466360 30,000 325 487 0
2019-09-18 22:28:48 GMT 40.497757 23.474792 30,000 325 487 -64
2019-09-18 22:28:44 GMT 40.493557 23.478783 30,000 325 487 -64
2019-09-18 22:28:41 GMT 40.488785 23.483215 30,000 325 487 0
2019-09-18 22:28:38 GMT 40.482014 23.489643 30,000 325 487 0
2019-09-18 22:28:34 GMT 40.474144 23.497009 30,000 325 487 0
2019-09-18 22:28:30 GMT 40.466976 23.503752 30,000 325 487 0
2019-09-18 22:28:22 GMT 40.453262 23.516663 30,000 325 487 0
2019-09-18 22:28:19 GMT 40.446854 23.522644 30,000 325 487 0
2019-09-18 22:28:11 GMT 40.433304 23.535400 30,000 325 487 0
2019-09-18 22:28:08 GMT 40.427673 23.540771 30,000 325 487 0
2019-09-18 22:28:03 GMT 40.418514 23.549381 30,000 325 487 0
2019-09-18 22:27:59 GMT 40.410278 23.557129 30,000 325 486 0
2019-09-18 22:27:54 GMT 40.401150 23.565737 30,000 325 486 0
2019-09-18 22:27:49 GMT 40.390163 23.576036 30,000 325 486 0
2019-09-18 22:27:44 GMT 40.382492 23.583252 30,000 325 485 0
2019-09-18 22:27:38 GMT 40.371731 23.593327 30,000 325 485 0
2019-09-18 22:27:33 GMT 40.362946 23.601562 30,000 325 485 0
2019-09-18 22:27:28 GMT 40.353790 23.610107 30,000 325 485 0
2019-09-18 22:27:24 GMT 40.345596 23.617798 30,000 325 485 0
2019-09-18 22:27:18 GMT 40.334839 23.627930 30,000 325 485 0
2019-09-18 22:27:12 GMT 40.325684 23.636475 30,000 325 485 0
2019-09-18 22:27:06 GMT 40.315063 23.646362 30,000 325 485 0
2019-09-18 22:27:03 GMT 40.307766 23.653191 30,000 325 485 0
2019-09-18 22:26:56 GMT 40.295712 23.664488 30,000 325 486 0
2019-09-18 22:26:53 GMT 40.290218 23.669607 30,000 325 487 0
2019-09-18 22:26:47 GMT 40.277740 23.681280 30,000 325 487 0
2019-09-18 22:26:42 GMT 40.270061 23.688459 30,000 325 488 0
2019-09-18 22:26:38 GMT 40.262375 23.695679 30,000 325 488 0
2019-09-18 22:26:35 GMT 40.256836 23.700806 30,000 325 488 0
2019-09-18 22:26:31 GMT 40.249695 23.707520 30,000 325 488 0
2019-09-18 22:26:25 GMT 40.239029 23.717468 30,000 325 488 0
2019-09-18 22:26:22 GMT 40.233517 23.722605 30,000 325 488 0
2019-09-18 22:26:15 GMT 40.220669 23.734589 30,000 325 488 0
2019-09-18 22:26:11 GMT 40.212387 23.742310 30,000 325 488 0
2019-09-18 22:26:07 GMT 40.205772 23.748508 30,000 325 488 0
2019-09-18 22:26:04 GMT 40.201172 23.752808 30,000 325 488 0
2019-09-18 22:25:59 GMT 40.186478 23.766479 30,000 325 488 0
2019-09-18 22:25:55 GMT 40.183006 23.769732 30,000 325 488 0
2019-09-18 22:25:49 GMT 40.171783 23.780212 30,000 325 486 0
2019-09-18 22:25:44 GMT 40.162430 23.788897 30,000 325 486 0
2019-09-18 22:25:41 GMT 40.157501 23.793518 30,000 325 486 0
2019-09-18 22:25:36 GMT 40.147442 23.802879 30,000 325 486 0
2019-09-18 22:25:32 GMT 40.140644 23.809183 30,000 325 486 0
2019-09-18 22:25:22 GMT 40.122849 23.825684 30,000 325 486 0
2019-09-18 22:25:14 GMT 40.108063 23.839478 30,000 325 486 0
2019-09-18 22:25:11 GMT 40.103821 23.843391 30,000 325 486 -64
2019-09-18 22:25:07 GMT 40.095070 23.851568 30,000 325 486 0
2019-09-18 22:25:03 GMT 40.086639 23.859436 30,000 325 486 0
2019-09-18 22:25:00 GMT 40.084076 23.861816 30,000 325 486 0
2019-09-18 22:24:56 GMT 40.073822 23.871277 30,000 325 486 0
2019-09-18 22:24:52 GMT 40.067230 23.877411 30,000 325 486 0
2019-09-18 22:24:46 GMT 40.056618 23.887211 30,000 325 486 -64
2019-09-18 22:24:43 GMT 40.052197 23.891331 30,000 325 486 0
2019-09-18 22:24:40 GMT 40.045773 23.897261 30,000 325 486 0
2019-09-18 22:24:32 GMT 40.029877 23.911987 30,000 325 486 0
2019-09-18 22:24:29 GMT 40.026031 23.915527 30,000 325 486 0
2019-09-18 22:24:21 GMT 40.010811 23.929596 30,000 325 486 0
2019-09-18 22:24:14 GMT 39.995773 23.943516 30,000 325 486 0
2019-09-18 22:24:10 GMT 39.991909 23.947075 30,000 325 486 0
2019-09-18 22:24:01 GMT 39.973568 23.964052 30,000 325 486 0
2019-09-18 22:23:56 GMT 39.965839 23.971169 30,000 325 486 0
2019-09-18 22:23:51 GMT 39.956112 23.980158 30,000 325 486 0
2019-09-18 22:23:48 GMT 39.934280 24.000320 30,000 325 486 0
2019-09-18 22:23:39 GMT 39.934280 24.000320 30,000 325 486 0
2019-09-18 22:23:34 GMT 39.924866 24.008972 30,000 325 487 0
2019-09-18 22:23:31 GMT 39.919556 24.013905 30,000 325 486 0
2019-09-18 22:23:28 GMT 39.914215 24.018799 30,000 325 486 0
2019-09-18 22:23:23 GMT 39.903183 24.028992 30,000 325 486 0
2019-09-18 22:23:19 GMT 39.897308 24.034445 30,000 325 486 0
2019-09-18 22:23:09 GMT 39.879112 24.051208 30,000 325 487 0
2019-09-18 22:22:58 GMT 39.859425 24.069336 30,000 325 487 0
2019-09-18 22:22:54 GMT 39.851879 24.076294 30,000 325 487 0
2019-09-18 22:22:49 GMT 39.840847 24.086426 30,000 325 487 0
2019-09-18 22:22:46 GMT 39.836609 24.090330 30,000 325 487 0
2019-09-18 22:22:39 GMT 39.817245 24.108093 30,000 325 487 0
2019-09-18 22:22:36 GMT 39.817245 24.108093 30,000 325 487 0
2019-09-18 22:22:28 GMT 39.803234 24.120911 30,000 325 487 0
2019-09-18 22:22:25 GMT 39.798115 24.125610 30,000 325 487 0
2019-09-18 22:22:17 GMT 39.783371 24.139112 30,000 325 487 0
2019-09-18 22:22:14 GMT 39.778423 24.143677 30,000 325 486 0
2019-09-18 22:22:10 GMT 39.764053 24.156904 30,000 325 486 0
2019-09-18 22:22:03 GMT 39.757099 24.163330 30,000 325 486 0
2019-09-18 22:21:59 GMT 39.750305 24.169556 30,000 325 487 0
2019-09-18 22:21:55 GMT 39.741074 24.178041 30,000 325 487 0
2019-09-18 22:21:52 GMT 39.738525 24.180420 30,000 325 487 0
2019-09-18 22:21:49 GMT 39.732468 24.185984 30,000 325 487 0
2019-09-18 22:21:45 GMT 39.725075 24.192688 30,000 325 487 0
2019-09-18 22:21:42 GMT 39.719193 24.198105 30,000 325 487 0
2019-09-18 22:21:38 GMT 39.712551 24.204163 30,000 325 487 0
2019-09-18 22:21:35 GMT 39.707016 24.209270 30,000 325 487 0
2019-09-18 22:21:32 GMT 39.699841 24.215820 30,000 325 487 0
2019-09-18 22:21:29 GMT 39.695801 24.219540 30,000 325 487 0
2019-09-18 22:21:25 GMT 39.686737 24.227779 30,000 325 488 0
2019-09-18 22:21:22 GMT 39.681965 24.232117 30,000 325 488 0
2019-09-18 22:21:19 GMT 39.677170 24.236511 30,000 325 488 0
2019-09-18 22:21:14 GMT 39.667953 24.244934 30,000 325 488 0
2019-09-18 22:21:10 GMT 39.653149 24.258362 30,000 325 488 0
2019-09-18 22:21:06 GMT 39.653149 24.258362 30,000 325 488 0
2019-09-18 22:21:01 GMT 39.640999 24.269531 30,000 325 488 0
2019-09-18 22:20:57 GMT 39.634689 24.275248 30,000 325 488 0
2019-09-18 22:20:54 GMT 39.631924 24.277771 30,000 325 489 0
2019-09-18 22:20:48 GMT 39.620270 24.288443 30,000 325 489 0
2019-09-18 22:20:44 GMT 39.611572 24.296324 30,000 325 489 0
2019-09-18 22:20:41 GMT 39.604385 24.302952 30,000 325 489 0
2019-09-18 22:20:37 GMT 39.599396 24.307489 30,000 325 489 0
2019-09-18 22:20:32 GMT 39.589920 24.316149 30,000 325 489 0
2019-09-18 22:20:28 GMT 39.582504 24.322895 30,000 325 490 0
2019-09-18 22:20:21 GMT 39.570099 24.334179 30,000 325 490 0
2019-09-18 22:20:17 GMT 39.560852 24.342657 30,000 325 490 0
2019-09-18 22:20:14 GMT 39.556786 24.346375 30,000 325 490 0
2019-09-18 22:20:11 GMT 39.550827 24.351793 30,000 325 490 0
2019-09-18 22:20:05 GMT 39.539337 24.362242 30,000 325 490 0
2019-09-18 22:20:00 GMT 39.530960 24.369825 30,000 325 490 0
2019-09-18 22:19:54 GMT 39.509995 24.388872 30,000 325 490 0
2019-09-18 22:19:49 GMT 39.502552 24.395630 30,000 325 490 0
2019-09-18 22:19:45 GMT 39.502552 24.395630 30,000 325 490 0
2019-09-18 22:19:41 GMT 39.496082 24.401489 30,000 325 490 0
2019-09-18 22:19:38 GMT 39.490494 24.406546 30,000 325 490 0
2019-09-18 22:19:35 GMT 39.483261 24.413174 30,000 325 490 0
2019-09-18 22:19:32 GMT 39.479370 24.416687 30,000 325 490 0
2019-09-18 22:19:27 GMT 39.469528 24.425592 30,000 325 490 0
2019-09-18 22:19:20 GMT 39.456745 24.437256 30,000 325 490 0
2019-09-18 22:19:15 GMT 39.446503 24.446491 30,000 325 490 0
2019-09-18 22:19:12 GMT 39.440777 24.451721 30,000 325 490 -64
2019-09-18 22:19:06 GMT 39.430023 24.461487 30,000 325 490 0
2019-09-18 22:18:59 GMT 39.417782 24.472595 30,000 325 490 0
2019-09-18 22:18:55 GMT 39.410019 24.479689 30,000 325 490 0
2019-09-18 22:18:50 GMT 39.400185 24.488586 30,000 325 490 0
2019-09-18 22:18:45 GMT 39.391251 24.496647 30,000 325 490 0
2019-09-18 22:18:38 GMT 39.379562 24.507263 30,000 325 491 0
2019-09-18 22:18:33 GMT 39.368958 24.516888 30,000 325 491 0
2019-09-18 22:18:30 GMT 39.363373 24.521902 30,000 325 492 0
2019-09-18 22:18:27 GMT 39.357971 24.526798 30,000 325 492 0
2019-09-18 22:18:24 GMT 39.352375 24.531860 30,000 325 492 -64
2019-09-18 22:18:19 GMT 39.343414 24.539934 30,000 325 493 0
2019-09-18 22:18:12 GMT 39.330914 24.551270 30,000 325 493 -64
2019-09-18 22:18:09 GMT 39.323605 24.557800 30,000 326 491 0
2019-09-18 22:18:05 GMT 39.317642 24.563162 30,000 326 491 0
2019-09-18 22:18:01 GMT 39.310200 24.569885 30,000 326 491 0
2019-09-18 22:17:58 GMT 39.304428 24.575134 30,000 326 491 0
2019-09-18 22:17:52 GMT 39.293610 24.584894 30,000 326 491 0
2019-09-18 22:17:48 GMT 39.284828 24.592773 30,000 326 491 0
2019-09-18 22:17:41 GMT 39.273472 24.603027 30,000 326 491 0
2019-09-18 22:17:38 GMT 39.265823 24.609913 30,000 325 492 0
2019-09-18 22:17:33 GMT 39.257221 24.617615 30,000 325 492 0
2019-09-18 22:17:27 GMT 39.246231 24.627525 30,000 326 491 0
2019-09-18 22:17:21 GMT 39.235809 24.636963 30,000 325 491 0
2019-09-18 22:17:17 GMT 39.227242 24.644653 30,000 325 491 0
2019-09-18 22:17:11 GMT 39.208282 24.661739 30,000 326 490 0
2019-09-18 22:17:07 GMT 39.208282 24.661739 30,000 326 490 0
2019-09-18 22:17:01 GMT 39.197845 24.671112 30,000 326 490 0
2019-09-18 22:16:57 GMT 39.188931 24.679138 30,000 326 490 0
2019-09-18 22:16:51 GMT 39.178875 24.688171 30,000 326 490 0
2019-09-18 22:16:45 GMT 39.167542 24.698339 30,000 326 489 0
2019-09-18 22:16:39 GMT 39.157509 24.707336 30,000 326 489 0
2019-09-18 22:16:36 GMT 39.150421 24.713627 30,000 326 489 0
2019-09-18 22:16:28 GMT 39.137257 24.725464 30,000 326 488 0
2019-09-18 22:16:23 GMT 39.126831 24.734741 30,000 326 488 0
2019-09-18 22:16:17 GMT 39.116821 24.743658 30,000 326 488 0
2019-09-18 22:16:14 GMT 39.105698 24.753630 30,000 326 488 0
2019-09-18 22:16:08 GMT 39.093475 24.764557 30,000 326 487 0
2019-09-18 22:16:05 GMT 39.093475 24.764557 30,000 326 487 0
2019-09-18 22:16:01 GMT 39.086609 24.770647 30,000 326 487 0
2019-09-18 22:15:58 GMT 39.080696 24.775940 30,000 326 487 0
2019-09-18 22:15:52 GMT 39.069214 24.786171 30,000 326 486 0
2019-09-18 22:15:49 GMT 39.061478 24.793158 30,000 325 487 0
2019-09-18 22:15:44 GMT 39.054440 24.799500 30,000 325 488 0
2019-09-18 22:15:40 GMT 39.042290 24.810486 30,000 325 488 0
2019-09-18 22:15:37 GMT 39.042290 24.810486 30,000 325 488 0
2019-09-18 22:15:32 GMT 39.032887 24.818970 30,000 325 488 0
2019-09-18 22:15:28 GMT 39.022926 24.827942 30,000 325 488 -64
2019-09-18 22:15:22 GMT 39.013687 24.836267 30,000 325 487 64
2019-09-18 22:15:16 GMT 39.002975 24.845881 30,000 325 487 0
2019-09-18 22:15:10 GMT 38.992481 24.855347 30,000 325 486 0
2019-09-18 22:15:05 GMT 38.983658 24.863314 30,000 325 486 0
2019-09-18 22:15:01 GMT 38.976280 24.869934 30,000 325 486 0
2019-09-18 22:14:55 GMT 38.964085 24.880859 30,000 325 486 0
2019-09-18 22:14:49 GMT 38.953400 24.890423 30,000 325 486 0
2019-09-18 22:14:46 GMT 38.945114 24.897886 30,000 325 486 0
2019-09-18 22:14:39 GMT 38.935547 24.906485 30,000 325 486 0
2019-09-18 22:14:33 GMT 38.925259 24.915771 30,000 325 486 0
2019-09-18 22:14:30 GMT 38.910873 24.928696 30,000 325 486 0
2019-09-18 22:14:22 GMT 38.903687 24.935204 30,000 325 488 0
2019-09-18 22:14:19 GMT 38.898167 24.940186 30,000 325 487 0
2019-09-18 22:14:13 GMT 38.886703 24.950489 30,000 325 487 0
2019-09-18 22:14:09 GMT 38.880615 24.955921 30,000 325 487 0
2019-09-18 22:14:04 GMT 38.867477 24.967745 30,000 325 487 0
2019-09-18 22:13:59 GMT 38.862305 24.972342 30,000 325 487 0
2019-09-18 22:13:56 GMT 38.856583 24.977476 30,000 325 487 0
2019-09-18 22:13:50 GMT 38.844212 24.988586 30,000 325 487 0
2019-09-18 22:13:46 GMT 38.837585 24.994553 30,000 325 487 0
2019-09-18 22:13:40 GMT 38.825729 25.005127 30,000 325 487 0
2019-09-18 22:13:29 GMT 38.805817 25.022974 30,000 326 487 0
2019-09-18 22:13:22 GMT 38.793423 25.034058 30,000 326 487 0
2019-09-18 22:13:18 GMT 38.785461 25.041199 30,000 326 487 0
2019-09-18 22:13:14 GMT 38.778618 25.047302 30,000 326 487 0
2019-09-18 22:13:09 GMT 38.766586 25.058023 30,000 326 487 0
2019-09-18 22:13:04 GMT 38.759766 25.064114 30,000 326 487 0
2019-09-18 22:13:00 GMT 38.744404 25.077820 30,000 326 487 0
2019-09-18 22:12:56 GMT 38.744404 25.077820 30,000 326 487 0
2019-09-18 22:12:53 GMT 38.738491 25.083069 30,000 326 487 0
2019-09-18 22:12:49 GMT 38.732208 25.088684 30,000 326 487 0
2019-09-18 22:12:45 GMT 38.724243 25.095819 30,000 326 486 0
2019-09-18 22:12:42 GMT 38.719265 25.100220 30,000 326 486 0
2019-09-18 22:12:36 GMT 38.708359 25.109968 30,000 326 487 0
2019-09-18 22:12:33 GMT 38.703159 25.114563 30,000 326 487 0
2019-09-18 22:12:29 GMT 38.693939 25.122807 30,000 326 487 0
2019-09-18 22:12:25 GMT 38.687805 25.128241 30,000 326 490 0
2019-09-18 22:12:21 GMT 38.680580 25.134644 30,000 326 488 0
2019-09-18 22:12:17 GMT 38.672993 25.141357 30,000 326 488 0
2019-09-18 22:12:13 GMT 38.666290 25.147346 30,000 326 490 0
2019-09-18 22:12:10 GMT 38.659634 25.153259 30,000 326 489 0
2019-09-18 22:12:07 GMT 38.654434 25.157854 30,000 326 489 0
2019-09-18 22:12:04 GMT 38.648830 25.162842 30,000 326 490 0
2019-09-18 22:12:00 GMT 38.634682 25.175354 30,000 326 490 0
2019-09-18 22:11:56 GMT 38.634682 25.175354 30,000 326 490 0
2019-09-18 22:11:53 GMT 38.627380 25.181799 30,000 326 490 0
2019-09-18 22:11:49 GMT 38.620468 25.187889 30,000 326 491 0
2019-09-18 22:11:46 GMT 38.615406 25.192322 30,000 326 491 0
2019-09-18 22:11:42 GMT 38.607376 25.199411 30,000 326 491 0
2019-09-18 22:11:36 GMT 38.588608 25.215893 30,000 326 491 0
2019-09-18 22:11:32 GMT 38.588608 25.215893 30,000 326 492 0
2019-09-18 22:11:26 GMT 38.576771 25.226257 30,000 326 492 0
2019-09-18 22:11:21 GMT 38.568512 25.233446 30,000 326 492 0
2019-09-18 22:11:18 GMT 38.561188 25.239836 30,000 326 492 -64
2019-09-18 22:11:15 GMT 38.556660 25.243774 30,000 327 492 0
2019-09-18 22:11:11 GMT 38.548965 25.250463 30,000 327 492 0
2019-09-18 22:11:05 GMT 38.537991 25.259888 30,000 327 493 0
2019-09-18 22:11:00 GMT 38.528912 25.267639 30,000 327 493 0
2019-09-18 22:10:55 GMT 38.518066 25.276794 30,000 327 493 0
2019-09-18 22:10:50 GMT 38.508896 25.284485 30,000 328 495 0
2019-09-18 22:10:44 GMT 38.498337 25.293156 30,000 328 495 0
2019-09-18 22:10:39 GMT 38.488274 25.301392 30,000 328 495 0
2019-09-18 22:10:32 GMT 38.475632 25.311485 30,000 329 496 0
2019-09-18 22:10:28 GMT 38.466255 25.318848 30,000 329 497 0
2019-09-18 22:10:25 GMT 38.459366 25.324158 30,000 330 497 0
2019-09-18 22:10:22 GMT 38.454803 25.327576 30,000 330 497 0
2019-09-18 22:10:17 GMT 38.444466 25.335266 30,000 331 498 0
2019-09-18 22:10:14 GMT 38.439255 25.339050 30,000 331 499 0
2019-09-18 22:10:11 GMT 38.433243 25.343369 30,000 332 499 0
2019-09-18 22:10:02 GMT 38.408997 25.359907 30,000 334 500 0
2019-09-18 22:09:53 GMT 38.395569 25.368484 30,000 334 500 0
2019-09-18 22:09:48 GMT 38.385818 25.374678 30,000 334 500 0
2019-09-18 22:09:42 GMT 38.370895 25.384146 30,000 334 500 0
2019-09-18 22:09:37 GMT 38.362198 25.389696 30,000 334 500 0
2019-09-18 22:09:33 GMT 38.346680 25.399513 30,000 334 500 0
2019-09-18 22:09:25 GMT 38.338188 25.404928 30,000 334 500 0
2019-09-18 22:09:21 GMT 38.329250 25.410601 30,000 334 500 0
2019-09-18 22:09:15 GMT 38.316822 25.418482 30,000 334 500 0
2019-09-18 22:09:10 GMT 38.305416 25.425707 30,000 334 500 0
2019-09-18 22:09:01 GMT 38.287125 25.437265 30,000 334 501 0
2019-09-18 22:08:57 GMT 38.280716 25.441357 30,000 334 501 0
2019-09-18 22:08:50 GMT 38.265148 25.451202 30,000 334 501 0
2019-09-18 22:08:47 GMT 38.259933 25.454504 30,000 334 501 0
2019-09-18 22:08:40 GMT 38.245834 25.463387 30,000 334 501 0
2019-09-18 22:08:37 GMT 38.237503 25.468645 30,000 334 501 0
2019-09-18 22:08:28 GMT 38.217590 25.481211 30,000 334 500 0
2019-09-18 22:08:19 GMT 38.200378 25.492081 30,000 334 501 0
2019-09-18 22:08:15 GMT 38.193100 25.496696 30,000 334 501 0
2019-09-18 22:08:06 GMT 38.171486 25.510254 30,000 334 501 0
2019-09-18 22:07:58 GMT 38.154648 25.520830 30,000 334 501 0
2019-09-18 22:07:55 GMT 38.150482 25.523460 30,000 334 501 0
2019-09-18 22:07:46 GMT 38.133270 25.534330 30,000 334 501 0
2019-09-18 22:07:43 GMT 38.127457 25.538012 30,000 334 501 0
2019-09-18 22:07:37 GMT 38.114365 25.546259 30,000 334 501 0
2019-09-18 22:07:32 GMT 38.103146 25.553364 30,000 334 501 0
2019-09-18 22:07:26 GMT 38.091476 25.560686 30,000 334 501 0
2019-09-18 22:07:22 GMT 38.081909 25.566706 30,000 334 501 0
2019-09-18 22:07:17 GMT 38.070698 25.573784 30,000 334 502 0
2019-09-18 22:07:11 GMT 38.060505 25.580233 30,000 334 502 0
2019-09-18 22:07:07 GMT 38.050735 25.586399 30,000 334 502 0
2019-09-18 22:07:03 GMT 38.043419 25.590981 30,000 334 502 0
2019-09-18 22:06:59 GMT 38.034668 25.596474 30,000 334 502 0
2019-09-18 22:06:55 GMT 38.026337 25.601709 30,000 334 502 0
2019-09-18 22:06:51 GMT 38.016129 25.608137 30,000 334 502 0
2019-09-18 22:06:46 GMT 38.005341 25.614923 30,000 334 502 0
2019-09-18 22:06:42 GMT 37.993237 25.622564 30,000 334 502 0
2019-09-18 22:06:35 GMT 37.983879 25.628416 30,000 334 502 0
2019-09-18 22:06:31 GMT 37.976807 25.632856 30,000 334 502 0
2019-09-18 22:06:28 GMT 37.971588 25.636129 30,000 334 502 0
2019-09-18 22:06:24 GMT 37.960968 25.642792 30,000 334 502 0
2019-09-18 22:06:19 GMT 37.951851 25.648539 30,000 334 502 0
2019-09-18 22:06:15 GMT 37.943707 25.653614 30,000 334 502 0
2019-09-18 22:06:11 GMT 37.934555 25.659388 30,000 334 502 0
2019-09-18 22:06:07 GMT 37.926247 25.664600 30,000 334 502 0
2019-09-18 22:06:04 GMT 37.919777 25.668600 30,000 334 502 0
2019-09-18 22:05:59 GMT 37.907719 25.676184 30,000 334 502 0
2019-09-18 22:05:54 GMT 37.899200 25.681557 30,000 334 502 0
2019-09-18 22:05:50 GMT 37.892120 25.685978 30,000 334 502 0
2019-09-18 22:05:47 GMT 37.886078 25.689716 30,000 334 502 0
2019-09-18 22:05:42 GMT 37.875275 25.696545 30,000 334 502 0
2019-09-18 22:05:38 GMT 37.865265 25.702753 30,000 334 502 0
2019-09-18 22:05:33 GMT 37.855907 25.708605 30,000 334 502 0
2019-09-18 22:05:30 GMT 37.849018 25.712904 30,000 334 502 0
2019-09-18 22:05:26 GMT 37.842175 25.717203 30,000 334 502 0
2019-09-18 22:05:22 GMT 37.834026 25.722279 30,000 334 502 0
2019-09-18 22:05:19 GMT 37.826569 25.726942 30,000 334 502 0
2019-09-18 22:05:16 GMT 37.821350 25.730213 30,000 334 502 0
2019-09-18 22:05:13 GMT 37.813869 25.734877 30,000 334 502 0
2019-09-18 22:05:09 GMT 37.804276 25.740850 30,000 334 502 0
2019-09-18 22:05:06 GMT 37.800110 25.743422 30,000 334 502 0
2019-09-18 22:05:00 GMT 37.785965 25.752245 30,000 334 502 0
2019-09-18 22:04:55 GMT 37.777420 25.757566 30,000 334 502 0
2019-09-18 22:04:52 GMT 37.770172 25.762121 30,000 334 501 0
2019-09-18 22:04:48 GMT 37.762665 25.766821 30,000 334 501 0
2019-09-18 22:04:45 GMT 37.755798 25.771063 30,000 334 501 0
2019-09-18 22:04:38 GMT 37.742294 25.779535 30,000 334 500 0
2019-09-18 22:04:34 GMT 37.734406 25.784433 30,000 334 500 0
2019-09-18 22:04:30 GMT 37.723793 25.791061 30,000 334 500 0
2019-09-18 22:04:27 GMT 37.718399 25.794378 30,000 334 500 0
2019-09-18 22:04:24 GMT 37.712357 25.798178 30,000 334 500 0
2019-09-18 22:04:16 GMT 37.696564 25.807995 30,000 334 500 0
2019-09-18 22:04:13 GMT 37.689529 25.812378 30,000 334 500 0
2019-09-18 22:04:06 GMT 37.674541 25.821692 30,000 334 500 0
2019-09-18 22:04:03 GMT 37.668533 25.825455 30,000 334 500 0
2019-09-18 22:03:58 GMT 37.658340 25.831783 30,000 334 500 0
2019-09-18 22:03:55 GMT 37.651703 25.835928 30,000 334 500 0
2019-09-18 22:03:52 GMT 37.644836 25.840195 30,000 334 501 0
2019-09-18 22:03:48 GMT 37.637344 25.844858 30,000 334 501 0
2019-09-18 22:03:45 GMT 37.630692 25.848961 30,000 334 501 0
2019-09-18 22:03:42 GMT 37.623413 25.853460 30,000 334 501 0
2019-09-18 22:03:34 GMT 37.608624 25.862593 30,000 334 501 0
2019-09-18 22:03:31 GMT 37.600895 25.867369 30,000 334 501 0
2019-09-18 22:03:24 GMT 37.587162 25.875908 30,000 334 501 0
2019-09-18 22:03:19 GMT 37.577591 25.881802 30,000 334 501 0
2019-09-18 22:03:13 GMT 37.564678 25.889820 30,000 334 501 0
2019-09-18 22:03:09 GMT 37.553829 25.896507 30,000 334 501 0
2019-09-18 22:03:06 GMT 37.549034 25.899433 30,000 334 501 64
2019-09-18 22:03:00 GMT 37.536758 25.907047 30,000 334 501 0
2019-09-18 22:02:57 GMT 37.531952 25.910002 30,000 334 501 0
2019-09-18 22:02:53 GMT 37.522614 25.915813 30,000 334 501 0
2019-09-18 22:02:45 GMT 37.506115 25.926003 30,000 334 501 0
2019-09-18 22:02:42 GMT 37.501144 25.929077 30,000 334 501 0
2019-09-18 22:02:35 GMT 37.484848 25.939131 30,000 334 501 0
2019-09-18 22:02:32 GMT 37.478394 25.943104 30,000 334 501 0
2019-09-18 22:02:27 GMT 37.467361 25.949942 30,000 334 501 0
2019-09-18 22:02:24 GMT 37.461937 25.953291 30,000 334 501 0
2019-09-18 22:02:21 GMT 37.456955 25.956335 30,000 334 501 0
2019-09-18 22:02:14 GMT 37.442802 25.965113 30,000 334 501 0
2019-09-18 22:02:11 GMT 37.435074 25.969830 30,000 334 501 0
2019-09-18 22:02:05 GMT 37.423645 25.976881 30,000 334 502 0
2019-09-18 22:02:01 GMT 37.414673 25.982431 30,000 334 501 0
2019-09-18 22:01:55 GMT 37.401558 25.990547 30,000 334 502 0
2019-09-18 22:01:51 GMT 37.394249 25.995026 30,000 334 502 0
2019-09-18 22:01:45 GMT 37.380661 26.003353 30,000 334 503 0
2019-09-18 22:01:39 GMT 37.368320 26.010908 30,000 334 503 0
2019-09-18 22:01:35 GMT 37.358498 26.016939 30,000 334 503 0
2019-09-18 22:01:31 GMT 37.351822 26.021061 30,000 334 503 0
2019-09-18 22:01:27 GMT 37.343460 26.026194 30,000 334 503 0
2019-09-18 22:01:19 GMT 37.326702 26.036524 30,000 334 504 0
2019-09-18 22:01:16 GMT 37.320602 26.040285 30,000 334 504 0
2019-09-18 22:01:12 GMT 37.313095 26.044903 30,000 334 504 0
2019-09-18 22:01:09 GMT 37.305939 26.049299 30,000 334 504 0
2019-09-18 22:01:03 GMT 37.293369 26.057003 30,000 334 505 0
2019-09-18 22:00:58 GMT 37.283920 26.062855 30,000 334 505 0
2019-09-18 22:00:54 GMT 37.274689 26.068510 30,000 334 505 0
2019-09-18 22:00:51 GMT 37.269012 26.072018 30,000 334 505 0
2019-09-18 22:00:48 GMT 37.261436 26.076647 30,000 334 505 0
2019-09-18 22:00:41 GMT 37.247314 26.085283 30,000 334 505 0
2019-09-18 22:00:37 GMT 37.239323 26.090200 30,000 334 505 0
2019-09-18 22:00:32 GMT 37.226532 26.098082 30,000 334 505 0
2019-09-18 22:00:27 GMT 37.218094 26.103216 30,000 334 505 0
2019-09-18 22:00:21 GMT 37.205292 26.111113 30,000 334 505 64
2019-09-18 22:00:17 GMT 37.196262 26.116652 30,000 334 506 0
2019-09-18 22:00:09 GMT 37.179409 26.127041 30,000 334 507 -64
2019-09-18 22:00:06 GMT 37.174805 26.129871 30,000 334 507 0
2019-09-18 21:59:59 GMT 37.159859 26.139042 30,000 334 505 0
2019-09-18 21:59:55 GMT 37.151245 26.144356 30,000 334 505 0
2019-09-18 21:59:47 GMT 37.128342 26.158388 30,000 334 505 0
2019-09-18 21:59:37 GMT 37.113419 26.167564 30,000 334 505 0
2019-09-18 21:59:34 GMT 37.106277 26.171942 30,000 334 505 0
2019-09-18 21:59:29 GMT 37.094315 26.179344 30,000 334 506 0
2019-09-18 21:59:25 GMT 37.087143 26.183693 30,000 334 506 0
2019-09-18 21:59:22 GMT 37.082115 26.186810 30,000 334 506 0
2019-09-18 21:59:16 GMT 37.068466 26.195206 30,000 334 506 0
2019-09-18 21:59:12 GMT 37.059402 26.200756 30,000 334 506 0
2019-09-18 21:59:08 GMT 37.052032 26.205315 30,000 334 507 0
2019-09-18 21:59:04 GMT 37.044037 26.210215 30,000 334 506 0
2019-09-18 21:58:58 GMT 37.028275 26.219866 30,000 334 506 0
2019-09-18 21:58:53 GMT 37.020493 26.224600 30,000 334 506 0
2019-09-18 21:58:47 GMT 37.007168 26.232664 30,000 335 506 0
2019-09-18 21:58:42 GMT 36.997879 26.238214 30,000 335 507 0
2019-09-18 21:58:37 GMT 36.980713 26.248383 30,000 335 507 0
2019-09-18 21:58:31 GMT 36.973698 26.252548 30,000 335 507 0
2019-09-18 21:58:27 GMT 36.965221 26.257563 30,000 335 507 0
2019-09-18 21:58:24 GMT 36.959450 26.260906 30,000 335 507 0
2019-09-18 21:58:20 GMT 36.950363 26.266266 30,000 335 507 0
2019-09-18 21:58:14 GMT 36.937592 26.273804 30,000 335 507 0
2019-09-18 21:58:10 GMT 36.928028 26.279415 30,000 335 507 0
2019-09-18 21:58:06 GMT 36.918903 26.284790 30,000 335 507 0
2019-09-18 21:58:03 GMT 36.914482 26.287416 30,000 335 506 0
2019-09-18 21:57:55 GMT 36.895393 26.298641 30,000 335 506 0
2019-09-18 21:57:47 GMT 36.880547 26.307419 30,000 335 507 0
2019-09-18 21:57:42 GMT 36.870163 26.313568 30,000 335 506 0
2019-09-18 21:57:36 GMT 36.857826 26.320854 30,000 335 506 0
2019-09-18 21:57:31 GMT 36.844940 26.328449 30,000 335 506 0
2019-09-18 21:57:21 GMT 36.825851 26.339722 30,000 335 506 0
2019-09-18 21:57:15 GMT 36.811649 26.348021 30,000 335 506 0
2019-09-18 21:57:11 GMT 36.803127 26.353046 30,000 335 506 0
2019-09-18 21:57:00 GMT 36.781528 26.365726 30,000 335 506 0
2019-09-18 21:56:50 GMT 36.759647 26.378525 30,000 335 507 0
2019-09-18 21:56:39 GMT 36.736725 26.392021 30,000 335 507 0
2019-09-18 21:56:30 GMT 36.715054 26.404705 30,000 335 507 0
2019-09-18 21:56:19 GMT 36.693192 26.417542 30,000 335 507 0
2019-09-18 21:56:09 GMT 36.671711 26.430124 30,000 335 507 0
2019-09-18 21:55:59 GMT 36.649414 26.443214 30,000 335 507 0
2019-09-18 21:55:48 GMT 36.627365 26.456165 30,000 335 506 0
2019-09-18 21:55:36 GMT 36.602966 26.470413 30,000 335 506 0
2019-09-18 21:55:27 GMT 36.583450 26.481844 30,000 335 506 0
2019-09-18 21:55:17 GMT 36.561447 26.494732 30,000 335 506 0
2019-09-18 21:55:07 GMT 36.539200 26.507721 30,000 335 505 0
2019-09-18 21:55:01 GMT 36.528145 26.514158 30,000 335 505 0
2019-09-18 21:54:55 GMT 36.515854 26.521288 30,000 335 505 0
2019-09-18 21:54:51 GMT 36.507797 26.525974 30,000 335 505 0
2019-09-18 21:54:45 GMT 36.494022 26.534027 30,000 335 506 0
2019-09-18 21:54:40 GMT 36.483036 26.540457 30,000 335 506 0
2019-09-18 21:54:35 GMT 36.472870 26.546345 30,000 335 505 0
2019-09-18 21:54:29 GMT 36.460365 26.553663 30,000 335 505 0
2019-09-18 21:54:24 GMT 36.449570 26.559963 30,000 335 505 0
2019-09-18 21:54:18 GMT 36.436203 26.567688 30,000 335 505 0
2019-09-18 21:54:14 GMT 36.428570 26.572128 30,000 335 505 0
2019-09-18 21:54:03 GMT 36.406311 26.585083 30,000 335 505 0
2019-09-18 21:53:54 GMT 36.385368 26.597258 30,000 335 505 0
2019-09-18 21:53:43 GMT 36.362274 26.610661 30,000 335 505 0
2019-09-18 21:53:32 GMT 36.340439 26.623306 30,000 335 505 0
2019-09-18 21:53:26 GMT 36.326294 26.631546 30,000 335 505 0
2019-09-18 21:53:23 GMT 36.319702 26.635380 30,000 335 505 0
2019-09-18 21:53:20 GMT 36.312515 26.639566 30,000 335 505 0
2019-09-18 21:53:12 GMT 36.297501 26.648254 30,000 335 505 0
2019-09-18 21:53:09 GMT 36.290955 26.652088 30,000 335 505 0
2019-09-18 21:53:01 GMT 36.274670 26.661539 30,000 335 505 0
2019-09-18 21:52:55 GMT 36.261154 26.669369 30,000 335 504 0
2019-09-18 21:52:51 GMT 36.253578 26.673811 30,000 335 503 0
2019-09-18 21:52:48 GMT 36.245544 26.678467 30,000 335 503 0
2019-09-18 21:52:41 GMT 36.231583 26.686535 30,000 335 503 0
2019-09-18 21:52:37 GMT 36.223801 26.691055 30,000 335 503 0
2019-09-18 21:52:31 GMT 36.209839 26.699123 30,000 335 503 0
2019-09-18 21:52:28 GMT 36.202652 26.703243 30,000 335 503 0
2019-09-18 21:52:20 GMT 36.188080 26.711679 30,000 335 503 0
2019-09-18 21:52:17 GMT 36.180084 26.716290 30,000 336 504 0
2019-09-18 21:52:10 GMT 36.166340 26.724186 30,000 336 504 0
2019-09-18 21:52:07 GMT 36.158520 26.728683 30,000 336 504 0
2019-09-18 21:52:00 GMT 36.144135 26.736982 30,000 336 504 0
2019-09-18 21:51:56 GMT 36.135269 26.742039 30,000 336 503 0
2019-09-18 21:51:48 GMT 36.120026 26.750793 30,000 336 503 0
2019-09-18 21:51:44 GMT 36.111786 26.755486 30,000 336 503 0
2019-09-18 21:51:38 GMT 36.099472 26.762466 30,000 336 503 0
2019-09-18 21:51:35 GMT 36.089951 26.767902 30,000 336 503 0
2019-09-18 21:51:28 GMT 36.077705 26.774851 30,000 336 503 0
2019-09-18 21:51:24 GMT 36.067928 26.780344 30,000 336 503 0
2019-09-18 21:51:18 GMT 36.055618 26.787300 30,000 336 503 0
2019-09-18 21:51:13 GMT 36.046329 26.792557 30,000 336 504 0
2019-09-18 21:51:06 GMT 36.031860 26.800690 30,000 336 504 0
2019-09-18 21:51:03 GMT 36.023392 26.805496 30,000 336 504 0
2019-09-18 21:50:57 GMT 36.011032 26.812363 30,000 336 504 0
2019-09-18 21:50:53 GMT 36.002571 26.817160 30,000 336 504 0
2019-09-18 21:50:43 GMT 35.980499 26.829586 30,000 336 503 0
2019-09-18 21:50:36 GMT 35.966080 26.837711 30,000 336 503 0
2019-09-18 21:50:32 GMT 35.957840 26.842403 30,000 336 503 0
2019-09-18 21:50:25 GMT 35.943008 26.850872 30,000 335 503 0
2019-09-18 21:50:22 GMT 35.935814 26.855026 30,000 335 504 0
2019-09-18 21:50:14 GMT 35.921474 26.863325 30,000 335 504 0
2019-09-18 21:50:11 GMT 35.913609 26.867825 30,000 335 504 0
2019-09-18 21:50:04 GMT 35.898899 26.876532 30,000 332 501 -64
2019-09-18 21:50:00 GMT 35.890564 26.882200 30,000 329 499 -64
2019-09-18 21:49:54 GMT 35.878834 26.891317 30,000 325 495 -64
2019-09-18 21:49:50 GMT 35.869904 26.899281 30,025 323 493 -64
2019-09-18 21:49:43 GMT 35.859375 26.910038 30,025 317 489 64
2019-09-18 21:49:40 GMT 35.854202 26.915874 30,000 315 487 64
2019-09-18 21:49:33 GMT 35.843452 26.929770 30,000 309 484 64
2019-09-18 21:49:30 GMT 35.837631 26.938820 29,975 306 482 0
2019-09-18 21:49:22 GMT 35.828659 26.955757 30,000 301 478 0
2019-09-18 21:49:19 GMT 35.825867 26.961651 30,000 301 478 0
2019-09-18 21:49:12 GMT 35.817856 26.978588 30,000 301 479 0
2019-09-18 21:49:09 GMT 35.814651 26.985397 30,000 301 478 0
2019-09-18 21:49:01 GMT 35.806492 27.002525 30,000 301 478 0
2019-09-18 21:48:58 GMT 35.801929 27.012167 30,000 301 478 0
2019-09-18 21:48:51 GMT 35.794922 27.026997 30,000 301 478 0
2019-09-18 21:48:47 GMT 35.790710 27.035952 30,000 301 479 0
2019-09-18 21:48:41 GMT 35.783478 27.051201 30,000 301 479 0
2019-09-18 21:48:38 GMT 35.779587 27.059441 30,000 301 479 0
2019-09-18 21:48:30 GMT 35.771896 27.075691 30,000 301 479 0
2019-09-18 21:48:26 GMT 35.767620 27.084629 30,000 301 479 0
2019-09-18 21:48:20 GMT 35.760269 27.100182 30,000 301 480 0
2019-09-18 21:48:16 GMT 35.755463 27.110310 30,000 301 480 0
2019-09-18 21:48:10 GMT 35.748962 27.123928 30,000 301 479 0
2019-09-18 21:48:07 GMT 35.744671 27.132900 30,000 301 479 0
2019-09-18 21:48:00 GMT 35.736969 27.149105 30,000 301 480 0
2019-09-18 21:47:55 GMT 35.732475 27.158554 30,000 301 480 0
2019-09-18 21:47:49 GMT 35.725754 27.172680 30,000 301 480 0
2019-09-18 21:47:46 GMT 35.721405 27.181835 30,000 301 480 0
2019-09-18 21:47:39 GMT 35.714218 27.196941 30,000 301 480 0
2019-09-18 21:47:34 GMT 35.709335 27.207350 30,000 301 481 0
2019-09-18 21:47:27 GMT 35.701702 27.223360 30,000 301 481 0
2019-09-18 21:47:24 GMT 35.696640 27.233963 30,000 301 481 0
2019-09-18 21:47:17 GMT 35.690159 27.247671 30,000 301 481 0
2019-09-18 21:47:14 GMT 35.686108 27.256145 30,000 301 481 0
2019-09-18 21:47:09 GMT 35.681396 27.266064 30,000 301 481 0
2019-09-18 21:47:06 GMT 35.677872 27.273388 30,000 301 481 0
2019-09-18 21:47:03 GMT 35.674515 27.280514 30,000 301 481 0
2019-09-18 21:46:59 GMT 35.669128 27.291813 30,000 301 481 0
2019-09-18 21:46:55 GMT 35.665649 27.299137 30,000 301 481 0
2019-09-18 21:46:50 GMT 35.658188 27.314701 30,000 301 481 0
2019-09-18 21:46:47 GMT 35.654709 27.322025 30,000 301 481 0
2019-09-18 21:46:42 GMT 35.650215 27.331472 30,000 301 481 0
2019-09-18 21:46:36 GMT 35.643002 27.346548 30,000 301 481 0
2019-09-18 21:46:33 GMT 35.639275 27.354321 30,000 301 481 0
2019-09-18 21:46:24 GMT 35.630245 27.373138 30,000 301 480 0
2019-09-18 21:46:21 GMT 35.627106 27.379761 30,000 301 480 0
2019-09-18 21:46:15 GMT 35.619461 27.395782 30,000 301 480 0
2019-09-18 21:46:12 GMT 35.615768 27.403524 30,000 301 480 0
2019-09-18 21:46:03 GMT 35.606964 27.421875 30,000 301 480 0
2019-09-18 21:46:00 GMT 35.603714 27.428684 30,000 301 480 0
2019-09-18 21:45:54 GMT 35.596298 27.444191 30,000 301 481 0
2019-09-18 21:45:51 GMT 35.592545 27.451973 30,000 301 481 0
2019-09-18 21:45:41 GMT 35.581512 27.475033 30,000 301 482 0
2019-09-18 21:45:34 GMT 35.573265 27.492233 30,000 301 482 0
2019-09-18 21:45:31 GMT 35.570755 27.497406 30,000 301 482 0
2019-09-18 21:45:21 GMT 35.559814 27.520294 30,000 301 482 0
2019-09-18 21:45:18 GMT 35.554504 27.531328 30,000 301 482 0
2019-09-18 21:45:12 GMT 35.548599 27.543583 30,000 301 482 0
2019-09-18 21:45:08 GMT 35.544662 27.551823 30,000 301 482 0
2019-09-18 21:45:03 GMT 35.538116 27.565498 30,000 301 482 0
2019-09-18 21:44:59 GMT 35.533676 27.574654 30,000 301 482 0
2019-09-18 21:44:51 GMT 35.525177 27.592339 30,000 301 481 0
2019-09-18 21:44:48 GMT 35.521454 27.600052 30,000 301 481 0
2019-09-18 21:44:40 GMT 35.512482 27.618599 30,000 301 481 0
2019-09-18 21:44:37 GMT 35.507954 27.627987 30,000 301 481 0
2019-09-18 21:44:30 GMT 35.501266 27.641830 30,000 301 481 0
2019-09-18 21:44:27 GMT 35.497513 27.649555 30,000 301 481 0
2019-09-18 21:44:19 GMT 35.489594 27.665977 30,000 301 481 0
2019-09-18 21:44:14 GMT 35.483604 27.678417 30,000 301 481 0
2019-09-18 21:44:10 GMT 35.477833 27.690397 30,000 301 480 0
2019-09-18 21:44:03 GMT 35.470505 27.705631 30,000 301 480 0
2019-09-18 21:43:59 GMT 35.466064 27.714787 30,000 301 480 0
2019-09-18 21:43:56 GMT 35.461540 27.724174 30,000 301 480 0
2019-09-18 21:43:48 GMT 35.453392 27.741062 30,000 301 481 0
2019-09-18 21:43:44 GMT 35.449203 27.749712 30,000 301 481 0
2019-09-18 21:43:38 GMT 35.442406 27.763796 30,000 301 481 0
2019-09-18 21:43:35 GMT 35.438217 27.772444 30,000 301 481 0
2019-09-18 21:43:30 GMT 35.433655 27.781849 30,000 301 481 0
2019-09-18 21:43:26 GMT 35.429138 27.791203 30,000 301 481 0
2019-09-18 21:43:23 GMT 35.425735 27.798271 30,000 301 481 0
2019-09-18 21:43:18 GMT 35.419144 27.811832 30,000 301 481 0
2019-09-18 21:43:14 GMT 35.414337 27.821650 30,000 301 481 0
2019-09-18 21:43:06 GMT 35.405956 27.839005 30,000 301 481 0
2019-09-18 21:43:01 GMT 35.400833 27.849524 30,000 301 481 0
2019-09-18 21:42:56 GMT 35.394829 27.861914 30,000 301 481 0
2019-09-18 21:42:53 GMT 35.390408 27.871029 30,000 301 481 0
2019-09-18 21:42:45 GMT 35.383026 27.886276 30,000 301 481 0
2019-09-18 21:42:41 GMT 35.378128 27.896290 30,000 301 480 0
2019-09-18 21:42:34 GMT 35.369740 27.913572 30,000 301 480 0
2019-09-18 21:42:29 GMT 35.363503 27.926428 30,000 301 480 0
2019-09-18 21:42:24 GMT 35.359077 27.935543 30,000 301 480 0
2019-09-18 21:42:20 GMT 35.354553 27.944870 30,000 301 480 0
2019-09-18 21:42:14 GMT 35.347393 27.959562 30,000 301 479 0
2019-09-18 21:42:10 GMT 35.343204 27.968153 30,000 301 479 0
2019-09-18 21:42:04 GMT 35.335602 27.983780 30,000 301 479 0
2019-09-18 21:42:00 GMT 35.330933 27.993336 30,000 301 479 0
2019-09-18 21:41:53 GMT 35.323700 28.008213 30,000 301 479 0
2019-09-18 21:41:50 GMT 35.319603 28.016598 30,000 301 479 0
2019-09-18 21:41:43 GMT 35.311642 28.032843 30,000 301 479 0
2019-09-18 21:41:38 GMT 35.305756 28.044949 30,000 301 479 0
2019-09-18 21:41:32 GMT 35.299850 28.057079 30,000 301 478 0
2019-09-18 21:41:28 GMT 35.295456 28.066120 30,000 301 479 0
2019-09-18 21:41:22 GMT 35.288177 28.081055 30,000 301 479 0
2019-09-18 21:41:19 GMT 35.283432 28.090815 30,000 301 479 0
2019-09-18 21:41:11 GMT 35.276321 28.105431 30,000 301 479 0
2019-09-18 21:41:07 GMT 35.271328 28.115650 30,000 301 478 0
2019-09-18 21:41:01 GMT 35.264145 28.130322 30,000 301 478 0
2019-09-18 21:40:57 GMT 35.259750 28.139362 30,000 301 478 0
2019-09-18 21:40:51 GMT 35.253159 28.152809 30,000 301 478 0
2019-09-18 21:40:47 GMT 35.247253 28.164883 30,000 301 479 0
2019-09-18 21:40:40 GMT 35.240929 28.177885 30,000 301 479 0
2019-09-18 21:40:36 GMT 35.236462 28.186943 30,000 301 479 0
2019-09-18 21:40:30 GMT 35.229309 28.201618 30,000 301 479 0
2019-09-18 21:40:26 GMT 35.223953 28.212555 30,000 301 479 0
2019-09-18 21:40:20 GMT 35.217697 28.225307 30,000 301 481 0
2019-09-18 21:40:15 GMT 35.212692 28.235592 30,000 301 481 0
2019-09-18 21:40:10 GMT 35.205921 28.249283 30,000 301 481 0
2019-09-18 21:40:06 GMT 35.200882 28.259525 30,000 301 481 0
2019-09-18 21:39:57 GMT 35.191177 28.279369 30,000 301 481 0
2019-09-18 21:39:46 GMT 35.177811 28.306610 30,000 301 481 0
2019-09-18 21:39:37 GMT 35.168839 28.324772 30,000 301 481 0
2019-09-18 21:39:32 GMT 35.163372 28.335972 30,000 301 481 0
2019-09-18 21:39:26 GMT 35.156616 28.349714 30,000 301 481 0
2019-09-18 21:39:14 GMT 35.142380 28.378582 30,000 301 481 0
2019-09-18 21:39:07 GMT 35.134140 28.395342 30,000 301 481 0
2019-09-18 21:39:04 GMT 35.130981 28.401844 30,000 301 481 0
2019-09-18 21:39:00 GMT 35.125107 28.413734 30,000 301 481 0
2019-09-18 21:38:54 GMT 35.119289 28.425579 30,000 301 481 0
2019-09-18 21:38:44 GMT 35.106487 28.451385 30,000 301 481 0
2019-09-18 21:38:33 GMT 35.095367 28.473928 30,000 301 481 0
2019-09-18 21:38:25 GMT 35.085724 28.493443 30,000 301 481 0
2019-09-18 21:38:22 GMT 35.082371 28.500195 30,000 301 481 0
2019-09-18 21:38:11 GMT 35.070641 28.523884 30,000 302 480 0
2019-09-18 21:38:01 GMT 35.058701 28.548031 30,000 302 480 0
2019-09-18 21:37:54 GMT 35.050808 28.563995 30,000 302 480 0
2019-09-18 21:37:51 GMT 35.046993 28.571663 30,000 302 480 0
2019-09-18 21:37:45 GMT 35.040241 28.585339 30,000 302 480 0
2019-09-18 21:37:40 GMT 35.035080 28.595787 30,000 302 480 0
2019-09-18 21:37:30 GMT 35.023251 28.619671 30,000 302 480 0
2019-09-18 21:37:25 GMT 35.015663 28.634949 30,000 302 480 0
2019-09-18 21:37:19 GMT 35.010818 28.644720 30,000 302 480 0
2019-09-18 21:37:09 GMT 34.999088 28.668308 30,000 302 480 0
2019-09-18 21:36:59 GMT 34.987106 28.692421 30,000 302 480 0
2019-09-18 21:36:47 GMT 34.973999 28.718834 30,000 302 480 0
2019-09-18 21:36:38 GMT 34.962753 28.741468 30,000 302 480 0
2019-09-18 21:36:27 GMT 34.950897 28.765289 30,000 302 480 0
2019-09-18 21:36:18 GMT 34.939270 28.788643 30,000 302 480 0
2019-09-18 21:36:07 GMT 34.927074 28.813133 30,000 302 480 0
2019-09-18 21:36:00 GMT 34.918671 28.829975 30,000 302 480 0
2019-09-18 21:35:56 GMT 34.915249 28.836880 30,000 302 480 0
2019-09-18 21:35:50 GMT 34.906265 28.854904 30,000 302 480 0
2019-09-18 21:35:46 GMT 34.903610 28.860243 30,000 302 480 0
2019-09-18 21:35:38 GMT 34.893585 28.880310 30,000 302 480 0
2019-09-18 21:35:35 GMT 34.890564 28.886309 30,000 302 480 0
2019-09-18 21:35:28 GMT 34.880905 28.905703 30,000 302 481 0
2019-09-18 21:35:24 GMT 34.878567 28.910294 30,000 302 481 0
2019-09-18 21:35:16 GMT 34.856686 28.954067 30,000 302 481 0
2019-09-18 21:35:07 GMT 34.856686 28.954067 30,000 302 482 0
2019-09-18 21:34:56 GMT 34.844193 28.979074 30,000 302 483 0
2019-09-18 21:34:49 GMT 34.837555 28.992247 30,000 302 483 0
2019-09-18 21:34:38 GMT 34.825031 29.017296 30,000 302 483 0
2019-09-18 21:34:20 GMT 34.803757 29.059639 30,000 302 482 0
2019-09-18 21:34:05 GMT 34.786716 29.093628 30,000 302 481 0
2019-09-18 21:33:50 GMT 34.768753 29.129463 30,000 302 481 0
2019-09-18 21:33:34 GMT 34.750965 29.164753 30,000 302 481 0
2019-09-18 21:33:19 GMT 34.732819 29.200651 30,000 302 480 0
2019-09-18 21:33:03 GMT 34.714005 29.237926 30,000 302 480 0
2019-09-18 21:32:48 GMT 34.696655 29.272118 30,000 302 478 0
2019-09-18 21:32:40 GMT 34.687408 29.290447 30,000 302 478 0
2019-09-18 21:32:36 GMT 34.681961 29.301210 30,000 302 478 0
2019-09-18 21:32:32 GMT 34.678848 29.307377 30,000 302 478 0
2019-09-18 21:32:27 GMT 34.671890 29.321053 30,000 302 477 0
2019-09-18 21:32:18 GMT 34.660934 29.342766 30,000 302 477 0
2019-09-18 21:32:06 GMT 34.648499 29.367409 30,000 302 477 0
2019-09-18 21:31:55 GMT 34.636139 29.391735 30,000 302 476 0
2019-09-18 21:31:45 GMT 34.624435 29.414921 30,000 302 475 0
2019-09-18 21:31:34 GMT 34.611786 29.439884 30,000 302 474 0
2019-09-18 21:31:24 GMT 34.600388 29.462360 30,000 302 474 0
2019-09-18 21:31:14 GMT 34.587753 29.487247 30,000 302 474 0
2019-09-18 21:31:01 GMT 34.572006 29.518246 30,000 302 474 0
2019-09-18 21:30:52 GMT 34.563641 29.534740 30,000 302 473 0
2019-09-18 21:30:43 GMT 34.551407 29.558661 30,000 302 473 0
2019-09-18 21:30:27 GMT 34.534607 29.591562 30,000 302 473 0
2019-09-18 21:30:19 GMT 34.524261 29.611855 30,000 302 473 0
2019-09-18 21:30:13 GMT 34.518158 29.623775 30,000 302 473 0
2019-09-18 21:30:10 GMT 34.515427 29.629230 30,000 302 473 0
2019-09-18 21:30:01 GMT 34.502884 29.653725 30,000 302 472 0
2019-09-18 21:29:50 GMT 34.491302 29.676483 30,000 302 472 0
2019-09-18 21:29:39 GMT 34.477661 29.703163 30,000 302 470 0
2019-09-18 21:29:26 GMT 34.464981 29.728050 30,000 302 470 0
2019-09-18 21:29:05 GMT 34.440556 29.775696 30,000 302 470 0
2019-09-18 21:28:54 GMT 34.427856 29.800470 30,000 302 469 0
2019-09-18 21:28:41 GMT 34.412292 29.830740 30,000 302 468 0
2019-09-18 21:28:31 GMT 34.401173 29.852314 30,000 302 468 0
2019-09-18 21:28:25 GMT 34.395027 29.864330 30,000 302 466 0
2019-09-18 21:28:09 GMT 34.375946 29.901365 30,000 302 466 0
2019-09-18 21:28:04 GMT 34.368542 29.915771 30,000 302 466 0
2019-09-18 21:27:52 GMT 34.356674 29.938753 30,000 302 466 0
2019-09-18 21:27:44 GMT 34.346420 29.958652 30,000 302 465 0
2019-09-18 21:27:32 GMT 34.333740 29.983372 30,000 302 465 0
2019-09-18 21:27:23 GMT 34.324547 30.001259 30,000 302 464 0
2019-09-18 21:27:19 GMT 34.319321 30.011396 30,000 302 464 0
2019-09-18 21:27:10 GMT 34.309650 30.030155 30,000 302 464 0
2019-09-18 21:26:50 GMT 34.286591 30.074905 30,000 302 465 0
2019-09-18 21:26:39 GMT 34.274506 30.098248 30,000 302 465 0
2019-09-18 21:26:28 GMT 34.261658 30.123138 30,000 302 464 0
2019-09-18 21:26:19 GMT 34.251526 30.142673 30,000 302 464 0
2019-09-18 21:26:05 GMT 34.235447 30.173664 30,000 302 464 0
2019-09-18 21:25:57 GMT 34.226212 30.191439 30,000 302 464 0
2019-09-18 21:25:50 GMT 34.218018 30.207190 30,000 302 464 0
2019-09-18 21:25:34 GMT 34.200439 30.241013 30,000 302 464 0
2019-09-18 21:25:25 GMT 34.189266 30.262585 30,000 302 464 0
2019-09-18 21:25:15 GMT 34.178047 30.284328 30,000 302 464 0
2019-09-18 21:25:08 GMT 34.170788 30.298462 30,000 302 464 0
2019-09-18 21:25:02 GMT 34.163895 30.311852 30,000 302 464 0
2019-09-18 21:24:55 GMT 34.155075 30.329048 30,000 302 464 0
2019-09-18 21:24:48 GMT 34.148026 30.342669 30,000 302 464 0
2019-09-18 21:24:44 GMT 34.142487 30.353432 30,000 302 464 0
2019-09-18 21:24:33 GMT 34.130936 30.375881 30,000 302 464 0
2019-09-18 21:24:21 GMT 34.116714 30.403542 30,000 302 463 0
2019-09-18 21:24:17 GMT 34.113007 30.410772 30,000 302 463 0
2019-09-18 21:24:12 GMT 34.107243 30.421944 30,000 302 463 0
2019-09-18 21:24:02 GMT 34.095558 30.444546 30,000 302 463 0
2019-09-18 21:23:52 GMT 34.083160 30.468618 30,000 302 462 0
2019-09-18 21:23:21 GMT 34.049564 30.533581 30,000 302 462 0
2019-09-18 21:23:14 GMT 34.041416 30.549259 30,000 302 461 0
2019-09-18 21:23:07 GMT 34.033447 30.564751 30,000 302 461 0
2019-09-18 21:22:58 GMT 34.021679 30.587425 30,000 302 461 0
2019-09-18 21:22:46 GMT 34.003429 30.622730 30,000 302 461 0
2019-09-18 21:22:40 GMT 34.003429 30.622730 30,000 302 461 0
2019-09-18 21:22:30 GMT 33.991791 30.645161 30,000 302 460 0
2019-09-18 21:22:26 GMT 33.986023 30.656227 30,000 302 461 0
2019-09-18 21:22:19 GMT 33.979111 30.669512 30,000 302 460 0
2019-09-18 21:22:15 GMT 33.974709 30.678005 30,000 302 461 0
2019-09-18 21:22:10 GMT 33.968700 30.689507 30,000 303 462 0
2019-09-18 21:22:05 GMT 33.962746 30.701065 30,000 303 462 0
2019-09-18 21:21:55 GMT 33.952515 30.720633 30,000 303 462 0
2019-09-18 21:21:44 GMT 33.938957 30.746784 30,000 303 462 0
2019-09-18 21:21:34 GMT 33.928856 30.766125 30,000 303 462 0
2019-09-18 21:21:27 GMT 33.920475 30.782261 30,000 302 463 0
2019-09-18 21:21:18 GMT 33.909805 30.802750 30,000 303 463 0
2019-09-18 21:21:05 GMT 33.895103 30.830898 30,000 303 463 0
2019-09-18 21:21:02 GMT 33.890579 30.839632 30,000 303 463 0
2019-09-18 21:20:50 GMT 33.878128 30.863455 30,000 303 463 0
2019-09-18 21:20:42 GMT 33.867779 30.883312 30,000 303 464 0
2019-09-18 21:20:31 GMT 33.845123 30.926571 30,000 303 465 0
2019-09-18 21:20:21 GMT 33.845123 30.926571 30,000 303 465 0
2019-09-18 21:20:11 GMT 33.833004 30.949688 30,000 303 465 0
2019-09-18 21:20:00 GMT 33.820587 30.973318 30,000 303 465 0
2019-09-18 21:19:50 GMT 33.808136 30.997141 30,000 303 466 0
2019-09-18 21:19:38 GMT 33.795868 31.020571 30,000 303 466 0
2019-09-18 21:19:29 GMT 33.784401 31.042500 30,000 303 466 0
2019-09-18 21:19:18 GMT 33.772579 31.065044 30,000 303 466 0
2019-09-18 21:19:08 GMT 33.759705 31.089571 30,000 303 466 0
2019-09-18 21:18:56 GMT 33.747765 31.112366 30,000 303 466 0
2019-09-18 21:18:52 GMT 33.743713 31.119976 30,000 303 466 0
2019-09-18 21:18:46 GMT 33.736313 31.134022 30,000 303 466 0
2019-09-18 21:18:41 GMT 33.731049 31.144110 30,000 303 467 0
2019-09-18 21:18:35 GMT 33.723999 31.157452 30,000 303 467 0
2019-09-18 21:18:23 GMT 33.709213 31.185534 30,000 303 467 0
2019-09-18 21:17:05 GMT 33.619308 31.355597 30,000 303 470 0
2019-09-18 21:16:59 GMT 33.612812 31.367912 30,000 303 470 0
2019-09-18 21:16:30 GMT 33.577835 31.433958 30,000 303 471 0
2019-09-18 21:16:18 GMT 33.564377 31.459238 30,000 303 470 0
2019-09-18 21:15:12 GMT 33.487106 31.604534 30,000 303 472 0
2019-09-18 21:15:02 GMT 33.475018 31.627228 30,000 303 472 0
2019-09-18 21:11:29 GMT 33.225262 32.092522 30,000 303 471 0
2019-09-18 21:11:26 GMT 33.220749 32.100819 30,000 303 472 0
2019-09-18 21:11:18 GMT 33.211258 32.118313 30,000 303 473 0
2019-09-18 21:11:04 GMT 33.195282 32.147919 30,000 303 473 0
2019-09-18 21:10:54 GMT 33.183563 32.169617 30,000 303 473 0
2019-09-18 21:10:46 GMT 33.173859 32.187580 30,000 303 473 0
2019-09-18 21:10:33 GMT 33.157928 32.216969 30,000 303 473 0
2019-09-18 21:10:18 GMT 33.134171 32.260857 30,000 303 474 0
2019-09-18 21:10:13 GMT 33.134171 32.260857 30,000 303 474 0
2019-09-18 21:09:43 GMT 33.098648 32.326225 30,000 303 475 0
2019-09-18 21:08:15 GMT 32.993526 32.519028 30,000 303 474 0
2019-09-18 21:07:41 GMT 32.948547 32.601322 30,000 303 474 0
2019-09-18 21:07:37 GMT 32.948547 32.601322 30,000 304 474 0
2019-09-18 21:07:27 GMT 32.936234 32.623844 30,000 303 475 0
2019-09-18 21:07:15 GMT 32.922535 32.648788 30,000 303 475 0
2019-09-18 21:07:04 GMT 32.909363 32.672844 30,000 303 475 -64
2019-09-18 21:06:55 GMT 32.897919 32.693665 30,025 304 476 -64
2019-09-18 21:06:45 GMT 32.885788 32.715748 30,025 304 477 -64
2019-09-18 21:06:34 GMT 32.872742 32.739532 30,000 304 479 192
2019-09-18 21:06:23 GMT 32.859970 32.762768 29,900 304 481 1024
2019-09-18 21:06:14 GMT 32.847771 32.784885 29,675 304 481 1280
2019-09-18 21:05:22 GMT 32.785530 32.897774 28,725 304 477 1088
2019-09-18 21:05:10 GMT 32.770889 32.924267 28,500 304 475 1024
2019-09-18 21:05:00 GMT 32.758717 32.946316 28,350 304 474 960
2019-09-18 21:04:49 GMT 32.746033 32.969364 28,175 304 472 1024
2019-09-18 21:04:40 GMT 32.734177 32.990791 28,000 304 470 1024
2019-09-18 21:04:29 GMT 32.721519 33.013691 27,825 304 469 832
2019-09-18 21:04:06 GMT 32.693756 33.063740 27,450 304 465 1216
2019-09-18 21:03:52 GMT 32.676182 33.095417 27,175 304 462 1088
2019-09-18 21:03:41 GMT 32.664413 33.116528 27,000 304 461 1088
2019-09-18 21:03:32 GMT 32.653976 33.135262 26,825 304 459 1280
2019-09-18 21:03:21 GMT 32.640518 33.159485 26,575 304 459 1408
2019-09-18 21:03:08 GMT 32.626190 33.185249 26,275 304 458 1408
2019-09-18 21:03:01 GMT 32.616966 33.201805 26,050 304 457 1344
2019-09-18 21:02:50 GMT 32.604397 33.224396 25,875 304 456 1216
2019-09-18 21:02:40 GMT 32.592804 33.245247 25,675 304 454 1088
2019-09-18 21:02:34 GMT 32.587124 33.255390 25,575 304 454 1088
2019-09-18 21:02:24 GMT 32.574646 33.277752 25,375 304 451 1216
2019-09-18 21:02:12 GMT 32.560181 33.303680 25,125 304 450 1216
2019-09-18 21:02:05 GMT 32.553406 33.315819 25,000 304 449 1280
2019-09-18 21:01:54 GMT 32.540943 33.338123 24,750 304 447 1408
2019-09-18 21:01:41 GMT 32.526352 33.364269 24,450 304 446 1408
2019-09-18 21:01:33 GMT 32.516922 33.381187 24,100 304 445 1344
2019-09-18 21:01:23 GMT 32.503372 33.405357 24,000 304 443 1344
2019-09-18 21:01:11 GMT 32.491699 33.426178 23,775 304 442 1280
2019-09-18 21:00:59 GMT 32.478428 33.449894 23,500 304 440 1408
2019-09-18 21:00:49 GMT 32.466835 33.470577 23,250 304 439 1600
2019-09-18 21:00:46 GMT 32.463226 33.476990 23,175 304 439 1536
2019-09-18 21:00:36 GMT 32.451797 33.497429 22,900 304 438 1472
2019-09-18 21:00:26 GMT 32.440247 33.517967 22,650 304 437 1472
2019-09-18 21:00:17 GMT 32.431320 33.533955 22,450 304 436 1600
2019-09-18 21:00:14 GMT 32.426147 33.543072 22,325 304 436 1664
2019-09-18 21:00:05 GMT 32.418236 33.557178 22,125 304 435 1664
2019-09-18 21:00:02 GMT 32.414017 33.564716 22,000 304 435 1728
2019-09-18 20:59:56 GMT 32.407608 33.576031 21,825 304 435 1792
2019-09-18 20:59:51 GMT 32.401154 33.587513 21,650 304 435 1856
2019-09-18 20:59:46 GMT 32.396679 33.595463 21,550 304 435 1792
2019-09-18 20:59:35 GMT 32.384529 33.617100 21,200 304 436 1728
2019-09-18 20:59:22 GMT 32.368004 33.646469 20,800 304 435 1728
2019-09-18 20:59:12 GMT 32.357903 33.664520 20,525 304 435 1728
2019-09-18 20:59:04 GMT 32.349564 33.679359 20,325 304 433 1728
2019-09-18 20:58:53 GMT 32.337708 33.700508 20,000 304 433 1664
2019-09-18 20:58:43 GMT 32.326015 33.721413 19,725 304 432 1600
2019-09-18 20:58:32 GMT 32.315002 33.741100 19,475 304 430 1408
2019-09-18 20:58:22 GMT 32.303623 33.761436 19,225 304 427 1472
2019-09-18 20:58:11 GMT 32.292023 33.782082 18,975 304 425 1408
2019-09-18 20:58:01 GMT 32.280392 33.802746 18,725 304 423 1536
2019-09-18 20:57:50 GMT 32.269043 33.822895 18,375 304 421 1664
2019-09-18 20:57:43 GMT 32.261074 33.837051 18,375 304 421 1664
2019-09-18 20:57:40 GMT 32.257488 33.843327 18,125 304 419 1664
2019-09-18 20:57:27 GMT 32.242966 33.868999 17,700 304 418 2048
2019-09-18 20:57:18 GMT 32.232491 33.887386 17,400 304 418 1984
2019-09-18 20:57:07 GMT 32.221619 33.906281 17,075 305 417 1664
2019-09-18 20:56:55 GMT 32.209534 33.927155 16,850 305 415 1472
2019-09-18 20:56:45 GMT 32.197769 33.947262 16,525 305 413 1728
2019-09-18 20:56:33 GMT 32.185501 33.968136 16,200 305 410 1600
2019-09-18 20:56:23 GMT 32.174625 33.986431 15,950 305 408 1216
2019-09-18 20:56:13 GMT 32.163780 34.005096 15,725 304 403 1600
2019-09-18 20:56:03 GMT 32.153549 34.024273 15,400 302 401 1856
2019-09-18 20:55:52 GMT 32.143528 34.043716 15,125 302 399 1600
2019-09-18 20:55:44 GMT 32.135288 34.059746 14,875 302 397 1536
2019-09-18 20:55:34 GMT 32.125278 34.079197 14,575 302 395 1856
2019-09-18 20:55:29 GMT 32.121185 34.087158 14,450 302 395 2176
2019-09-18 20:55:22 GMT 32.115051 34.099148 14,200 302 395 2304
2019-09-18 20:55:13 GMT 32.105713 34.117382 13,825 302 395 2048
2019-09-18 20:55:03 GMT 32.095779 34.136719 13,475 302 393 1984
2019-09-18 20:54:52 GMT 32.086411 34.155094 13,150 301 392 1856
2019-09-18 20:54:30 GMT 32.058197 34.212467 12,400 298 377 896
2019-09-18 20:54:21 GMT 32.054150 34.223812 12,400 291 367 960
2019-09-18 20:54:16 GMT 32.054150 34.223812 12,400 290 366 960
2019-09-18 20:54:11 GMT 32.052006 34.231155 12,325 286 361 960
2019-09-18 20:54:07 GMT 32.050598 34.236805 12,275 276 347 960
2019-09-18 20:54:01 GMT 32.047958 34.251057 12,150 278 350 960
2019-09-18 20:53:57 GMT 32.047440 34.255974 12,125 276 348 960
2019-09-18 20:53:50 GMT 32.046375 34.270393 12,000 274 341 960
2019-09-18 20:53:47 GMT 32.046112 34.275642 11,950 274 339 960
2019-09-18 20:53:40 GMT 32.045288 34.289207 11,850 274 334 960
2019-09-18 20:53:36 GMT 32.044979 34.294662 11,800 274 331 960
2019-09-18 20:53:30 GMT 32.044235 34.307777 11,675 274 326 896
2019-09-18 20:53:26 GMT 32.043869 34.313984 11,625 274 323 896
2019-09-18 20:53:18 GMT 32.043118 34.327454 11,500 274 317 896
2019-09-18 20:53:15 GMT 32.042862 34.332275 11,450 274 315 1024
2019-09-18 20:52:57 GMT 32.040985 34.365124 10,975 274 307 1728
2019-09-18 20:52:49 GMT 32.040207 34.378471 10,550 274 305 2048
2019-09-18 20:52:40 GMT 32.039474 34.390778 10,450 275 305 2304
2019-09-18 20:52:37 GMT 32.039204 34.395725 10,325 275 305 2368
2019-09-18 20:52:30 GMT 32.038414 34.408005 10,050 275 305 2368
2019-09-18 20:52:27 GMT 32.037964 34.415001 9,900 275 306 2368
2019-09-18 20:52:20 GMT 32.037392 34.424816 9,675 274 306 2112
2019-09-18 20:52:17 GMT 32.037064 34.430649 9,550 274 305 1792
2019-09-18 20:52:09 GMT 32.036461 34.442249 9,400 274 302 1216
2019-09-18 20:52:06 GMT 32.036133 34.448643 9,325 274 298 896
2019-09-18 20:51:59 GMT 32.035622 34.459347 9,225 274 294 896
2019-09-18 20:51:55 GMT 32.035294 34.466187 9,175 274 291 1024
2019-09-18 20:51:50 GMT 32.034878 34.474258 9,025 274 288 1472
2019-09-18 20:51:46 GMT 32.034504 34.481770 8,875 274 286 2112
2019-09-18 20:51:38 GMT 32.033943 34.491745 8,625 274 287 3008
2019-09-18 20:51:34 GMT 32.033524 34.498940 8,475 274 289 3392
2019-09-18 20:51:25 GMT 32.032745 34.512779 7,775 274 297 2496
2019-09-18 20:51:16 GMT 32.032036 34.529301 7,225 273 303 2432
2019-09-18 20:51:07 GMT 32.031479 34.542362 7,125 273 303 2624
2019-09-18 20:51:03 GMT 32.031105 34.551273 6,925 273 303 2048
2019-09-18 20:50:55 GMT 32.030407 34.569210 6,600 273 299 1600
2019-09-18 20:50:44 GMT 32.029987 34.580254 6,425 273 296 1600
2019-09-18 20:50:34 GMT 32.029289 34.596619 6,125 274 292 1664
2019-09-18 20:50:27 GMT 32.028625 34.608143 5,925 275 288 2112
2019-09-18 20:50:23 GMT 32.028267 34.613323 5,800 276 289 2432
2019-09-18 20:50:14 GMT 32.026917 34.626495 5,475 281 290 2176
2019-09-18 20:50:09 GMT 32.025375 34.635937 5,250 283 289 2048
2019-09-18 20:50:06 GMT 32.024689 34.639671 5,175 285 288 1984
2019-09-18 20:50:03 GMT 32.023518 34.644825 5,075 287 287 1792
2019-09-18 20:49:56 GMT 32.020157 34.656975 4,875 291 282 1280
2019-09-18 20:49:52 GMT 32.019241 34.659889 4,825 291 281 1216
2019-09-18 20:49:47 GMT 32.016254 34.669151 4,675 291 275 1344
2019-09-18 20:49:43 GMT 32.014347 34.675037 4,600 291 271 1216
2019-09-18 20:49:39 GMT 32.012192 34.681698 4,500 291 268 1344
2019-09-18 20:49:35 GMT 32.011505 34.683727 4,475 292 267 1344
2019-09-18 20:49:32 GMT 32.009857 34.688892 4,375 291 265 1536
2019-09-18 20:49:28 GMT 32.007980 34.694550 4,275 291 262 1472
2019-09-18 20:49:22 GMT 32.004990 34.703735 4,125 291 257 1152
2019-09-18 20:49:16 GMT 32.002716 34.710808 4,025 291 251 1024
2019-09-18 20:49:12 GMT 32.001404 34.714947 3,975 291 249 960
2019-09-18 20:49:08 GMT 31.999191 34.721905 3,900 290 240 1024
2019-09-18 20:49:03 GMT 31.997959 34.726048 3,825 290 241 1024
2019-09-18 20:49:00 GMT 31.996674 34.730366 3,775 289 237 896
2019-09-18 20:48:57 GMT 31.995586 34.734062 3,750 288 233 704
2019-09-18 20:48:49 GMT 31.993423 34.742668 3,525 279 227 960
2019-09-18 20:48:46 GMT 31.992746 34.747066 3,575 277 226 1024
2019-09-18 20:48:40 GMT 31.992420 34.755867 3,400 266 224 1792
2019-09-18 20:48:37 GMT 31.992653 34.760124 3,300 263 225 1728
2019-09-18 20:48:29 GMT 31.993835 34.767994 3,150 257 221 1344
2019-09-18 20:48:24 GMT 31.995255 34.775024 3,000 256 215 1728
2019-09-18 20:48:18 GMT 31.996424 34.780807 2,925 257 218 1472
2019-09-18 20:48:12 GMT 31.998871 34.792107 2,125 256 210 1920
2019-09-18 20:48:09 GMT 31.998871 34.792107 2,600 256 214 1856
2019-09-18 20:48:02 GMT 32.000427 34.799137 2,375 256 213 1984
2019-09-18 20:47:58 GMT 32.001434 34.803753 2,250 256 213 1792
2019-09-18 20:47:53 GMT 32.002708 34.809620 2,075 256 211 1792
2019-09-18 20:47:47 GMT 32.003952 34.815178 1,925 256 210 2048
2019-09-18 20:47:44 GMT 32.005005 34.819847 1,775 256 209 2112
2019-09-18 20:47:41 GMT 32.005642 34.822681 1,675 256 207 2176
2019-09-18 20:47:37 GMT 32.006618 34.827221 1,525 256 206 2304
2019-09-18 20:47:32 GMT 32.007751 34.832428 1,400 256 206 2304
2019-09-18 20:47:26 GMT 32.008942 34.838085 1,125 257 203 2304
2019-09-18 20:47:17 GMT 32.011093 34.849403 700 260 200 2496
2019-09-18 20:46:49 GMT 32.015602 34.878735 150 260 179 0
2019-09-18 20:46:45 GMT 32.015991 34.881371 175 260 145 0
2019-09-18 20:46:40 GMT 32.016541 34.884834 175 260 126 64
2019-09-18 20:46:35 GMT 32.017139 34.888653 175 260 106 64
2019-09-18 20:46:30 GMT 32.017525 34.891315 0 258 86
2019-09-18 20:46:25 GMT 32.017906 34.893883 0 258 59
2019-09-18 20:46:21 GMT 32.018150 34.895466 0 258 35
2019-09-18 20:46:13 GMT 32.018291 34.896423 0 261 9
2019-09-18 20:46:09 GMT 32.018314 34.896614 0 261 2
2019-09-18 20:46:00 GMT 32.018326 34.896656 0 261 0
2019-09-18 20:45:53 GMT 32.018326 34.896671 0 261 5
2019-09-18 20:45:49 GMT 32.018337 34.896782 0 261 7
2019-09-18 20:45:42 GMT 32.018394 34.897034 0 272 9
2019-09-18 20:45:39 GMT 32.018444 34.897160 0 289 9
2019-09-18 20:45:33 GMT 32.018394 34.897484 0 329 11
2019-09-18 20:45:29 GMT 32.018280 34.897617 0 345 11
2019-09-18 20:45:22 GMT 32.017914 34.897713 0 19 12
2019-09-18 20:45:18 GMT 32.017765 34.897659 0 28 13
2019-09-18 20:45:11 GMT 32.017395 34.897427 0 28 11
2019-09-18 20:45:08 GMT 32.017258 34.897343 0 28 10
2019-09-18 20:45:02 GMT 32.016987 34.897175 0 28 8
2019-09-18 20:44:58 GMT 32.016895 34.897110 0 30 7
2019-09-18 20:44:51 GMT 32.016720 34.897007 0 33 5
2019-09-18 20:44:47 GMT 32.016651 34.896950 0 36 4
2019-09-18 20:44:39 GMT 32.016560 34.896881 0 39 0
2019-09-18 20:44:29 GMT 32.016521 34.896851 0 39 0
2019-09-18 20:44:25 GMT 32.016521 34.896839 0 39 0
2019-09-18 20:44:20 GMT 32.016510 34.896839 0 39 0
2019-09-18 20:44:15 GMT 32.016518 34.896835 0 39 0
2019-09-18 20:44:05 GMT 32.016510 34.896839 0 39 0
2019-09-18 20:43:55 GMT 32.016518 34.896851 0 39 0
2019-09-18 20:43:35 GMT 32.016510 34.896839 0 39 0
2019-09-18 20:42:45 GMT 32.016518 34.896851 0 39 0
2019-09-18 20:42:30 GMT 32.016510 34.896839 0 39 0
2019-09-18 20:42:25 GMT 32.016518 34.896851 0 39 0
2019-09-18 20:42:15 GMT 32.016510 34.896839 0 39 0
2019-09-18 20:42:04 GMT 32.016518 34.896851 0 39 0
2019-09-18 20:41:53 GMT 32.016441 34.896809 0 45 4
2019-09-18 20:41:43 GMT 32.016300 34.896698 0 67 5
2019-09-18 20:41:35 GMT 32.016197 34.896465 0 78 8
2019-09-18 20:41:23 GMT 32.016113 34.895927 0 81 10
2019-09-18 20:41:13 GMT 32.016045 34.895466 0 78 18
2019-09-18 20:41:04 GMT 32.015934 34.894733 0 78 18
2019-09-18 20:40:53 GMT 32.015789 34.893784 0 78 18
2019-09-18 20:40:42 GMT 32.015636 34.892799 0 81 17
2019-09-18 20:40:32 GMT 32.015488 34.891850 0 78 18
2019-09-18 20:40:22 GMT 32.015350 34.890930 0 81 18
2019-09-18 20:40:11 GMT 32.015198 34.889874 0 78 18
2019-09-18 20:40:02 GMT 32.015053 34.888981 0 78 19
2019-09-18 20:39:51 GMT 32.014858 34.887913 0 73 18
2019-09-18 20:39:40 GMT 32.014572 34.886990 0 64 18
2019-09-18 20:39:31 GMT 32.014194 34.886120 0 56 17
2019-09-18 20:39:20 GMT 32.013763 34.885403 0 50 16
2019-09-18 20:39:09 GMT 32.013229 34.884674 0 42 15
2019-09-18 20:38:59 GMT 32.012741 34.884174 0 36 15
2019-09-18 20:38:48 GMT 32.012180 34.883709 0 30 14
2019-09-18 20:38:39 GMT 32.011646 34.883316 0 30 14
2019-09-18 20:38:27 GMT 32.010994 34.882866 0 33 18
2019-09-18 20:38:16 GMT 32.010212 34.882294 0 30 16
2019-09-18 20:38:06 GMT 32.009571 34.881824 0 30 14
2019-09-18 20:37:56 GMT 32.009087 34.881493 0 30 14
2019-09-18 20:37:46 GMT 32.008518 34.881084 0 30 16
2019-09-18 20:37:34 GMT 32.007679 34.880486 0 30 19
2019-09-18 20:37:03 GMT 32.005733 34.879082 0 30 12
2019-09-18 20:36:54 GMT 32.005325 34.878803 0 30 12
2019-09-18 20:36:45 GMT 32.004856 34.878460 0 30 13
2019-09-18 20:36:33 GMT 32.004295 34.878063 0 30 13
2019-09-18 20:36:24 GMT 32.003860 34.877747 0 30 12
2019-09-18 20:36:13 GMT 32.003334 34.877361 0 30 11
2019-09-18 20:36:03 GMT 32.002953 34.877110 0 30 11
2019-09-18 20:35:52 GMT 32.002533 34.876801 0 30 10
2019-09-18 20:35:42 GMT 32.002159 34.876518 0 30 9
2019-09-18 20:35:32 GMT 32.001801 34.876278 0 30 8
2019-09-18 20:35:21 GMT 32.001499 34.876057 0 30 6
2019-09-18 20:35:11 GMT 32.001308 34.875919 0 30 4
2019-09-18 20:34:57 GMT 32.001160 34.875816 0 30 0
2019-09-18 20:34:47 GMT 32.001137 34.875805 0 30 0
2019-09-18 20:34:37 GMT 32.001137 34.875809 0 30 0
2019-09-18 20:34:27 GMT 32.001137 34.875816 0 30 0
2019-09-18 20:34:17 GMT 32.001137 34.875809 0 30 0
2019-09-18 20:34:07 GMT 32.001137 34.875816 0 30 0
2019-09-18 20:33:46 GMT 32.001137 34.875809 0 30 0
2019-09-18 20:33:08 GMT 32.001137 34.875816 0 30 0
2019-09-18 20:32:57 GMT 32.001137 34.875809 0 30 0
2019-09-18 20:32:22 GMT 32.001137 34.875816 0 30 0
2019-09-18 20:32:12 GMT 32.001137 34.875809 0 30 0
2019-09-18 20:32:02 GMT 32.001137 34.875816 0 30 0
2019-09-18 20:31:52 GMT 32.001137 34.875809 0 30 0
2019-09-18 20:31:42 GMT 32.001137 34.875816 0 30 0
2019-09-18 20:31:22 GMT 32.001137 34.875809 0 30 0
2019-09-18 20:31:03 GMT 32.001137 34.875816 0 30 0
2019-09-18 20:30:53 GMT 32.001137 34.875809 0 30 0
2019-09-18 20:30:42 GMT 32.001148 34.875816 0 30 2
2019-09-18 20:30:31 GMT 32.001240 34.875908 0 33 4
2019-09-18 20:30:21 GMT 32.001392 34.875999 0 30 4
2019-09-18 20:30:11 GMT 32.001514 34.876057 0 25 3
2019-09-18 20:30:01 GMT 32.001614 34.876015 0 8 4
2019-09-18 20:29:51 GMT 32.001720 34.875900 0 345 3
2019-09-18 20:29:41 GMT 32.001789 34.875774 0 326 3
2019-09-18 20:29:29 GMT 32.001835 34.875622 0 309 3
2019-09-18 20:29:19 GMT 32.001835 34.875481 0 292 3
2019-09-18 20:29:09 GMT 32.001778 34.875328 0 272 3
2019-09-18 20:28:56 GMT 32.001705 34.875175 0 255 3
2019-09-18 20:28:49 GMT 32.001682 34.875061 0 255 3
2019-09-18 20:27:48 GMT 32.001675 34.874924 0 261 0

Making use of Plane Finder data

You are free to use the raw flight data, aircraft information and images provided in this report for your own purposes provided the data is correctly attributed to Plane Finder. We ask that you please credit Plane Finder and link to planefinder.net in close proximity to the content.

Optionally one of the following logos (no smaller then 150x24px) can be used and must link to planefinder.net

Embedding the Plane Finder map

You are welcome to embed the Plane Finder playback map on your website to offer visitors a more interactive experience. We suggest using the following HTML code:

<iframe src="//planefinder.net/data/report/UA91-N2639U-7700-squawk-2019-09-19/map" width="800" height="600" seamless="seamless"></iframe>

Where our data comes from

Plane Finder has a global network of data feeds and antenna radars that receive data broadcast directly from aircraft. The primary technologies used are ADS-B and MLAT. We also show feeds from the FAA and a FLARM glider feed.

Click here to find out more about the Plane Finder network.

How we collect our data